<?xml version="1.0" encoding="UTF-8" standalone="no" ?>
<gpx xmlns="http://www.topografix.com/GPX/1/1" xmlns:xsi="http://www.w3.org/2001/XMLSchema-instance" xsi:schemaLocation="http://www.topografix.com/GPX/1/1 http://www.topografix.com/GPX/1/1/gpx.xsd" version="1.1" creator="VisuGPX - https://www.visugpx.com">
  <metadata>
    <name>Flainval Cyclo</name>
  </metadata>
  <trk>
    <name><![CDATA[Flainval Cyclo_1]]></name>
    <trkseg>
      <trkpt lat="48.61895" lon="6.39769">
        <ele>235</ele>
        <time>2022-03-03T11:39:52Z</time>
      </trkpt>
      <trkpt lat="48.61895" lon="6.39767">
        <ele>333.4</ele>
        <time>2022-03-03T11:39:53Z</time>
      </trkpt>
      <trkpt lat="48.61894" lon="6.39765">
        <ele>333.4</ele>
        <time>2022-03-03T11:39:54Z</time>
      </trkpt>
      <trkpt lat="48.61893" lon="6.39762">
        <ele>333.4</ele>
        <time>2022-03-03T11:39:55Z</time>
      </trkpt>
      <trkpt lat="48.61891" lon="6.39755">
        <ele>235.2</ele>
        <time>2022-03-03T11:39:57Z</time>
      </trkpt>
      <trkpt lat="48.6189" lon="6.39752">
        <ele>235.2</ele>
        <time>2022-03-03T11:39:58Z</time>
      </trkpt>
      <trkpt lat="48.61877" lon="6.39718">
        <ele>235.8</ele>
        <time>2022-03-03T11:40:07Z</time>
      </trkpt>
      <trkpt lat="48.61867" lon="6.39691">
        <ele>237</ele>
        <time>2022-03-03T11:40:14Z</time>
      </trkpt>
      <trkpt lat="48.61858" lon="6.39665">
        <ele>237.8</ele>
        <time>2022-03-03T11:40:21Z</time>
      </trkpt>
      <trkpt lat="48.61848" lon="6.39641">
        <ele>239.2</ele>
        <time>2022-03-03T11:40:29Z</time>
      </trkpt>
      <trkpt lat="48.61831" lon="6.39617">
        <ele>241</ele>
        <time>2022-03-03T11:40:37Z</time>
      </trkpt>
      <trkpt lat="48.61813" lon="6.39603">
        <ele>242</ele>
        <time>2022-03-03T11:40:45Z</time>
      </trkpt>
      <trkpt lat="48.6179" lon="6.39606">
        <ele>242.8</ele>
        <time>2022-03-03T11:40:53Z</time>
      </trkpt>
      <trkpt lat="48.61769" lon="6.3961">
        <ele>243.4</ele>
        <time>2022-03-03T11:41:00Z</time>
      </trkpt>
      <trkpt lat="48.61742" lon="6.39608">
        <ele>244.6</ele>
        <time>2022-03-03T11:41:07Z</time>
      </trkpt>
      <trkpt lat="48.61719" lon="6.39599">
        <ele>246.4</ele>
        <time>2022-03-03T11:41:16Z</time>
      </trkpt>
      <trkpt lat="48.617" lon="6.39585">
        <ele>248.2</ele>
        <time>2022-03-03T11:41:25Z</time>
      </trkpt>
      <trkpt lat="48.61684" lon="6.39561">
        <ele>250.2</ele>
        <time>2022-03-03T11:41:34Z</time>
      </trkpt>
      <trkpt lat="48.61672" lon="6.39536">
        <ele>252</ele>
        <time>2022-03-03T11:41:43Z</time>
      </trkpt>
      <trkpt lat="48.61659" lon="6.3951">
        <ele>254</ele>
        <time>2022-03-03T11:41:52Z</time>
      </trkpt>
      <trkpt lat="48.61648" lon="6.39484">
        <ele>255.8</ele>
        <time>2022-03-03T11:42:01Z</time>
      </trkpt>
      <trkpt lat="48.61639" lon="6.39453">
        <ele>257.8</ele>
        <time>2022-03-03T11:42:10Z</time>
      </trkpt>
      <trkpt lat="48.61634" lon="6.39422">
        <ele>259.2</ele>
        <time>2022-03-03T11:42:18Z</time>
      </trkpt>
      <trkpt lat="48.61631" lon="6.39391">
        <ele>260.8</ele>
        <time>2022-03-03T11:42:26Z</time>
      </trkpt>
      <trkpt lat="48.61629" lon="6.3936">
        <ele>262.6</ele>
        <time>2022-03-03T11:42:35Z</time>
      </trkpt>
      <trkpt lat="48.61631" lon="6.39328">
        <ele>264.4</ele>
        <time>2022-03-03T11:42:44Z</time>
      </trkpt>
      <trkpt lat="48.61639" lon="6.39299">
        <ele>266.6</ele>
        <time>2022-03-03T11:42:53Z</time>
      </trkpt>
      <trkpt lat="48.61653" lon="6.39276">
        <ele>269</ele>
        <time>2022-03-03T11:43:02Z</time>
      </trkpt>
      <trkpt lat="48.61669" lon="6.39252">
        <ele>271</ele>
        <time>2022-03-03T11:43:12Z</time>
      </trkpt>
      <trkpt lat="48.6168" lon="6.39227">
        <ele>273</ele>
        <time>2022-03-03T11:43:21Z</time>
      </trkpt>
      <trkpt lat="48.61689" lon="6.39196">
        <ele>274.6</ele>
        <time>2022-03-03T11:43:30Z</time>
      </trkpt>
      <trkpt lat="48.6169" lon="6.39164">
        <ele>276.4</ele>
        <time>2022-03-03T11:43:39Z</time>
      </trkpt>
      <trkpt lat="48.61691" lon="6.39132">
        <ele>278</ele>
        <time>2022-03-03T11:43:47Z</time>
      </trkpt>
      <trkpt lat="48.61692" lon="6.39102">
        <ele>279.6</ele>
        <time>2022-03-03T11:43:55Z</time>
      </trkpt>
      <trkpt lat="48.617" lon="6.39074">
        <ele>280.4</ele>
        <time>2022-03-03T11:44:03Z</time>
      </trkpt>
      <trkpt lat="48.61716" lon="6.39053">
        <ele>280.4</ele>
        <time>2022-03-03T11:44:10Z</time>
      </trkpt>
      <trkpt lat="48.61734" lon="6.39031">
        <ele>280.4</ele>
        <time>2022-03-03T11:44:17Z</time>
      </trkpt>
      <trkpt lat="48.61752" lon="6.39011">
        <ele>280.4</ele>
        <time>2022-03-03T11:44:22Z</time>
      </trkpt>
      <trkpt lat="48.61774" lon="6.38986">
        <ele>280.4</ele>
        <time>2022-03-03T11:44:28Z</time>
      </trkpt>
      <trkpt lat="48.61793" lon="6.38964">
        <ele>280</ele>
        <time>2022-03-03T11:44:33Z</time>
      </trkpt>
      <trkpt lat="48.6181" lon="6.38947">
        <ele>279.8</ele>
        <time>2022-03-03T11:44:37Z</time>
      </trkpt>
      <trkpt lat="48.61828" lon="6.3893">
        <ele>279.8</ele>
        <time>2022-03-03T11:44:41Z</time>
      </trkpt>
      <trkpt lat="48.61848" lon="6.38913">
        <ele>279.4</ele>
        <time>2022-03-03T11:44:45Z</time>
      </trkpt>
      <trkpt lat="48.61869" lon="6.38894">
        <ele>279</ele>
        <time>2022-03-03T11:44:49Z</time>
      </trkpt>
      <trkpt lat="48.6189" lon="6.38874">
        <ele>278.6</ele>
        <time>2022-03-03T11:44:53Z</time>
      </trkpt>
      <trkpt lat="48.6191" lon="6.38853">
        <ele>278.2</ele>
        <time>2022-03-03T11:44:57Z</time>
      </trkpt>
      <trkpt lat="48.61931" lon="6.38833">
        <ele>277.6</ele>
        <time>2022-03-03T11:45:01Z</time>
      </trkpt>
      <trkpt lat="48.61952" lon="6.38811">
        <ele>277.2</ele>
        <time>2022-03-03T11:45:05Z</time>
      </trkpt>
      <trkpt lat="48.61974" lon="6.38786">
        <ele>276.4</ele>
        <time>2022-03-03T11:45:09Z</time>
      </trkpt>
      <trkpt lat="48.61992" lon="6.38767">
        <ele>275.6</ele>
        <time>2022-03-03T11:45:12Z</time>
      </trkpt>
      <trkpt lat="48.62011" lon="6.38746">
        <ele>275</ele>
        <time>2022-03-03T11:45:15Z</time>
      </trkpt>
      <trkpt lat="48.62034" lon="6.3872">
        <ele>274.2</ele>
        <time>2022-03-03T11:45:19Z</time>
      </trkpt>
      <trkpt lat="48.62056" lon="6.38695">
        <ele>273.4</ele>
        <time>2022-03-03T11:45:23Z</time>
      </trkpt>
      <trkpt lat="48.62077" lon="6.3867">
        <ele>272.6</ele>
        <time>2022-03-03T11:45:27Z</time>
      </trkpt>
      <trkpt lat="48.62098" lon="6.38646">
        <ele>272</ele>
        <time>2022-03-03T11:45:31Z</time>
      </trkpt>
      <trkpt lat="48.62118" lon="6.3862">
        <ele>271.4</ele>
        <time>2022-03-03T11:45:35Z</time>
      </trkpt>
      <trkpt lat="48.62137" lon="6.38592">
        <ele>270.8</ele>
        <time>2022-03-03T11:45:39Z</time>
      </trkpt>
      <trkpt lat="48.62154" lon="6.38561">
        <ele>270.4</ele>
        <time>2022-03-03T11:45:43Z</time>
      </trkpt>
      <trkpt lat="48.62169" lon="6.3853">
        <ele>269.8</ele>
        <time>2022-03-03T11:45:47Z</time>
      </trkpt>
      <trkpt lat="48.62182" lon="6.38498">
        <ele>268.6</ele>
        <time>2022-03-03T11:45:51Z</time>
      </trkpt>
      <trkpt lat="48.62187" lon="6.38479">
        <ele>268.6</ele>
        <time>2022-03-03T11:45:53Z</time>
      </trkpt>
      <trkpt lat="48.62188" lon="6.3847">
        <ele>268.6</ele>
        <time>2022-03-03T11:45:54Z</time>
      </trkpt>
      <trkpt lat="48.62189" lon="6.3846">
        <ele>268.6</ele>
        <time>2022-03-03T11:45:55Z</time>
      </trkpt>
      <trkpt lat="48.62189" lon="6.3845">
        <ele>268.2</ele>
        <time>2022-03-03T11:45:56Z</time>
      </trkpt>
      <trkpt lat="48.62187" lon="6.38431">
        <ele>267</ele>
        <time>2022-03-03T11:45:58Z</time>
      </trkpt>
      <trkpt lat="48.62185" lon="6.38422">
        <ele>266.4</ele>
        <time>2022-03-03T11:45:59Z</time>
      </trkpt>
      <trkpt lat="48.62182" lon="6.38413">
        <ele>265.8</ele>
        <time>2022-03-03T11:46:00Z</time>
      </trkpt>
      <trkpt lat="48.62178" lon="6.38395">
        <ele>264.4</ele>
        <time>2022-03-03T11:46:02Z</time>
      </trkpt>
      <trkpt lat="48.62178" lon="6.38385">
        <ele>263.8</ele>
        <time>2022-03-03T11:46:03Z</time>
      </trkpt>
      <trkpt lat="48.62178" lon="6.38375">
        <ele>262.8</ele>
        <time>2022-03-03T11:46:04Z</time>
      </trkpt>
      <trkpt lat="48.62182" lon="6.38366">
        <ele>262.2</ele>
        <time>2022-03-03T11:46:05Z</time>
      </trkpt>
      <trkpt lat="48.62187" lon="6.38357">
        <ele>261.4</ele>
        <time>2022-03-03T11:46:06Z</time>
      </trkpt>
      <trkpt lat="48.62194" lon="6.38347">
        <ele>260.6</ele>
        <time>2022-03-03T11:46:07Z</time>
      </trkpt>
      <trkpt lat="48.62204" lon="6.38335">
        <ele>259.6</ele>
        <time>2022-03-03T11:46:08Z</time>
      </trkpt>
      <trkpt lat="48.62213" lon="6.38322">
        <ele>259</ele>
        <time>2022-03-03T11:46:09Z</time>
      </trkpt>
      <trkpt lat="48.62231" lon="6.38294">
        <ele>256.4</ele>
        <time>2022-03-03T11:46:11Z</time>
      </trkpt>
      <trkpt lat="48.62247" lon="6.38262">
        <ele>252.8</ele>
        <time>2022-03-03T11:46:13Z</time>
      </trkpt>
      <trkpt lat="48.62264" lon="6.38228">
        <ele>250.6</ele>
        <time>2022-03-03T11:46:15Z</time>
      </trkpt>
      <trkpt lat="48.62283" lon="6.38197">
        <ele>248.4</ele>
        <time>2022-03-03T11:46:17Z</time>
      </trkpt>
      <trkpt lat="48.62294" lon="6.38183">
        <ele>246.8</ele>
        <time>2022-03-03T11:46:18Z</time>
      </trkpt>
      <trkpt lat="48.62305" lon="6.3817">
        <ele>244.8</ele>
        <time>2022-03-03T11:46:19Z</time>
      </trkpt>
      <trkpt lat="48.62317" lon="6.38158">
        <ele>242.4</ele>
        <time>2022-03-03T11:46:20Z</time>
      </trkpt>
      <trkpt lat="48.62329" lon="6.38147">
        <ele>240.2</ele>
        <time>2022-03-03T11:46:21Z</time>
      </trkpt>
      <trkpt lat="48.62353" lon="6.38125">
        <ele>237.4</ele>
        <time>2022-03-03T11:46:23Z</time>
      </trkpt>
      <trkpt lat="48.62377" lon="6.38103">
        <ele>235.2</ele>
        <time>2022-03-03T11:46:25Z</time>
      </trkpt>
      <trkpt lat="48.62401" lon="6.38085">
        <ele>233</ele>
        <time>2022-03-03T11:46:27Z</time>
      </trkpt>
      <trkpt lat="48.62436" lon="6.38059">
        <ele>229.6</ele>
        <time>2022-03-03T11:46:30Z</time>
      </trkpt>
      <trkpt lat="48.62447" lon="6.38047">
        <ele>228.6</ele>
        <time>2022-03-03T11:46:31Z</time>
      </trkpt>
      <trkpt lat="48.62456" lon="6.38034">
        <ele>227.4</ele>
        <time>2022-03-03T11:46:32Z</time>
      </trkpt>
      <trkpt lat="48.62465" lon="6.38021">
        <ele>226.2</ele>
        <time>2022-03-03T11:46:33Z</time>
      </trkpt>
      <trkpt lat="48.62481" lon="6.37992">
        <ele>223.8</ele>
        <time>2022-03-03T11:46:35Z</time>
      </trkpt>
      <trkpt lat="48.62497" lon="6.37964">
        <ele>221.4</ele>
        <time>2022-03-03T11:46:37Z</time>
      </trkpt>
      <trkpt lat="48.62522" lon="6.37927">
        <ele>219.8</ele>
        <time>2022-03-03T11:46:40Z</time>
      </trkpt>
      <trkpt lat="48.62549" lon="6.37897">
        <ele>218.2</ele>
        <time>2022-03-03T11:46:43Z</time>
      </trkpt>
      <trkpt lat="48.62575" lon="6.37873">
        <ele>217</ele>
        <time>2022-03-03T11:46:46Z</time>
      </trkpt>
      <trkpt lat="48.626" lon="6.37855">
        <ele>215.8</ele>
        <time>2022-03-03T11:46:49Z</time>
      </trkpt>
      <trkpt lat="48.62624" lon="6.37837">
        <ele>214.8</ele>
        <time>2022-03-03T11:46:52Z</time>
      </trkpt>
      <trkpt lat="48.62645" lon="6.37818">
        <ele>214</ele>
        <time>2022-03-03T11:46:55Z</time>
      </trkpt>
      <trkpt lat="48.62664" lon="6.37796">
        <ele>213.8</ele>
        <time>2022-03-03T11:46:58Z</time>
      </trkpt>
      <trkpt lat="48.62684" lon="6.37777">
        <ele>212.8</ele>
        <time>2022-03-03T11:47:01Z</time>
      </trkpt>
      <trkpt lat="48.62705" lon="6.37761">
        <ele>212.4</ele>
        <time>2022-03-03T11:47:04Z</time>
      </trkpt>
      <trkpt lat="48.6273" lon="6.37743">
        <ele>211.8</ele>
        <time>2022-03-03T11:47:08Z</time>
      </trkpt>
      <trkpt lat="48.6275" lon="6.37731">
        <ele>211.2</ele>
        <time>2022-03-03T11:47:11Z</time>
      </trkpt>
      <trkpt lat="48.62778" lon="6.37717">
        <ele>210.6</ele>
        <time>2022-03-03T11:47:15Z</time>
      </trkpt>
      <trkpt lat="48.62805" lon="6.37704">
        <ele>210.8</ele>
        <time>2022-03-03T11:47:19Z</time>
      </trkpt>
      <trkpt lat="48.62832" lon="6.37691">
        <ele>210.6</ele>
        <time>2022-03-03T11:47:23Z</time>
      </trkpt>
      <trkpt lat="48.62856" lon="6.37672">
        <ele>210.2</ele>
        <time>2022-03-03T11:47:27Z</time>
      </trkpt>
      <trkpt lat="48.6288" lon="6.37651">
        <ele>209.8</ele>
        <time>2022-03-03T11:47:31Z</time>
      </trkpt>
      <trkpt lat="48.62903" lon="6.37631">
        <ele>209.4</ele>
        <time>2022-03-03T11:47:35Z</time>
      </trkpt>
      <trkpt lat="48.62928" lon="6.37614">
        <ele>209.2</ele>
        <time>2022-03-03T11:47:39Z</time>
      </trkpt>
      <trkpt lat="48.62953" lon="6.37598">
        <ele>209</ele>
        <time>2022-03-03T11:47:43Z</time>
      </trkpt>
      <trkpt lat="48.62979" lon="6.37582">
        <ele>208.8</ele>
        <time>2022-03-03T11:47:47Z</time>
      </trkpt>
      <trkpt lat="48.6301" lon="6.37563">
        <ele>208.6</ele>
        <time>2022-03-03T11:47:52Z</time>
      </trkpt>
      <trkpt lat="48.6303" lon="6.37554">
        <ele>208.6</ele>
        <time>2022-03-03T11:47:55Z</time>
      </trkpt>
      <trkpt lat="48.63055" lon="6.37542">
        <ele>209</ele>
        <time>2022-03-03T11:47:59Z</time>
      </trkpt>
      <trkpt lat="48.63079" lon="6.37532">
        <ele>209</ele>
        <time>2022-03-03T11:48:03Z</time>
      </trkpt>
      <trkpt lat="48.63102" lon="6.37523">
        <ele>209.2</ele>
        <time>2022-03-03T11:48:07Z</time>
      </trkpt>
      <trkpt lat="48.63125" lon="6.37514">
        <ele>209.4</ele>
        <time>2022-03-03T11:48:11Z</time>
      </trkpt>
      <trkpt lat="48.63148" lon="6.37506">
        <ele>208.8</ele>
        <time>2022-03-03T11:48:15Z</time>
      </trkpt>
      <trkpt lat="48.6317" lon="6.37498">
        <ele>208</ele>
        <time>2022-03-03T11:48:20Z</time>
      </trkpt>
      <trkpt lat="48.63176" lon="6.37496">
        <ele>207.4</ele>
        <time>2022-03-03T11:48:23Z</time>
      </trkpt>
      <trkpt lat="48.63178" lon="6.37493">
        <ele>207.4</ele>
        <time>2022-03-03T11:48:24Z</time>
      </trkpt>
      <trkpt lat="48.6318" lon="6.37489">
        <ele>207.2</ele>
        <time>2022-03-03T11:48:25Z</time>
      </trkpt>
      <trkpt lat="48.6318" lon="6.37484">
        <ele>207.2</ele>
        <time>2022-03-03T11:48:26Z</time>
      </trkpt>
      <trkpt lat="48.6318" lon="6.37478">
        <ele>207</ele>
        <time>2022-03-03T11:48:27Z</time>
      </trkpt>
      <trkpt lat="48.6318" lon="6.37471">
        <ele>207</ele>
        <time>2022-03-03T11:48:28Z</time>
      </trkpt>
      <trkpt lat="48.63178" lon="6.37449">
        <ele>207.2</ele>
        <time>2022-03-03T11:48:31Z</time>
      </trkpt>
      <trkpt lat="48.63173" lon="6.37418">
        <ele>207.6</ele>
        <time>2022-03-03T11:48:35Z</time>
      </trkpt>
      <trkpt lat="48.63167" lon="6.37383">
        <ele>207.8</ele>
        <time>2022-03-03T11:48:39Z</time>
      </trkpt>
      <trkpt lat="48.63163" lon="6.37348">
        <ele>207.6</ele>
        <time>2022-03-03T11:48:43Z</time>
      </trkpt>
      <trkpt lat="48.63159" lon="6.37312">
        <ele>207.4</ele>
        <time>2022-03-03T11:48:47Z</time>
      </trkpt>
      <trkpt lat="48.63158" lon="6.37273">
        <ele>206.6</ele>
        <time>2022-03-03T11:48:51Z</time>
      </trkpt>
      <trkpt lat="48.63157" lon="6.37232">
        <ele>206</ele>
        <time>2022-03-03T11:48:55Z</time>
      </trkpt>
      <trkpt lat="48.63155" lon="6.37211">
        <ele>206.2</ele>
        <time>2022-03-03T11:48:57Z</time>
      </trkpt>
      <trkpt lat="48.63146" lon="6.3717">
        <ele>206</ele>
        <time>2022-03-03T11:49:01Z</time>
      </trkpt>
      <trkpt lat="48.63137" lon="6.3714">
        <ele>205.4</ele>
        <time>2022-03-03T11:49:04Z</time>
      </trkpt>
      <trkpt lat="48.63128" lon="6.37109">
        <ele>205</ele>
        <time>2022-03-03T11:49:07Z</time>
      </trkpt>
      <trkpt lat="48.63115" lon="6.37069">
        <ele>204.4</ele>
        <time>2022-03-03T11:49:11Z</time>
      </trkpt>
      <trkpt lat="48.63103" lon="6.37032">
        <ele>203.6</ele>
        <time>2022-03-03T11:49:15Z</time>
      </trkpt>
      <trkpt lat="48.63091" lon="6.36994">
        <ele>203.2</ele>
        <time>2022-03-03T11:49:19Z</time>
      </trkpt>
      <trkpt lat="48.63079" lon="6.36955">
        <ele>202.8</ele>
        <time>2022-03-03T11:49:23Z</time>
      </trkpt>
      <trkpt lat="48.63069" lon="6.36925">
        <ele>202.6</ele>
        <time>2022-03-03T11:49:26Z</time>
      </trkpt>
      <trkpt lat="48.63055" lon="6.36886">
        <ele>202.4</ele>
        <time>2022-03-03T11:49:30Z</time>
      </trkpt>
      <trkpt lat="48.63042" lon="6.36847">
        <ele>202.4</ele>
        <time>2022-03-03T11:49:34Z</time>
      </trkpt>
      <trkpt lat="48.63029" lon="6.36808">
        <ele>202.2</ele>
        <time>2022-03-03T11:49:38Z</time>
      </trkpt>
      <trkpt lat="48.63016" lon="6.36769">
        <ele>202.2</ele>
        <time>2022-03-03T11:49:42Z</time>
      </trkpt>
      <trkpt lat="48.63004" lon="6.3673">
        <ele>202.2</ele>
        <time>2022-03-03T11:49:46Z</time>
      </trkpt>
      <trkpt lat="48.62992" lon="6.3669">
        <ele>202.2</ele>
        <time>2022-03-03T11:49:50Z</time>
      </trkpt>
      <trkpt lat="48.62981" lon="6.36652">
        <ele>202.4</ele>
        <time>2022-03-03T11:49:54Z</time>
      </trkpt>
      <trkpt lat="48.6297" lon="6.36613">
        <ele>202.8</ele>
        <time>2022-03-03T11:49:58Z</time>
      </trkpt>
      <trkpt lat="48.62959" lon="6.36575">
        <ele>203</ele>
        <time>2022-03-03T11:50:02Z</time>
      </trkpt>
      <trkpt lat="48.62949" lon="6.36535">
        <ele>203.4</ele>
        <time>2022-03-03T11:50:06Z</time>
      </trkpt>
      <trkpt lat="48.6294" lon="6.36496">
        <ele>203.6</ele>
        <time>2022-03-03T11:50:10Z</time>
      </trkpt>
      <trkpt lat="48.62933" lon="6.36455">
        <ele>203.4</ele>
        <time>2022-03-03T11:50:14Z</time>
      </trkpt>
      <trkpt lat="48.62926" lon="6.36414">
        <ele>203.4</ele>
        <time>2022-03-03T11:50:18Z</time>
      </trkpt>
      <trkpt lat="48.62919" lon="6.36372">
        <ele>203.2</ele>
        <time>2022-03-03T11:50:22Z</time>
      </trkpt>
      <trkpt lat="48.62914" lon="6.36339">
        <ele>203.2</ele>
        <time>2022-03-03T11:50:25Z</time>
      </trkpt>
      <trkpt lat="48.62909" lon="6.36306">
        <ele>202.8</ele>
        <time>2022-03-03T11:50:28Z</time>
      </trkpt>
      <trkpt lat="48.62903" lon="6.36272">
        <ele>202.4</ele>
        <time>2022-03-03T11:50:31Z</time>
      </trkpt>
      <trkpt lat="48.62896" lon="6.36236">
        <ele>202</ele>
        <time>2022-03-03T11:50:34Z</time>
      </trkpt>
      <trkpt lat="48.6289" lon="6.36199">
        <ele>201.6</ele>
        <time>2022-03-03T11:50:37Z</time>
      </trkpt>
      <trkpt lat="48.62883" lon="6.36164">
        <ele>201.8</ele>
        <time>2022-03-03T11:50:40Z</time>
      </trkpt>
      <trkpt lat="48.62876" lon="6.36132">
        <ele>202.4</ele>
        <time>2022-03-03T11:50:43Z</time>
      </trkpt>
      <trkpt lat="48.62865" lon="6.36093">
        <ele>202.6</ele>
        <time>2022-03-03T11:50:47Z</time>
      </trkpt>
      <trkpt lat="48.62853" lon="6.36055">
        <ele>202.8</ele>
        <time>2022-03-03T11:50:51Z</time>
      </trkpt>
      <trkpt lat="48.62842" lon="6.36016">
        <ele>202.8</ele>
        <time>2022-03-03T11:50:55Z</time>
      </trkpt>
      <trkpt lat="48.62833" lon="6.35975">
        <ele>202.6</ele>
        <time>2022-03-03T11:50:59Z</time>
      </trkpt>
      <trkpt lat="48.62826" lon="6.35934">
        <ele>202.4</ele>
        <time>2022-03-03T11:51:03Z</time>
      </trkpt>
      <trkpt lat="48.62818" lon="6.35893">
        <ele>202.6</ele>
        <time>2022-03-03T11:51:07Z</time>
      </trkpt>
      <trkpt lat="48.6281" lon="6.35854">
        <ele>202.8</ele>
        <time>2022-03-03T11:51:11Z</time>
      </trkpt>
      <trkpt lat="48.62802" lon="6.35814">
        <ele>202.4</ele>
        <time>2022-03-03T11:51:15Z</time>
      </trkpt>
      <trkpt lat="48.62791" lon="6.35776">
        <ele>202.6</ele>
        <time>2022-03-03T11:51:19Z</time>
      </trkpt>
      <trkpt lat="48.62777" lon="6.35739">
        <ele>202.8</ele>
        <time>2022-03-03T11:51:23Z</time>
      </trkpt>
      <trkpt lat="48.62764" lon="6.35705">
        <ele>203.6</ele>
        <time>2022-03-03T11:51:27Z</time>
      </trkpt>
      <trkpt lat="48.62752" lon="6.35672">
        <ele>204.2</ele>
        <time>2022-03-03T11:51:31Z</time>
      </trkpt>
      <trkpt lat="48.62741" lon="6.3564">
        <ele>205</ele>
        <time>2022-03-03T11:51:35Z</time>
      </trkpt>
      <trkpt lat="48.62731" lon="6.35608">
        <ele>205.6</ele>
        <time>2022-03-03T11:51:39Z</time>
      </trkpt>
      <trkpt lat="48.62723" lon="6.35574">
        <ele>206</ele>
        <time>2022-03-03T11:51:43Z</time>
      </trkpt>
      <trkpt lat="48.62717" lon="6.35538">
        <ele>205.8</ele>
        <time>2022-03-03T11:51:47Z</time>
      </trkpt>
      <trkpt lat="48.62714" lon="6.35501">
        <ele>205.8</ele>
        <time>2022-03-03T11:51:51Z</time>
      </trkpt>
      <trkpt lat="48.62711" lon="6.35464">
        <ele>206</ele>
        <time>2022-03-03T11:51:55Z</time>
      </trkpt>
      <trkpt lat="48.62708" lon="6.35427">
        <ele>206.2</ele>
        <time>2022-03-03T11:51:59Z</time>
      </trkpt>
      <trkpt lat="48.62707" lon="6.35399">
        <ele>206</ele>
        <time>2022-03-03T11:52:02Z</time>
      </trkpt>
      <trkpt lat="48.6271" lon="6.35361">
        <ele>206</ele>
        <time>2022-03-03T11:52:06Z</time>
      </trkpt>
      <trkpt lat="48.62716" lon="6.35326">
        <ele>205.8</ele>
        <time>2022-03-03T11:52:10Z</time>
      </trkpt>
      <trkpt lat="48.62724" lon="6.35295">
        <ele>205.4</ele>
        <time>2022-03-03T11:52:14Z</time>
      </trkpt>
      <trkpt lat="48.62728" lon="6.3528">
        <ele>205.2</ele>
        <time>2022-03-03T11:52:16Z</time>
      </trkpt>
      <trkpt lat="48.62738" lon="6.35249">
        <ele>205</ele>
        <time>2022-03-03T11:52:20Z</time>
      </trkpt>
      <trkpt lat="48.62744" lon="6.35233">
        <ele>204.8</ele>
        <time>2022-03-03T11:52:22Z</time>
      </trkpt>
      <trkpt lat="48.62756" lon="6.35196">
        <ele>203.8</ele>
        <time>2022-03-03T11:52:26Z</time>
      </trkpt>
      <trkpt lat="48.62757" lon="6.35185">
        <ele>203.6</ele>
        <time>2022-03-03T11:52:27Z</time>
      </trkpt>
      <trkpt lat="48.62759" lon="6.35145">
        <ele>202.8</ele>
        <time>2022-03-03T11:52:31Z</time>
      </trkpt>
      <trkpt lat="48.6276" lon="6.35138">
        <ele>202.6</ele>
        <time>2022-03-03T11:52:32Z</time>
      </trkpt>
      <trkpt lat="48.62763" lon="6.35133">
        <ele>202.4</ele>
        <time>2022-03-03T11:52:33Z</time>
      </trkpt>
      <trkpt lat="48.62766" lon="6.35128">
        <ele>202</ele>
        <time>2022-03-03T11:52:34Z</time>
      </trkpt>
      <trkpt lat="48.62772" lon="6.35117">
        <ele>201.8</ele>
        <time>2022-03-03T11:52:36Z</time>
      </trkpt>
      <trkpt lat="48.62774" lon="6.3511">
        <ele>201.6</ele>
        <time>2022-03-03T11:52:37Z</time>
      </trkpt>
      <trkpt lat="48.62776" lon="6.35103">
        <ele>201.6</ele>
        <time>2022-03-03T11:52:38Z</time>
      </trkpt>
      <trkpt lat="48.62777" lon="6.35094">
        <ele>201.6</ele>
        <time>2022-03-03T11:52:39Z</time>
      </trkpt>
      <trkpt lat="48.62778" lon="6.35086">
        <ele>201.4</ele>
        <time>2022-03-03T11:52:40Z</time>
      </trkpt>
      <trkpt lat="48.62778" lon="6.35077">
        <ele>201.4</ele>
        <time>2022-03-03T11:52:41Z</time>
      </trkpt>
      <trkpt lat="48.62777" lon="6.35068">
        <ele>201.4</ele>
        <time>2022-03-03T11:52:42Z</time>
      </trkpt>
      <trkpt lat="48.62776" lon="6.35059">
        <ele>201.4</ele>
        <time>2022-03-03T11:52:43Z</time>
      </trkpt>
      <trkpt lat="48.62773" lon="6.35026">
        <ele>201.6</ele>
        <time>2022-03-03T11:52:47Z</time>
      </trkpt>
      <trkpt lat="48.62771" lon="6.35001">
        <ele>202</ele>
        <time>2022-03-03T11:52:50Z</time>
      </trkpt>
      <trkpt lat="48.62772" lon="6.34993">
        <ele>202</ele>
        <time>2022-03-03T11:52:51Z</time>
      </trkpt>
      <trkpt lat="48.62775" lon="6.34986">
        <ele>202.2</ele>
        <time>2022-03-03T11:52:52Z</time>
      </trkpt>
      <trkpt lat="48.62778" lon="6.3498">
        <ele>202.2</ele>
        <time>2022-03-03T11:52:53Z</time>
      </trkpt>
      <trkpt lat="48.62781" lon="6.34973">
        <ele>202.4</ele>
        <time>2022-03-03T11:52:54Z</time>
      </trkpt>
      <trkpt lat="48.62785" lon="6.34967">
        <ele>202.4</ele>
        <time>2022-03-03T11:52:55Z</time>
      </trkpt>
      <trkpt lat="48.62787" lon="6.3496">
        <ele>202.4</ele>
        <time>2022-03-03T11:52:56Z</time>
      </trkpt>
      <trkpt lat="48.62789" lon="6.34953">
        <ele>202.4</ele>
        <time>2022-03-03T11:52:57Z</time>
      </trkpt>
      <trkpt lat="48.62789" lon="6.34946">
        <ele>202.4</ele>
        <time>2022-03-03T11:52:58Z</time>
      </trkpt>
      <trkpt lat="48.62788" lon="6.34939">
        <ele>202.4</ele>
        <time>2022-03-03T11:52:59Z</time>
      </trkpt>
      <trkpt lat="48.62787" lon="6.34931">
        <ele>202.4</ele>
        <time>2022-03-03T11:53:00Z</time>
      </trkpt>
      <trkpt lat="48.62785" lon="6.34923">
        <ele>202.4</ele>
        <time>2022-03-03T11:53:01Z</time>
      </trkpt>
      <trkpt lat="48.62779" lon="6.34892">
        <ele>202.2</ele>
        <time>2022-03-03T11:53:05Z</time>
      </trkpt>
      <trkpt lat="48.62771" lon="6.34858">
        <ele>201.8</ele>
        <time>2022-03-03T11:53:09Z</time>
      </trkpt>
      <trkpt lat="48.62769" lon="6.3484">
        <ele>201.8</ele>
        <time>2022-03-03T11:53:11Z</time>
      </trkpt>
      <trkpt lat="48.62769" lon="6.34831">
        <ele>201.8</ele>
        <time>2022-03-03T11:53:12Z</time>
      </trkpt>
      <trkpt lat="48.6277" lon="6.34823">
        <ele>201.6</ele>
        <time>2022-03-03T11:53:13Z</time>
      </trkpt>
      <trkpt lat="48.62772" lon="6.34815">
        <ele>201.6</ele>
        <time>2022-03-03T11:53:14Z</time>
      </trkpt>
      <trkpt lat="48.62775" lon="6.34807">
        <ele>201.4</ele>
        <time>2022-03-03T11:53:15Z</time>
      </trkpt>
      <trkpt lat="48.62779" lon="6.34801">
        <ele>201.4</ele>
        <time>2022-03-03T11:53:16Z</time>
      </trkpt>
      <trkpt lat="48.62783" lon="6.34796">
        <ele>201.2</ele>
        <time>2022-03-03T11:53:17Z</time>
      </trkpt>
      <trkpt lat="48.62787" lon="6.34791">
        <ele>201.2</ele>
        <time>2022-03-03T11:53:18Z</time>
      </trkpt>
      <trkpt lat="48.62798" lon="6.34775">
        <ele>201</ele>
        <time>2022-03-03T11:53:21Z</time>
      </trkpt>
      <trkpt lat="48.62801" lon="6.3477">
        <ele>200.8</ele>
        <time>2022-03-03T11:53:22Z</time>
      </trkpt>
      <trkpt lat="48.62803" lon="6.34765">
        <ele>200.8</ele>
        <time>2022-03-03T11:53:23Z</time>
      </trkpt>
      <trkpt lat="48.62808" lon="6.34753">
        <ele>200.8</ele>
        <time>2022-03-03T11:53:26Z</time>
      </trkpt>
      <trkpt lat="48.62812" lon="6.34752">
        <ele>201</ele>
        <time>2022-03-03T11:53:27Z</time>
      </trkpt>
      <trkpt lat="48.62817" lon="6.34753">
        <ele>201</ele>
        <time>2022-03-03T11:53:28Z</time>
      </trkpt>
      <trkpt lat="48.62821" lon="6.34754">
        <ele>201.2</ele>
        <time>2022-03-03T11:53:29Z</time>
      </trkpt>
      <trkpt lat="48.62826" lon="6.34755">
        <ele>201.4</ele>
        <time>2022-03-03T11:53:30Z</time>
      </trkpt>
      <trkpt lat="48.62836" lon="6.34755">
        <ele>201.8</ele>
        <time>2022-03-03T11:53:32Z</time>
      </trkpt>
      <trkpt lat="48.62841" lon="6.34755">
        <ele>202</ele>
        <time>2022-03-03T11:53:33Z</time>
      </trkpt>
      <trkpt lat="48.62845" lon="6.34754">
        <ele>202</ele>
        <time>2022-03-03T11:53:34Z</time>
      </trkpt>
      <trkpt lat="48.62849" lon="6.34751">
        <ele>202</ele>
        <time>2022-03-03T11:53:35Z</time>
      </trkpt>
      <trkpt lat="48.62853" lon="6.34749">
        <ele>202.4</ele>
        <time>2022-03-03T11:53:36Z</time>
      </trkpt>
      <trkpt lat="48.62872" lon="6.34737">
        <ele>203.4</ele>
        <time>2022-03-03T11:53:41Z</time>
      </trkpt>
      <trkpt lat="48.62892" lon="6.34724">
        <ele>204.4</ele>
        <time>2022-03-03T11:53:46Z</time>
      </trkpt>
      <trkpt lat="48.62914" lon="6.34708">
        <ele>206.2</ele>
        <time>2022-03-03T11:53:52Z</time>
      </trkpt>
      <trkpt lat="48.62933" lon="6.34693">
        <ele>206.6</ele>
        <time>2022-03-03T11:53:58Z</time>
      </trkpt>
      <trkpt lat="48.62942" lon="6.34675">
        <ele>206.4</ele>
        <time>2022-03-03T11:54:02Z</time>
      </trkpt>
      <trkpt lat="48.62943" lon="6.34668">
        <ele>206.4</ele>
        <time>2022-03-03T11:54:03Z</time>
      </trkpt>
      <trkpt lat="48.62944" lon="6.34652">
        <ele>206</ele>
        <time>2022-03-03T11:54:05Z</time>
      </trkpt>
      <trkpt lat="48.62943" lon="6.34644">
        <ele>205.8</ele>
        <time>2022-03-03T11:54:06Z</time>
      </trkpt>
      <trkpt lat="48.62936" lon="6.34608">
        <ele>205.4</ele>
        <time>2022-03-03T11:54:10Z</time>
      </trkpt>
      <trkpt lat="48.62927" lon="6.34571">
        <ele>205.2</ele>
        <time>2022-03-03T11:54:14Z</time>
      </trkpt>
      <trkpt lat="48.62917" lon="6.34534">
        <ele>205.2</ele>
        <time>2022-03-03T11:54:18Z</time>
      </trkpt>
      <trkpt lat="48.62907" lon="6.34497">
        <ele>205.6</ele>
        <time>2022-03-03T11:54:22Z</time>
      </trkpt>
      <trkpt lat="48.62897" lon="6.3446">
        <ele>205.8</ele>
        <time>2022-03-03T11:54:26Z</time>
      </trkpt>
      <trkpt lat="48.62885" lon="6.34424">
        <ele>206</ele>
        <time>2022-03-03T11:54:30Z</time>
      </trkpt>
      <trkpt lat="48.62871" lon="6.34387">
        <ele>205.2</ele>
        <time>2022-03-03T11:54:34Z</time>
      </trkpt>
      <trkpt lat="48.62861" lon="6.34357">
        <ele>204.8</ele>
        <time>2022-03-03T11:54:37Z</time>
      </trkpt>
      <trkpt lat="48.62854" lon="6.34325">
        <ele>204.2</ele>
        <time>2022-03-03T11:54:40Z</time>
      </trkpt>
      <trkpt lat="48.62852" lon="6.34313">
        <ele>204.2</ele>
        <time>2022-03-03T11:54:41Z</time>
      </trkpt>
      <trkpt lat="48.62851" lon="6.34302">
        <ele>204.2</ele>
        <time>2022-03-03T11:54:42Z</time>
      </trkpt>
      <trkpt lat="48.62851" lon="6.34291">
        <ele>204</ele>
        <time>2022-03-03T11:54:43Z</time>
      </trkpt>
      <trkpt lat="48.62853" lon="6.34256">
        <ele>203.8</ele>
        <time>2022-03-03T11:54:46Z</time>
      </trkpt>
      <trkpt lat="48.62855" lon="6.34245">
        <ele>203.8</ele>
        <time>2022-03-03T11:54:47Z</time>
      </trkpt>
      <trkpt lat="48.62862" lon="6.34212">
        <ele>204</ele>
        <time>2022-03-03T11:54:50Z</time>
      </trkpt>
      <trkpt lat="48.62869" lon="6.34181">
        <ele>204</ele>
        <time>2022-03-03T11:54:53Z</time>
      </trkpt>
      <trkpt lat="48.62879" lon="6.3414">
        <ele>203.6</ele>
        <time>2022-03-03T11:54:57Z</time>
      </trkpt>
      <trkpt lat="48.62887" lon="6.3411">
        <ele>203.8</ele>
        <time>2022-03-03T11:55:00Z</time>
      </trkpt>
      <trkpt lat="48.62898" lon="6.3407">
        <ele>204.2</ele>
        <time>2022-03-03T11:55:04Z</time>
      </trkpt>
      <trkpt lat="48.62908" lon="6.3403">
        <ele>204.2</ele>
        <time>2022-03-03T11:55:08Z</time>
      </trkpt>
      <trkpt lat="48.62918" lon="6.33991">
        <ele>204.2</ele>
        <time>2022-03-03T11:55:12Z</time>
      </trkpt>
      <trkpt lat="48.62927" lon="6.33949">
        <ele>204</ele>
        <time>2022-03-03T11:55:16Z</time>
      </trkpt>
      <trkpt lat="48.62935" lon="6.33908">
        <ele>204</ele>
        <time>2022-03-03T11:55:20Z</time>
      </trkpt>
      <trkpt lat="48.62936" lon="6.33898">
        <ele>204</ele>
        <time>2022-03-03T11:55:21Z</time>
      </trkpt>
      <trkpt lat="48.62938" lon="6.33888">
        <ele>204</ele>
        <time>2022-03-03T11:55:22Z</time>
      </trkpt>
      <trkpt lat="48.62945" lon="6.33845">
        <ele>204.4</ele>
        <time>2022-03-03T11:55:26Z</time>
      </trkpt>
      <trkpt lat="48.62954" lon="6.33805">
        <ele>204.8</ele>
        <time>2022-03-03T11:55:30Z</time>
      </trkpt>
      <trkpt lat="48.62963" lon="6.33766">
        <ele>205.2</ele>
        <time>2022-03-03T11:55:34Z</time>
      </trkpt>
      <trkpt lat="48.62973" lon="6.33726">
        <ele>205</ele>
        <time>2022-03-03T11:55:38Z</time>
      </trkpt>
      <trkpt lat="48.62981" lon="6.33695">
        <ele>204.8</ele>
        <time>2022-03-03T11:55:41Z</time>
      </trkpt>
      <trkpt lat="48.62989" lon="6.33663">
        <ele>204.4</ele>
        <time>2022-03-03T11:55:44Z</time>
      </trkpt>
      <trkpt lat="48.62996" lon="6.33631">
        <ele>204</ele>
        <time>2022-03-03T11:55:47Z</time>
      </trkpt>
      <trkpt lat="48.63003" lon="6.33599">
        <ele>204</ele>
        <time>2022-03-03T11:55:50Z</time>
      </trkpt>
      <trkpt lat="48.63011" lon="6.33566">
        <ele>203.8</ele>
        <time>2022-03-03T11:55:53Z</time>
      </trkpt>
      <trkpt lat="48.63019" lon="6.33533">
        <ele>204</ele>
        <time>2022-03-03T11:55:56Z</time>
      </trkpt>
      <trkpt lat="48.63027" lon="6.335">
        <ele>204.2</ele>
        <time>2022-03-03T11:55:59Z</time>
      </trkpt>
      <trkpt lat="48.63037" lon="6.3346">
        <ele>204.6</ele>
        <time>2022-03-03T11:56:03Z</time>
      </trkpt>
      <trkpt lat="48.63046" lon="6.33423">
        <ele>205.4</ele>
        <time>2022-03-03T11:56:07Z</time>
      </trkpt>
      <trkpt lat="48.63055" lon="6.3339">
        <ele>206.4</ele>
        <time>2022-03-03T11:56:11Z</time>
      </trkpt>
      <trkpt lat="48.63064" lon="6.33356">
        <ele>207.2</ele>
        <time>2022-03-03T11:56:15Z</time>
      </trkpt>
      <trkpt lat="48.63073" lon="6.33322">
        <ele>207.6</ele>
        <time>2022-03-03T11:56:19Z</time>
      </trkpt>
      <trkpt lat="48.63082" lon="6.33286">
        <ele>207.6</ele>
        <time>2022-03-03T11:56:23Z</time>
      </trkpt>
      <trkpt lat="48.6309" lon="6.3325">
        <ele>207.8</ele>
        <time>2022-03-03T11:56:27Z</time>
      </trkpt>
      <trkpt lat="48.63099" lon="6.33213">
        <ele>208.2</ele>
        <time>2022-03-03T11:56:31Z</time>
      </trkpt>
      <trkpt lat="48.63108" lon="6.33176">
        <ele>207.8</ele>
        <time>2022-03-03T11:56:35Z</time>
      </trkpt>
      <trkpt lat="48.63116" lon="6.33137">
        <ele>207.4</ele>
        <time>2022-03-03T11:56:39Z</time>
      </trkpt>
      <trkpt lat="48.63125" lon="6.33098">
        <ele>207</ele>
        <time>2022-03-03T11:56:43Z</time>
      </trkpt>
      <trkpt lat="48.63135" lon="6.33057">
        <ele>206.8</ele>
        <time>2022-03-03T11:56:47Z</time>
      </trkpt>
      <trkpt lat="48.63143" lon="6.33024">
        <ele>206.4</ele>
        <time>2022-03-03T11:56:50Z</time>
      </trkpt>
      <trkpt lat="48.6315" lon="6.3299">
        <ele>206</ele>
        <time>2022-03-03T11:56:53Z</time>
      </trkpt>
      <trkpt lat="48.63157" lon="6.32958">
        <ele>205.4</ele>
        <time>2022-03-03T11:56:56Z</time>
      </trkpt>
      <trkpt lat="48.63164" lon="6.32925">
        <ele>204.8</ele>
        <time>2022-03-03T11:56:59Z</time>
      </trkpt>
      <trkpt lat="48.63174" lon="6.32884">
        <ele>204.2</ele>
        <time>2022-03-03T11:57:03Z</time>
      </trkpt>
      <trkpt lat="48.6318" lon="6.32853">
        <ele>204.4</ele>
        <time>2022-03-03T11:57:06Z</time>
      </trkpt>
      <trkpt lat="48.63189" lon="6.32818">
        <ele>204.4</ele>
        <time>2022-03-03T11:57:10Z</time>
      </trkpt>
      <trkpt lat="48.63193" lon="6.32806">
        <ele>204.2</ele>
        <time>2022-03-03T11:57:12Z</time>
      </trkpt>
      <trkpt lat="48.63195" lon="6.328">
        <ele>204</ele>
        <time>2022-03-03T11:57:13Z</time>
      </trkpt>
      <trkpt lat="48.63199" lon="6.32788">
        <ele>204</ele>
        <time>2022-03-03T11:57:15Z</time>
      </trkpt>
      <trkpt lat="48.63209" lon="6.32757">
        <ele>204.4</ele>
        <time>2022-03-03T11:57:19Z</time>
      </trkpt>
      <trkpt lat="48.63219" lon="6.32725">
        <ele>204.4</ele>
        <time>2022-03-03T11:57:23Z</time>
      </trkpt>
      <trkpt lat="48.63229" lon="6.32691">
        <ele>204.2</ele>
        <time>2022-03-03T11:57:27Z</time>
      </trkpt>
      <trkpt lat="48.63241" lon="6.32656">
        <ele>204</ele>
        <time>2022-03-03T11:57:31Z</time>
      </trkpt>
      <trkpt lat="48.63254" lon="6.32621">
        <ele>204.2</ele>
        <time>2022-03-03T11:57:35Z</time>
      </trkpt>
      <trkpt lat="48.63267" lon="6.32588">
        <ele>204.2</ele>
        <time>2022-03-03T11:57:39Z</time>
      </trkpt>
      <trkpt lat="48.6328" lon="6.32556">
        <ele>204.2</ele>
        <time>2022-03-03T11:57:43Z</time>
      </trkpt>
      <trkpt lat="48.63293" lon="6.32522">
        <ele>204.2</ele>
        <time>2022-03-03T11:57:47Z</time>
      </trkpt>
      <trkpt lat="48.63305" lon="6.32492">
        <ele>204.2</ele>
        <time>2022-03-03T11:57:51Z</time>
      </trkpt>
      <trkpt lat="48.63315" lon="6.32463">
        <ele>204.2</ele>
        <time>2022-03-03T11:57:55Z</time>
      </trkpt>
      <trkpt lat="48.63325" lon="6.32428">
        <ele>204.2</ele>
        <time>2022-03-03T11:58:00Z</time>
      </trkpt>
      <trkpt lat="48.63335" lon="6.32405">
        <ele>204.2</ele>
        <time>2022-03-03T11:58:03Z</time>
      </trkpt>
      <trkpt lat="48.63338" lon="6.32397">
        <ele>204.2</ele>
        <time>2022-03-03T11:58:04Z</time>
      </trkpt>
      <trkpt lat="48.63352" lon="6.32364">
        <ele>204.4</ele>
        <time>2022-03-03T11:58:08Z</time>
      </trkpt>
      <trkpt lat="48.63364" lon="6.32328">
        <ele>204.6</ele>
        <time>2022-03-03T11:58:12Z</time>
      </trkpt>
      <trkpt lat="48.6337" lon="6.32313">
        <ele>204.6</ele>
        <time>2022-03-03T11:58:14Z</time>
      </trkpt>
      <trkpt lat="48.63373" lon="6.32306">
        <ele>204.4</ele>
        <time>2022-03-03T11:58:15Z</time>
      </trkpt>
      <trkpt lat="48.63383" lon="6.32288">
        <ele>204.4</ele>
        <time>2022-03-03T11:58:18Z</time>
      </trkpt>
      <trkpt lat="48.63403" lon="6.32261">
        <ele>204.4</ele>
        <time>2022-03-03T11:58:23Z</time>
      </trkpt>
      <trkpt lat="48.63419" lon="6.32234">
        <ele>204.4</ele>
        <time>2022-03-03T11:58:29Z</time>
      </trkpt>
      <trkpt lat="48.63422" lon="6.32229">
        <ele>204.4</ele>
        <time>2022-03-03T11:58:30Z</time>
      </trkpt>
      <trkpt lat="48.63425" lon="6.32224">
        <ele>204.4</ele>
        <time>2022-03-03T11:58:31Z</time>
      </trkpt>
      <trkpt lat="48.63428" lon="6.32221">
        <ele>204.4</ele>
        <time>2022-03-03T11:58:32Z</time>
      </trkpt>
      <trkpt lat="48.63431" lon="6.32217">
        <ele>204.4</ele>
        <time>2022-03-03T11:58:33Z</time>
      </trkpt>
      <trkpt lat="48.63434" lon="6.32214">
        <ele>204.4</ele>
        <time>2022-03-03T11:58:34Z</time>
      </trkpt>
      <trkpt lat="48.63445" lon="6.32205">
        <ele>204.4</ele>
        <time>2022-03-03T11:58:37Z</time>
      </trkpt>
      <trkpt lat="48.63449" lon="6.32205">
        <ele>204.4</ele>
        <time>2022-03-03T11:58:38Z</time>
      </trkpt>
      <trkpt lat="48.63453" lon="6.32207">
        <ele>204.4</ele>
        <time>2022-03-03T11:58:39Z</time>
      </trkpt>
      <trkpt lat="48.63457" lon="6.32209">
        <ele>204.4</ele>
        <time>2022-03-03T11:58:40Z</time>
      </trkpt>
      <trkpt lat="48.63462" lon="6.3221">
        <ele>204.4</ele>
        <time>2022-03-03T11:58:41Z</time>
      </trkpt>
      <trkpt lat="48.63467" lon="6.32207">
        <ele>204.6</ele>
        <time>2022-03-03T11:58:42Z</time>
      </trkpt>
      <trkpt lat="48.63471" lon="6.32203">
        <ele>204.6</ele>
        <time>2022-03-03T11:58:43Z</time>
      </trkpt>
      <trkpt lat="48.63475" lon="6.32197">
        <ele>205</ele>
        <time>2022-03-03T11:58:44Z</time>
      </trkpt>
      <trkpt lat="48.63478" lon="6.32192">
        <ele>205.2</ele>
        <time>2022-03-03T11:58:45Z</time>
      </trkpt>
      <trkpt lat="48.63492" lon="6.32166">
        <ele>205.8</ele>
        <time>2022-03-03T11:58:50Z</time>
      </trkpt>
      <trkpt lat="48.63496" lon="6.32161">
        <ele>206</ele>
        <time>2022-03-03T11:58:51Z</time>
      </trkpt>
      <trkpt lat="48.63512" lon="6.32139">
        <ele>207.8</ele>
        <time>2022-03-03T11:58:56Z</time>
      </trkpt>
      <trkpt lat="48.6353" lon="6.32118">
        <ele>209.6</ele>
        <time>2022-03-03T11:59:03Z</time>
      </trkpt>
      <trkpt lat="48.63548" lon="6.32095">
        <ele>212</ele>
        <time>2022-03-03T11:59:10Z</time>
      </trkpt>
      <trkpt lat="48.63557" lon="6.32059">
        <ele>213.8</ele>
        <time>2022-03-03T11:59:17Z</time>
      </trkpt>
      <trkpt lat="48.63568" lon="6.32025">
        <ele>214.2</ele>
        <time>2022-03-03T11:59:23Z</time>
      </trkpt>
      <trkpt lat="48.63578" lon="6.31992">
        <ele>214</ele>
        <time>2022-03-03T11:59:28Z</time>
      </trkpt>
      <trkpt lat="48.63586" lon="6.31961">
        <ele>213.8</ele>
        <time>2022-03-03T11:59:32Z</time>
      </trkpt>
      <trkpt lat="48.63594" lon="6.31935">
        <ele>213.6</ele>
        <time>2022-03-03T11:59:35Z</time>
      </trkpt>
      <trkpt lat="48.63596" lon="6.31926">
        <ele>213.6</ele>
        <time>2022-03-03T11:59:36Z</time>
      </trkpt>
      <trkpt lat="48.63603" lon="6.31891">
        <ele>213.6</ele>
        <time>2022-03-03T11:59:40Z</time>
      </trkpt>
      <trkpt lat="48.63606" lon="6.31874">
        <ele>213.4</ele>
        <time>2022-03-03T11:59:42Z</time>
      </trkpt>
      <trkpt lat="48.63608" lon="6.31866">
        <ele>213.4</ele>
        <time>2022-03-03T11:59:43Z</time>
      </trkpt>
      <trkpt lat="48.63616" lon="6.31832">
        <ele>213.8</ele>
        <time>2022-03-03T11:59:47Z</time>
      </trkpt>
      <trkpt lat="48.63624" lon="6.318">
        <ele>214.2</ele>
        <time>2022-03-03T11:59:51Z</time>
      </trkpt>
      <trkpt lat="48.63625" lon="6.31793">
        <ele>214.2</ele>
        <time>2022-03-03T11:59:52Z</time>
      </trkpt>
      <trkpt lat="48.63632" lon="6.31763">
        <ele>214.6</ele>
        <time>2022-03-03T11:59:56Z</time>
      </trkpt>
      <trkpt lat="48.63639" lon="6.31729">
        <ele>214.8</ele>
        <time>2022-03-03T12:00:01Z</time>
      </trkpt>
      <trkpt lat="48.63647" lon="6.31691">
        <ele>214.8</ele>
        <time>2022-03-03T12:00:06Z</time>
      </trkpt>
      <trkpt lat="48.63655" lon="6.31659">
        <ele>214.4</ele>
        <time>2022-03-03T12:00:10Z</time>
      </trkpt>
      <trkpt lat="48.63663" lon="6.3162">
        <ele>213.6</ele>
        <time>2022-03-03T12:00:14Z</time>
      </trkpt>
      <trkpt lat="48.63666" lon="6.31599">
        <ele>213.4</ele>
        <time>2022-03-03T12:00:16Z</time>
      </trkpt>
      <trkpt lat="48.63666" lon="6.3159">
        <ele>213.4</ele>
        <time>2022-03-03T12:00:17Z</time>
      </trkpt>
      <trkpt lat="48.63665" lon="6.3158">
        <ele>213</ele>
        <time>2022-03-03T12:00:18Z</time>
      </trkpt>
      <trkpt lat="48.63664" lon="6.3157">
        <ele>212.6</ele>
        <time>2022-03-03T12:00:19Z</time>
      </trkpt>
      <trkpt lat="48.63662" lon="6.31561">
        <ele>212.2</ele>
        <time>2022-03-03T12:00:20Z</time>
      </trkpt>
      <trkpt lat="48.63662" lon="6.31554">
        <ele>212</ele>
        <time>2022-03-03T12:00:21Z</time>
      </trkpt>
      <trkpt lat="48.63662" lon="6.31549">
        <ele>211.6</ele>
        <time>2022-03-03T12:00:22Z</time>
      </trkpt>
      <trkpt lat="48.63662" lon="6.31543">
        <ele>211</ele>
        <time>2022-03-03T12:00:24Z</time>
      </trkpt>
      <trkpt lat="48.63663" lon="6.31542">
        <ele>210.8</ele>
        <time>2022-03-03T12:00:25Z</time>
      </trkpt>
      <trkpt lat="48.63663" lon="6.3154">
        <ele>210.6</ele>
        <time>2022-03-03T12:00:26Z</time>
      </trkpt>
      <trkpt lat="48.63664" lon="6.31539">
        <ele>210.6</ele>
        <time>2022-03-03T12:00:27Z</time>
      </trkpt>
      <trkpt lat="48.63665" lon="6.31537">
        <ele>210.6</ele>
        <time>2022-03-03T12:00:28Z</time>
      </trkpt>
      <trkpt lat="48.63666" lon="6.31536">
        <ele>210.8</ele>
        <time>2022-03-03T12:00:29Z</time>
      </trkpt>
      <trkpt lat="48.63668" lon="6.31538">
        <ele>211.2</ele>
        <time>2022-03-03T12:00:30Z</time>
      </trkpt>
      <trkpt lat="48.63669" lon="6.3154">
        <ele>211.6</ele>
        <time>2022-03-03T12:00:31Z</time>
      </trkpt>
      <trkpt lat="48.63671" lon="6.31544">
        <ele>211.8</ele>
        <time>2022-03-03T12:00:32Z</time>
      </trkpt>
      <trkpt lat="48.63688" lon="6.31564">
        <ele>214.8</ele>
        <time>2022-03-03T12:00:40Z</time>
      </trkpt>
      <trkpt lat="48.63702" lon="6.31589">
        <ele>217.2</ele>
        <time>2022-03-03T12:00:48Z</time>
      </trkpt>
      <trkpt lat="48.63716" lon="6.31615">
        <ele>219</ele>
        <time>2022-03-03T12:00:56Z</time>
      </trkpt>
      <trkpt lat="48.63732" lon="6.3164">
        <ele>220.4</ele>
        <time>2022-03-03T12:01:03Z</time>
      </trkpt>
      <trkpt lat="48.63745" lon="6.31664">
        <ele>221.8</ele>
        <time>2022-03-03T12:01:10Z</time>
      </trkpt>
      <trkpt lat="48.63758" lon="6.31688">
        <ele>223.2</ele>
        <time>2022-03-03T12:01:17Z</time>
      </trkpt>
      <trkpt lat="48.63773" lon="6.31711">
        <ele>224.8</ele>
        <time>2022-03-03T12:01:25Z</time>
      </trkpt>
      <trkpt lat="48.63777" lon="6.31714">
        <ele>225.2</ele>
        <time>2022-03-03T12:01:27Z</time>
      </trkpt>
      <trkpt lat="48.63779" lon="6.31712">
        <ele>225.2</ele>
        <time>2022-03-03T12:01:28Z</time>
      </trkpt>
      <trkpt lat="48.63781" lon="6.3171">
        <ele>225.2</ele>
        <time>2022-03-03T12:01:29Z</time>
      </trkpt>
      <trkpt lat="48.63783" lon="6.31707">
        <ele>225.4</ele>
        <time>2022-03-03T12:01:30Z</time>
      </trkpt>
      <trkpt lat="48.63785" lon="6.31703">
        <ele>225.6</ele>
        <time>2022-03-03T12:01:31Z</time>
      </trkpt>
      <trkpt lat="48.63787" lon="6.31701">
        <ele>225.8</ele>
        <time>2022-03-03T12:01:32Z</time>
      </trkpt>
      <trkpt lat="48.63799" lon="6.31677">
        <ele>228.8</ele>
        <time>2022-03-03T12:01:41Z</time>
      </trkpt>
      <trkpt lat="48.63814" lon="6.31656">
        <ele>231.8</ele>
        <time>2022-03-03T12:01:51Z</time>
      </trkpt>
      <trkpt lat="48.63827" lon="6.31631">
        <ele>235</ele>
        <time>2022-03-03T12:02:02Z</time>
      </trkpt>
      <trkpt lat="48.63838" lon="6.31602">
        <ele>236.8</ele>
        <time>2022-03-03T12:02:11Z</time>
      </trkpt>
      <trkpt lat="48.63843" lon="6.31568">
        <ele>237.6</ele>
        <time>2022-03-03T12:02:19Z</time>
      </trkpt>
      <trkpt lat="48.63848" lon="6.31535">
        <ele>237.8</ele>
        <time>2022-03-03T12:02:25Z</time>
      </trkpt>
      <trkpt lat="48.63853" lon="6.31504">
        <ele>237.8</ele>
        <time>2022-03-03T12:02:30Z</time>
      </trkpt>
      <trkpt lat="48.63855" lon="6.31498">
        <ele>237.8</ele>
        <time>2022-03-03T12:02:31Z</time>
      </trkpt>
      <trkpt lat="48.63862" lon="6.31468">
        <ele>238</ele>
        <time>2022-03-03T12:02:36Z</time>
      </trkpt>
      <trkpt lat="48.63868" lon="6.31437">
        <ele>238</ele>
        <time>2022-03-03T12:02:41Z</time>
      </trkpt>
      <trkpt lat="48.63871" lon="6.31418">
        <ele>237.6</ele>
        <time>2022-03-03T12:02:44Z</time>
      </trkpt>
      <trkpt lat="48.63872" lon="6.31392">
        <ele>237</ele>
        <time>2022-03-03T12:02:47Z</time>
      </trkpt>
      <trkpt lat="48.63872" lon="6.3135">
        <ele>235.2</ele>
        <time>2022-03-03T12:02:51Z</time>
      </trkpt>
      <trkpt lat="48.63868" lon="6.3132">
        <ele>233</ele>
        <time>2022-03-03T12:02:54Z</time>
      </trkpt>
      <trkpt lat="48.63859" lon="6.31286">
        <ele>229.8</ele>
        <time>2022-03-03T12:02:58Z</time>
      </trkpt>
      <trkpt lat="48.63853" lon="6.31263">
        <ele>227.4</ele>
        <time>2022-03-03T12:03:02Z</time>
      </trkpt>
      <trkpt lat="48.63855" lon="6.31256">
        <ele>227</ele>
        <time>2022-03-03T12:03:03Z</time>
      </trkpt>
      <trkpt lat="48.63857" lon="6.31251">
        <ele>226.8</ele>
        <time>2022-03-03T12:03:04Z</time>
      </trkpt>
      <trkpt lat="48.6386" lon="6.31246">
        <ele>226.8</ele>
        <time>2022-03-03T12:03:05Z</time>
      </trkpt>
      <trkpt lat="48.63862" lon="6.31241">
        <ele>227</ele>
        <time>2022-03-03T12:03:06Z</time>
      </trkpt>
      <trkpt lat="48.63863" lon="6.31235">
        <ele>227</ele>
        <time>2022-03-03T12:03:07Z</time>
      </trkpt>
      <trkpt lat="48.63871" lon="6.31207">
        <ele>226.6</ele>
        <time>2022-03-03T12:03:13Z</time>
      </trkpt>
      <trkpt lat="48.63878" lon="6.31175">
        <ele>226.6</ele>
        <time>2022-03-03T12:03:19Z</time>
      </trkpt>
      <trkpt lat="48.63883" lon="6.31159">
        <ele>226.4</ele>
        <time>2022-03-03T12:03:22Z</time>
      </trkpt>
      <trkpt lat="48.63885" lon="6.31153">
        <ele>226.4</ele>
        <time>2022-03-03T12:03:23Z</time>
      </trkpt>
      <trkpt lat="48.63891" lon="6.31133">
        <ele>226.2</ele>
        <time>2022-03-03T12:03:26Z</time>
      </trkpt>
      <trkpt lat="48.63898" lon="6.31113">
        <ele>225</ele>
        <time>2022-03-03T12:03:52Z</time>
      </trkpt>
      <trkpt lat="48.63898" lon="6.3111">
        <ele>225</ele>
        <time>2022-03-03T12:03:53Z</time>
      </trkpt>
      <trkpt lat="48.63899" lon="6.31106">
        <ele>224.8</ele>
        <time>2022-03-03T12:03:54Z</time>
      </trkpt>
      <trkpt lat="48.639" lon="6.31102">
        <ele>224.8</ele>
        <time>2022-03-03T12:03:55Z</time>
      </trkpt>
      <trkpt lat="48.63902" lon="6.31097">
        <ele>224.8</ele>
        <time>2022-03-03T12:03:56Z</time>
      </trkpt>
      <trkpt lat="48.63903" lon="6.31091">
        <ele>224.6</ele>
        <time>2022-03-03T12:03:57Z</time>
      </trkpt>
      <trkpt lat="48.63912" lon="6.31061">
        <ele>223.8</ele>
        <time>2022-03-03T12:04:01Z</time>
      </trkpt>
      <trkpt lat="48.63924" lon="6.31021">
        <ele>222.2</ele>
        <time>2022-03-03T12:04:05Z</time>
      </trkpt>
      <trkpt lat="48.63936" lon="6.30982">
        <ele>221.8</ele>
        <time>2022-03-03T12:04:09Z</time>
      </trkpt>
      <trkpt lat="48.63947" lon="6.30946">
        <ele>221.4</ele>
        <time>2022-03-03T12:04:13Z</time>
      </trkpt>
      <trkpt lat="48.63958" lon="6.30912">
        <ele>221.8</ele>
        <time>2022-03-03T12:04:17Z</time>
      </trkpt>
      <trkpt lat="48.63967" lon="6.30878">
        <ele>222.2</ele>
        <time>2022-03-03T12:04:21Z</time>
      </trkpt>
      <trkpt lat="48.63976" lon="6.30846">
        <ele>222.8</ele>
        <time>2022-03-03T12:04:25Z</time>
      </trkpt>
      <trkpt lat="48.63984" lon="6.30813">
        <ele>223</ele>
        <time>2022-03-03T12:04:29Z</time>
      </trkpt>
      <trkpt lat="48.63996" lon="6.30774">
        <ele>223.2</ele>
        <time>2022-03-03T12:04:34Z</time>
      </trkpt>
      <trkpt lat="48.64005" lon="6.30741">
        <ele>223.2</ele>
        <time>2022-03-03T12:04:38Z</time>
      </trkpt>
      <trkpt lat="48.64014" lon="6.30708">
        <ele>223</ele>
        <time>2022-03-03T12:04:42Z</time>
      </trkpt>
      <trkpt lat="48.64024" lon="6.30677">
        <ele>222.2</ele>
        <time>2022-03-03T12:04:46Z</time>
      </trkpt>
      <trkpt lat="48.64035" lon="6.30642">
        <ele>222.2</ele>
        <time>2022-03-03T12:04:50Z</time>
      </trkpt>
      <trkpt lat="48.64046" lon="6.30604">
        <ele>221.6</ele>
        <time>2022-03-03T12:04:54Z</time>
      </trkpt>
      <trkpt lat="48.64057" lon="6.30565">
        <ele>221</ele>
        <time>2022-03-03T12:04:58Z</time>
      </trkpt>
      <trkpt lat="48.64071" lon="6.30529">
        <ele>220.8</ele>
        <time>2022-03-03T12:05:02Z</time>
      </trkpt>
      <trkpt lat="48.64087" lon="6.30496">
        <ele>220.8</ele>
        <time>2022-03-03T12:05:06Z</time>
      </trkpt>
      <trkpt lat="48.64103" lon="6.30463">
        <ele>220.4</ele>
        <time>2022-03-03T12:05:10Z</time>
      </trkpt>
      <trkpt lat="48.6412" lon="6.30431">
        <ele>220.4</ele>
        <time>2022-03-03T12:05:14Z</time>
      </trkpt>
      <trkpt lat="48.64136" lon="6.304">
        <ele>220.4</ele>
        <time>2022-03-03T12:05:18Z</time>
      </trkpt>
      <trkpt lat="48.64149" lon="6.30372">
        <ele>220.2</ele>
        <time>2022-03-03T12:05:22Z</time>
      </trkpt>
      <trkpt lat="48.64164" lon="6.30345">
        <ele>220</ele>
        <time>2022-03-03T12:05:26Z</time>
      </trkpt>
      <trkpt lat="48.64171" lon="6.30331">
        <ele>220</ele>
        <time>2022-03-03T12:05:28Z</time>
      </trkpt>
      <trkpt lat="48.64183" lon="6.30312">
        <ele>219.6</ele>
        <time>2022-03-03T12:05:31Z</time>
      </trkpt>
      <trkpt lat="48.64188" lon="6.30308">
        <ele>219.4</ele>
        <time>2022-03-03T12:05:32Z</time>
      </trkpt>
      <trkpt lat="48.64208" lon="6.30293">
        <ele>219</ele>
        <time>2022-03-03T12:05:36Z</time>
      </trkpt>
      <trkpt lat="48.6423" lon="6.30278">
        <ele>218.8</ele>
        <time>2022-03-03T12:05:40Z</time>
      </trkpt>
      <trkpt lat="48.64255" lon="6.30266">
        <ele>219</ele>
        <time>2022-03-03T12:05:44Z</time>
      </trkpt>
      <trkpt lat="48.64281" lon="6.30258">
        <ele>219.2</ele>
        <time>2022-03-03T12:05:48Z</time>
      </trkpt>
      <trkpt lat="48.64306" lon="6.30254">
        <ele>219.6</ele>
        <time>2022-03-03T12:05:52Z</time>
      </trkpt>
      <trkpt lat="48.6433" lon="6.30251">
        <ele>219.8</ele>
        <time>2022-03-03T12:05:56Z</time>
      </trkpt>
      <trkpt lat="48.64355" lon="6.30246">
        <ele>219.8</ele>
        <time>2022-03-03T12:06:00Z</time>
      </trkpt>
      <trkpt lat="48.6438" lon="6.30238">
        <ele>219.8</ele>
        <time>2022-03-03T12:06:04Z</time>
      </trkpt>
      <trkpt lat="48.64403" lon="6.30228">
        <ele>219.8</ele>
        <time>2022-03-03T12:06:08Z</time>
      </trkpt>
      <trkpt lat="48.64426" lon="6.30218">
        <ele>220.6</ele>
        <time>2022-03-03T12:06:12Z</time>
      </trkpt>
      <trkpt lat="48.64453" lon="6.30205">
        <ele>219.6</ele>
        <time>2022-03-03T12:06:16Z</time>
      </trkpt>
      <trkpt lat="48.64475" lon="6.30199">
        <ele>219</ele>
        <time>2022-03-03T12:06:19Z</time>
      </trkpt>
      <trkpt lat="48.64499" lon="6.30199">
        <ele>217.8</ele>
        <time>2022-03-03T12:06:22Z</time>
      </trkpt>
      <trkpt lat="48.64525" lon="6.30201">
        <ele>216.4</ele>
        <time>2022-03-03T12:06:25Z</time>
      </trkpt>
      <trkpt lat="48.64551" lon="6.30203">
        <ele>215.2</ele>
        <time>2022-03-03T12:06:28Z</time>
      </trkpt>
      <trkpt lat="48.64575" lon="6.30206">
        <ele>214.6</ele>
        <time>2022-03-03T12:06:31Z</time>
      </trkpt>
      <trkpt lat="48.64599" lon="6.30208">
        <ele>214.8</ele>
        <time>2022-03-03T12:06:34Z</time>
      </trkpt>
      <trkpt lat="48.64623" lon="6.30211">
        <ele>214.6</ele>
        <time>2022-03-03T12:06:37Z</time>
      </trkpt>
      <trkpt lat="48.64648" lon="6.30213">
        <ele>214.2</ele>
        <time>2022-03-03T12:06:40Z</time>
      </trkpt>
      <trkpt lat="48.64672" lon="6.30216">
        <ele>213.6</ele>
        <time>2022-03-03T12:06:43Z</time>
      </trkpt>
      <trkpt lat="48.64698" lon="6.30223">
        <ele>212.4</ele>
        <time>2022-03-03T12:06:46Z</time>
      </trkpt>
      <trkpt lat="48.64725" lon="6.30233">
        <ele>210.2</ele>
        <time>2022-03-03T12:06:49Z</time>
      </trkpt>
      <trkpt lat="48.64751" lon="6.30246">
        <ele>208.6</ele>
        <time>2022-03-03T12:06:52Z</time>
      </trkpt>
      <trkpt lat="48.64775" lon="6.30259">
        <ele>207.4</ele>
        <time>2022-03-03T12:06:55Z</time>
      </trkpt>
      <trkpt lat="48.64799" lon="6.3027">
        <ele>206.8</ele>
        <time>2022-03-03T12:06:58Z</time>
      </trkpt>
      <trkpt lat="48.64822" lon="6.3028">
        <ele>206.6</ele>
        <time>2022-03-03T12:07:01Z</time>
      </trkpt>
      <trkpt lat="48.64845" lon="6.30288">
        <ele>206.2</ele>
        <time>2022-03-03T12:07:04Z</time>
      </trkpt>
      <trkpt lat="48.64867" lon="6.303">
        <ele>205.6</ele>
        <time>2022-03-03T12:07:07Z</time>
      </trkpt>
      <trkpt lat="48.64887" lon="6.30314">
        <ele>205</ele>
        <time>2022-03-03T12:07:10Z</time>
      </trkpt>
      <trkpt lat="48.64907" lon="6.3033">
        <ele>204.8</ele>
        <time>2022-03-03T12:07:13Z</time>
      </trkpt>
      <trkpt lat="48.64931" lon="6.30353">
        <ele>204.6</ele>
        <time>2022-03-03T12:07:17Z</time>
      </trkpt>
      <trkpt lat="48.64955" lon="6.30376">
        <ele>204.4</ele>
        <time>2022-03-03T12:07:21Z</time>
      </trkpt>
      <trkpt lat="48.64978" lon="6.30398">
        <ele>204</ele>
        <time>2022-03-03T12:07:25Z</time>
      </trkpt>
      <trkpt lat="48.65002" lon="6.30419">
        <ele>203.6</ele>
        <time>2022-03-03T12:07:29Z</time>
      </trkpt>
      <trkpt lat="48.65026" lon="6.30441">
        <ele>203.2</ele>
        <time>2022-03-03T12:07:33Z</time>
      </trkpt>
      <trkpt lat="48.65049" lon="6.30461">
        <ele>203.6</ele>
        <time>2022-03-03T12:07:37Z</time>
      </trkpt>
      <trkpt lat="48.65072" lon="6.30479">
        <ele>204</ele>
        <time>2022-03-03T12:07:41Z</time>
      </trkpt>
      <trkpt lat="48.65094" lon="6.30497">
        <ele>204.2</ele>
        <time>2022-03-03T12:07:45Z</time>
      </trkpt>
      <trkpt lat="48.65117" lon="6.30515">
        <ele>203.8</ele>
        <time>2022-03-03T12:07:49Z</time>
      </trkpt>
      <trkpt lat="48.65142" lon="6.30534">
        <ele>203.4</ele>
        <time>2022-03-03T12:07:53Z</time>
      </trkpt>
      <trkpt lat="48.65161" lon="6.3055">
        <ele>202.6</ele>
        <time>2022-03-03T12:07:56Z</time>
      </trkpt>
      <trkpt lat="48.65181" lon="6.30567">
        <ele>201.6</ele>
        <time>2022-03-03T12:07:59Z</time>
      </trkpt>
      <trkpt lat="48.65202" lon="6.30585">
        <ele>200.8</ele>
        <time>2022-03-03T12:08:02Z</time>
      </trkpt>
      <trkpt lat="48.65222" lon="6.30603">
        <ele>200.4</ele>
        <time>2022-03-03T12:08:05Z</time>
      </trkpt>
      <trkpt lat="48.65246" lon="6.30624">
        <ele>200.6</ele>
        <time>2022-03-03T12:08:09Z</time>
      </trkpt>
      <trkpt lat="48.65256" lon="6.30635">
        <ele>200.6</ele>
        <time>2022-03-03T12:08:11Z</time>
      </trkpt>
      <trkpt lat="48.65261" lon="6.30638">
        <ele>200.8</ele>
        <time>2022-03-03T12:08:12Z</time>
      </trkpt>
      <trkpt lat="48.65266" lon="6.30639">
        <ele>201</ele>
        <time>2022-03-03T12:08:13Z</time>
      </trkpt>
      <trkpt lat="48.65271" lon="6.30638">
        <ele>201.2</ele>
        <time>2022-03-03T12:08:14Z</time>
      </trkpt>
      <trkpt lat="48.65276" lon="6.30635">
        <ele>201.4</ele>
        <time>2022-03-03T12:08:15Z</time>
      </trkpt>
      <trkpt lat="48.6528" lon="6.30631">
        <ele>201.6</ele>
        <time>2022-03-03T12:08:16Z</time>
      </trkpt>
      <trkpt lat="48.65284" lon="6.30628">
        <ele>201.8</ele>
        <time>2022-03-03T12:08:17Z</time>
      </trkpt>
      <trkpt lat="48.65304" lon="6.30614">
        <ele>202.2</ele>
        <time>2022-03-03T12:08:21Z</time>
      </trkpt>
      <trkpt lat="48.65327" lon="6.30601">
        <ele>202</ele>
        <time>2022-03-03T12:08:25Z</time>
      </trkpt>
      <trkpt lat="48.6535" lon="6.3059">
        <ele>201.8</ele>
        <time>2022-03-03T12:08:29Z</time>
      </trkpt>
      <trkpt lat="48.65372" lon="6.30578">
        <ele>202</ele>
        <time>2022-03-03T12:08:33Z</time>
      </trkpt>
      <trkpt lat="48.65394" lon="6.30565">
        <ele>202.2</ele>
        <time>2022-03-03T12:08:37Z</time>
      </trkpt>
      <trkpt lat="48.65414" lon="6.30547">
        <ele>202.6</ele>
        <time>2022-03-03T12:08:41Z</time>
      </trkpt>
      <trkpt lat="48.65431" lon="6.30523">
        <ele>203.2</ele>
        <time>2022-03-03T12:08:45Z</time>
      </trkpt>
      <trkpt lat="48.65445" lon="6.30498">
        <ele>203.8</ele>
        <time>2022-03-03T12:08:49Z</time>
      </trkpt>
      <trkpt lat="48.65459" lon="6.30466">
        <ele>204.4</ele>
        <time>2022-03-03T12:08:54Z</time>
      </trkpt>
      <trkpt lat="48.65472" lon="6.30438">
        <ele>205.2</ele>
        <time>2022-03-03T12:08:59Z</time>
      </trkpt>
      <trkpt lat="48.65486" lon="6.30409">
        <ele>207</ele>
        <time>2022-03-03T12:09:05Z</time>
      </trkpt>
      <trkpt lat="48.65501" lon="6.30384">
        <ele>208.8</ele>
        <time>2022-03-03T12:09:11Z</time>
      </trkpt>
      <trkpt lat="48.65518" lon="6.30363">
        <ele>210.4</ele>
        <time>2022-03-03T12:09:17Z</time>
      </trkpt>
      <trkpt lat="48.65536" lon="6.3035">
        <ele>212.2</ele>
        <time>2022-03-03T12:09:23Z</time>
      </trkpt>
      <trkpt lat="48.65556" lon="6.30347">
        <ele>214.2</ele>
        <time>2022-03-03T12:09:29Z</time>
      </trkpt>
      <trkpt lat="48.65579" lon="6.30352">
        <ele>216.4</ele>
        <time>2022-03-03T12:09:36Z</time>
      </trkpt>
      <trkpt lat="48.65601" lon="6.30361">
        <ele>218.4</ele>
        <time>2022-03-03T12:09:43Z</time>
      </trkpt>
      <trkpt lat="48.65622" lon="6.30373">
        <ele>220.2</ele>
        <time>2022-03-03T12:09:50Z</time>
      </trkpt>
      <trkpt lat="48.65641" lon="6.30387">
        <ele>221.6</ele>
        <time>2022-03-03T12:09:56Z</time>
      </trkpt>
      <trkpt lat="48.65659" lon="6.30401">
        <ele>222.6</ele>
        <time>2022-03-03T12:10:02Z</time>
      </trkpt>
      <trkpt lat="48.65678" lon="6.30415">
        <ele>224</ele>
        <time>2022-03-03T12:10:08Z</time>
      </trkpt>
      <trkpt lat="48.65697" lon="6.30431">
        <ele>225.8</ele>
        <time>2022-03-03T12:10:15Z</time>
      </trkpt>
      <trkpt lat="48.65716" lon="6.30447">
        <ele>227.8</ele>
        <time>2022-03-03T12:10:22Z</time>
      </trkpt>
      <trkpt lat="48.65736" lon="6.30466">
        <ele>230</ele>
        <time>2022-03-03T12:10:30Z</time>
      </trkpt>
      <trkpt lat="48.65755" lon="6.30482">
        <ele>231</ele>
        <time>2022-03-03T12:10:37Z</time>
      </trkpt>
      <trkpt lat="48.65773" lon="6.30497">
        <ele>232</ele>
        <time>2022-03-03T12:10:43Z</time>
      </trkpt>
      <trkpt lat="48.65792" lon="6.3051">
        <ele>233</ele>
        <time>2022-03-03T12:10:49Z</time>
      </trkpt>
      <trkpt lat="48.65812" lon="6.3052">
        <ele>234.6</ele>
        <time>2022-03-03T12:10:55Z</time>
      </trkpt>
      <trkpt lat="48.65832" lon="6.30527">
        <ele>236.4</ele>
        <time>2022-03-03T12:11:02Z</time>
      </trkpt>
      <trkpt lat="48.65854" lon="6.30529">
        <ele>238.4</ele>
        <time>2022-03-03T12:11:09Z</time>
      </trkpt>
      <trkpt lat="48.65876" lon="6.30531">
        <ele>239.8</ele>
        <time>2022-03-03T12:11:16Z</time>
      </trkpt>
      <trkpt lat="48.65896" lon="6.30531">
        <ele>239.8</ele>
        <time>2022-03-03T12:11:22Z</time>
      </trkpt>
      <trkpt lat="48.65918" lon="6.30531">
        <ele>240.4</ele>
        <time>2022-03-03T12:11:27Z</time>
      </trkpt>
      <trkpt lat="48.65942" lon="6.30523">
        <ele>240.6</ele>
        <time>2022-03-03T12:11:33Z</time>
      </trkpt>
      <trkpt lat="48.65962" lon="6.3051">
        <ele>240.8</ele>
        <time>2022-03-03T12:11:39Z</time>
      </trkpt>
      <trkpt lat="48.65979" lon="6.30493">
        <ele>240.6</ele>
        <time>2022-03-03T12:11:44Z</time>
      </trkpt>
      <trkpt lat="48.65998" lon="6.30478">
        <ele>240.8</ele>
        <time>2022-03-03T12:11:49Z</time>
      </trkpt>
      <trkpt lat="48.66018" lon="6.30463">
        <ele>240.4</ele>
        <time>2022-03-03T12:11:54Z</time>
      </trkpt>
      <trkpt lat="48.66039" lon="6.30453">
        <ele>240.6</ele>
        <time>2022-03-03T12:11:59Z</time>
      </trkpt>
      <trkpt lat="48.66043" lon="6.3045">
        <ele>240.6</ele>
        <time>2022-03-03T12:12:00Z</time>
      </trkpt>
      <trkpt lat="48.66059" lon="6.3044">
        <ele>241.2</ele>
        <time>2022-03-03T12:12:04Z</time>
      </trkpt>
      <trkpt lat="48.66072" lon="6.30431">
        <ele>241.2</ele>
        <time>2022-03-03T12:12:07Z</time>
      </trkpt>
      <trkpt lat="48.66096" lon="6.30417">
        <ele>241</ele>
        <time>2022-03-03T12:12:12Z</time>
      </trkpt>
      <trkpt lat="48.66119" lon="6.30404">
        <ele>240.6</ele>
        <time>2022-03-03T12:12:17Z</time>
      </trkpt>
      <trkpt lat="48.66139" lon="6.30392">
        <ele>239.6</ele>
        <time>2022-03-03T12:12:21Z</time>
      </trkpt>
      <trkpt lat="48.66161" lon="6.3038">
        <ele>239.4</ele>
        <time>2022-03-03T12:12:25Z</time>
      </trkpt>
      <trkpt lat="48.66183" lon="6.30367">
        <ele>239.2</ele>
        <time>2022-03-03T12:12:29Z</time>
      </trkpt>
      <trkpt lat="48.66207" lon="6.30355">
        <ele>238.6</ele>
        <time>2022-03-03T12:12:33Z</time>
      </trkpt>
      <trkpt lat="48.66231" lon="6.30344">
        <ele>238</ele>
        <time>2022-03-03T12:12:37Z</time>
      </trkpt>
      <trkpt lat="48.66256" lon="6.30335">
        <ele>237.4</ele>
        <time>2022-03-03T12:12:41Z</time>
      </trkpt>
      <trkpt lat="48.66283" lon="6.30327">
        <ele>236.4</ele>
        <time>2022-03-03T12:12:45Z</time>
      </trkpt>
      <trkpt lat="48.66309" lon="6.30319">
        <ele>234.8</ele>
        <time>2022-03-03T12:12:49Z</time>
      </trkpt>
      <trkpt lat="48.66329" lon="6.30312">
        <ele>233.8</ele>
        <time>2022-03-03T12:12:53Z</time>
      </trkpt>
      <trkpt lat="48.66346" lon="6.30308">
        <ele>232.4</ele>
        <time>2022-03-03T12:13:04Z</time>
      </trkpt>
      <trkpt lat="48.66343" lon="6.30308">
        <ele>232.6</ele>
        <time>2022-03-03T12:13:24Z</time>
      </trkpt>
      <trkpt lat="48.66344" lon="6.30309">
        <ele>232.6</ele>
        <time>2022-03-03T12:13:37Z</time>
      </trkpt>
      <trkpt lat="48.66349" lon="6.30314">
        <ele>233.4</ele>
        <time>2022-03-03T12:20:01Z</time>
      </trkpt>
      <trkpt lat="48.66357" lon="6.30338">
        <ele>233.6</ele>
        <time>2022-03-03T12:20:06Z</time>
      </trkpt>
      <trkpt lat="48.66359" lon="6.30344">
        <ele>233.6</ele>
        <time>2022-03-03T12:20:07Z</time>
      </trkpt>
      <trkpt lat="48.66365" lon="6.30362">
        <ele>233.4</ele>
        <time>2022-03-03T12:20:10Z</time>
      </trkpt>
      <trkpt lat="48.66379" lon="6.30395">
        <ele>233.4</ele>
        <time>2022-03-03T12:20:15Z</time>
      </trkpt>
      <trkpt lat="48.66391" lon="6.30422">
        <ele>232.6</ele>
        <time>2022-03-03T12:20:19Z</time>
      </trkpt>
      <trkpt lat="48.66403" lon="6.30452">
        <ele>232.6</ele>
        <time>2022-03-03T12:20:23Z</time>
      </trkpt>
      <trkpt lat="48.66406" lon="6.3046">
        <ele>232.6</ele>
        <time>2022-03-03T12:20:24Z</time>
      </trkpt>
      <trkpt lat="48.66408" lon="6.30468">
        <ele>232.4</ele>
        <time>2022-03-03T12:20:25Z</time>
      </trkpt>
      <trkpt lat="48.66409" lon="6.30476">
        <ele>232.4</ele>
        <time>2022-03-03T12:20:26Z</time>
      </trkpt>
      <trkpt lat="48.66408" lon="6.30484">
        <ele>232.4</ele>
        <time>2022-03-03T12:20:27Z</time>
      </trkpt>
      <trkpt lat="48.66405" lon="6.3049">
        <ele>232.2</ele>
        <time>2022-03-03T12:20:28Z</time>
      </trkpt>
      <trkpt lat="48.66401" lon="6.30493">
        <ele>232.2</ele>
        <time>2022-03-03T12:20:29Z</time>
      </trkpt>
      <trkpt lat="48.66396" lon="6.30496">
        <ele>232</ele>
        <time>2022-03-03T12:20:30Z</time>
      </trkpt>
      <trkpt lat="48.66391" lon="6.30499">
        <ele>232</ele>
        <time>2022-03-03T12:20:31Z</time>
      </trkpt>
      <trkpt lat="48.66372" lon="6.30512">
        <ele>232</ele>
        <time>2022-03-03T12:20:35Z</time>
      </trkpt>
      <trkpt lat="48.66368" lon="6.30518">
        <ele>232.2</ele>
        <time>2022-03-03T12:20:36Z</time>
      </trkpt>
      <trkpt lat="48.66366" lon="6.30525">
        <ele>232.6</ele>
        <time>2022-03-03T12:20:37Z</time>
      </trkpt>
      <trkpt lat="48.66366" lon="6.30532">
        <ele>232.8</ele>
        <time>2022-03-03T12:20:38Z</time>
      </trkpt>
      <trkpt lat="48.66367" lon="6.3054">
        <ele>233.2</ele>
        <time>2022-03-03T12:20:39Z</time>
      </trkpt>
      <trkpt lat="48.66369" lon="6.30548">
        <ele>233.2</ele>
        <time>2022-03-03T12:20:40Z</time>
      </trkpt>
      <trkpt lat="48.66372" lon="6.30556">
        <ele>233.4</ele>
        <time>2022-03-03T12:20:41Z</time>
      </trkpt>
      <trkpt lat="48.66375" lon="6.30564">
        <ele>233.2</ele>
        <time>2022-03-03T12:20:42Z</time>
      </trkpt>
      <trkpt lat="48.66387" lon="6.30597">
        <ele>232.8</ele>
        <time>2022-03-03T12:20:46Z</time>
      </trkpt>
      <trkpt lat="48.66398" lon="6.30631">
        <ele>232.6</ele>
        <time>2022-03-03T12:20:50Z</time>
      </trkpt>
      <trkpt lat="48.66409" lon="6.30665">
        <ele>232</ele>
        <time>2022-03-03T12:20:54Z</time>
      </trkpt>
      <trkpt lat="48.6642" lon="6.307">
        <ele>231.8</ele>
        <time>2022-03-03T12:20:58Z</time>
      </trkpt>
      <trkpt lat="48.66432" lon="6.30736">
        <ele>231.6</ele>
        <time>2022-03-03T12:21:02Z</time>
      </trkpt>
      <trkpt lat="48.66445" lon="6.30771">
        <ele>231.6</ele>
        <time>2022-03-03T12:21:06Z</time>
      </trkpt>
      <trkpt lat="48.66456" lon="6.30808">
        <ele>231.2</ele>
        <time>2022-03-03T12:21:10Z</time>
      </trkpt>
      <trkpt lat="48.66469" lon="6.30844">
        <ele>230.6</ele>
        <time>2022-03-03T12:21:14Z</time>
      </trkpt>
      <trkpt lat="48.66481" lon="6.3088">
        <ele>230.2</ele>
        <time>2022-03-03T12:21:18Z</time>
      </trkpt>
      <trkpt lat="48.66493" lon="6.30917">
        <ele>230</ele>
        <time>2022-03-03T12:21:22Z</time>
      </trkpt>
      <trkpt lat="48.66506" lon="6.30955">
        <ele>229.6</ele>
        <time>2022-03-03T12:21:26Z</time>
      </trkpt>
      <trkpt lat="48.66518" lon="6.30992">
        <ele>229.6</ele>
        <time>2022-03-03T12:21:30Z</time>
      </trkpt>
      <trkpt lat="48.6653" lon="6.31029">
        <ele>229.6</ele>
        <time>2022-03-03T12:21:34Z</time>
      </trkpt>
      <trkpt lat="48.66542" lon="6.31065">
        <ele>229.4</ele>
        <time>2022-03-03T12:21:38Z</time>
      </trkpt>
      <trkpt lat="48.66554" lon="6.311">
        <ele>229.4</ele>
        <time>2022-03-03T12:21:42Z</time>
      </trkpt>
      <trkpt lat="48.66566" lon="6.31136">
        <ele>229.4</ele>
        <time>2022-03-03T12:21:46Z</time>
      </trkpt>
      <trkpt lat="48.66577" lon="6.3117">
        <ele>229.4</ele>
        <time>2022-03-03T12:21:50Z</time>
      </trkpt>
      <trkpt lat="48.66587" lon="6.31194">
        <ele>229.4</ele>
        <time>2022-03-03T12:21:53Z</time>
      </trkpt>
      <trkpt lat="48.66592" lon="6.31198">
        <ele>229.4</ele>
        <time>2022-03-03T12:21:54Z</time>
      </trkpt>
      <trkpt lat="48.66597" lon="6.312">
        <ele>229.4</ele>
        <time>2022-03-03T12:21:55Z</time>
      </trkpt>
      <trkpt lat="48.66603" lon="6.31199">
        <ele>229.4</ele>
        <time>2022-03-03T12:21:56Z</time>
      </trkpt>
      <trkpt lat="48.66609" lon="6.31197">
        <ele>229.4</ele>
        <time>2022-03-03T12:21:57Z</time>
      </trkpt>
      <trkpt lat="48.66615" lon="6.31194">
        <ele>229.4</ele>
        <time>2022-03-03T12:21:58Z</time>
      </trkpt>
      <trkpt lat="48.66642" lon="6.31179">
        <ele>228.6</ele>
        <time>2022-03-03T12:22:02Z</time>
      </trkpt>
      <trkpt lat="48.66669" lon="6.31165">
        <ele>228</ele>
        <time>2022-03-03T12:22:06Z</time>
      </trkpt>
      <trkpt lat="48.66695" lon="6.31149">
        <ele>227.2</ele>
        <time>2022-03-03T12:22:10Z</time>
      </trkpt>
      <trkpt lat="48.66716" lon="6.31137">
        <ele>226.8</ele>
        <time>2022-03-03T12:22:13Z</time>
      </trkpt>
      <trkpt lat="48.66737" lon="6.31126">
        <ele>226.6</ele>
        <time>2022-03-03T12:22:16Z</time>
      </trkpt>
      <trkpt lat="48.66751" lon="6.31122">
        <ele>226.2</ele>
        <time>2022-03-03T12:22:18Z</time>
      </trkpt>
      <trkpt lat="48.66759" lon="6.31123">
        <ele>226.2</ele>
        <time>2022-03-03T12:22:19Z</time>
      </trkpt>
      <trkpt lat="48.66766" lon="6.31126">
        <ele>226</ele>
        <time>2022-03-03T12:22:20Z</time>
      </trkpt>
      <trkpt lat="48.66772" lon="6.31132">
        <ele>225.8</ele>
        <time>2022-03-03T12:22:21Z</time>
      </trkpt>
      <trkpt lat="48.66778" lon="6.31139">
        <ele>225.6</ele>
        <time>2022-03-03T12:22:22Z</time>
      </trkpt>
      <trkpt lat="48.66783" lon="6.31147">
        <ele>225.6</ele>
        <time>2022-03-03T12:22:23Z</time>
      </trkpt>
      <trkpt lat="48.66787" lon="6.31156">
        <ele>225.6</ele>
        <time>2022-03-03T12:22:24Z</time>
      </trkpt>
      <trkpt lat="48.668" lon="6.31183">
        <ele>225.4</ele>
        <time>2022-03-03T12:22:27Z</time>
      </trkpt>
      <trkpt lat="48.66813" lon="6.31211">
        <ele>225.4</ele>
        <time>2022-03-03T12:22:30Z</time>
      </trkpt>
      <trkpt lat="48.66825" lon="6.31238">
        <ele>225.4</ele>
        <time>2022-03-03T12:22:33Z</time>
      </trkpt>
      <trkpt lat="48.66842" lon="6.31275">
        <ele>225.4</ele>
        <time>2022-03-03T12:22:37Z</time>
      </trkpt>
      <trkpt lat="48.66854" lon="6.31303">
        <ele>225.4</ele>
        <time>2022-03-03T12:22:40Z</time>
      </trkpt>
      <trkpt lat="48.66865" lon="6.31331">
        <ele>225</ele>
        <time>2022-03-03T12:22:43Z</time>
      </trkpt>
      <trkpt lat="48.66876" lon="6.3136">
        <ele>224.8</ele>
        <time>2022-03-03T12:22:46Z</time>
      </trkpt>
      <trkpt lat="48.66889" lon="6.31399">
        <ele>224.6</ele>
        <time>2022-03-03T12:22:50Z</time>
      </trkpt>
      <trkpt lat="48.66897" lon="6.3143">
        <ele>224.4</ele>
        <time>2022-03-03T12:22:53Z</time>
      </trkpt>
      <trkpt lat="48.66906" lon="6.31461">
        <ele>224.2</ele>
        <time>2022-03-03T12:22:56Z</time>
      </trkpt>
      <trkpt lat="48.66915" lon="6.31492">
        <ele>224</ele>
        <time>2022-03-03T12:22:59Z</time>
      </trkpt>
      <trkpt lat="48.66923" lon="6.31524">
        <ele>224.2</ele>
        <time>2022-03-03T12:23:02Z</time>
      </trkpt>
      <trkpt lat="48.66931" lon="6.31555">
        <ele>224</ele>
        <time>2022-03-03T12:23:05Z</time>
      </trkpt>
      <trkpt lat="48.6694" lon="6.31586">
        <ele>224</ele>
        <time>2022-03-03T12:23:08Z</time>
      </trkpt>
      <trkpt lat="48.66948" lon="6.31617">
        <ele>223.8</ele>
        <time>2022-03-03T12:23:11Z</time>
      </trkpt>
      <trkpt lat="48.66955" lon="6.31649">
        <ele>223.6</ele>
        <time>2022-03-03T12:23:14Z</time>
      </trkpt>
      <trkpt lat="48.66963" lon="6.3168">
        <ele>223.8</ele>
        <time>2022-03-03T12:23:17Z</time>
      </trkpt>
      <trkpt lat="48.6697" lon="6.31711">
        <ele>223.6</ele>
        <time>2022-03-03T12:23:20Z</time>
      </trkpt>
      <trkpt lat="48.66977" lon="6.31741">
        <ele>223.6</ele>
        <time>2022-03-03T12:23:23Z</time>
      </trkpt>
      <trkpt lat="48.66985" lon="6.31772">
        <ele>223.6</ele>
        <time>2022-03-03T12:23:26Z</time>
      </trkpt>
      <trkpt lat="48.66994" lon="6.31803">
        <ele>223.4</ele>
        <time>2022-03-03T12:23:29Z</time>
      </trkpt>
      <trkpt lat="48.67003" lon="6.31833">
        <ele>223.2</ele>
        <time>2022-03-03T12:23:32Z</time>
      </trkpt>
      <trkpt lat="48.67013" lon="6.31862">
        <ele>223.4</ele>
        <time>2022-03-03T12:23:35Z</time>
      </trkpt>
      <trkpt lat="48.67022" lon="6.31892">
        <ele>223.2</ele>
        <time>2022-03-03T12:23:38Z</time>
      </trkpt>
      <trkpt lat="48.67032" lon="6.31932">
        <ele>223.2</ele>
        <time>2022-03-03T12:23:42Z</time>
      </trkpt>
      <trkpt lat="48.67041" lon="6.31972">
        <ele>223.2</ele>
        <time>2022-03-03T12:23:46Z</time>
      </trkpt>
      <trkpt lat="48.67049" lon="6.32013">
        <ele>223.2</ele>
        <time>2022-03-03T12:23:50Z</time>
      </trkpt>
      <trkpt lat="48.67056" lon="6.32054">
        <ele>223</ele>
        <time>2022-03-03T12:23:54Z</time>
      </trkpt>
      <trkpt lat="48.67062" lon="6.32096">
        <ele>223.2</ele>
        <time>2022-03-03T12:23:58Z</time>
      </trkpt>
      <trkpt lat="48.67065" lon="6.32137">
        <ele>223.2</ele>
        <time>2022-03-03T12:24:02Z</time>
      </trkpt>
      <trkpt lat="48.67064" lon="6.32148">
        <ele>223.2</ele>
        <time>2022-03-03T12:24:03Z</time>
      </trkpt>
      <trkpt lat="48.67064" lon="6.32158">
        <ele>223.4</ele>
        <time>2022-03-03T12:24:04Z</time>
      </trkpt>
      <trkpt lat="48.67061" lon="6.32178">
        <ele>223.4</ele>
        <time>2022-03-03T12:24:06Z</time>
      </trkpt>
      <trkpt lat="48.67059" lon="6.32188">
        <ele>223.6</ele>
        <time>2022-03-03T12:24:07Z</time>
      </trkpt>
      <trkpt lat="48.67056" lon="6.32197">
        <ele>223.6</ele>
        <time>2022-03-03T12:24:08Z</time>
      </trkpt>
      <trkpt lat="48.67042" lon="6.32231">
        <ele>223.8</ele>
        <time>2022-03-03T12:24:12Z</time>
      </trkpt>
      <trkpt lat="48.67025" lon="6.32261">
        <ele>223.8</ele>
        <time>2022-03-03T12:24:16Z</time>
      </trkpt>
      <trkpt lat="48.67007" lon="6.32293">
        <ele>223.8</ele>
        <time>2022-03-03T12:24:20Z</time>
      </trkpt>
      <trkpt lat="48.66996" lon="6.32319">
        <ele>223.6</ele>
        <time>2022-03-03T12:24:23Z</time>
      </trkpt>
      <trkpt lat="48.66995" lon="6.32329">
        <ele>223.8</ele>
        <time>2022-03-03T12:24:24Z</time>
      </trkpt>
      <trkpt lat="48.66994" lon="6.32339">
        <ele>223.8</ele>
        <time>2022-03-03T12:24:25Z</time>
      </trkpt>
      <trkpt lat="48.66994" lon="6.32348">
        <ele>224</ele>
        <time>2022-03-03T12:24:26Z</time>
      </trkpt>
      <trkpt lat="48.66996" lon="6.32358">
        <ele>224</ele>
        <time>2022-03-03T12:24:27Z</time>
      </trkpt>
      <trkpt lat="48.66998" lon="6.32367">
        <ele>224.2</ele>
        <time>2022-03-03T12:24:28Z</time>
      </trkpt>
      <trkpt lat="48.67" lon="6.32376">
        <ele>224.2</ele>
        <time>2022-03-03T12:24:29Z</time>
      </trkpt>
      <trkpt lat="48.67012" lon="6.32415">
        <ele>224</ele>
        <time>2022-03-03T12:24:33Z</time>
      </trkpt>
      <trkpt lat="48.67023" lon="6.32454">
        <ele>223.6</ele>
        <time>2022-03-03T12:24:37Z</time>
      </trkpt>
      <trkpt lat="48.6703" lon="6.32486">
        <ele>223.2</ele>
        <time>2022-03-03T12:24:40Z</time>
      </trkpt>
      <trkpt lat="48.67037" lon="6.32517">
        <ele>223</ele>
        <time>2022-03-03T12:24:43Z</time>
      </trkpt>
      <trkpt lat="48.67047" lon="6.32558">
        <ele>223</ele>
        <time>2022-03-03T12:24:47Z</time>
      </trkpt>
      <trkpt lat="48.67057" lon="6.32598">
        <ele>222.8</ele>
        <time>2022-03-03T12:24:51Z</time>
      </trkpt>
      <trkpt lat="48.67068" lon="6.32638">
        <ele>223</ele>
        <time>2022-03-03T12:24:55Z</time>
      </trkpt>
      <trkpt lat="48.67079" lon="6.32676">
        <ele>222.8</ele>
        <time>2022-03-03T12:24:59Z</time>
      </trkpt>
      <trkpt lat="48.67088" lon="6.32707">
        <ele>222.4</ele>
        <time>2022-03-03T12:25:02Z</time>
      </trkpt>
      <trkpt lat="48.67098" lon="6.32738">
        <ele>222.2</ele>
        <time>2022-03-03T12:25:05Z</time>
      </trkpt>
      <trkpt lat="48.67107" lon="6.32769">
        <ele>222.4</ele>
        <time>2022-03-03T12:25:08Z</time>
      </trkpt>
      <trkpt lat="48.6712" lon="6.32808">
        <ele>222.4</ele>
        <time>2022-03-03T12:25:12Z</time>
      </trkpt>
      <trkpt lat="48.6713" lon="6.32837">
        <ele>221.8</ele>
        <time>2022-03-03T12:25:15Z</time>
      </trkpt>
      <trkpt lat="48.67141" lon="6.32867">
        <ele>221</ele>
        <time>2022-03-03T12:25:18Z</time>
      </trkpt>
      <trkpt lat="48.67153" lon="6.32897">
        <ele>220.4</ele>
        <time>2022-03-03T12:25:21Z</time>
      </trkpt>
      <trkpt lat="48.67165" lon="6.32927">
        <ele>219.8</ele>
        <time>2022-03-03T12:25:24Z</time>
      </trkpt>
      <trkpt lat="48.67179" lon="6.32956">
        <ele>219.2</ele>
        <time>2022-03-03T12:25:27Z</time>
      </trkpt>
      <trkpt lat="48.67197" lon="6.32982">
        <ele>218</ele>
        <time>2022-03-03T12:25:30Z</time>
      </trkpt>
      <trkpt lat="48.6722" lon="6.33004">
        <ele>216.8</ele>
        <time>2022-03-03T12:25:33Z</time>
      </trkpt>
      <trkpt lat="48.67228" lon="6.33009">
        <ele>216</ele>
        <time>2022-03-03T12:25:34Z</time>
      </trkpt>
      <trkpt lat="48.67236" lon="6.33013">
        <ele>215.4</ele>
        <time>2022-03-03T12:25:35Z</time>
      </trkpt>
      <trkpt lat="48.67261" lon="6.33023">
        <ele>214.8</ele>
        <time>2022-03-03T12:25:38Z</time>
      </trkpt>
      <trkpt lat="48.67275" lon="6.33033">
        <ele>214.6</ele>
        <time>2022-03-03T12:25:40Z</time>
      </trkpt>
      <trkpt lat="48.67282" lon="6.33039">
        <ele>214.6</ele>
        <time>2022-03-03T12:25:41Z</time>
      </trkpt>
      <trkpt lat="48.67299" lon="6.3306">
        <ele>214.8</ele>
        <time>2022-03-03T12:25:44Z</time>
      </trkpt>
      <trkpt lat="48.67313" lon="6.33085">
        <ele>215</ele>
        <time>2022-03-03T12:25:47Z</time>
      </trkpt>
      <trkpt lat="48.6733" lon="6.33117">
        <ele>215.2</ele>
        <time>2022-03-03T12:25:51Z</time>
      </trkpt>
      <trkpt lat="48.67345" lon="6.3315">
        <ele>215.6</ele>
        <time>2022-03-03T12:25:55Z</time>
      </trkpt>
      <trkpt lat="48.67359" lon="6.33186">
        <ele>215.6</ele>
        <time>2022-03-03T12:25:59Z</time>
      </trkpt>
      <trkpt lat="48.67371" lon="6.33222">
        <ele>215.8</ele>
        <time>2022-03-03T12:26:03Z</time>
      </trkpt>
      <trkpt lat="48.67381" lon="6.3326">
        <ele>215.6</ele>
        <time>2022-03-03T12:26:07Z</time>
      </trkpt>
      <trkpt lat="48.6739" lon="6.333">
        <ele>215.6</ele>
        <time>2022-03-03T12:26:11Z</time>
      </trkpt>
      <trkpt lat="48.67396" lon="6.33341">
        <ele>215.8</ele>
        <time>2022-03-03T12:26:15Z</time>
      </trkpt>
      <trkpt lat="48.67401" lon="6.33383">
        <ele>215.8</ele>
        <time>2022-03-03T12:26:19Z</time>
      </trkpt>
      <trkpt lat="48.67407" lon="6.33424">
        <ele>216</ele>
        <time>2022-03-03T12:26:23Z</time>
      </trkpt>
      <trkpt lat="48.67411" lon="6.33463">
        <ele>216.2</ele>
        <time>2022-03-03T12:26:27Z</time>
      </trkpt>
      <trkpt lat="48.67416" lon="6.33501">
        <ele>216.2</ele>
        <time>2022-03-03T12:26:31Z</time>
      </trkpt>
      <trkpt lat="48.67421" lon="6.33539">
        <ele>216.2</ele>
        <time>2022-03-03T12:26:35Z</time>
      </trkpt>
      <trkpt lat="48.67425" lon="6.33577">
        <ele>216.6</ele>
        <time>2022-03-03T12:26:39Z</time>
      </trkpt>
      <trkpt lat="48.67431" lon="6.33614">
        <ele>217</ele>
        <time>2022-03-03T12:26:43Z</time>
      </trkpt>
      <trkpt lat="48.67439" lon="6.33652">
        <ele>216.4</ele>
        <time>2022-03-03T12:26:47Z</time>
      </trkpt>
      <trkpt lat="48.67452" lon="6.3369">
        <ele>215.6</ele>
        <time>2022-03-03T12:26:51Z</time>
      </trkpt>
      <trkpt lat="48.67467" lon="6.33725">
        <ele>215.2</ele>
        <time>2022-03-03T12:26:55Z</time>
      </trkpt>
      <trkpt lat="48.67482" lon="6.3375">
        <ele>215.4</ele>
        <time>2022-03-03T12:26:58Z</time>
      </trkpt>
      <trkpt lat="48.67499" lon="6.33773">
        <ele>215.4</ele>
        <time>2022-03-03T12:27:01Z</time>
      </trkpt>
      <trkpt lat="48.67517" lon="6.33793">
        <ele>215.4</ele>
        <time>2022-03-03T12:27:04Z</time>
      </trkpt>
      <trkpt lat="48.67537" lon="6.33812">
        <ele>215.4</ele>
        <time>2022-03-03T12:27:07Z</time>
      </trkpt>
      <trkpt lat="48.67555" lon="6.3383">
        <ele>215.8</ele>
        <time>2022-03-03T12:27:10Z</time>
      </trkpt>
      <trkpt lat="48.67579" lon="6.33855">
        <ele>216</ele>
        <time>2022-03-03T12:27:14Z</time>
      </trkpt>
      <trkpt lat="48.67603" lon="6.33878">
        <ele>215.8</ele>
        <time>2022-03-03T12:27:18Z</time>
      </trkpt>
      <trkpt lat="48.67628" lon="6.33899">
        <ele>215.8</ele>
        <time>2022-03-03T12:27:22Z</time>
      </trkpt>
      <trkpt lat="48.67653" lon="6.33917">
        <ele>216.4</ele>
        <time>2022-03-03T12:27:26Z</time>
      </trkpt>
      <trkpt lat="48.67678" lon="6.33934">
        <ele>216.2</ele>
        <time>2022-03-03T12:27:30Z</time>
      </trkpt>
      <trkpt lat="48.67703" lon="6.33957">
        <ele>216.2</ele>
        <time>2022-03-03T12:27:34Z</time>
      </trkpt>
      <trkpt lat="48.67721" lon="6.33976">
        <ele>216</ele>
        <time>2022-03-03T12:27:37Z</time>
      </trkpt>
      <trkpt lat="48.67738" lon="6.33998">
        <ele>215.6</ele>
        <time>2022-03-03T12:27:40Z</time>
      </trkpt>
      <trkpt lat="48.67742" lon="6.34007">
        <ele>215.4</ele>
        <time>2022-03-03T12:27:41Z</time>
      </trkpt>
      <trkpt lat="48.67745" lon="6.34017">
        <ele>215</ele>
        <time>2022-03-03T12:27:42Z</time>
      </trkpt>
      <trkpt lat="48.67747" lon="6.34027">
        <ele>214.8</ele>
        <time>2022-03-03T12:27:43Z</time>
      </trkpt>
      <trkpt lat="48.67747" lon="6.34039">
        <ele>214.6</ele>
        <time>2022-03-03T12:27:44Z</time>
      </trkpt>
      <trkpt lat="48.67745" lon="6.3405">
        <ele>214.4</ele>
        <time>2022-03-03T12:27:45Z</time>
      </trkpt>
      <trkpt lat="48.67741" lon="6.3406">
        <ele>214.2</ele>
        <time>2022-03-03T12:27:46Z</time>
      </trkpt>
      <trkpt lat="48.67736" lon="6.34069">
        <ele>214.2</ele>
        <time>2022-03-03T12:27:47Z</time>
      </trkpt>
      <trkpt lat="48.6773" lon="6.34078">
        <ele>214</ele>
        <time>2022-03-03T12:27:48Z</time>
      </trkpt>
      <trkpt lat="48.67724" lon="6.34086">
        <ele>214</ele>
        <time>2022-03-03T12:27:49Z</time>
      </trkpt>
      <trkpt lat="48.67718" lon="6.34095">
        <ele>214</ele>
        <time>2022-03-03T12:27:50Z</time>
      </trkpt>
      <trkpt lat="48.67701" lon="6.3412">
        <ele>213.8</ele>
        <time>2022-03-03T12:27:53Z</time>
      </trkpt>
      <trkpt lat="48.67685" lon="6.34145">
        <ele>213.8</ele>
        <time>2022-03-03T12:27:56Z</time>
      </trkpt>
      <trkpt lat="48.67665" lon="6.34175">
        <ele>213.4</ele>
        <time>2022-03-03T12:28:00Z</time>
      </trkpt>
      <trkpt lat="48.67648" lon="6.34199">
        <ele>214</ele>
        <time>2022-03-03T12:28:04Z</time>
      </trkpt>
      <trkpt lat="48.6763" lon="6.34226">
        <ele>215.2</ele>
        <time>2022-03-03T12:28:09Z</time>
      </trkpt>
      <trkpt lat="48.67613" lon="6.34251">
        <ele>216.6</ele>
        <time>2022-03-03T12:28:14Z</time>
      </trkpt>
      <trkpt lat="48.67612" lon="6.34256">
        <ele>217</ele>
        <time>2022-03-03T12:28:15Z</time>
      </trkpt>
      <trkpt lat="48.67612" lon="6.34262">
        <ele>217.2</ele>
        <time>2022-03-03T12:28:16Z</time>
      </trkpt>
      <trkpt lat="48.67612" lon="6.34269">
        <ele>217.2</ele>
        <time>2022-03-03T12:28:17Z</time>
      </trkpt>
      <trkpt lat="48.67614" lon="6.34276">
        <ele>217.4</ele>
        <time>2022-03-03T12:28:18Z</time>
      </trkpt>
      <trkpt lat="48.67616" lon="6.34282">
        <ele>217.4</ele>
        <time>2022-03-03T12:28:19Z</time>
      </trkpt>
      <trkpt lat="48.67619" lon="6.34289">
        <ele>217.4</ele>
        <time>2022-03-03T12:28:20Z</time>
      </trkpt>
      <trkpt lat="48.67622" lon="6.34295">
        <ele>217.4</ele>
        <time>2022-03-03T12:28:21Z</time>
      </trkpt>
      <trkpt lat="48.67626" lon="6.34302">
        <ele>217.6</ele>
        <time>2022-03-03T12:28:22Z</time>
      </trkpt>
      <trkpt lat="48.6764" lon="6.3433">
        <ele>217.6</ele>
        <time>2022-03-03T12:28:26Z</time>
      </trkpt>
      <trkpt lat="48.67654" lon="6.34359">
        <ele>217.6</ele>
        <time>2022-03-03T12:28:30Z</time>
      </trkpt>
      <trkpt lat="48.67668" lon="6.34388">
        <ele>217.6</ele>
        <time>2022-03-03T12:28:34Z</time>
      </trkpt>
      <trkpt lat="48.67681" lon="6.34417">
        <ele>217.6</ele>
        <time>2022-03-03T12:28:38Z</time>
      </trkpt>
      <trkpt lat="48.67694" lon="6.34445">
        <ele>217.8</ele>
        <time>2022-03-03T12:28:42Z</time>
      </trkpt>
      <trkpt lat="48.67706" lon="6.34472">
        <ele>218.4</ele>
        <time>2022-03-03T12:28:46Z</time>
      </trkpt>
      <trkpt lat="48.67719" lon="6.34501">
        <ele>218.8</ele>
        <time>2022-03-03T12:28:50Z</time>
      </trkpt>
      <trkpt lat="48.67731" lon="6.34529">
        <ele>219.2</ele>
        <time>2022-03-03T12:28:54Z</time>
      </trkpt>
      <trkpt lat="48.67743" lon="6.34559">
        <ele>219.4</ele>
        <time>2022-03-03T12:28:58Z</time>
      </trkpt>
      <trkpt lat="48.67756" lon="6.34591">
        <ele>219.6</ele>
        <time>2022-03-03T12:29:02Z</time>
      </trkpt>
      <trkpt lat="48.67767" lon="6.34623">
        <ele>219.8</ele>
        <time>2022-03-03T12:29:06Z</time>
      </trkpt>
      <trkpt lat="48.67773" lon="6.34638">
        <ele>220.2</ele>
        <time>2022-03-03T12:29:08Z</time>
      </trkpt>
      <trkpt lat="48.67777" lon="6.34645">
        <ele>220.4</ele>
        <time>2022-03-03T12:29:09Z</time>
      </trkpt>
      <trkpt lat="48.67784" lon="6.34657">
        <ele>220.6</ele>
        <time>2022-03-03T12:29:11Z</time>
      </trkpt>
      <trkpt lat="48.67789" lon="6.34662">
        <ele>220.8</ele>
        <time>2022-03-03T12:29:12Z</time>
      </trkpt>
      <trkpt lat="48.67794" lon="6.34665">
        <ele>221</ele>
        <time>2022-03-03T12:29:13Z</time>
      </trkpt>
      <trkpt lat="48.67798" lon="6.34668">
        <ele>221.4</ele>
        <time>2022-03-03T12:29:14Z</time>
      </trkpt>
      <trkpt lat="48.67803" lon="6.3467">
        <ele>221.6</ele>
        <time>2022-03-03T12:29:15Z</time>
      </trkpt>
      <trkpt lat="48.67808" lon="6.34671">
        <ele>221.8</ele>
        <time>2022-03-03T12:29:16Z</time>
      </trkpt>
      <trkpt lat="48.67833" lon="6.34675">
        <ele>222.4</ele>
        <time>2022-03-03T12:29:21Z</time>
      </trkpt>
      <trkpt lat="48.67855" lon="6.34676">
        <ele>222.4</ele>
        <time>2022-03-03T12:29:25Z</time>
      </trkpt>
      <trkpt lat="48.67878" lon="6.34674">
        <ele>222</ele>
        <time>2022-03-03T12:29:29Z</time>
      </trkpt>
      <trkpt lat="48.67906" lon="6.34671">
        <ele>220.8</ele>
        <time>2022-03-03T12:29:33Z</time>
      </trkpt>
      <trkpt lat="48.6793" lon="6.34671">
        <ele>219.6</ele>
        <time>2022-03-03T12:29:36Z</time>
      </trkpt>
      <trkpt lat="48.67938" lon="6.34673">
        <ele>219.2</ele>
        <time>2022-03-03T12:29:37Z</time>
      </trkpt>
      <trkpt lat="48.67954" lon="6.3468">
        <ele>218.4</ele>
        <time>2022-03-03T12:29:39Z</time>
      </trkpt>
      <trkpt lat="48.67979" lon="6.34693">
        <ele>218</ele>
        <time>2022-03-03T12:29:42Z</time>
      </trkpt>
      <trkpt lat="48.68001" lon="6.34708">
        <ele>217.8</ele>
        <time>2022-03-03T12:29:45Z</time>
      </trkpt>
      <trkpt lat="48.68025" lon="6.3473">
        <ele>218.6</ele>
        <time>2022-03-03T12:29:49Z</time>
      </trkpt>
      <trkpt lat="48.68047" lon="6.3475">
        <ele>219.2</ele>
        <time>2022-03-03T12:29:53Z</time>
      </trkpt>
      <trkpt lat="48.68066" lon="6.34772">
        <ele>219.6</ele>
        <time>2022-03-03T12:29:57Z</time>
      </trkpt>
      <trkpt lat="48.68083" lon="6.34793">
        <ele>220.4</ele>
        <time>2022-03-03T12:30:01Z</time>
      </trkpt>
      <trkpt lat="48.68099" lon="6.34815">
        <ele>221</ele>
        <time>2022-03-03T12:30:05Z</time>
      </trkpt>
      <trkpt lat="48.68107" lon="6.34826">
        <ele>221.2</ele>
        <time>2022-03-03T12:30:07Z</time>
      </trkpt>
      <trkpt lat="48.68123" lon="6.34849">
        <ele>222</ele>
        <time>2022-03-03T12:30:11Z</time>
      </trkpt>
      <trkpt lat="48.68141" lon="6.34877">
        <ele>223.2</ele>
        <time>2022-03-03T12:30:16Z</time>
      </trkpt>
      <trkpt lat="48.68159" lon="6.34904">
        <ele>223.8</ele>
        <time>2022-03-03T12:30:21Z</time>
      </trkpt>
      <trkpt lat="48.68173" lon="6.34927">
        <ele>224.8</ele>
        <time>2022-03-03T12:30:25Z</time>
      </trkpt>
      <trkpt lat="48.68187" lon="6.34958">
        <ele>225.8</ele>
        <time>2022-03-03T12:30:30Z</time>
      </trkpt>
      <trkpt lat="48.68195" lon="6.34992">
        <ele>226.4</ele>
        <time>2022-03-03T12:30:35Z</time>
      </trkpt>
      <trkpt lat="48.68202" lon="6.35023">
        <ele>226.6</ele>
        <time>2022-03-03T12:30:39Z</time>
      </trkpt>
      <trkpt lat="48.68205" lon="6.35031">
        <ele>226.4</ele>
        <time>2022-03-03T12:30:40Z</time>
      </trkpt>
      <trkpt lat="48.68218" lon="6.35065">
        <ele>224.8</ele>
        <time>2022-03-03T12:30:44Z</time>
      </trkpt>
      <trkpt lat="48.68232" lon="6.35094">
        <ele>223.4</ele>
        <time>2022-03-03T12:30:47Z</time>
      </trkpt>
      <trkpt lat="48.68248" lon="6.35126">
        <ele>221.6</ele>
        <time>2022-03-03T12:30:50Z</time>
      </trkpt>
      <trkpt lat="48.68264" lon="6.35159">
        <ele>219.6</ele>
        <time>2022-03-03T12:30:53Z</time>
      </trkpt>
      <trkpt lat="48.68279" lon="6.35194">
        <ele>218</ele>
        <time>2022-03-03T12:30:56Z</time>
      </trkpt>
      <trkpt lat="48.68292" lon="6.35226">
        <ele>216.8</ele>
        <time>2022-03-03T12:30:59Z</time>
      </trkpt>
      <trkpt lat="48.68304" lon="6.35257">
        <ele>216.8</ele>
        <time>2022-03-03T12:31:02Z</time>
      </trkpt>
      <trkpt lat="48.68319" lon="6.35294">
        <ele>216.4</ele>
        <time>2022-03-03T12:31:06Z</time>
      </trkpt>
      <trkpt lat="48.68335" lon="6.35326">
        <ele>216.6</ele>
        <time>2022-03-03T12:31:10Z</time>
      </trkpt>
      <trkpt lat="48.68353" lon="6.35355">
        <ele>216.8</ele>
        <time>2022-03-03T12:31:14Z</time>
      </trkpt>
      <trkpt lat="48.6837" lon="6.35379">
        <ele>217.4</ele>
        <time>2022-03-03T12:31:18Z</time>
      </trkpt>
      <trkpt lat="48.68387" lon="6.35401">
        <ele>219</ele>
        <time>2022-03-03T12:31:22Z</time>
      </trkpt>
      <trkpt lat="48.68404" lon="6.35426">
        <ele>220.4</ele>
        <time>2022-03-03T12:31:27Z</time>
      </trkpt>
      <trkpt lat="48.68423" lon="6.35451">
        <ele>220.8</ele>
        <time>2022-03-03T12:31:32Z</time>
      </trkpt>
      <trkpt lat="48.68442" lon="6.35476">
        <ele>221.4</ele>
        <time>2022-03-03T12:31:37Z</time>
      </trkpt>
      <trkpt lat="48.6846" lon="6.355">
        <ele>222</ele>
        <time>2022-03-03T12:31:42Z</time>
      </trkpt>
      <trkpt lat="48.6848" lon="6.35525">
        <ele>222.4</ele>
        <time>2022-03-03T12:31:47Z</time>
      </trkpt>
      <trkpt lat="48.68499" lon="6.35549">
        <ele>222.8</ele>
        <time>2022-03-03T12:31:52Z</time>
      </trkpt>
      <trkpt lat="48.68519" lon="6.35574">
        <ele>224</ele>
        <time>2022-03-03T12:31:57Z</time>
      </trkpt>
      <trkpt lat="48.68539" lon="6.35596">
        <ele>225.2</ele>
        <time>2022-03-03T12:32:02Z</time>
      </trkpt>
      <trkpt lat="48.68558" lon="6.35616">
        <ele>225.8</ele>
        <time>2022-03-03T12:32:07Z</time>
      </trkpt>
      <trkpt lat="48.68575" lon="6.35635">
        <ele>227.2</ele>
        <time>2022-03-03T12:32:12Z</time>
      </trkpt>
      <trkpt lat="48.68594" lon="6.35656">
        <ele>228.8</ele>
        <time>2022-03-03T12:32:18Z</time>
      </trkpt>
      <trkpt lat="48.68613" lon="6.35676">
        <ele>230.4</ele>
        <time>2022-03-03T12:32:24Z</time>
      </trkpt>
      <trkpt lat="48.68634" lon="6.35695">
        <ele>231.6</ele>
        <time>2022-03-03T12:32:30Z</time>
      </trkpt>
      <trkpt lat="48.68656" lon="6.3571">
        <ele>233</ele>
        <time>2022-03-03T12:32:36Z</time>
      </trkpt>
      <trkpt lat="48.68677" lon="6.35722">
        <ele>233.8</ele>
        <time>2022-03-03T12:32:41Z</time>
      </trkpt>
      <trkpt lat="48.68699" lon="6.35733">
        <ele>234.8</ele>
        <time>2022-03-03T12:32:46Z</time>
      </trkpt>
      <trkpt lat="48.68719" lon="6.35741">
        <ele>235.6</ele>
        <time>2022-03-03T12:32:51Z</time>
      </trkpt>
      <trkpt lat="48.68741" lon="6.3575">
        <ele>236.4</ele>
        <time>2022-03-03T12:32:57Z</time>
      </trkpt>
      <trkpt lat="48.68764" lon="6.35758">
        <ele>237</ele>
        <time>2022-03-03T12:33:02Z</time>
      </trkpt>
      <trkpt lat="48.68789" lon="6.35762">
        <ele>238</ele>
        <time>2022-03-03T12:33:08Z</time>
      </trkpt>
      <trkpt lat="48.68809" lon="6.35763">
        <ele>238.6</ele>
        <time>2022-03-03T12:33:14Z</time>
      </trkpt>
      <trkpt lat="48.68831" lon="6.35764">
        <ele>239.4</ele>
        <time>2022-03-03T12:33:20Z</time>
      </trkpt>
      <trkpt lat="48.68855" lon="6.35766">
        <ele>240.2</ele>
        <time>2022-03-03T12:33:26Z</time>
      </trkpt>
      <trkpt lat="48.68879" lon="6.3577">
        <ele>241.2</ele>
        <time>2022-03-03T12:33:32Z</time>
      </trkpt>
      <trkpt lat="48.68898" lon="6.35774">
        <ele>242</ele>
        <time>2022-03-03T12:33:36Z</time>
      </trkpt>
      <trkpt lat="48.68908" lon="6.35776">
        <ele>242.4</ele>
        <time>2022-03-03T12:33:38Z</time>
      </trkpt>
      <trkpt lat="48.68936" lon="6.3578">
        <ele>243.6</ele>
        <time>2022-03-03T12:33:44Z</time>
      </trkpt>
      <trkpt lat="48.68959" lon="6.35785">
        <ele>244.6</ele>
        <time>2022-03-03T12:33:49Z</time>
      </trkpt>
      <trkpt lat="48.68984" lon="6.35791">
        <ele>245.4</ele>
        <time>2022-03-03T12:33:54Z</time>
      </trkpt>
      <trkpt lat="48.69008" lon="6.35798">
        <ele>246.2</ele>
        <time>2022-03-03T12:33:59Z</time>
      </trkpt>
      <trkpt lat="48.69032" lon="6.35805">
        <ele>247.2</ele>
        <time>2022-03-03T12:34:04Z</time>
      </trkpt>
      <trkpt lat="48.69054" lon="6.3581">
        <ele>248</ele>
        <time>2022-03-03T12:34:09Z</time>
      </trkpt>
      <trkpt lat="48.69077" lon="6.35817">
        <ele>249</ele>
        <time>2022-03-03T12:34:14Z</time>
      </trkpt>
      <trkpt lat="48.69101" lon="6.35824">
        <ele>249.8</ele>
        <time>2022-03-03T12:34:19Z</time>
      </trkpt>
      <trkpt lat="48.69126" lon="6.35835">
        <ele>251</ele>
        <time>2022-03-03T12:34:24Z</time>
      </trkpt>
      <trkpt lat="48.69129" lon="6.35838">
        <ele>251.2</ele>
        <time>2022-03-03T12:34:25Z</time>
      </trkpt>
      <trkpt lat="48.69151" lon="6.35853">
        <ele>252.2</ele>
        <time>2022-03-03T12:34:30Z</time>
      </trkpt>
      <trkpt lat="48.69168" lon="6.35871">
        <ele>253</ele>
        <time>2022-03-03T12:34:35Z</time>
      </trkpt>
      <trkpt lat="48.69186" lon="6.35891">
        <ele>253.6</ele>
        <time>2022-03-03T12:34:40Z</time>
      </trkpt>
      <trkpt lat="48.69209" lon="6.35911">
        <ele>254.2</ele>
        <time>2022-03-03T12:34:45Z</time>
      </trkpt>
      <trkpt lat="48.69229" lon="6.35935">
        <ele>255</ele>
        <time>2022-03-03T12:34:50Z</time>
      </trkpt>
      <trkpt lat="48.69251" lon="6.35961">
        <ele>255.2</ele>
        <time>2022-03-03T12:34:55Z</time>
      </trkpt>
      <trkpt lat="48.69272" lon="6.35986">
        <ele>255.2</ele>
        <time>2022-03-03T12:34:59Z</time>
      </trkpt>
      <trkpt lat="48.69292" lon="6.36011">
        <ele>255.2</ele>
        <time>2022-03-03T12:35:03Z</time>
      </trkpt>
      <trkpt lat="48.69313" lon="6.36037">
        <ele>255.2</ele>
        <time>2022-03-03T12:35:07Z</time>
      </trkpt>
      <trkpt lat="48.69333" lon="6.36063">
        <ele>255</ele>
        <time>2022-03-03T12:35:11Z</time>
      </trkpt>
      <trkpt lat="48.69354" lon="6.3609">
        <ele>255</ele>
        <time>2022-03-03T12:35:15Z</time>
      </trkpt>
      <trkpt lat="48.69379" lon="6.36118">
        <ele>254.8</ele>
        <time>2022-03-03T12:35:19Z</time>
      </trkpt>
      <trkpt lat="48.69403" lon="6.36145">
        <ele>254</ele>
        <time>2022-03-03T12:35:23Z</time>
      </trkpt>
      <trkpt lat="48.69425" lon="6.36172">
        <ele>253.2</ele>
        <time>2022-03-03T12:35:27Z</time>
      </trkpt>
      <trkpt lat="48.69448" lon="6.362">
        <ele>252</ele>
        <time>2022-03-03T12:35:31Z</time>
      </trkpt>
      <trkpt lat="48.69467" lon="6.36235">
        <ele>251</ele>
        <time>2022-03-03T12:35:35Z</time>
      </trkpt>
      <trkpt lat="48.69469" lon="6.36246">
        <ele>251</ele>
        <time>2022-03-03T12:35:36Z</time>
      </trkpt>
      <trkpt lat="48.69469" lon="6.36256">
        <ele>250.8</ele>
        <time>2022-03-03T12:35:37Z</time>
      </trkpt>
      <trkpt lat="48.69468" lon="6.36266">
        <ele>250.4</ele>
        <time>2022-03-03T12:35:38Z</time>
      </trkpt>
      <trkpt lat="48.69465" lon="6.36276">
        <ele>250</ele>
        <time>2022-03-03T12:35:39Z</time>
      </trkpt>
      <trkpt lat="48.69462" lon="6.36286">
        <ele>249.8</ele>
        <time>2022-03-03T12:35:40Z</time>
      </trkpt>
      <trkpt lat="48.69459" lon="6.36296">
        <ele>249.6</ele>
        <time>2022-03-03T12:35:41Z</time>
      </trkpt>
      <trkpt lat="48.69448" lon="6.36331">
        <ele>249</ele>
        <time>2022-03-03T12:35:45Z</time>
      </trkpt>
      <trkpt lat="48.69435" lon="6.36369">
        <ele>248.2</ele>
        <time>2022-03-03T12:35:49Z</time>
      </trkpt>
      <trkpt lat="48.69422" lon="6.36408">
        <ele>247.2</ele>
        <time>2022-03-03T12:35:53Z</time>
      </trkpt>
      <trkpt lat="48.69408" lon="6.3645">
        <ele>245.4</ele>
        <time>2022-03-03T12:35:57Z</time>
      </trkpt>
      <trkpt lat="48.694" lon="6.36481">
        <ele>244.2</ele>
        <time>2022-03-03T12:36:00Z</time>
      </trkpt>
      <trkpt lat="48.6939" lon="6.36522">
        <ele>242.6</ele>
        <time>2022-03-03T12:36:03Z</time>
      </trkpt>
      <trkpt lat="48.69381" lon="6.36563">
        <ele>241</ele>
        <time>2022-03-03T12:36:06Z</time>
      </trkpt>
      <trkpt lat="48.69372" lon="6.36603">
        <ele>239</ele>
        <time>2022-03-03T12:36:09Z</time>
      </trkpt>
      <trkpt lat="48.69362" lon="6.36642">
        <ele>237.6</ele>
        <time>2022-03-03T12:36:12Z</time>
      </trkpt>
      <trkpt lat="48.69355" lon="6.36677">
        <ele>236.8</ele>
        <time>2022-03-03T12:36:15Z</time>
      </trkpt>
      <trkpt lat="48.69353" lon="6.36689">
        <ele>236.8</ele>
        <time>2022-03-03T12:36:16Z</time>
      </trkpt>
      <trkpt lat="48.69355" lon="6.36721">
        <ele>236.6</ele>
        <time>2022-03-03T12:36:19Z</time>
      </trkpt>
      <trkpt lat="48.69356" lon="6.36731">
        <ele>236.4</ele>
        <time>2022-03-03T12:36:20Z</time>
      </trkpt>
      <trkpt lat="48.69358" lon="6.3674">
        <ele>236.2</ele>
        <time>2022-03-03T12:36:21Z</time>
      </trkpt>
      <trkpt lat="48.69359" lon="6.36749">
        <ele>236</ele>
        <time>2022-03-03T12:36:22Z</time>
      </trkpt>
      <trkpt lat="48.69371" lon="6.36783">
        <ele>235</ele>
        <time>2022-03-03T12:36:28Z</time>
      </trkpt>
      <trkpt lat="48.69375" lon="6.36789">
        <ele>235</ele>
        <time>2022-03-03T12:36:30Z</time>
      </trkpt>
      <trkpt lat="48.69397" lon="6.36805">
        <ele>235.2</ele>
        <time>2022-03-03T12:37:30Z</time>
      </trkpt>
      <trkpt lat="48.69399" lon="6.36804">
        <ele>235.2</ele>
        <time>2022-03-03T12:37:31Z</time>
      </trkpt>
      <trkpt lat="48.69401" lon="6.36803">
        <ele>235.4</ele>
        <time>2022-03-03T12:37:32Z</time>
      </trkpt>
      <trkpt lat="48.69404" lon="6.36802">
        <ele>235.4</ele>
        <time>2022-03-03T12:37:33Z</time>
      </trkpt>
      <trkpt lat="48.69407" lon="6.36802">
        <ele>235.6</ele>
        <time>2022-03-03T12:37:34Z</time>
      </trkpt>
      <trkpt lat="48.69411" lon="6.36802">
        <ele>235.6</ele>
        <time>2022-03-03T12:37:35Z</time>
      </trkpt>
      <trkpt lat="48.69415" lon="6.36802">
        <ele>235.6</ele>
        <time>2022-03-03T12:37:36Z</time>
      </trkpt>
      <trkpt lat="48.69419" lon="6.36803">
        <ele>235.8</ele>
        <time>2022-03-03T12:37:37Z</time>
      </trkpt>
      <trkpt lat="48.69424" lon="6.36805">
        <ele>235.8</ele>
        <time>2022-03-03T12:37:38Z</time>
      </trkpt>
      <trkpt lat="48.69429" lon="6.36807">
        <ele>236</ele>
        <time>2022-03-03T12:37:39Z</time>
      </trkpt>
      <trkpt lat="48.69438" lon="6.36813">
        <ele>236.2</ele>
        <time>2022-03-03T12:37:41Z</time>
      </trkpt>
      <trkpt lat="48.69443" lon="6.36817">
        <ele>236</ele>
        <time>2022-03-03T12:37:42Z</time>
      </trkpt>
      <trkpt lat="48.69447" lon="6.36823">
        <ele>235.8</ele>
        <time>2022-03-03T12:37:43Z</time>
      </trkpt>
      <trkpt lat="48.69452" lon="6.3683">
        <ele>235.6</ele>
        <time>2022-03-03T12:37:44Z</time>
      </trkpt>
      <trkpt lat="48.69456" lon="6.36837">
        <ele>235.6</ele>
        <time>2022-03-03T12:37:45Z</time>
      </trkpt>
      <trkpt lat="48.6946" lon="6.36845">
        <ele>235.4</ele>
        <time>2022-03-03T12:37:46Z</time>
      </trkpt>
      <trkpt lat="48.69464" lon="6.36853">
        <ele>235</ele>
        <time>2022-03-03T12:37:47Z</time>
      </trkpt>
      <trkpt lat="48.69467" lon="6.36863">
        <ele>234.8</ele>
        <time>2022-03-03T12:37:48Z</time>
      </trkpt>
      <trkpt lat="48.6947" lon="6.36873">
        <ele>234.6</ele>
        <time>2022-03-03T12:37:49Z</time>
      </trkpt>
      <trkpt lat="48.69472" lon="6.36884">
        <ele>234.4</ele>
        <time>2022-03-03T12:37:50Z</time>
      </trkpt>
      <trkpt lat="48.6948" lon="6.36916">
        <ele>233.2</ele>
        <time>2022-03-03T12:37:53Z</time>
      </trkpt>
      <trkpt lat="48.69488" lon="6.36952">
        <ele>232.6</ele>
        <time>2022-03-03T12:37:56Z</time>
      </trkpt>
      <trkpt lat="48.69496" lon="6.3699">
        <ele>231.4</ele>
        <time>2022-03-03T12:37:59Z</time>
      </trkpt>
      <trkpt lat="48.69505" lon="6.37028">
        <ele>230.2</ele>
        <time>2022-03-03T12:38:02Z</time>
      </trkpt>
      <trkpt lat="48.69514" lon="6.37069">
        <ele>228.4</ele>
        <time>2022-03-03T12:38:05Z</time>
      </trkpt>
      <trkpt lat="48.69522" lon="6.37095">
        <ele>227.4</ele>
        <time>2022-03-03T12:38:07Z</time>
      </trkpt>
      <trkpt lat="48.69527" lon="6.37108">
        <ele>227</ele>
        <time>2022-03-03T12:38:08Z</time>
      </trkpt>
      <trkpt lat="48.69534" lon="6.3712">
        <ele>226.2</ele>
        <time>2022-03-03T12:38:09Z</time>
      </trkpt>
      <trkpt lat="48.69555" lon="6.37153">
        <ele>224.4</ele>
        <time>2022-03-03T12:38:12Z</time>
      </trkpt>
      <trkpt lat="48.69577" lon="6.37182">
        <ele>223</ele>
        <time>2022-03-03T12:38:15Z</time>
      </trkpt>
      <trkpt lat="48.69584" lon="6.37191">
        <ele>222.6</ele>
        <time>2022-03-03T12:38:16Z</time>
      </trkpt>
      <trkpt lat="48.69605" lon="6.37217">
        <ele>222</ele>
        <time>2022-03-03T12:38:19Z</time>
      </trkpt>
      <trkpt lat="48.69625" lon="6.37241">
        <ele>222.4</ele>
        <time>2022-03-03T12:38:22Z</time>
      </trkpt>
      <trkpt lat="48.69645" lon="6.37261">
        <ele>222.8</ele>
        <time>2022-03-03T12:38:25Z</time>
      </trkpt>
      <trkpt lat="48.69668" lon="6.3728">
        <ele>224.2</ele>
        <time>2022-03-03T12:38:29Z</time>
      </trkpt>
      <trkpt lat="48.69686" lon="6.37297">
        <ele>224.8</ele>
        <time>2022-03-03T12:38:33Z</time>
      </trkpt>
      <trkpt lat="48.69706" lon="6.37319">
        <ele>226.2</ele>
        <time>2022-03-03T12:38:38Z</time>
      </trkpt>
      <trkpt lat="48.69724" lon="6.37343">
        <ele>227.4</ele>
        <time>2022-03-03T12:38:43Z</time>
      </trkpt>
      <trkpt lat="48.6974" lon="6.37372">
        <ele>228.8</ele>
        <time>2022-03-03T12:38:48Z</time>
      </trkpt>
      <trkpt lat="48.69754" lon="6.37401">
        <ele>229.8</ele>
        <time>2022-03-03T12:38:53Z</time>
      </trkpt>
      <trkpt lat="48.69768" lon="6.3743">
        <ele>230.8</ele>
        <time>2022-03-03T12:38:58Z</time>
      </trkpt>
      <trkpt lat="48.69782" lon="6.37461">
        <ele>231.6</ele>
        <time>2022-03-03T12:39:03Z</time>
      </trkpt>
      <trkpt lat="48.69795" lon="6.37487">
        <ele>232.2</ele>
        <time>2022-03-03T12:39:07Z</time>
      </trkpt>
      <trkpt lat="48.6981" lon="6.37518">
        <ele>232.8</ele>
        <time>2022-03-03T12:39:12Z</time>
      </trkpt>
      <trkpt lat="48.69822" lon="6.37544">
        <ele>233.4</ele>
        <time>2022-03-03T12:39:16Z</time>
      </trkpt>
      <trkpt lat="48.69836" lon="6.37575">
        <ele>234.2</ele>
        <time>2022-03-03T12:39:21Z</time>
      </trkpt>
      <trkpt lat="48.6985" lon="6.37607">
        <ele>235</ele>
        <time>2022-03-03T12:39:26Z</time>
      </trkpt>
      <trkpt lat="48.69862" lon="6.37633">
        <ele>235.2</ele>
        <time>2022-03-03T12:39:30Z</time>
      </trkpt>
      <trkpt lat="48.69875" lon="6.37659">
        <ele>235.6</ele>
        <time>2022-03-03T12:39:34Z</time>
      </trkpt>
      <trkpt lat="48.69887" lon="6.37686">
        <ele>236.2</ele>
        <time>2022-03-03T12:39:38Z</time>
      </trkpt>
      <trkpt lat="48.699" lon="6.37713">
        <ele>236.8</ele>
        <time>2022-03-03T12:39:42Z</time>
      </trkpt>
      <trkpt lat="48.69912" lon="6.3774">
        <ele>237</ele>
        <time>2022-03-03T12:39:46Z</time>
      </trkpt>
      <trkpt lat="48.69926" lon="6.37768">
        <ele>237.6</ele>
        <time>2022-03-03T12:39:50Z</time>
      </trkpt>
      <trkpt lat="48.69939" lon="6.37795">
        <ele>238.2</ele>
        <time>2022-03-03T12:39:54Z</time>
      </trkpt>
      <trkpt lat="48.69951" lon="6.37821">
        <ele>239</ele>
        <time>2022-03-03T12:39:58Z</time>
      </trkpt>
      <trkpt lat="48.69963" lon="6.37848">
        <ele>239.4</ele>
        <time>2022-03-03T12:40:02Z</time>
      </trkpt>
      <trkpt lat="48.69977" lon="6.37875">
        <ele>239.6</ele>
        <time>2022-03-03T12:40:06Z</time>
      </trkpt>
      <trkpt lat="48.69993" lon="6.37904">
        <ele>239.6</ele>
        <time>2022-03-03T12:40:10Z</time>
      </trkpt>
      <trkpt lat="48.7001" lon="6.37934">
        <ele>239.4</ele>
        <time>2022-03-03T12:40:14Z</time>
      </trkpt>
      <trkpt lat="48.70027" lon="6.37964">
        <ele>239</ele>
        <time>2022-03-03T12:40:18Z</time>
      </trkpt>
      <trkpt lat="48.70043" lon="6.37994">
        <ele>239</ele>
        <time>2022-03-03T12:40:22Z</time>
      </trkpt>
      <trkpt lat="48.70061" lon="6.38026">
        <ele>238.6</ele>
        <time>2022-03-03T12:40:26Z</time>
      </trkpt>
      <trkpt lat="48.70077" lon="6.38055">
        <ele>238.6</ele>
        <time>2022-03-03T12:40:30Z</time>
      </trkpt>
      <trkpt lat="48.70094" lon="6.38085">
        <ele>238.4</ele>
        <time>2022-03-03T12:40:34Z</time>
      </trkpt>
      <trkpt lat="48.70109" lon="6.38114">
        <ele>238.6</ele>
        <time>2022-03-03T12:40:38Z</time>
      </trkpt>
      <trkpt lat="48.70125" lon="6.38143">
        <ele>238.6</ele>
        <time>2022-03-03T12:40:42Z</time>
      </trkpt>
      <trkpt lat="48.70142" lon="6.38172">
        <ele>238.4</ele>
        <time>2022-03-03T12:40:46Z</time>
      </trkpt>
      <trkpt lat="48.70158" lon="6.38205">
        <ele>238.4</ele>
        <time>2022-03-03T12:40:50Z</time>
      </trkpt>
      <trkpt lat="48.70162" lon="6.38214">
        <ele>238.2</ele>
        <time>2022-03-03T12:40:51Z</time>
      </trkpt>
      <trkpt lat="48.70165" lon="6.38224">
        <ele>238</ele>
        <time>2022-03-03T12:40:52Z</time>
      </trkpt>
      <trkpt lat="48.70171" lon="6.38245">
        <ele>237.4</ele>
        <time>2022-03-03T12:40:54Z</time>
      </trkpt>
      <trkpt lat="48.70178" lon="6.38279">
        <ele>236.6</ele>
        <time>2022-03-03T12:40:57Z</time>
      </trkpt>
      <trkpt lat="48.70186" lon="6.38314">
        <ele>235.6</ele>
        <time>2022-03-03T12:41:00Z</time>
      </trkpt>
      <trkpt lat="48.70197" lon="6.38348">
        <ele>234</ele>
        <time>2022-03-03T12:41:03Z</time>
      </trkpt>
      <trkpt lat="48.7021" lon="6.3838">
        <ele>232.6</ele>
        <time>2022-03-03T12:41:06Z</time>
      </trkpt>
      <trkpt lat="48.70228" lon="6.3841">
        <ele>231.4</ele>
        <time>2022-03-03T12:41:09Z</time>
      </trkpt>
      <trkpt lat="48.70248" lon="6.3844">
        <ele>230.6</ele>
        <time>2022-03-03T12:41:12Z</time>
      </trkpt>
      <trkpt lat="48.70268" lon="6.38469">
        <ele>230</ele>
        <time>2022-03-03T12:41:15Z</time>
      </trkpt>
      <trkpt lat="48.70286" lon="6.38497">
        <ele>229.8</ele>
        <time>2022-03-03T12:41:18Z</time>
      </trkpt>
      <trkpt lat="48.70304" lon="6.38523">
        <ele>229.6</ele>
        <time>2022-03-03T12:41:21Z</time>
      </trkpt>
      <trkpt lat="48.7032" lon="6.38548">
        <ele>229.4</ele>
        <time>2022-03-03T12:41:24Z</time>
      </trkpt>
      <trkpt lat="48.70338" lon="6.38581">
        <ele>229.6</ele>
        <time>2022-03-03T12:41:28Z</time>
      </trkpt>
      <trkpt lat="48.7034" lon="6.38589">
        <ele>229.6</ele>
        <time>2022-03-03T12:41:29Z</time>
      </trkpt>
      <trkpt lat="48.7034" lon="6.38598">
        <ele>229.4</ele>
        <time>2022-03-03T12:41:30Z</time>
      </trkpt>
      <trkpt lat="48.70339" lon="6.38608">
        <ele>229.4</ele>
        <time>2022-03-03T12:41:31Z</time>
      </trkpt>
      <trkpt lat="48.70338" lon="6.38617">
        <ele>229.6</ele>
        <time>2022-03-03T12:41:32Z</time>
      </trkpt>
      <trkpt lat="48.70336" lon="6.38627">
        <ele>229.6</ele>
        <time>2022-03-03T12:41:33Z</time>
      </trkpt>
      <trkpt lat="48.70333" lon="6.38636">
        <ele>229.8</ele>
        <time>2022-03-03T12:41:34Z</time>
      </trkpt>
      <trkpt lat="48.70327" lon="6.38654">
        <ele>229.8</ele>
        <time>2022-03-03T12:41:36Z</time>
      </trkpt>
      <trkpt lat="48.70311" lon="6.38686">
        <ele>230.4</ele>
        <time>2022-03-03T12:41:40Z</time>
      </trkpt>
      <trkpt lat="48.70295" lon="6.38716">
        <ele>231</ele>
        <time>2022-03-03T12:41:44Z</time>
      </trkpt>
      <trkpt lat="48.70285" lon="6.38739">
        <ele>231.6</ele>
        <time>2022-03-03T12:41:47Z</time>
      </trkpt>
      <trkpt lat="48.70284" lon="6.38748">
        <ele>231.6</ele>
        <time>2022-03-03T12:41:48Z</time>
      </trkpt>
      <trkpt lat="48.70285" lon="6.38756">
        <ele>231.6</ele>
        <time>2022-03-03T12:41:49Z</time>
      </trkpt>
      <trkpt lat="48.70289" lon="6.38765">
        <ele>231.6</ele>
        <time>2022-03-03T12:41:50Z</time>
      </trkpt>
      <trkpt lat="48.70293" lon="6.38773">
        <ele>231.6</ele>
        <time>2022-03-03T12:41:51Z</time>
      </trkpt>
      <trkpt lat="48.70299" lon="6.38781">
        <ele>231.4</ele>
        <time>2022-03-03T12:41:52Z</time>
      </trkpt>
      <trkpt lat="48.70304" lon="6.38788">
        <ele>231.4</ele>
        <time>2022-03-03T12:41:53Z</time>
      </trkpt>
      <trkpt lat="48.70312" lon="6.38795">
        <ele>231.6</ele>
        <time>2022-03-03T12:41:54Z</time>
      </trkpt>
      <trkpt lat="48.7032" lon="6.38801">
        <ele>231.6</ele>
        <time>2022-03-03T12:41:55Z</time>
      </trkpt>
      <trkpt lat="48.70346" lon="6.38824">
        <ele>231.4</ele>
        <time>2022-03-03T12:41:59Z</time>
      </trkpt>
      <trkpt lat="48.7037" lon="6.38845">
        <ele>231</ele>
        <time>2022-03-03T12:42:03Z</time>
      </trkpt>
      <trkpt lat="48.70392" lon="6.38869">
        <ele>231.2</ele>
        <time>2022-03-03T12:42:07Z</time>
      </trkpt>
      <trkpt lat="48.70409" lon="6.38895">
        <ele>231.6</ele>
        <time>2022-03-03T12:42:11Z</time>
      </trkpt>
      <trkpt lat="48.70425" lon="6.38919">
        <ele>232.4</ele>
        <time>2022-03-03T12:42:15Z</time>
      </trkpt>
      <trkpt lat="48.70437" lon="6.38938">
        <ele>232.8</ele>
        <time>2022-03-03T12:42:18Z</time>
      </trkpt>
      <trkpt lat="48.70454" lon="6.38967">
        <ele>234</ele>
        <time>2022-03-03T12:42:23Z</time>
      </trkpt>
      <trkpt lat="48.70469" lon="6.3899">
        <ele>234.8</ele>
        <time>2022-03-03T12:42:28Z</time>
      </trkpt>
      <trkpt lat="48.70474" lon="6.38994">
        <ele>235</ele>
        <time>2022-03-03T12:42:29Z</time>
      </trkpt>
      <trkpt lat="48.70493" lon="6.39014">
        <ele>236.2</ele>
        <time>2022-03-03T12:42:35Z</time>
      </trkpt>
      <trkpt lat="48.70501" lon="6.39039">
        <ele>236.8</ele>
        <time>2022-03-03T12:42:40Z</time>
      </trkpt>
      <trkpt lat="48.70503" lon="6.39057">
        <ele>236.6</ele>
        <time>2022-03-03T12:42:43Z</time>
      </trkpt>
      <trkpt lat="48.70502" lon="6.39065">
        <ele>236.4</ele>
        <time>2022-03-03T12:42:44Z</time>
      </trkpt>
      <trkpt lat="48.705" lon="6.39072">
        <ele>236.2</ele>
        <time>2022-03-03T12:42:45Z</time>
      </trkpt>
      <trkpt lat="48.70497" lon="6.3908">
        <ele>236</ele>
        <time>2022-03-03T12:42:46Z</time>
      </trkpt>
      <trkpt lat="48.70495" lon="6.39089">
        <ele>235.8</ele>
        <time>2022-03-03T12:42:47Z</time>
      </trkpt>
      <trkpt lat="48.70494" lon="6.39098">
        <ele>235.8</ele>
        <time>2022-03-03T12:42:48Z</time>
      </trkpt>
      <trkpt lat="48.70494" lon="6.39107">
        <ele>235.8</ele>
        <time>2022-03-03T12:42:49Z</time>
      </trkpt>
      <trkpt lat="48.70496" lon="6.39115">
        <ele>235.8</ele>
        <time>2022-03-03T12:42:50Z</time>
      </trkpt>
      <trkpt lat="48.70499" lon="6.39121">
        <ele>235.6</ele>
        <time>2022-03-03T12:42:51Z</time>
      </trkpt>
      <trkpt lat="48.70503" lon="6.39126">
        <ele>235.6</ele>
        <time>2022-03-03T12:42:52Z</time>
      </trkpt>
      <trkpt lat="48.70507" lon="6.39132">
        <ele>235.6</ele>
        <time>2022-03-03T12:42:53Z</time>
      </trkpt>
      <trkpt lat="48.70524" lon="6.39153">
        <ele>236.2</ele>
        <time>2022-03-03T12:42:57Z</time>
      </trkpt>
      <trkpt lat="48.70542" lon="6.39178">
        <ele>237</ele>
        <time>2022-03-03T12:43:02Z</time>
      </trkpt>
      <trkpt lat="48.7056" lon="6.39202">
        <ele>238</ele>
        <time>2022-03-03T12:43:07Z</time>
      </trkpt>
      <trkpt lat="48.7058" lon="6.39223">
        <ele>239.2</ele>
        <time>2022-03-03T12:43:12Z</time>
      </trkpt>
      <trkpt lat="48.70597" lon="6.39246">
        <ele>240</ele>
        <time>2022-03-03T12:43:17Z</time>
      </trkpt>
      <trkpt lat="48.70613" lon="6.39269">
        <ele>241</ele>
        <time>2022-03-03T12:43:22Z</time>
      </trkpt>
      <trkpt lat="48.70626" lon="6.39296">
        <ele>242</ele>
        <time>2022-03-03T12:43:27Z</time>
      </trkpt>
      <trkpt lat="48.70629" lon="6.39307">
        <ele>242.4</ele>
        <time>2022-03-03T12:43:29Z</time>
      </trkpt>
      <trkpt lat="48.70638" lon="6.3934">
        <ele>244</ele>
        <time>2022-03-03T12:43:35Z</time>
      </trkpt>
      <trkpt lat="48.70646" lon="6.39372">
        <ele>245.4</ele>
        <time>2022-03-03T12:43:41Z</time>
      </trkpt>
      <trkpt lat="48.70654" lon="6.39401">
        <ele>246.4</ele>
        <time>2022-03-03T12:43:46Z</time>
      </trkpt>
      <trkpt lat="48.70665" lon="6.39433">
        <ele>247.6</ele>
        <time>2022-03-03T12:43:52Z</time>
      </trkpt>
      <trkpt lat="48.70675" lon="6.39466">
        <ele>248.8</ele>
        <time>2022-03-03T12:43:58Z</time>
      </trkpt>
      <trkpt lat="48.70686" lon="6.39492">
        <ele>249.8</ele>
        <time>2022-03-03T12:44:03Z</time>
      </trkpt>
      <trkpt lat="48.70695" lon="6.39513">
        <ele>250.4</ele>
        <time>2022-03-03T12:44:07Z</time>
      </trkpt>
      <trkpt lat="48.70699" lon="6.39524">
        <ele>250.6</ele>
        <time>2022-03-03T12:44:09Z</time>
      </trkpt>
      <trkpt lat="48.70712" lon="6.3955">
        <ele>251.2</ele>
        <time>2022-03-03T12:44:14Z</time>
      </trkpt>
      <trkpt lat="48.70725" lon="6.39577">
        <ele>252.2</ele>
        <time>2022-03-03T12:44:19Z</time>
      </trkpt>
      <trkpt lat="48.70739" lon="6.39605">
        <ele>252.8</ele>
        <time>2022-03-03T12:44:24Z</time>
      </trkpt>
      <trkpt lat="48.70754" lon="6.39634">
        <ele>253.2</ele>
        <time>2022-03-03T12:44:29Z</time>
      </trkpt>
      <trkpt lat="48.70769" lon="6.39665">
        <ele>253.8</ele>
        <time>2022-03-03T12:44:34Z</time>
      </trkpt>
      <trkpt lat="48.70781" lon="6.39693">
        <ele>254.2</ele>
        <time>2022-03-03T12:44:38Z</time>
      </trkpt>
      <trkpt lat="48.70795" lon="6.39721">
        <ele>254.4</ele>
        <time>2022-03-03T12:44:42Z</time>
      </trkpt>
      <trkpt lat="48.70807" lon="6.3975">
        <ele>254.6</ele>
        <time>2022-03-03T12:44:46Z</time>
      </trkpt>
      <trkpt lat="48.70818" lon="6.39781">
        <ele>254.6</ele>
        <time>2022-03-03T12:44:50Z</time>
      </trkpt>
      <trkpt lat="48.70826" lon="6.39814">
        <ele>255</ele>
        <time>2022-03-03T12:44:54Z</time>
      </trkpt>
      <trkpt lat="48.70833" lon="6.39847">
        <ele>255.2</ele>
        <time>2022-03-03T12:44:58Z</time>
      </trkpt>
      <trkpt lat="48.70834" lon="6.39855">
        <ele>255.2</ele>
        <time>2022-03-03T12:44:59Z</time>
      </trkpt>
      <trkpt lat="48.70839" lon="6.39889">
        <ele>255.6</ele>
        <time>2022-03-03T12:45:03Z</time>
      </trkpt>
      <trkpt lat="48.70844" lon="6.39922">
        <ele>256</ele>
        <time>2022-03-03T12:45:07Z</time>
      </trkpt>
      <trkpt lat="48.70853" lon="6.39954">
        <ele>256.4</ele>
        <time>2022-03-03T12:45:11Z</time>
      </trkpt>
      <trkpt lat="48.70864" lon="6.39985">
        <ele>256.4</ele>
        <time>2022-03-03T12:45:15Z</time>
      </trkpt>
      <trkpt lat="48.70877" lon="6.40018">
        <ele>255.8</ele>
        <time>2022-03-03T12:45:19Z</time>
      </trkpt>
      <trkpt lat="48.70882" lon="6.40037">
        <ele>255.4</ele>
        <time>2022-03-03T12:45:21Z</time>
      </trkpt>
      <trkpt lat="48.70886" lon="6.40057">
        <ele>255.2</ele>
        <time>2022-03-03T12:45:23Z</time>
      </trkpt>
      <trkpt lat="48.70887" lon="6.40098">
        <ele>255.2</ele>
        <time>2022-03-03T12:45:27Z</time>
      </trkpt>
      <trkpt lat="48.70886" lon="6.40108">
        <ele>255.2</ele>
        <time>2022-03-03T12:45:28Z</time>
      </trkpt>
      <trkpt lat="48.70885" lon="6.40118">
        <ele>255.2</ele>
        <time>2022-03-03T12:45:29Z</time>
      </trkpt>
      <trkpt lat="48.70877" lon="6.40155">
        <ele>255.2</ele>
        <time>2022-03-03T12:45:33Z</time>
      </trkpt>
      <trkpt lat="48.70868" lon="6.40187">
        <ele>255.8</ele>
        <time>2022-03-03T12:45:37Z</time>
      </trkpt>
      <trkpt lat="48.7086" lon="6.40221">
        <ele>256</ele>
        <time>2022-03-03T12:45:41Z</time>
      </trkpt>
      <trkpt lat="48.70854" lon="6.40255">
        <ele>256.4</ele>
        <time>2022-03-03T12:45:45Z</time>
      </trkpt>
      <trkpt lat="48.7085" lon="6.4029">
        <ele>257</ele>
        <time>2022-03-03T12:45:49Z</time>
      </trkpt>
      <trkpt lat="48.70848" lon="6.40324">
        <ele>257.4</ele>
        <time>2022-03-03T12:45:53Z</time>
      </trkpt>
      <trkpt lat="48.70847" lon="6.40356">
        <ele>258</ele>
        <time>2022-03-03T12:45:57Z</time>
      </trkpt>
      <trkpt lat="48.70847" lon="6.40393">
        <ele>259</ele>
        <time>2022-03-03T12:46:02Z</time>
      </trkpt>
      <trkpt lat="48.70847" lon="6.404">
        <ele>259.2</ele>
        <time>2022-03-03T12:46:03Z</time>
      </trkpt>
      <trkpt lat="48.70847" lon="6.40433">
        <ele>260.6</ele>
        <time>2022-03-03T12:46:08Z</time>
      </trkpt>
      <trkpt lat="48.70847" lon="6.40463">
        <ele>262.2</ele>
        <time>2022-03-03T12:46:13Z</time>
      </trkpt>
      <trkpt lat="48.70846" lon="6.40494">
        <ele>263.4</ele>
        <time>2022-03-03T12:46:18Z</time>
      </trkpt>
      <trkpt lat="48.70846" lon="6.40524">
        <ele>264.4</ele>
        <time>2022-03-03T12:46:23Z</time>
      </trkpt>
      <trkpt lat="48.70846" lon="6.4056">
        <ele>265.2</ele>
        <time>2022-03-03T12:46:29Z</time>
      </trkpt>
      <trkpt lat="48.70848" lon="6.40592">
        <ele>265.8</ele>
        <time>2022-03-03T12:46:34Z</time>
      </trkpt>
      <trkpt lat="48.7085" lon="6.40625">
        <ele>266.6</ele>
        <time>2022-03-03T12:46:39Z</time>
      </trkpt>
      <trkpt lat="48.70853" lon="6.40659">
        <ele>267.2</ele>
        <time>2022-03-03T12:46:44Z</time>
      </trkpt>
      <trkpt lat="48.70857" lon="6.40693">
        <ele>268</ele>
        <time>2022-03-03T12:46:49Z</time>
      </trkpt>
      <trkpt lat="48.70862" lon="6.40728">
        <ele>268.2</ele>
        <time>2022-03-03T12:46:54Z</time>
      </trkpt>
      <trkpt lat="48.70869" lon="6.40763">
        <ele>268.8</ele>
        <time>2022-03-03T12:46:59Z</time>
      </trkpt>
      <trkpt lat="48.70877" lon="6.40799">
        <ele>269.2</ele>
        <time>2022-03-03T12:47:04Z</time>
      </trkpt>
      <trkpt lat="48.70883" lon="6.40836">
        <ele>269.2</ele>
        <time>2022-03-03T12:47:09Z</time>
      </trkpt>
      <trkpt lat="48.70886" lon="6.40876">
        <ele>269.8</ele>
        <time>2022-03-03T12:47:14Z</time>
      </trkpt>
      <trkpt lat="48.70888" lon="6.4091">
        <ele>269.8</ele>
        <time>2022-03-03T12:47:18Z</time>
      </trkpt>
      <trkpt lat="48.70889" lon="6.40945">
        <ele>270.2</ele>
        <time>2022-03-03T12:47:22Z</time>
      </trkpt>
      <trkpt lat="48.70891" lon="6.4098">
        <ele>270.4</ele>
        <time>2022-03-03T12:47:26Z</time>
      </trkpt>
      <trkpt lat="48.70894" lon="6.41015">
        <ele>270.4</ele>
        <time>2022-03-03T12:47:30Z</time>
      </trkpt>
      <trkpt lat="48.70897" lon="6.41048">
        <ele>270.4</ele>
        <time>2022-03-03T12:47:34Z</time>
      </trkpt>
      <trkpt lat="48.709" lon="6.4108">
        <ele>270.6</ele>
        <time>2022-03-03T12:47:38Z</time>
      </trkpt>
      <trkpt lat="48.70906" lon="6.4111">
        <ele>271</ele>
        <time>2022-03-03T12:47:42Z</time>
      </trkpt>
      <trkpt lat="48.70914" lon="6.41147">
        <ele>271.6</ele>
        <time>2022-03-03T12:47:47Z</time>
      </trkpt>
      <trkpt lat="48.70922" lon="6.41184">
        <ele>271.6</ele>
        <time>2022-03-03T12:47:52Z</time>
      </trkpt>
      <trkpt lat="48.70929" lon="6.41215">
        <ele>272</ele>
        <time>2022-03-03T12:47:56Z</time>
      </trkpt>
      <trkpt lat="48.70934" lon="6.41251">
        <ele>272.8</ele>
        <time>2022-03-03T12:48:01Z</time>
      </trkpt>
      <trkpt lat="48.7094" lon="6.41286">
        <ele>273.6</ele>
        <time>2022-03-03T12:48:06Z</time>
      </trkpt>
      <trkpt lat="48.70946" lon="6.41321">
        <ele>274</ele>
        <time>2022-03-03T12:48:11Z</time>
      </trkpt>
      <trkpt lat="48.70951" lon="6.41354">
        <ele>274.4</ele>
        <time>2022-03-03T12:48:16Z</time>
      </trkpt>
      <trkpt lat="48.70952" lon="6.41389">
        <ele>275.4</ele>
        <time>2022-03-03T12:48:21Z</time>
      </trkpt>
      <trkpt lat="48.70951" lon="6.41425">
        <ele>275.8</ele>
        <time>2022-03-03T12:48:26Z</time>
      </trkpt>
      <trkpt lat="48.7095" lon="6.41463">
        <ele>276</ele>
        <time>2022-03-03T12:48:31Z</time>
      </trkpt>
      <trkpt lat="48.70948" lon="6.41503">
        <ele>276.2</ele>
        <time>2022-03-03T12:48:36Z</time>
      </trkpt>
      <trkpt lat="48.70947" lon="6.41535">
        <ele>276.6</ele>
        <time>2022-03-03T12:48:40Z</time>
      </trkpt>
      <trkpt lat="48.70947" lon="6.41543">
        <ele>276.6</ele>
        <time>2022-03-03T12:48:41Z</time>
      </trkpt>
      <trkpt lat="48.70949" lon="6.41567">
        <ele>276.6</ele>
        <time>2022-03-03T12:48:44Z</time>
      </trkpt>
      <trkpt lat="48.70951" lon="6.41575">
        <ele>276.6</ele>
        <time>2022-03-03T12:48:45Z</time>
      </trkpt>
      <trkpt lat="48.70953" lon="6.41582">
        <ele>276.8</ele>
        <time>2022-03-03T12:48:46Z</time>
      </trkpt>
      <trkpt lat="48.70963" lon="6.4161">
        <ele>276.8</ele>
        <time>2022-03-03T12:48:50Z</time>
      </trkpt>
      <trkpt lat="48.70975" lon="6.41637">
        <ele>277.2</ele>
        <time>2022-03-03T12:48:54Z</time>
      </trkpt>
      <trkpt lat="48.70987" lon="6.41663">
        <ele>277.2</ele>
        <time>2022-03-03T12:48:58Z</time>
      </trkpt>
      <trkpt lat="48.71" lon="6.41689">
        <ele>277.6</ele>
        <time>2022-03-03T12:49:02Z</time>
      </trkpt>
      <trkpt lat="48.71013" lon="6.41716">
        <ele>278.2</ele>
        <time>2022-03-03T12:49:06Z</time>
      </trkpt>
      <trkpt lat="48.71026" lon="6.41743">
        <ele>278.6</ele>
        <time>2022-03-03T12:49:10Z</time>
      </trkpt>
      <trkpt lat="48.71038" lon="6.41771">
        <ele>278.8</ele>
        <time>2022-03-03T12:49:14Z</time>
      </trkpt>
      <trkpt lat="48.71049" lon="6.418">
        <ele>279.4</ele>
        <time>2022-03-03T12:49:18Z</time>
      </trkpt>
      <trkpt lat="48.71053" lon="6.41815">
        <ele>279.6</ele>
        <time>2022-03-03T12:49:20Z</time>
      </trkpt>
      <trkpt lat="48.71055" lon="6.41823">
        <ele>279.6</ele>
        <time>2022-03-03T12:49:21Z</time>
      </trkpt>
      <trkpt lat="48.71059" lon="6.41856">
        <ele>280.2</ele>
        <time>2022-03-03T12:49:25Z</time>
      </trkpt>
      <trkpt lat="48.71061" lon="6.4189">
        <ele>280.6</ele>
        <time>2022-03-03T12:49:29Z</time>
      </trkpt>
      <trkpt lat="48.71063" lon="6.41923">
        <ele>280.4</ele>
        <time>2022-03-03T12:49:33Z</time>
      </trkpt>
      <trkpt lat="48.71065" lon="6.41956">
        <ele>280.8</ele>
        <time>2022-03-03T12:49:37Z</time>
      </trkpt>
      <trkpt lat="48.71067" lon="6.41988">
        <ele>281</ele>
        <time>2022-03-03T12:49:41Z</time>
      </trkpt>
      <trkpt lat="48.7107" lon="6.42026">
        <ele>281.6</ele>
        <time>2022-03-03T12:49:46Z</time>
      </trkpt>
      <trkpt lat="48.71073" lon="6.42062">
        <ele>282.4</ele>
        <time>2022-03-03T12:49:51Z</time>
      </trkpt>
      <trkpt lat="48.71075" lon="6.42097">
        <ele>283.2</ele>
        <time>2022-03-03T12:49:56Z</time>
      </trkpt>
      <trkpt lat="48.71078" lon="6.42131">
        <ele>284.2</ele>
        <time>2022-03-03T12:50:01Z</time>
      </trkpt>
      <trkpt lat="48.71078" lon="6.42138">
        <ele>284.4</ele>
        <time>2022-03-03T12:50:02Z</time>
      </trkpt>
      <trkpt lat="48.71079" lon="6.42146">
        <ele>284.6</ele>
        <time>2022-03-03T12:50:03Z</time>
      </trkpt>
      <trkpt lat="48.71081" lon="6.4218">
        <ele>285.6</ele>
        <time>2022-03-03T12:50:08Z</time>
      </trkpt>
      <trkpt lat="48.71083" lon="6.42212">
        <ele>286.2</ele>
        <time>2022-03-03T12:50:13Z</time>
      </trkpt>
      <trkpt lat="48.71086" lon="6.42244">
        <ele>286.8</ele>
        <time>2022-03-03T12:50:18Z</time>
      </trkpt>
      <trkpt lat="48.71089" lon="6.42276">
        <ele>287.8</ele>
        <time>2022-03-03T12:50:23Z</time>
      </trkpt>
      <trkpt lat="48.7109" lon="6.42308">
        <ele>288.4</ele>
        <time>2022-03-03T12:50:28Z</time>
      </trkpt>
      <trkpt lat="48.71092" lon="6.42339">
        <ele>289.4</ele>
        <time>2022-03-03T12:50:33Z</time>
      </trkpt>
      <trkpt lat="48.71088" lon="6.42374">
        <ele>289.8</ele>
        <time>2022-03-03T12:50:39Z</time>
      </trkpt>
      <trkpt lat="48.71077" lon="6.42406">
        <ele>290.4</ele>
        <time>2022-03-03T12:50:45Z</time>
      </trkpt>
      <trkpt lat="48.71063" lon="6.42436">
        <ele>291.4</ele>
        <time>2022-03-03T12:50:51Z</time>
      </trkpt>
      <trkpt lat="48.71052" lon="6.42463">
        <ele>292</ele>
        <time>2022-03-03T12:50:56Z</time>
      </trkpt>
      <trkpt lat="48.71039" lon="6.42495">
        <ele>291.6</ele>
        <time>2022-03-03T12:51:01Z</time>
      </trkpt>
      <trkpt lat="48.71033" lon="6.4251">
        <ele>291.4</ele>
        <time>2022-03-03T12:51:03Z</time>
      </trkpt>
      <trkpt lat="48.71017" lon="6.42544">
        <ele>289.2</ele>
        <time>2022-03-03T12:51:07Z</time>
      </trkpt>
      <trkpt lat="48.71004" lon="6.42573">
        <ele>287.6</ele>
        <time>2022-03-03T12:51:10Z</time>
      </trkpt>
      <trkpt lat="48.70989" lon="6.42605">
        <ele>286.8</ele>
        <time>2022-03-03T12:51:13Z</time>
      </trkpt>
      <trkpt lat="48.70975" lon="6.42639">
        <ele>285.6</ele>
        <time>2022-03-03T12:51:16Z</time>
      </trkpt>
      <trkpt lat="48.7096" lon="6.42673">
        <ele>284.2</ele>
        <time>2022-03-03T12:51:19Z</time>
      </trkpt>
      <trkpt lat="48.70946" lon="6.42707">
        <ele>283.4</ele>
        <time>2022-03-03T12:51:22Z</time>
      </trkpt>
      <trkpt lat="48.70932" lon="6.42738">
        <ele>282.4</ele>
        <time>2022-03-03T12:51:25Z</time>
      </trkpt>
      <trkpt lat="48.70917" lon="6.42766">
        <ele>281.8</ele>
        <time>2022-03-03T12:51:28Z</time>
      </trkpt>
      <trkpt lat="48.70906" lon="6.42782">
        <ele>281</ele>
        <time>2022-03-03T12:51:30Z</time>
      </trkpt>
      <trkpt lat="48.70884" lon="6.42808">
        <ele>280</ele>
        <time>2022-03-03T12:51:34Z</time>
      </trkpt>
      <trkpt lat="48.70862" lon="6.42834">
        <ele>279.6</ele>
        <time>2022-03-03T12:51:38Z</time>
      </trkpt>
      <trkpt lat="48.7084" lon="6.42859">
        <ele>279.2</ele>
        <time>2022-03-03T12:51:42Z</time>
      </trkpt>
      <trkpt lat="48.70821" lon="6.42889">
        <ele>278.6</ele>
        <time>2022-03-03T12:51:46Z</time>
      </trkpt>
      <trkpt lat="48.70809" lon="6.42917">
        <ele>278.6</ele>
        <time>2022-03-03T12:51:49Z</time>
      </trkpt>
      <trkpt lat="48.70799" lon="6.42957">
        <ele>278</ele>
        <time>2022-03-03T12:51:53Z</time>
      </trkpt>
      <trkpt lat="48.70791" lon="6.42997">
        <ele>277.6</ele>
        <time>2022-03-03T12:51:57Z</time>
      </trkpt>
      <trkpt lat="48.70784" lon="6.43037">
        <ele>277.2</ele>
        <time>2022-03-03T12:52:01Z</time>
      </trkpt>
      <trkpt lat="48.70778" lon="6.43077">
        <ele>276.4</ele>
        <time>2022-03-03T12:52:05Z</time>
      </trkpt>
      <trkpt lat="48.70772" lon="6.43119">
        <ele>276.2</ele>
        <time>2022-03-03T12:52:09Z</time>
      </trkpt>
      <trkpt lat="48.70767" lon="6.4316">
        <ele>275.6</ele>
        <time>2022-03-03T12:52:13Z</time>
      </trkpt>
      <trkpt lat="48.70763" lon="6.43201">
        <ele>275.4</ele>
        <time>2022-03-03T12:52:17Z</time>
      </trkpt>
      <trkpt lat="48.70762" lon="6.43232">
        <ele>275</ele>
        <time>2022-03-03T12:52:20Z</time>
      </trkpt>
      <trkpt lat="48.70764" lon="6.43242">
        <ele>274.8</ele>
        <time>2022-03-03T12:52:21Z</time>
      </trkpt>
      <trkpt lat="48.70765" lon="6.43252">
        <ele>274.6</ele>
        <time>2022-03-03T12:52:22Z</time>
      </trkpt>
      <trkpt lat="48.70768" lon="6.43261">
        <ele>274.4</ele>
        <time>2022-03-03T12:52:23Z</time>
      </trkpt>
      <trkpt lat="48.7077" lon="6.4327">
        <ele>274</ele>
        <time>2022-03-03T12:52:24Z</time>
      </trkpt>
      <trkpt lat="48.70772" lon="6.43279">
        <ele>273.8</ele>
        <time>2022-03-03T12:52:25Z</time>
      </trkpt>
      <trkpt lat="48.70778" lon="6.43296">
        <ele>273.6</ele>
        <time>2022-03-03T12:52:27Z</time>
      </trkpt>
      <trkpt lat="48.70795" lon="6.43324">
        <ele>273.2</ele>
        <time>2022-03-03T12:52:31Z</time>
      </trkpt>
      <trkpt lat="48.708" lon="6.43329">
        <ele>273.2</ele>
        <time>2022-03-03T12:52:32Z</time>
      </trkpt>
      <trkpt lat="48.70806" lon="6.43332">
        <ele>273</ele>
        <time>2022-03-03T12:52:33Z</time>
      </trkpt>
      <trkpt lat="48.70811" lon="6.43334">
        <ele>272.8</ele>
        <time>2022-03-03T12:52:34Z</time>
      </trkpt>
      <trkpt lat="48.70817" lon="6.43336">
        <ele>272.8</ele>
        <time>2022-03-03T12:52:35Z</time>
      </trkpt>
      <trkpt lat="48.70822" lon="6.43339">
        <ele>273</ele>
        <time>2022-03-03T12:52:36Z</time>
      </trkpt>
      <trkpt lat="48.70827" lon="6.43342">
        <ele>273.4</ele>
        <time>2022-03-03T12:52:37Z</time>
      </trkpt>
      <trkpt lat="48.70832" lon="6.43345">
        <ele>273.8</ele>
        <time>2022-03-03T12:52:38Z</time>
      </trkpt>
      <trkpt lat="48.70836" lon="6.43349">
        <ele>274.2</ele>
        <time>2022-03-03T12:52:39Z</time>
      </trkpt>
      <trkpt lat="48.7084" lon="6.43353">
        <ele>274.4</ele>
        <time>2022-03-03T12:52:40Z</time>
      </trkpt>
      <trkpt lat="48.70851" lon="6.43365">
        <ele>274.8</ele>
        <time>2022-03-03T12:52:43Z</time>
      </trkpt>
      <trkpt lat="48.70854" lon="6.43369">
        <ele>275</ele>
        <time>2022-03-03T12:52:44Z</time>
      </trkpt>
      <trkpt lat="48.70872" lon="6.43392">
        <ele>276</ele>
        <time>2022-03-03T12:52:49Z</time>
      </trkpt>
      <trkpt lat="48.70889" lon="6.43417">
        <ele>276.4</ele>
        <time>2022-03-03T12:52:54Z</time>
      </trkpt>
      <trkpt lat="48.70907" lon="6.4344">
        <ele>277.2</ele>
        <time>2022-03-03T12:52:59Z</time>
      </trkpt>
      <trkpt lat="48.70926" lon="6.43461">
        <ele>277.8</ele>
        <time>2022-03-03T12:53:04Z</time>
      </trkpt>
      <trkpt lat="48.70944" lon="6.4348">
        <ele>278.4</ele>
        <time>2022-03-03T12:53:09Z</time>
      </trkpt>
      <trkpt lat="48.70964" lon="6.43494">
        <ele>279.4</ele>
        <time>2022-03-03T12:53:15Z</time>
      </trkpt>
      <trkpt lat="48.70987" lon="6.435">
        <ele>280.8</ele>
        <time>2022-03-03T12:53:21Z</time>
      </trkpt>
      <trkpt lat="48.7101" lon="6.43505">
        <ele>282.6</ele>
        <time>2022-03-03T12:53:27Z</time>
      </trkpt>
      <trkpt lat="48.71013" lon="6.43505">
        <ele>283</ele>
        <time>2022-03-03T12:53:28Z</time>
      </trkpt>
      <trkpt lat="48.71033" lon="6.4351">
        <ele>284.4</ele>
        <time>2022-03-03T12:53:34Z</time>
      </trkpt>
      <trkpt lat="48.71054" lon="6.43515">
        <ele>286</ele>
        <time>2022-03-03T12:53:41Z</time>
      </trkpt>
      <trkpt lat="48.71074" lon="6.4352">
        <ele>287.4</ele>
        <time>2022-03-03T12:53:48Z</time>
      </trkpt>
      <trkpt lat="48.71094" lon="6.43525">
        <ele>288.8</ele>
        <time>2022-03-03T12:53:55Z</time>
      </trkpt>
      <trkpt lat="48.71114" lon="6.4353">
        <ele>290</ele>
        <time>2022-03-03T12:54:02Z</time>
      </trkpt>
      <trkpt lat="48.71135" lon="6.43535">
        <ele>291.8</ele>
        <time>2022-03-03T12:54:09Z</time>
      </trkpt>
      <trkpt lat="48.71155" lon="6.43541">
        <ele>293.2</ele>
        <time>2022-03-03T12:54:16Z</time>
      </trkpt>
      <trkpt lat="48.71176" lon="6.43546">
        <ele>295</ele>
        <time>2022-03-03T12:54:23Z</time>
      </trkpt>
      <trkpt lat="48.71197" lon="6.43551">
        <ele>296.8</ele>
        <time>2022-03-03T12:54:30Z</time>
      </trkpt>
      <trkpt lat="48.71218" lon="6.43555">
        <ele>298.6</ele>
        <time>2022-03-03T12:54:37Z</time>
      </trkpt>
      <trkpt lat="48.71239" lon="6.43561">
        <ele>300</ele>
        <time>2022-03-03T12:54:44Z</time>
      </trkpt>
      <trkpt lat="48.71261" lon="6.43569">
        <ele>301.2</ele>
        <time>2022-03-03T12:54:51Z</time>
      </trkpt>
      <trkpt lat="48.71279" lon="6.43582">
        <ele>301.6</ele>
        <time>2022-03-03T12:54:57Z</time>
      </trkpt>
      <trkpt lat="48.713" lon="6.436">
        <ele>302.4</ele>
        <time>2022-03-03T12:55:03Z</time>
      </trkpt>
      <trkpt lat="48.71319" lon="6.43618">
        <ele>302.8</ele>
        <time>2022-03-03T12:55:09Z</time>
      </trkpt>
      <trkpt lat="48.71339" lon="6.43635">
        <ele>303.6</ele>
        <time>2022-03-03T12:55:15Z</time>
      </trkpt>
      <trkpt lat="48.71359" lon="6.43649">
        <ele>304.2</ele>
        <time>2022-03-03T12:55:21Z</time>
      </trkpt>
      <trkpt lat="48.71381" lon="6.43659">
        <ele>304.6</ele>
        <time>2022-03-03T12:55:27Z</time>
      </trkpt>
      <trkpt lat="48.71405" lon="6.43662">
        <ele>304.6</ele>
        <time>2022-03-03T12:55:33Z</time>
      </trkpt>
      <trkpt lat="48.71429" lon="6.43663">
        <ele>305.2</ele>
        <time>2022-03-03T12:55:39Z</time>
      </trkpt>
      <trkpt lat="48.71453" lon="6.43663">
        <ele>306</ele>
        <time>2022-03-03T12:55:45Z</time>
      </trkpt>
      <trkpt lat="48.71475" lon="6.43664">
        <ele>306.8</ele>
        <time>2022-03-03T12:55:51Z</time>
      </trkpt>
      <trkpt lat="48.715" lon="6.43667">
        <ele>307.6</ele>
        <time>2022-03-03T12:55:57Z</time>
      </trkpt>
      <trkpt lat="48.71519" lon="6.43671">
        <ele>308.4</ele>
        <time>2022-03-03T12:56:02Z</time>
      </trkpt>
      <trkpt lat="48.71539" lon="6.43674">
        <ele>309.2</ele>
        <time>2022-03-03T12:56:07Z</time>
      </trkpt>
      <trkpt lat="48.71563" lon="6.43678">
        <ele>309.8</ele>
        <time>2022-03-03T12:56:13Z</time>
      </trkpt>
      <trkpt lat="48.71587" lon="6.43682">
        <ele>310.8</ele>
        <time>2022-03-03T12:56:19Z</time>
      </trkpt>
      <trkpt lat="48.7161" lon="6.43686">
        <ele>311.8</ele>
        <time>2022-03-03T12:56:25Z</time>
      </trkpt>
      <trkpt lat="48.71634" lon="6.43691">
        <ele>312.6</ele>
        <time>2022-03-03T12:56:31Z</time>
      </trkpt>
      <trkpt lat="48.71657" lon="6.43697">
        <ele>313.6</ele>
        <time>2022-03-03T12:56:37Z</time>
      </trkpt>
      <trkpt lat="48.71677" lon="6.437">
        <ele>314.6</ele>
        <time>2022-03-03T12:56:42Z</time>
      </trkpt>
      <trkpt lat="48.71698" lon="6.43704">
        <ele>315.2</ele>
        <time>2022-03-03T12:56:47Z</time>
      </trkpt>
      <trkpt lat="48.71718" lon="6.43708">
        <ele>315.8</ele>
        <time>2022-03-03T12:56:52Z</time>
      </trkpt>
      <trkpt lat="48.71738" lon="6.43713">
        <ele>317</ele>
        <time>2022-03-03T12:56:57Z</time>
      </trkpt>
      <trkpt lat="48.71759" lon="6.43715">
        <ele>317.4</ele>
        <time>2022-03-03T12:57:02Z</time>
      </trkpt>
      <trkpt lat="48.7178" lon="6.43714">
        <ele>318</ele>
        <time>2022-03-03T12:57:07Z</time>
      </trkpt>
      <trkpt lat="48.718" lon="6.43709">
        <ele>318.4</ele>
        <time>2022-03-03T12:57:12Z</time>
      </trkpt>
      <trkpt lat="48.7182" lon="6.43708">
        <ele>318.6</ele>
        <time>2022-03-03T12:57:17Z</time>
      </trkpt>
      <trkpt lat="48.71839" lon="6.4372">
        <ele>319</ele>
        <time>2022-03-03T12:57:23Z</time>
      </trkpt>
      <trkpt lat="48.71855" lon="6.43739">
        <ele>319.2</ele>
        <time>2022-03-03T12:57:31Z</time>
      </trkpt>
      <trkpt lat="48.71872" lon="6.43761">
        <ele>319</ele>
        <time>2022-03-03T12:57:38Z</time>
      </trkpt>
      <trkpt lat="48.71885" lon="6.43776">
        <ele>318.6</ele>
        <time>2022-03-03T12:57:42Z</time>
      </trkpt>
      <trkpt lat="48.71895" lon="6.43789">
        <ele>318.4</ele>
        <time>2022-03-03T12:57:45Z</time>
      </trkpt>
      <trkpt lat="48.71898" lon="6.43793">
        <ele>318.2</ele>
        <time>2022-03-03T12:57:46Z</time>
      </trkpt>
      <trkpt lat="48.719" lon="6.43797">
        <ele>318</ele>
        <time>2022-03-03T12:57:47Z</time>
      </trkpt>
      <trkpt lat="48.71902" lon="6.43799">
        <ele>317.8</ele>
        <time>2022-03-03T12:57:48Z</time>
      </trkpt>
      <trkpt lat="48.71903" lon="6.438">
        <ele>317.6</ele>
        <time>2022-03-03T12:57:49Z</time>
      </trkpt>
      <trkpt lat="48.71914" lon="6.43818">
        <ele>317.2</ele>
        <time>2022-03-03T12:58:56Z</time>
      </trkpt>
      <trkpt lat="48.71932" lon="6.43839">
        <ele>317.4</ele>
        <time>2022-03-03T12:59:02Z</time>
      </trkpt>
      <trkpt lat="48.71951" lon="6.43861">
        <ele>317</ele>
        <time>2022-03-03T12:59:07Z</time>
      </trkpt>
      <trkpt lat="48.71974" lon="6.4388">
        <ele>317</ele>
        <time>2022-03-03T12:59:12Z</time>
      </trkpt>
      <trkpt lat="48.71984" lon="6.43885">
        <ele>316.8</ele>
        <time>2022-03-03T12:59:14Z</time>
      </trkpt>
      <trkpt lat="48.71989" lon="6.43886">
        <ele>316.8</ele>
        <time>2022-03-03T12:59:15Z</time>
      </trkpt>
      <trkpt lat="48.71999" lon="6.43886">
        <ele>316.8</ele>
        <time>2022-03-03T12:59:17Z</time>
      </trkpt>
      <trkpt lat="48.72004" lon="6.43886">
        <ele>316.6</ele>
        <time>2022-03-03T12:59:18Z</time>
      </trkpt>
      <trkpt lat="48.72009" lon="6.43885">
        <ele>316.6</ele>
        <time>2022-03-03T12:59:19Z</time>
      </trkpt>
      <trkpt lat="48.72029" lon="6.4388">
        <ele>316.6</ele>
        <time>2022-03-03T12:59:23Z</time>
      </trkpt>
      <trkpt lat="48.7205" lon="6.43873">
        <ele>316.4</ele>
        <time>2022-03-03T12:59:27Z</time>
      </trkpt>
      <trkpt lat="48.72072" lon="6.43868">
        <ele>316</ele>
        <time>2022-03-03T12:59:31Z</time>
      </trkpt>
      <trkpt lat="48.72097" lon="6.43869">
        <ele>315.2</ele>
        <time>2022-03-03T12:59:35Z</time>
      </trkpt>
      <trkpt lat="48.72109" lon="6.43874">
        <ele>314.4</ele>
        <time>2022-03-03T12:59:37Z</time>
      </trkpt>
      <trkpt lat="48.72135" lon="6.4389">
        <ele>313.2</ele>
        <time>2022-03-03T12:59:41Z</time>
      </trkpt>
      <trkpt lat="48.72156" lon="6.43904">
        <ele>312</ele>
        <time>2022-03-03T12:59:44Z</time>
      </trkpt>
      <trkpt lat="48.7218" lon="6.43916">
        <ele>310.8</ele>
        <time>2022-03-03T12:59:47Z</time>
      </trkpt>
      <trkpt lat="48.72207" lon="6.43924">
        <ele>308.6</ele>
        <time>2022-03-03T12:59:50Z</time>
      </trkpt>
      <trkpt lat="48.72239" lon="6.43933">
        <ele>306.6</ele>
        <time>2022-03-03T12:59:53Z</time>
      </trkpt>
      <trkpt lat="48.72262" lon="6.43941">
        <ele>304</ele>
        <time>2022-03-03T12:59:55Z</time>
      </trkpt>
      <trkpt lat="48.72287" lon="6.43952">
        <ele>301</ele>
        <time>2022-03-03T12:59:57Z</time>
      </trkpt>
      <trkpt lat="48.72311" lon="6.43965">
        <ele>298.8</ele>
        <time>2022-03-03T12:59:59Z</time>
      </trkpt>
      <trkpt lat="48.72335" lon="6.43979">
        <ele>296.8</ele>
        <time>2022-03-03T13:00:01Z</time>
      </trkpt>
      <trkpt lat="48.72359" lon="6.43994">
        <ele>294.8</ele>
        <time>2022-03-03T13:00:03Z</time>
      </trkpt>
      <trkpt lat="48.72383" lon="6.4401">
        <ele>292.2</ele>
        <time>2022-03-03T13:00:05Z</time>
      </trkpt>
      <trkpt lat="48.72408" lon="6.44026">
        <ele>290</ele>
        <time>2022-03-03T13:00:07Z</time>
      </trkpt>
      <trkpt lat="48.72432" lon="6.44038">
        <ele>288.2</ele>
        <time>2022-03-03T13:00:09Z</time>
      </trkpt>
      <trkpt lat="48.72456" lon="6.44047">
        <ele>286.6</ele>
        <time>2022-03-03T13:00:11Z</time>
      </trkpt>
      <trkpt lat="48.7249" lon="6.44059">
        <ele>285</ele>
        <time>2022-03-03T13:00:14Z</time>
      </trkpt>
      <trkpt lat="48.72523" lon="6.44073">
        <ele>282.8</ele>
        <time>2022-03-03T13:00:17Z</time>
      </trkpt>
      <trkpt lat="48.72554" lon="6.44094">
        <ele>280.6</ele>
        <time>2022-03-03T13:00:20Z</time>
      </trkpt>
      <trkpt lat="48.72583" lon="6.4412">
        <ele>278.2</ele>
        <time>2022-03-03T13:00:23Z</time>
      </trkpt>
      <trkpt lat="48.7261" lon="6.44147">
        <ele>276.6</ele>
        <time>2022-03-03T13:00:26Z</time>
      </trkpt>
      <trkpt lat="48.72636" lon="6.44172">
        <ele>275.4</ele>
        <time>2022-03-03T13:00:29Z</time>
      </trkpt>
      <trkpt lat="48.72661" lon="6.44195">
        <ele>274.2</ele>
        <time>2022-03-03T13:00:32Z</time>
      </trkpt>
      <trkpt lat="48.72686" lon="6.44218">
        <ele>273.2</ele>
        <time>2022-03-03T13:00:35Z</time>
      </trkpt>
      <trkpt lat="48.72711" lon="6.44241">
        <ele>271.8</ele>
        <time>2022-03-03T13:00:38Z</time>
      </trkpt>
      <trkpt lat="48.72737" lon="6.44264">
        <ele>270.4</ele>
        <time>2022-03-03T13:00:41Z</time>
      </trkpt>
      <trkpt lat="48.72771" lon="6.44295">
        <ele>269.8</ele>
        <time>2022-03-03T13:00:45Z</time>
      </trkpt>
      <trkpt lat="48.72797" lon="6.4432">
        <ele>267.6</ele>
        <time>2022-03-03T13:00:48Z</time>
      </trkpt>
      <trkpt lat="48.72822" lon="6.44347">
        <ele>265.8</ele>
        <time>2022-03-03T13:00:51Z</time>
      </trkpt>
      <trkpt lat="48.72838" lon="6.44367">
        <ele>264.8</ele>
        <time>2022-03-03T13:00:53Z</time>
      </trkpt>
      <trkpt lat="48.72845" lon="6.44379">
        <ele>264.4</ele>
        <time>2022-03-03T13:00:54Z</time>
      </trkpt>
      <trkpt lat="48.7285" lon="6.44391">
        <ele>264</ele>
        <time>2022-03-03T13:00:55Z</time>
      </trkpt>
      <trkpt lat="48.72865" lon="6.44427">
        <ele>263.4</ele>
        <time>2022-03-03T13:00:58Z</time>
      </trkpt>
      <trkpt lat="48.72877" lon="6.44462">
        <ele>263</ele>
        <time>2022-03-03T13:01:01Z</time>
      </trkpt>
      <trkpt lat="48.72889" lon="6.44495">
        <ele>263</ele>
        <time>2022-03-03T13:01:04Z</time>
      </trkpt>
      <trkpt lat="48.72902" lon="6.44529">
        <ele>262.2</ele>
        <time>2022-03-03T13:01:07Z</time>
      </trkpt>
      <trkpt lat="48.72916" lon="6.44564">
        <ele>261.4</ele>
        <time>2022-03-03T13:01:10Z</time>
      </trkpt>
      <trkpt lat="48.7293" lon="6.44598">
        <ele>261.2</ele>
        <time>2022-03-03T13:01:13Z</time>
      </trkpt>
      <trkpt lat="48.72944" lon="6.44629">
        <ele>261.6</ele>
        <time>2022-03-03T13:01:16Z</time>
      </trkpt>
      <trkpt lat="48.72957" lon="6.44659">
        <ele>262</ele>
        <time>2022-03-03T13:01:19Z</time>
      </trkpt>
      <trkpt lat="48.72969" lon="6.44687">
        <ele>262.2</ele>
        <time>2022-03-03T13:01:22Z</time>
      </trkpt>
      <trkpt lat="48.72981" lon="6.44717">
        <ele>261.6</ele>
        <time>2022-03-03T13:01:25Z</time>
      </trkpt>
      <trkpt lat="48.72989" lon="6.44749">
        <ele>261.4</ele>
        <time>2022-03-03T13:01:28Z</time>
      </trkpt>
      <trkpt lat="48.7299" lon="6.44761">
        <ele>261.2</ele>
        <time>2022-03-03T13:01:29Z</time>
      </trkpt>
      <trkpt lat="48.7299" lon="6.44773">
        <ele>261</ele>
        <time>2022-03-03T13:01:30Z</time>
      </trkpt>
      <trkpt lat="48.7299" lon="6.44785">
        <ele>260.6</ele>
        <time>2022-03-03T13:01:31Z</time>
      </trkpt>
      <trkpt lat="48.7299" lon="6.44797">
        <ele>260.2</ele>
        <time>2022-03-03T13:01:32Z</time>
      </trkpt>
      <trkpt lat="48.72986" lon="6.44834">
        <ele>259.4</ele>
        <time>2022-03-03T13:01:35Z</time>
      </trkpt>
      <trkpt lat="48.72977" lon="6.44871">
        <ele>258.4</ele>
        <time>2022-03-03T13:01:38Z</time>
      </trkpt>
      <trkpt lat="48.72969" lon="6.44893">
        <ele>258</ele>
        <time>2022-03-03T13:01:40Z</time>
      </trkpt>
      <trkpt lat="48.72964" lon="6.44902">
        <ele>257.8</ele>
        <time>2022-03-03T13:01:41Z</time>
      </trkpt>
      <trkpt lat="48.72959" lon="6.4491">
        <ele>257.8</ele>
        <time>2022-03-03T13:01:42Z</time>
      </trkpt>
      <trkpt lat="48.72941" lon="6.44934">
        <ele>257</ele>
        <time>2022-03-03T13:01:45Z</time>
      </trkpt>
      <trkpt lat="48.72923" lon="6.44957">
        <ele>256.4</ele>
        <time>2022-03-03T13:01:48Z</time>
      </trkpt>
      <trkpt lat="48.72914" lon="6.44975">
        <ele>256.2</ele>
        <time>2022-03-03T13:01:50Z</time>
      </trkpt>
      <trkpt lat="48.72914" lon="6.44986">
        <ele>256.2</ele>
        <time>2022-03-03T13:01:51Z</time>
      </trkpt>
      <trkpt lat="48.72915" lon="6.44998">
        <ele>256.2</ele>
        <time>2022-03-03T13:01:52Z</time>
      </trkpt>
      <trkpt lat="48.72918" lon="6.45008">
        <ele>256</ele>
        <time>2022-03-03T13:01:53Z</time>
      </trkpt>
      <trkpt lat="48.72922" lon="6.45016">
        <ele>256</ele>
        <time>2022-03-03T13:01:54Z</time>
      </trkpt>
      <trkpt lat="48.72928" lon="6.45023">
        <ele>255.8</ele>
        <time>2022-03-03T13:01:55Z</time>
      </trkpt>
      <trkpt lat="48.72934" lon="6.45029">
        <ele>255.8</ele>
        <time>2022-03-03T13:01:56Z</time>
      </trkpt>
      <trkpt lat="48.7294" lon="6.45034">
        <ele>256</ele>
        <time>2022-03-03T13:01:57Z</time>
      </trkpt>
      <trkpt lat="48.72946" lon="6.45038">
        <ele>256</ele>
        <time>2022-03-03T13:01:58Z</time>
      </trkpt>
      <trkpt lat="48.72952" lon="6.45041">
        <ele>256.2</ele>
        <time>2022-03-03T13:01:59Z</time>
      </trkpt>
      <trkpt lat="48.72958" lon="6.45044">
        <ele>256.2</ele>
        <time>2022-03-03T13:02:00Z</time>
      </trkpt>
      <trkpt lat="48.7298" lon="6.45054">
        <ele>256.8</ele>
        <time>2022-03-03T13:02:04Z</time>
      </trkpt>
      <trkpt lat="48.73002" lon="6.45064">
        <ele>257.4</ele>
        <time>2022-03-03T13:02:08Z</time>
      </trkpt>
      <trkpt lat="48.73022" lon="6.45073">
        <ele>258.2</ele>
        <time>2022-03-03T13:02:12Z</time>
      </trkpt>
      <trkpt lat="48.73046" lon="6.45086">
        <ele>258.8</ele>
        <time>2022-03-03T13:02:17Z</time>
      </trkpt>
      <trkpt lat="48.73066" lon="6.451">
        <ele>259.4</ele>
        <time>2022-03-03T13:02:21Z</time>
      </trkpt>
      <trkpt lat="48.73079" lon="6.45112">
        <ele>260</ele>
        <time>2022-03-03T13:02:24Z</time>
      </trkpt>
      <trkpt lat="48.73098" lon="6.45136">
        <ele>261</ele>
        <time>2022-03-03T13:02:29Z</time>
      </trkpt>
      <trkpt lat="48.73115" lon="6.45161">
        <ele>261.8</ele>
        <time>2022-03-03T13:02:34Z</time>
      </trkpt>
      <trkpt lat="48.73133" lon="6.45187">
        <ele>262.4</ele>
        <time>2022-03-03T13:02:39Z</time>
      </trkpt>
      <trkpt lat="48.73149" lon="6.45211">
        <ele>263.2</ele>
        <time>2022-03-03T13:02:44Z</time>
      </trkpt>
      <trkpt lat="48.73166" lon="6.45236">
        <ele>264</ele>
        <time>2022-03-03T13:02:49Z</time>
      </trkpt>
      <trkpt lat="48.73183" lon="6.45259">
        <ele>264.8</ele>
        <time>2022-03-03T13:02:54Z</time>
      </trkpt>
      <trkpt lat="48.732" lon="6.45283">
        <ele>265.6</ele>
        <time>2022-03-03T13:02:59Z</time>
      </trkpt>
      <trkpt lat="48.73216" lon="6.45308">
        <ele>266</ele>
        <time>2022-03-03T13:03:04Z</time>
      </trkpt>
      <trkpt lat="48.73231" lon="6.45332">
        <ele>266.8</ele>
        <time>2022-03-03T13:03:09Z</time>
      </trkpt>
      <trkpt lat="48.7324" lon="6.45348">
        <ele>267.2</ele>
        <time>2022-03-03T13:03:12Z</time>
      </trkpt>
      <trkpt lat="48.73255" lon="6.45375">
        <ele>267.8</ele>
        <time>2022-03-03T13:03:17Z</time>
      </trkpt>
      <trkpt lat="48.73269" lon="6.45403">
        <ele>268.6</ele>
        <time>2022-03-03T13:03:22Z</time>
      </trkpt>
      <trkpt lat="48.73284" lon="6.45431">
        <ele>269</ele>
        <time>2022-03-03T13:03:27Z</time>
      </trkpt>
      <trkpt lat="48.733" lon="6.4546">
        <ele>269.6</ele>
        <time>2022-03-03T13:03:32Z</time>
      </trkpt>
      <trkpt lat="48.73315" lon="6.45492">
        <ele>269.8</ele>
        <time>2022-03-03T13:03:37Z</time>
      </trkpt>
      <trkpt lat="48.73328" lon="6.45517">
        <ele>270.2</ele>
        <time>2022-03-03T13:03:41Z</time>
      </trkpt>
      <trkpt lat="48.73342" lon="6.45542">
        <ele>270.6</ele>
        <time>2022-03-03T13:03:45Z</time>
      </trkpt>
      <trkpt lat="48.73355" lon="6.45568">
        <ele>271</ele>
        <time>2022-03-03T13:03:49Z</time>
      </trkpt>
      <trkpt lat="48.7337" lon="6.45592">
        <ele>271.2</ele>
        <time>2022-03-03T13:03:53Z</time>
      </trkpt>
      <trkpt lat="48.73386" lon="6.45614">
        <ele>271.2</ele>
        <time>2022-03-03T13:03:57Z</time>
      </trkpt>
      <trkpt lat="48.73405" lon="6.45634">
        <ele>271.6</ele>
        <time>2022-03-03T13:04:01Z</time>
      </trkpt>
      <trkpt lat="48.73424" lon="6.45654">
        <ele>271.8</ele>
        <time>2022-03-03T13:04:05Z</time>
      </trkpt>
      <trkpt lat="48.73445" lon="6.45674">
        <ele>271.8</ele>
        <time>2022-03-03T13:04:09Z</time>
      </trkpt>
      <trkpt lat="48.73465" lon="6.45697">
        <ele>271.2</ele>
        <time>2022-03-03T13:04:13Z</time>
      </trkpt>
      <trkpt lat="48.73486" lon="6.45721">
        <ele>270.8</ele>
        <time>2022-03-03T13:04:17Z</time>
      </trkpt>
      <trkpt lat="48.73503" lon="6.4574">
        <ele>269.8</ele>
        <time>2022-03-03T13:04:20Z</time>
      </trkpt>
      <trkpt lat="48.73521" lon="6.45762">
        <ele>269</ele>
        <time>2022-03-03T13:04:23Z</time>
      </trkpt>
      <trkpt lat="48.7354" lon="6.45784">
        <ele>268</ele>
        <time>2022-03-03T13:04:26Z</time>
      </trkpt>
      <trkpt lat="48.73559" lon="6.45806">
        <ele>267.2</ele>
        <time>2022-03-03T13:04:29Z</time>
      </trkpt>
      <trkpt lat="48.73577" lon="6.45829">
        <ele>266.6</ele>
        <time>2022-03-03T13:04:32Z</time>
      </trkpt>
      <trkpt lat="48.73595" lon="6.45854">
        <ele>265.8</ele>
        <time>2022-03-03T13:04:35Z</time>
      </trkpt>
      <trkpt lat="48.73615" lon="6.45881">
        <ele>264.4</ele>
        <time>2022-03-03T13:04:38Z</time>
      </trkpt>
      <trkpt lat="48.73636" lon="6.45913">
        <ele>262</ele>
        <time>2022-03-03T13:04:41Z</time>
      </trkpt>
      <trkpt lat="48.73659" lon="6.45949">
        <ele>257.6</ele>
        <time>2022-03-03T13:04:44Z</time>
      </trkpt>
      <trkpt lat="48.73678" lon="6.45976">
        <ele>253.8</ele>
        <time>2022-03-03T13:04:46Z</time>
      </trkpt>
      <trkpt lat="48.73698" lon="6.46003">
        <ele>250</ele>
        <time>2022-03-03T13:04:48Z</time>
      </trkpt>
      <trkpt lat="48.7372" lon="6.4603">
        <ele>247</ele>
        <time>2022-03-03T13:04:50Z</time>
      </trkpt>
      <trkpt lat="48.73742" lon="6.46055">
        <ele>244.6</ele>
        <time>2022-03-03T13:04:52Z</time>
      </trkpt>
      <trkpt lat="48.73763" lon="6.46077">
        <ele>243.2</ele>
        <time>2022-03-03T13:04:54Z</time>
      </trkpt>
      <trkpt lat="48.73785" lon="6.46094">
        <ele>242.6</ele>
        <time>2022-03-03T13:04:56Z</time>
      </trkpt>
      <trkpt lat="48.73819" lon="6.46112">
        <ele>241</ele>
        <time>2022-03-03T13:04:59Z</time>
      </trkpt>
      <trkpt lat="48.73841" lon="6.46125">
        <ele>238.6</ele>
        <time>2022-03-03T13:05:01Z</time>
      </trkpt>
      <trkpt lat="48.73865" lon="6.46142">
        <ele>236.4</ele>
        <time>2022-03-03T13:05:03Z</time>
      </trkpt>
      <trkpt lat="48.73876" lon="6.46152">
        <ele>235.6</ele>
        <time>2022-03-03T13:05:04Z</time>
      </trkpt>
      <trkpt lat="48.73895" lon="6.46176">
        <ele>234.4</ele>
        <time>2022-03-03T13:05:06Z</time>
      </trkpt>
      <trkpt lat="48.73922" lon="6.46211">
        <ele>233.2</ele>
        <time>2022-03-03T13:05:09Z</time>
      </trkpt>
      <trkpt lat="48.73948" lon="6.46246">
        <ele>231.8</ele>
        <time>2022-03-03T13:05:12Z</time>
      </trkpt>
      <trkpt lat="48.73973" lon="6.4628">
        <ele>230.6</ele>
        <time>2022-03-03T13:05:15Z</time>
      </trkpt>
      <trkpt lat="48.73998" lon="6.46314">
        <ele>228.2</ele>
        <time>2022-03-03T13:05:18Z</time>
      </trkpt>
      <trkpt lat="48.74025" lon="6.46349">
        <ele>225.6</ele>
        <time>2022-03-03T13:05:21Z</time>
      </trkpt>
      <trkpt lat="48.74051" lon="6.46385">
        <ele>223.8</ele>
        <time>2022-03-03T13:05:24Z</time>
      </trkpt>
      <trkpt lat="48.74074" lon="6.46424">
        <ele>221.8</ele>
        <time>2022-03-03T13:05:27Z</time>
      </trkpt>
      <trkpt lat="48.74089" lon="6.46452">
        <ele>220</ele>
        <time>2022-03-03T13:05:29Z</time>
      </trkpt>
      <trkpt lat="48.74103" lon="6.46482">
        <ele>218.8</ele>
        <time>2022-03-03T13:05:31Z</time>
      </trkpt>
      <trkpt lat="48.74121" lon="6.46526">
        <ele>216.6</ele>
        <time>2022-03-03T13:05:34Z</time>
      </trkpt>
      <trkpt lat="48.74138" lon="6.46571">
        <ele>214.6</ele>
        <time>2022-03-03T13:05:37Z</time>
      </trkpt>
      <trkpt lat="48.74155" lon="6.46615">
        <ele>213.6</ele>
        <time>2022-03-03T13:05:40Z</time>
      </trkpt>
      <trkpt lat="48.7417" lon="6.46656">
        <ele>212.8</ele>
        <time>2022-03-03T13:05:43Z</time>
      </trkpt>
      <trkpt lat="48.74183" lon="6.46689">
        <ele>211.8</ele>
        <time>2022-03-03T13:05:46Z</time>
      </trkpt>
      <trkpt lat="48.74188" lon="6.46697">
        <ele>211.4</ele>
        <time>2022-03-03T13:05:47Z</time>
      </trkpt>
      <trkpt lat="48.74194" lon="6.46703">
        <ele>211.2</ele>
        <time>2022-03-03T13:05:48Z</time>
      </trkpt>
      <trkpt lat="48.74215" lon="6.46721">
        <ele>210.4</ele>
        <time>2022-03-03T13:05:52Z</time>
      </trkpt>
      <trkpt lat="48.74229" lon="6.46727">
        <ele>210</ele>
        <time>2022-03-03T13:05:56Z</time>
      </trkpt>
      <trkpt lat="48.7423" lon="6.46725">
        <ele>210</ele>
        <time>2022-03-03T13:05:57Z</time>
      </trkpt>
      <trkpt lat="48.74232" lon="6.46723">
        <ele>210</ele>
        <time>2022-03-03T13:05:58Z</time>
      </trkpt>
      <trkpt lat="48.74235" lon="6.46716">
        <ele>209.8</ele>
        <time>2022-03-03T13:06:00Z</time>
      </trkpt>
      <trkpt lat="48.74237" lon="6.4671">
        <ele>209.8</ele>
        <time>2022-03-03T13:06:01Z</time>
      </trkpt>
      <trkpt lat="48.7424" lon="6.46697">
        <ele>209.8</ele>
        <time>2022-03-03T13:06:03Z</time>
      </trkpt>
      <trkpt lat="48.74243" lon="6.4669">
        <ele>209.6</ele>
        <time>2022-03-03T13:06:04Z</time>
      </trkpt>
      <trkpt lat="48.74246" lon="6.46683">
        <ele>209.6</ele>
        <time>2022-03-03T13:06:05Z</time>
      </trkpt>
      <trkpt lat="48.74251" lon="6.46677">
        <ele>209.6</ele>
        <time>2022-03-03T13:06:06Z</time>
      </trkpt>
      <trkpt lat="48.74256" lon="6.46672">
        <ele>209.8</ele>
        <time>2022-03-03T13:06:07Z</time>
      </trkpt>
      <trkpt lat="48.74261" lon="6.46668">
        <ele>209.8</ele>
        <time>2022-03-03T13:06:08Z</time>
      </trkpt>
      <trkpt lat="48.74267" lon="6.46665">
        <ele>210</ele>
        <time>2022-03-03T13:06:09Z</time>
      </trkpt>
      <trkpt lat="48.74272" lon="6.46663">
        <ele>210.2</ele>
        <time>2022-03-03T13:06:10Z</time>
      </trkpt>
      <trkpt lat="48.74296" lon="6.46655">
        <ele>210.2</ele>
        <time>2022-03-03T13:06:14Z</time>
      </trkpt>
      <trkpt lat="48.74319" lon="6.46645">
        <ele>210.4</ele>
        <time>2022-03-03T13:06:18Z</time>
      </trkpt>
      <trkpt lat="48.74342" lon="6.46632">
        <ele>210.6</ele>
        <time>2022-03-03T13:06:22Z</time>
      </trkpt>
      <trkpt lat="48.74364" lon="6.46615">
        <ele>210.8</ele>
        <time>2022-03-03T13:06:26Z</time>
      </trkpt>
      <trkpt lat="48.74384" lon="6.46598">
        <ele>211.2</ele>
        <time>2022-03-03T13:06:30Z</time>
      </trkpt>
      <trkpt lat="48.74403" lon="6.46578">
        <ele>211.6</ele>
        <time>2022-03-03T13:06:34Z</time>
      </trkpt>
      <trkpt lat="48.74419" lon="6.46556">
        <ele>212</ele>
        <time>2022-03-03T13:06:38Z</time>
      </trkpt>
      <trkpt lat="48.74434" lon="6.46531">
        <ele>212.4</ele>
        <time>2022-03-03T13:06:42Z</time>
      </trkpt>
      <trkpt lat="48.74449" lon="6.46502">
        <ele>212.2</ele>
        <time>2022-03-03T13:06:46Z</time>
      </trkpt>
      <trkpt lat="48.74468" lon="6.46476">
        <ele>212</ele>
        <time>2022-03-03T13:06:50Z</time>
      </trkpt>
      <trkpt lat="48.74488" lon="6.46452">
        <ele>212</ele>
        <time>2022-03-03T13:06:54Z</time>
      </trkpt>
      <trkpt lat="48.74507" lon="6.46429">
        <ele>212.4</ele>
        <time>2022-03-03T13:06:58Z</time>
      </trkpt>
      <trkpt lat="48.74523" lon="6.46404">
        <ele>213.4</ele>
        <time>2022-03-03T13:07:02Z</time>
      </trkpt>
      <trkpt lat="48.74534" lon="6.4637">
        <ele>214.4</ele>
        <time>2022-03-03T13:07:07Z</time>
      </trkpt>
      <trkpt lat="48.74537" lon="6.46351">
        <ele>215.4</ele>
        <time>2022-03-03T13:07:10Z</time>
      </trkpt>
      <trkpt lat="48.74537" lon="6.46315">
        <ele>216.8</ele>
        <time>2022-03-03T13:07:16Z</time>
      </trkpt>
      <trkpt lat="48.74544" lon="6.46282">
        <ele>218</ele>
        <time>2022-03-03T13:07:22Z</time>
      </trkpt>
      <trkpt lat="48.74563" lon="6.46265">
        <ele>219.4</ele>
        <time>2022-03-03T13:07:28Z</time>
      </trkpt>
      <trkpt lat="48.74584" lon="6.46251">
        <ele>220.2</ele>
        <time>2022-03-03T13:07:34Z</time>
      </trkpt>
      <trkpt lat="48.74608" lon="6.46237">
        <ele>220</ele>
        <time>2022-03-03T13:07:39Z</time>
      </trkpt>
      <trkpt lat="48.74632" lon="6.46223">
        <ele>219.2</ele>
        <time>2022-03-03T13:07:43Z</time>
      </trkpt>
      <trkpt lat="48.74653" lon="6.4621">
        <ele>218</ele>
        <time>2022-03-03T13:07:46Z</time>
      </trkpt>
      <trkpt lat="48.74675" lon="6.46196">
        <ele>218</ele>
        <time>2022-03-03T13:07:49Z</time>
      </trkpt>
      <trkpt lat="48.74696" lon="6.46182">
        <ele>217.8</ele>
        <time>2022-03-03T13:07:52Z</time>
      </trkpt>
      <trkpt lat="48.74716" lon="6.46165">
        <ele>217.6</ele>
        <time>2022-03-03T13:07:55Z</time>
      </trkpt>
      <trkpt lat="48.74734" lon="6.46145">
        <ele>217.6</ele>
        <time>2022-03-03T13:07:58Z</time>
      </trkpt>
      <trkpt lat="48.74754" lon="6.46115">
        <ele>218</ele>
        <time>2022-03-03T13:08:02Z</time>
      </trkpt>
      <trkpt lat="48.74769" lon="6.46081">
        <ele>218.4</ele>
        <time>2022-03-03T13:08:06Z</time>
      </trkpt>
      <trkpt lat="48.74781" lon="6.46046">
        <ele>219</ele>
        <time>2022-03-03T13:08:10Z</time>
      </trkpt>
      <trkpt lat="48.74792" lon="6.4601">
        <ele>219.4</ele>
        <time>2022-03-03T13:08:14Z</time>
      </trkpt>
      <trkpt lat="48.74804" lon="6.45972">
        <ele>219.4</ele>
        <time>2022-03-03T13:08:18Z</time>
      </trkpt>
      <trkpt lat="48.74814" lon="6.45933">
        <ele>219.2</ele>
        <time>2022-03-03T13:08:22Z</time>
      </trkpt>
      <trkpt lat="48.74824" lon="6.45902">
        <ele>219</ele>
        <time>2022-03-03T13:08:25Z</time>
      </trkpt>
      <trkpt lat="48.74834" lon="6.45873">
        <ele>218.6</ele>
        <time>2022-03-03T13:08:28Z</time>
      </trkpt>
      <trkpt lat="48.74847" lon="6.45844">
        <ele>218.4</ele>
        <time>2022-03-03T13:08:31Z</time>
      </trkpt>
      <trkpt lat="48.7486" lon="6.45815">
        <ele>218</ele>
        <time>2022-03-03T13:08:34Z</time>
      </trkpt>
      <trkpt lat="48.74873" lon="6.45786">
        <ele>217.6</ele>
        <time>2022-03-03T13:08:37Z</time>
      </trkpt>
      <trkpt lat="48.74887" lon="6.45758">
        <ele>217.6</ele>
        <time>2022-03-03T13:08:40Z</time>
      </trkpt>
      <trkpt lat="48.74901" lon="6.45726">
        <ele>217</ele>
        <time>2022-03-03T13:08:43Z</time>
      </trkpt>
      <trkpt lat="48.74913" lon="6.45693">
        <ele>216</ele>
        <time>2022-03-03T13:08:46Z</time>
      </trkpt>
      <trkpt lat="48.74923" lon="6.45655">
        <ele>214.8</ele>
        <time>2022-03-03T13:08:49Z</time>
      </trkpt>
      <trkpt lat="48.74931" lon="6.45615">
        <ele>213.6</ele>
        <time>2022-03-03T13:08:52Z</time>
      </trkpt>
      <trkpt lat="48.74941" lon="6.45575">
        <ele>212.8</ele>
        <time>2022-03-03T13:08:55Z</time>
      </trkpt>
      <trkpt lat="48.74945" lon="6.45562">
        <ele>212.6</ele>
        <time>2022-03-03T13:08:56Z</time>
      </trkpt>
      <trkpt lat="48.7495" lon="6.4555">
        <ele>212.2</ele>
        <time>2022-03-03T13:08:57Z</time>
      </trkpt>
      <trkpt lat="48.74963" lon="6.45518">
        <ele>212</ele>
        <time>2022-03-03T13:09:00Z</time>
      </trkpt>
      <trkpt lat="48.74977" lon="6.4549">
        <ele>212.6</ele>
        <time>2022-03-03T13:09:03Z</time>
      </trkpt>
      <trkpt lat="48.74993" lon="6.45457">
        <ele>214</ele>
        <time>2022-03-03T13:09:07Z</time>
      </trkpt>
      <trkpt lat="48.75008" lon="6.45427">
        <ele>215</ele>
        <time>2022-03-03T13:09:11Z</time>
      </trkpt>
      <trkpt lat="48.75021" lon="6.45395">
        <ele>215.6</ele>
        <time>2022-03-03T13:09:15Z</time>
      </trkpt>
      <trkpt lat="48.75024" lon="6.45386">
        <ele>215.6</ele>
        <time>2022-03-03T13:09:16Z</time>
      </trkpt>
      <trkpt lat="48.75026" lon="6.45377">
        <ele>215.4</ele>
        <time>2022-03-03T13:09:17Z</time>
      </trkpt>
      <trkpt lat="48.75031" lon="6.4534">
        <ele>215.8</ele>
        <time>2022-03-03T13:09:21Z</time>
      </trkpt>
      <trkpt lat="48.75036" lon="6.45303">
        <ele>216</ele>
        <time>2022-03-03T13:09:25Z</time>
      </trkpt>
      <trkpt lat="48.75039" lon="6.45266">
        <ele>215.8</ele>
        <time>2022-03-03T13:09:29Z</time>
      </trkpt>
      <trkpt lat="48.75041" lon="6.45228">
        <ele>215.2</ele>
        <time>2022-03-03T13:09:33Z</time>
      </trkpt>
      <trkpt lat="48.75043" lon="6.4519">
        <ele>214.8</ele>
        <time>2022-03-03T13:09:37Z</time>
      </trkpt>
      <trkpt lat="48.75047" lon="6.45155">
        <ele>214.6</ele>
        <time>2022-03-03T13:09:41Z</time>
      </trkpt>
      <trkpt lat="48.7505" lon="6.45123">
        <ele>214.6</ele>
        <time>2022-03-03T13:09:45Z</time>
      </trkpt>
      <trkpt lat="48.75053" lon="6.45084">
        <ele>215</ele>
        <time>2022-03-03T13:09:49Z</time>
      </trkpt>
      <trkpt lat="48.75056" lon="6.45042">
        <ele>215.2</ele>
        <time>2022-03-03T13:09:53Z</time>
      </trkpt>
      <trkpt lat="48.75056" lon="6.45001">
        <ele>215.4</ele>
        <time>2022-03-03T13:09:58Z</time>
      </trkpt>
      <trkpt lat="48.75061" lon="6.44963">
        <ele>215.8</ele>
        <time>2022-03-03T13:10:02Z</time>
      </trkpt>
      <trkpt lat="48.75063" lon="6.44923">
        <ele>215.4</ele>
        <time>2022-03-03T13:10:06Z</time>
      </trkpt>
      <trkpt lat="48.75065" lon="6.44887">
        <ele>215.4</ele>
        <time>2022-03-03T13:10:10Z</time>
      </trkpt>
      <trkpt lat="48.75067" lon="6.44855">
        <ele>216</ele>
        <time>2022-03-03T13:10:14Z</time>
      </trkpt>
      <trkpt lat="48.75069" lon="6.4482">
        <ele>216.2</ele>
        <time>2022-03-03T13:10:19Z</time>
      </trkpt>
      <trkpt lat="48.75073" lon="6.44782">
        <ele>216.2</ele>
        <time>2022-03-03T13:10:23Z</time>
      </trkpt>
      <trkpt lat="48.75076" lon="6.44744">
        <ele>216.2</ele>
        <time>2022-03-03T13:10:27Z</time>
      </trkpt>
      <trkpt lat="48.7508" lon="6.4471">
        <ele>216.4</ele>
        <time>2022-03-03T13:10:30Z</time>
      </trkpt>
      <trkpt lat="48.75082" lon="6.4469">
        <ele>216.8</ele>
        <time>2022-03-03T13:10:32Z</time>
      </trkpt>
      <trkpt lat="48.75086" lon="6.44649">
        <ele>217.2</ele>
        <time>2022-03-03T13:10:36Z</time>
      </trkpt>
      <trkpt lat="48.75093" lon="6.44577">
        <ele>218.2</ele>
        <time>2022-03-03T13:10:43Z</time>
      </trkpt>
      <trkpt lat="48.75096" lon="6.44512">
        <ele>219.8</ele>
        <time>2022-03-03T13:10:49Z</time>
      </trkpt>
      <trkpt lat="48.75103" lon="6.44471">
        <ele>219.8</ele>
        <time>2022-03-03T13:10:53Z</time>
      </trkpt>
      <trkpt lat="48.75104" lon="6.44461">
        <ele>220</ele>
        <time>2022-03-03T13:10:54Z</time>
      </trkpt>
      <trkpt lat="48.75108" lon="6.4444">
        <ele>220</ele>
        <time>2022-03-03T13:10:56Z</time>
      </trkpt>
      <trkpt lat="48.75112" lon="6.44428">
        <ele>220</ele>
        <time>2022-03-03T13:10:57Z</time>
      </trkpt>
      <trkpt lat="48.75114" lon="6.44414">
        <ele>219.8</ele>
        <time>2022-03-03T13:10:58Z</time>
      </trkpt>
      <trkpt lat="48.75118" lon="6.44403">
        <ele>219.8</ele>
        <time>2022-03-03T13:10:59Z</time>
      </trkpt>
      <trkpt lat="48.75123" lon="6.44395">
        <ele>219.6</ele>
        <time>2022-03-03T13:11:00Z</time>
      </trkpt>
      <trkpt lat="48.75128" lon="6.44383">
        <ele>219.4</ele>
        <time>2022-03-03T13:11:01Z</time>
      </trkpt>
      <trkpt lat="48.75136" lon="6.44376">
        <ele>219</ele>
        <time>2022-03-03T13:11:02Z</time>
      </trkpt>
      <trkpt lat="48.75143" lon="6.4437">
        <ele>218.8</ele>
        <time>2022-03-03T13:11:03Z</time>
      </trkpt>
      <trkpt lat="48.75151" lon="6.44365">
        <ele>218.4</ele>
        <time>2022-03-03T13:11:04Z</time>
      </trkpt>
      <trkpt lat="48.75174" lon="6.44353">
        <ele>217.4</ele>
        <time>2022-03-03T13:11:07Z</time>
      </trkpt>
      <trkpt lat="48.75196" lon="6.44342">
        <ele>216.6</ele>
        <time>2022-03-03T13:11:10Z</time>
      </trkpt>
      <trkpt lat="48.75203" lon="6.44337">
        <ele>216.4</ele>
        <time>2022-03-03T13:11:11Z</time>
      </trkpt>
      <trkpt lat="48.75225" lon="6.44319">
        <ele>215</ele>
        <time>2022-03-03T13:11:14Z</time>
      </trkpt>
      <trkpt lat="48.75249" lon="6.44298">
        <ele>212.8</ele>
        <time>2022-03-03T13:11:17Z</time>
      </trkpt>
      <trkpt lat="48.75276" lon="6.4428">
        <ele>210.6</ele>
        <time>2022-03-03T13:11:20Z</time>
      </trkpt>
      <trkpt lat="48.75301" lon="6.4426">
        <ele>209</ele>
        <time>2022-03-03T13:11:23Z</time>
      </trkpt>
      <trkpt lat="48.7532" lon="6.44224">
        <ele>208</ele>
        <time>2022-03-03T13:11:26Z</time>
      </trkpt>
      <trkpt lat="48.75331" lon="6.44203">
        <ele>207.4</ele>
        <time>2022-03-03T13:11:28Z</time>
      </trkpt>
      <trkpt lat="48.75335" lon="6.44192">
        <ele>207.2</ele>
        <time>2022-03-03T13:11:29Z</time>
      </trkpt>
      <trkpt lat="48.75337" lon="6.44181">
        <ele>207.2</ele>
        <time>2022-03-03T13:11:30Z</time>
      </trkpt>
      <trkpt lat="48.75337" lon="6.4417">
        <ele>207</ele>
        <time>2022-03-03T13:11:31Z</time>
      </trkpt>
      <trkpt lat="48.75337" lon="6.44158">
        <ele>207</ele>
        <time>2022-03-03T13:11:32Z</time>
      </trkpt>
      <trkpt lat="48.75337" lon="6.44145">
        <ele>207</ele>
        <time>2022-03-03T13:11:33Z</time>
      </trkpt>
      <trkpt lat="48.75335" lon="6.44135">
        <ele>207</ele>
        <time>2022-03-03T13:11:34Z</time>
      </trkpt>
      <trkpt lat="48.7533" lon="6.44126">
        <ele>207</ele>
        <time>2022-03-03T13:11:35Z</time>
      </trkpt>
      <trkpt lat="48.75325" lon="6.44117">
        <ele>207</ele>
        <time>2022-03-03T13:11:36Z</time>
      </trkpt>
      <trkpt lat="48.75309" lon="6.44093">
        <ele>207.2</ele>
        <time>2022-03-03T13:11:39Z</time>
      </trkpt>
      <trkpt lat="48.75294" lon="6.44067">
        <ele>207.4</ele>
        <time>2022-03-03T13:11:42Z</time>
      </trkpt>
      <trkpt lat="48.75277" lon="6.44043">
        <ele>207.4</ele>
        <time>2022-03-03T13:11:45Z</time>
      </trkpt>
      <trkpt lat="48.75261" lon="6.44019">
        <ele>207.4</ele>
        <time>2022-03-03T13:11:48Z</time>
      </trkpt>
      <trkpt lat="48.75246" lon="6.43995">
        <ele>207.8</ele>
        <time>2022-03-03T13:11:51Z</time>
      </trkpt>
      <trkpt lat="48.7523" lon="6.4397">
        <ele>207.8</ele>
        <time>2022-03-03T13:11:54Z</time>
      </trkpt>
      <trkpt lat="48.75214" lon="6.43945">
        <ele>207.8</ele>
        <time>2022-03-03T13:11:57Z</time>
      </trkpt>
      <trkpt lat="48.75199" lon="6.4392">
        <ele>207.8</ele>
        <time>2022-03-03T13:12:00Z</time>
      </trkpt>
      <trkpt lat="48.75185" lon="6.43893">
        <ele>207.8</ele>
        <time>2022-03-03T13:12:03Z</time>
      </trkpt>
      <trkpt lat="48.75174" lon="6.43864">
        <ele>208</ele>
        <time>2022-03-03T13:12:06Z</time>
      </trkpt>
      <trkpt lat="48.75163" lon="6.43834">
        <ele>208.2</ele>
        <time>2022-03-03T13:12:09Z</time>
      </trkpt>
      <trkpt lat="48.75149" lon="6.43795">
        <ele>208.4</ele>
        <time>2022-03-03T13:12:13Z</time>
      </trkpt>
      <trkpt lat="48.75145" lon="6.43787">
        <ele>208.4</ele>
        <time>2022-03-03T13:12:14Z</time>
      </trkpt>
      <trkpt lat="48.75124" lon="6.43756">
        <ele>208.8</ele>
        <time>2022-03-03T13:12:18Z</time>
      </trkpt>
      <trkpt lat="48.75104" lon="6.43726">
        <ele>209.2</ele>
        <time>2022-03-03T13:12:22Z</time>
      </trkpt>
      <trkpt lat="48.75101" lon="6.43717">
        <ele>209.2</ele>
        <time>2022-03-03T13:12:23Z</time>
      </trkpt>
      <trkpt lat="48.75098" lon="6.43707">
        <ele>209.2</ele>
        <time>2022-03-03T13:12:24Z</time>
      </trkpt>
      <trkpt lat="48.75097" lon="6.43697">
        <ele>209.2</ele>
        <time>2022-03-03T13:12:25Z</time>
      </trkpt>
      <trkpt lat="48.75097" lon="6.43687">
        <ele>209.2</ele>
        <time>2022-03-03T13:12:26Z</time>
      </trkpt>
      <trkpt lat="48.75097" lon="6.43676">
        <ele>209.4</ele>
        <time>2022-03-03T13:12:27Z</time>
      </trkpt>
      <trkpt lat="48.75099" lon="6.43667">
        <ele>209.8</ele>
        <time>2022-03-03T13:12:28Z</time>
      </trkpt>
      <trkpt lat="48.75101" lon="6.43658">
        <ele>209.8</ele>
        <time>2022-03-03T13:12:29Z</time>
      </trkpt>
      <trkpt lat="48.75108" lon="6.43625">
        <ele>210.8</ele>
        <time>2022-03-03T13:12:33Z</time>
      </trkpt>
      <trkpt lat="48.75117" lon="6.43596">
        <ele>211.6</ele>
        <time>2022-03-03T13:12:37Z</time>
      </trkpt>
      <trkpt lat="48.75128" lon="6.43566">
        <ele>212</ele>
        <time>2022-03-03T13:12:41Z</time>
      </trkpt>
      <trkpt lat="48.7514" lon="6.43537">
        <ele>212.4</ele>
        <time>2022-03-03T13:12:45Z</time>
      </trkpt>
      <trkpt lat="48.75153" lon="6.43509">
        <ele>212.8</ele>
        <time>2022-03-03T13:12:49Z</time>
      </trkpt>
      <trkpt lat="48.75165" lon="6.43483">
        <ele>213.4</ele>
        <time>2022-03-03T13:12:53Z</time>
      </trkpt>
      <trkpt lat="48.75172" lon="6.43472">
        <ele>213.8</ele>
        <time>2022-03-03T13:12:55Z</time>
      </trkpt>
      <trkpt lat="48.75175" lon="6.43467">
        <ele>214.2</ele>
        <time>2022-03-03T13:12:56Z</time>
      </trkpt>
      <trkpt lat="48.75179" lon="6.43463">
        <ele>214.4</ele>
        <time>2022-03-03T13:12:57Z</time>
      </trkpt>
      <trkpt lat="48.75198" lon="6.43449">
        <ele>215.8</ele>
        <time>2022-03-03T13:13:02Z</time>
      </trkpt>
      <trkpt lat="48.75222" lon="6.43441">
        <ele>217</ele>
        <time>2022-03-03T13:13:08Z</time>
      </trkpt>
      <trkpt lat="48.75245" lon="6.43442">
        <ele>218.4</ele>
        <time>2022-03-03T13:13:14Z</time>
      </trkpt>
      <trkpt lat="48.75269" lon="6.43445">
        <ele>219.8</ele>
        <time>2022-03-03T13:13:20Z</time>
      </trkpt>
      <trkpt lat="48.75292" lon="6.4345">
        <ele>220.6</ele>
        <time>2022-03-03T13:13:26Z</time>
      </trkpt>
      <trkpt lat="48.75315" lon="6.4345">
        <ele>221.4</ele>
        <time>2022-03-03T13:13:32Z</time>
      </trkpt>
      <trkpt lat="48.75334" lon="6.43443">
        <ele>221.6</ele>
        <time>2022-03-03T13:13:37Z</time>
      </trkpt>
      <trkpt lat="48.75357" lon="6.43428">
        <ele>221</ele>
        <time>2022-03-03T13:13:42Z</time>
      </trkpt>
      <trkpt lat="48.7538" lon="6.43411">
        <ele>220.2</ele>
        <time>2022-03-03T13:13:46Z</time>
      </trkpt>
      <trkpt lat="48.75406" lon="6.43392">
        <ele>218</ele>
        <time>2022-03-03T13:13:50Z</time>
      </trkpt>
      <trkpt lat="48.7542" lon="6.43383">
        <ele>217.4</ele>
        <time>2022-03-03T13:13:52Z</time>
      </trkpt>
      <trkpt lat="48.75442" lon="6.43368">
        <ele>216.2</ele>
        <time>2022-03-03T13:13:55Z</time>
      </trkpt>
      <trkpt lat="48.75464" lon="6.43353">
        <ele>215.2</ele>
        <time>2022-03-03T13:13:58Z</time>
      </trkpt>
      <trkpt lat="48.75486" lon="6.43337">
        <ele>215</ele>
        <time>2022-03-03T13:14:01Z</time>
      </trkpt>
      <trkpt lat="48.75505" lon="6.43322">
        <ele>215.2</ele>
        <time>2022-03-03T13:14:04Z</time>
      </trkpt>
      <trkpt lat="48.75525" lon="6.43303">
        <ele>215.8</ele>
        <time>2022-03-03T13:14:08Z</time>
      </trkpt>
      <trkpt lat="48.75542" lon="6.43283">
        <ele>216.2</ele>
        <time>2022-03-03T13:14:12Z</time>
      </trkpt>
      <trkpt lat="48.75557" lon="6.43261">
        <ele>217.2</ele>
        <time>2022-03-03T13:14:16Z</time>
      </trkpt>
      <trkpt lat="48.75572" lon="6.43236">
        <ele>217.8</ele>
        <time>2022-03-03T13:14:20Z</time>
      </trkpt>
      <trkpt lat="48.75589" lon="6.43209">
        <ele>216.6</ele>
        <time>2022-03-03T13:14:24Z</time>
      </trkpt>
      <trkpt lat="48.75603" lon="6.43186">
        <ele>215.4</ele>
        <time>2022-03-03T13:14:27Z</time>
      </trkpt>
      <trkpt lat="48.75617" lon="6.43161">
        <ele>214.6</ele>
        <time>2022-03-03T13:14:30Z</time>
      </trkpt>
      <trkpt lat="48.75632" lon="6.43136">
        <ele>214.4</ele>
        <time>2022-03-03T13:14:33Z</time>
      </trkpt>
      <trkpt lat="48.75647" lon="6.43111">
        <ele>214</ele>
        <time>2022-03-03T13:14:36Z</time>
      </trkpt>
      <trkpt lat="48.75662" lon="6.43087">
        <ele>214</ele>
        <time>2022-03-03T13:14:39Z</time>
      </trkpt>
      <trkpt lat="48.75681" lon="6.43058">
        <ele>214.8</ele>
        <time>2022-03-03T13:14:43Z</time>
      </trkpt>
      <trkpt lat="48.75698" lon="6.43034">
        <ele>216</ele>
        <time>2022-03-03T13:14:47Z</time>
      </trkpt>
      <trkpt lat="48.75717" lon="6.43013">
        <ele>217</ele>
        <time>2022-03-03T13:14:51Z</time>
      </trkpt>
      <trkpt lat="48.75736" lon="6.42991">
        <ele>217.6</ele>
        <time>2022-03-03T13:14:55Z</time>
      </trkpt>
      <trkpt lat="48.75756" lon="6.42967">
        <ele>217.6</ele>
        <time>2022-03-03T13:14:59Z</time>
      </trkpt>
      <trkpt lat="48.75772" lon="6.42944">
        <ele>217</ele>
        <time>2022-03-03T13:15:02Z</time>
      </trkpt>
      <trkpt lat="48.75787" lon="6.42917">
        <ele>216</ele>
        <time>2022-03-03T13:15:05Z</time>
      </trkpt>
      <trkpt lat="48.75801" lon="6.42886">
        <ele>214.6</ele>
        <time>2022-03-03T13:15:08Z</time>
      </trkpt>
      <trkpt lat="48.75814" lon="6.42853">
        <ele>213.4</ele>
        <time>2022-03-03T13:15:11Z</time>
      </trkpt>
      <trkpt lat="48.75828" lon="6.4282">
        <ele>212.4</ele>
        <time>2022-03-03T13:15:14Z</time>
      </trkpt>
      <trkpt lat="48.7584" lon="6.4279">
        <ele>212.4</ele>
        <time>2022-03-03T13:15:17Z</time>
      </trkpt>
      <trkpt lat="48.75855" lon="6.42755">
        <ele>213.2</ele>
        <time>2022-03-03T13:15:21Z</time>
      </trkpt>
      <trkpt lat="48.7587" lon="6.42724">
        <ele>214</ele>
        <time>2022-03-03T13:15:25Z</time>
      </trkpt>
      <trkpt lat="48.75887" lon="6.42691">
        <ele>213.4</ele>
        <time>2022-03-03T13:15:29Z</time>
      </trkpt>
      <trkpt lat="48.75901" lon="6.42663">
        <ele>212.8</ele>
        <time>2022-03-03T13:15:32Z</time>
      </trkpt>
      <trkpt lat="48.75917" lon="6.42634">
        <ele>212.4</ele>
        <time>2022-03-03T13:15:35Z</time>
      </trkpt>
      <trkpt lat="48.75931" lon="6.42608">
        <ele>212.6</ele>
        <time>2022-03-03T13:15:38Z</time>
      </trkpt>
      <trkpt lat="48.75947" lon="6.42579">
        <ele>213.6</ele>
        <time>2022-03-03T13:15:42Z</time>
      </trkpt>
      <trkpt lat="48.75961" lon="6.42553">
        <ele>214.4</ele>
        <time>2022-03-03T13:15:46Z</time>
      </trkpt>
      <trkpt lat="48.75977" lon="6.42524">
        <ele>214.4</ele>
        <time>2022-03-03T13:15:50Z</time>
      </trkpt>
      <trkpt lat="48.75996" lon="6.42494">
        <ele>213.4</ele>
        <time>2022-03-03T13:15:54Z</time>
      </trkpt>
      <trkpt lat="48.76018" lon="6.42469">
        <ele>213</ele>
        <time>2022-03-03T13:15:58Z</time>
      </trkpt>
      <trkpt lat="48.76037" lon="6.42451">
        <ele>213.8</ele>
        <time>2022-03-03T13:16:02Z</time>
      </trkpt>
      <trkpt lat="48.76056" lon="6.42433">
        <ele>214.8</ele>
        <time>2022-03-03T13:16:07Z</time>
      </trkpt>
      <trkpt lat="48.76074" lon="6.42413">
        <ele>216.2</ele>
        <time>2022-03-03T13:16:12Z</time>
      </trkpt>
      <trkpt lat="48.76092" lon="6.42395">
        <ele>217.8</ele>
        <time>2022-03-03T13:16:17Z</time>
      </trkpt>
      <trkpt lat="48.76112" lon="6.42375">
        <ele>218.8</ele>
        <time>2022-03-03T13:16:23Z</time>
      </trkpt>
      <trkpt lat="48.76132" lon="6.42357">
        <ele>219.8</ele>
        <time>2022-03-03T13:16:29Z</time>
      </trkpt>
      <trkpt lat="48.76151" lon="6.42339">
        <ele>220.8</ele>
        <time>2022-03-03T13:16:35Z</time>
      </trkpt>
      <trkpt lat="48.7617" lon="6.42322">
        <ele>221</ele>
        <time>2022-03-03T13:16:42Z</time>
      </trkpt>
      <trkpt lat="48.76187" lon="6.42305">
        <ele>219.8</ele>
        <time>2022-03-03T13:16:48Z</time>
      </trkpt>
      <trkpt lat="48.76193" lon="6.42286">
        <ele>219.2</ele>
        <time>2022-03-03T13:16:53Z</time>
      </trkpt>
      <trkpt lat="48.76191" lon="6.42282">
        <ele>219.2</ele>
        <time>2022-03-03T13:16:54Z</time>
      </trkpt>
      <trkpt lat="48.76189" lon="6.42277">
        <ele>219.4</ele>
        <time>2022-03-03T13:16:55Z</time>
      </trkpt>
      <trkpt lat="48.76186" lon="6.42274">
        <ele>219.6</ele>
        <time>2022-03-03T13:16:56Z</time>
      </trkpt>
      <trkpt lat="48.76183" lon="6.4227">
        <ele>219.8</ele>
        <time>2022-03-03T13:16:57Z</time>
      </trkpt>
      <trkpt lat="48.76168" lon="6.42246">
        <ele>221.2</ele>
        <time>2022-03-03T13:17:03Z</time>
      </trkpt>
      <trkpt lat="48.76153" lon="6.4222">
        <ele>222.4</ele>
        <time>2022-03-03T13:17:09Z</time>
      </trkpt>
      <trkpt lat="48.76138" lon="6.42195">
        <ele>223.8</ele>
        <time>2022-03-03T13:17:15Z</time>
      </trkpt>
      <trkpt lat="48.76119" lon="6.42177">
        <ele>225</ele>
        <time>2022-03-03T13:17:21Z</time>
      </trkpt>
      <trkpt lat="48.76098" lon="6.42164">
        <ele>226.6</ele>
        <time>2022-03-03T13:17:27Z</time>
      </trkpt>
      <trkpt lat="48.76078" lon="6.42151">
        <ele>228.2</ele>
        <time>2022-03-03T13:17:33Z</time>
      </trkpt>
      <trkpt lat="48.76058" lon="6.42139">
        <ele>230</ele>
        <time>2022-03-03T13:17:39Z</time>
      </trkpt>
      <trkpt lat="48.76039" lon="6.42127">
        <ele>232</ele>
        <time>2022-03-03T13:17:45Z</time>
      </trkpt>
      <trkpt lat="48.76019" lon="6.42115">
        <ele>234</ele>
        <time>2022-03-03T13:17:52Z</time>
      </trkpt>
      <trkpt lat="48.75999" lon="6.42102">
        <ele>236</ele>
        <time>2022-03-03T13:17:59Z</time>
      </trkpt>
      <trkpt lat="48.75979" lon="6.42091">
        <ele>237.6</ele>
        <time>2022-03-03T13:18:06Z</time>
      </trkpt>
      <trkpt lat="48.75959" lon="6.42079">
        <ele>239.2</ele>
        <time>2022-03-03T13:18:13Z</time>
      </trkpt>
      <trkpt lat="48.75939" lon="6.42066">
        <ele>241</ele>
        <time>2022-03-03T13:18:20Z</time>
      </trkpt>
      <trkpt lat="48.7592" lon="6.42055">
        <ele>242.8</ele>
        <time>2022-03-03T13:18:27Z</time>
      </trkpt>
      <trkpt lat="48.759" lon="6.42042">
        <ele>244.6</ele>
        <time>2022-03-03T13:18:34Z</time>
      </trkpt>
      <trkpt lat="48.7588" lon="6.42029">
        <ele>246.4</ele>
        <time>2022-03-03T13:18:41Z</time>
      </trkpt>
      <trkpt lat="48.7586" lon="6.42017">
        <ele>248.6</ele>
        <time>2022-03-03T13:18:48Z</time>
      </trkpt>
      <trkpt lat="48.7584" lon="6.42005">
        <ele>250.6</ele>
        <time>2022-03-03T13:18:55Z</time>
      </trkpt>
      <trkpt lat="48.7582" lon="6.41993">
        <ele>252</ele>
        <time>2022-03-03T13:19:02Z</time>
      </trkpt>
      <trkpt lat="48.758" lon="6.41985">
        <ele>253.2</ele>
        <time>2022-03-03T13:19:08Z</time>
      </trkpt>
      <trkpt lat="48.75779" lon="6.41979">
        <ele>254.6</ele>
        <time>2022-03-03T13:19:14Z</time>
      </trkpt>
      <trkpt lat="48.75756" lon="6.41973">
        <ele>256</ele>
        <time>2022-03-03T13:19:20Z</time>
      </trkpt>
      <trkpt lat="48.75734" lon="6.41966">
        <ele>257.2</ele>
        <time>2022-03-03T13:19:26Z</time>
      </trkpt>
      <trkpt lat="48.7571" lon="6.4196">
        <ele>258.4</ele>
        <time>2022-03-03T13:19:32Z</time>
      </trkpt>
      <trkpt lat="48.75686" lon="6.41953">
        <ele>259</ele>
        <time>2022-03-03T13:19:38Z</time>
      </trkpt>
      <trkpt lat="48.75663" lon="6.41943">
        <ele>259.8</ele>
        <time>2022-03-03T13:19:44Z</time>
      </trkpt>
      <trkpt lat="48.7565" lon="6.41937">
        <ele>260</ele>
        <time>2022-03-03T13:19:49Z</time>
      </trkpt>
      <trkpt lat="48.75648" lon="6.41935">
        <ele>260</ele>
        <time>2022-03-03T13:19:50Z</time>
      </trkpt>
      <trkpt lat="48.75646" lon="6.41934">
        <ele>260</ele>
        <time>2022-03-03T13:19:51Z</time>
      </trkpt>
      <trkpt lat="48.75639" lon="6.41929">
        <ele>260.2</ele>
        <time>2022-03-03T13:20:21Z</time>
      </trkpt>
      <trkpt lat="48.75638" lon="6.41929">
        <ele>260.2</ele>
        <time>2022-03-03T13:20:58Z</time>
      </trkpt>
      <trkpt lat="48.75617" lon="6.41924">
        <ele>260.2</ele>
        <time>2022-03-03T13:21:58Z</time>
      </trkpt>
      <trkpt lat="48.75592" lon="6.41914">
        <ele>260</ele>
        <time>2022-03-03T13:22:03Z</time>
      </trkpt>
      <trkpt lat="48.75569" lon="6.41906">
        <ele>260</ele>
        <time>2022-03-03T13:22:07Z</time>
      </trkpt>
      <trkpt lat="48.75551" lon="6.419">
        <ele>259.6</ele>
        <time>2022-03-03T13:22:10Z</time>
      </trkpt>
      <trkpt lat="48.75545" lon="6.41898">
        <ele>259.4</ele>
        <time>2022-03-03T13:22:11Z</time>
      </trkpt>
      <trkpt lat="48.75517" lon="6.41888">
        <ele>259.2</ele>
        <time>2022-03-03T13:22:15Z</time>
      </trkpt>
      <trkpt lat="48.75489" lon="6.4188">
        <ele>258.6</ele>
        <time>2022-03-03T13:22:19Z</time>
      </trkpt>
      <trkpt lat="48.75462" lon="6.4187">
        <ele>258.2</ele>
        <time>2022-03-03T13:22:23Z</time>
      </trkpt>
      <trkpt lat="48.75434" lon="6.41859">
        <ele>257.6</ele>
        <time>2022-03-03T13:22:27Z</time>
      </trkpt>
      <trkpt lat="48.75406" lon="6.41849">
        <ele>257</ele>
        <time>2022-03-03T13:22:31Z</time>
      </trkpt>
      <trkpt lat="48.75383" lon="6.41843">
        <ele>256.6</ele>
        <time>2022-03-03T13:22:34Z</time>
      </trkpt>
      <trkpt lat="48.75373" lon="6.41842">
        <ele>256.2</ele>
        <time>2022-03-03T13:22:35Z</time>
      </trkpt>
      <trkpt lat="48.75364" lon="6.41843">
        <ele>255.6</ele>
        <time>2022-03-03T13:22:36Z</time>
      </trkpt>
      <trkpt lat="48.75354" lon="6.41846">
        <ele>255</ele>
        <time>2022-03-03T13:22:37Z</time>
      </trkpt>
      <trkpt lat="48.75343" lon="6.41851">
        <ele>254.6</ele>
        <time>2022-03-03T13:22:38Z</time>
      </trkpt>
      <trkpt lat="48.75333" lon="6.41857">
        <ele>254</ele>
        <time>2022-03-03T13:22:39Z</time>
      </trkpt>
      <trkpt lat="48.75305" lon="6.41876">
        <ele>253</ele>
        <time>2022-03-03T13:22:42Z</time>
      </trkpt>
      <trkpt lat="48.75278" lon="6.41886">
        <ele>252.6</ele>
        <time>2022-03-03T13:22:45Z</time>
      </trkpt>
      <trkpt lat="48.75254" lon="6.41889">
        <ele>253</ele>
        <time>2022-03-03T13:22:48Z</time>
      </trkpt>
      <trkpt lat="48.75227" lon="6.41889">
        <ele>254.6</ele>
        <time>2022-03-03T13:22:52Z</time>
      </trkpt>
      <trkpt lat="48.75206" lon="6.41888">
        <ele>256</ele>
        <time>2022-03-03T13:22:56Z</time>
      </trkpt>
      <trkpt lat="48.75183" lon="6.41887">
        <ele>257.4</ele>
        <time>2022-03-03T13:23:01Z</time>
      </trkpt>
      <trkpt lat="48.75161" lon="6.41887">
        <ele>259.2</ele>
        <time>2022-03-03T13:23:06Z</time>
      </trkpt>
      <trkpt lat="48.75139" lon="6.41889">
        <ele>260.6</ele>
        <time>2022-03-03T13:23:11Z</time>
      </trkpt>
      <trkpt lat="48.75119" lon="6.41895">
        <ele>262.2</ele>
        <time>2022-03-03T13:23:16Z</time>
      </trkpt>
      <trkpt lat="48.75099" lon="6.41902">
        <ele>263</ele>
        <time>2022-03-03T13:23:21Z</time>
      </trkpt>
      <trkpt lat="48.7508" lon="6.41912">
        <ele>263.6</ele>
        <time>2022-03-03T13:23:26Z</time>
      </trkpt>
      <trkpt lat="48.75067" lon="6.41918">
        <ele>264</ele>
        <time>2022-03-03T13:23:29Z</time>
      </trkpt>
      <trkpt lat="48.75058" lon="6.41922">
        <ele>264</ele>
        <time>2022-03-03T13:23:31Z</time>
      </trkpt>
      <trkpt lat="48.75053" lon="6.41924">
        <ele>264</ele>
        <time>2022-03-03T13:23:32Z</time>
      </trkpt>
      <trkpt lat="48.75049" lon="6.41927">
        <ele>264</ele>
        <time>2022-03-03T13:23:33Z</time>
      </trkpt>
      <trkpt lat="48.75024" lon="6.41938">
        <ele>263.6</ele>
        <time>2022-03-03T13:23:38Z</time>
      </trkpt>
      <trkpt lat="48.75001" lon="6.41946">
        <ele>263</ele>
        <time>2022-03-03T13:23:42Z</time>
      </trkpt>
      <trkpt lat="48.74978" lon="6.41953">
        <ele>262.6</ele>
        <time>2022-03-03T13:23:46Z</time>
      </trkpt>
      <trkpt lat="48.74953" lon="6.4196">
        <ele>262.2</ele>
        <time>2022-03-03T13:23:50Z</time>
      </trkpt>
      <trkpt lat="48.74929" lon="6.41966">
        <ele>262.2</ele>
        <time>2022-03-03T13:23:54Z</time>
      </trkpt>
      <trkpt lat="48.74906" lon="6.41973">
        <ele>262</ele>
        <time>2022-03-03T13:23:58Z</time>
      </trkpt>
      <trkpt lat="48.749" lon="6.41975">
        <ele>261.8</ele>
        <time>2022-03-03T13:23:59Z</time>
      </trkpt>
      <trkpt lat="48.74877" lon="6.41983">
        <ele>261.6</ele>
        <time>2022-03-03T13:24:03Z</time>
      </trkpt>
      <trkpt lat="48.74871" lon="6.41984">
        <ele>261.4</ele>
        <time>2022-03-03T13:24:04Z</time>
      </trkpt>
      <trkpt lat="48.74859" lon="6.41983">
        <ele>261.2</ele>
        <time>2022-03-03T13:24:06Z</time>
      </trkpt>
      <trkpt lat="48.74852" lon="6.4198">
        <ele>261</ele>
        <time>2022-03-03T13:24:07Z</time>
      </trkpt>
      <trkpt lat="48.74847" lon="6.41975">
        <ele>260.8</ele>
        <time>2022-03-03T13:24:08Z</time>
      </trkpt>
      <trkpt lat="48.74842" lon="6.41968">
        <ele>260.6</ele>
        <time>2022-03-03T13:24:09Z</time>
      </trkpt>
      <trkpt lat="48.74841" lon="6.41957">
        <ele>260.6</ele>
        <time>2022-03-03T13:24:10Z</time>
      </trkpt>
      <trkpt lat="48.74839" lon="6.41947">
        <ele>260.4</ele>
        <time>2022-03-03T13:24:11Z</time>
      </trkpt>
      <trkpt lat="48.74838" lon="6.41937">
        <ele>260.2</ele>
        <time>2022-03-03T13:24:12Z</time>
      </trkpt>
      <trkpt lat="48.7483" lon="6.41894">
        <ele>259.4</ele>
        <time>2022-03-03T13:24:16Z</time>
      </trkpt>
      <trkpt lat="48.74824" lon="6.41861">
        <ele>258.6</ele>
        <time>2022-03-03T13:24:19Z</time>
      </trkpt>
      <trkpt lat="48.74818" lon="6.41824">
        <ele>258.2</ele>
        <time>2022-03-03T13:24:22Z</time>
      </trkpt>
      <trkpt lat="48.74811" lon="6.41788">
        <ele>257.4</ele>
        <time>2022-03-03T13:24:25Z</time>
      </trkpt>
      <trkpt lat="48.74805" lon="6.4175">
        <ele>256.2</ele>
        <time>2022-03-03T13:24:28Z</time>
      </trkpt>
      <trkpt lat="48.74798" lon="6.41714">
        <ele>255</ele>
        <time>2022-03-03T13:24:31Z</time>
      </trkpt>
      <trkpt lat="48.7479" lon="6.41677">
        <ele>254.2</ele>
        <time>2022-03-03T13:24:34Z</time>
      </trkpt>
      <trkpt lat="48.74782" lon="6.41641">
        <ele>253.6</ele>
        <time>2022-03-03T13:24:37Z</time>
      </trkpt>
      <trkpt lat="48.74775" lon="6.41606">
        <ele>252.8</ele>
        <time>2022-03-03T13:24:40Z</time>
      </trkpt>
      <trkpt lat="48.74769" lon="6.41572">
        <ele>252.4</ele>
        <time>2022-03-03T13:24:43Z</time>
      </trkpt>
      <trkpt lat="48.74762" lon="6.4154">
        <ele>251.8</ele>
        <time>2022-03-03T13:24:46Z</time>
      </trkpt>
      <trkpt lat="48.74755" lon="6.41509">
        <ele>251.2</ele>
        <time>2022-03-03T13:24:49Z</time>
      </trkpt>
      <trkpt lat="48.74748" lon="6.41467">
        <ele>250.4</ele>
        <time>2022-03-03T13:24:53Z</time>
      </trkpt>
      <trkpt lat="48.74743" lon="6.41433">
        <ele>249.8</ele>
        <time>2022-03-03T13:24:56Z</time>
      </trkpt>
      <trkpt lat="48.74735" lon="6.41398">
        <ele>249.2</ele>
        <time>2022-03-03T13:24:59Z</time>
      </trkpt>
      <trkpt lat="48.74725" lon="6.41365">
        <ele>247.8</ele>
        <time>2022-03-03T13:25:02Z</time>
      </trkpt>
      <trkpt lat="48.7472" lon="6.41355">
        <ele>247.2</ele>
        <time>2022-03-03T13:25:03Z</time>
      </trkpt>
      <trkpt lat="48.74704" lon="6.41326">
        <ele>246.2</ele>
        <time>2022-03-03T13:25:06Z</time>
      </trkpt>
      <trkpt lat="48.74685" lon="6.41298">
        <ele>244.8</ele>
        <time>2022-03-03T13:25:09Z</time>
      </trkpt>
      <trkpt lat="48.74666" lon="6.41267">
        <ele>243.6</ele>
        <time>2022-03-03T13:25:12Z</time>
      </trkpt>
      <trkpt lat="48.74645" lon="6.41235">
        <ele>242.2</ele>
        <time>2022-03-03T13:25:15Z</time>
      </trkpt>
      <trkpt lat="48.74625" lon="6.41202">
        <ele>241</ele>
        <time>2022-03-03T13:25:18Z</time>
      </trkpt>
      <trkpt lat="48.74604" lon="6.41171">
        <ele>239.8</ele>
        <time>2022-03-03T13:25:21Z</time>
      </trkpt>
      <trkpt lat="48.74582" lon="6.41146">
        <ele>239.2</ele>
        <time>2022-03-03T13:25:24Z</time>
      </trkpt>
      <trkpt lat="48.7456" lon="6.41123">
        <ele>238.6</ele>
        <time>2022-03-03T13:25:27Z</time>
      </trkpt>
      <trkpt lat="48.7454" lon="6.41102">
        <ele>238.4</ele>
        <time>2022-03-03T13:25:30Z</time>
      </trkpt>
      <trkpt lat="48.7452" lon="6.41081">
        <ele>238.4</ele>
        <time>2022-03-03T13:25:33Z</time>
      </trkpt>
      <trkpt lat="48.74496" lon="6.41064">
        <ele>238.2</ele>
        <time>2022-03-03T13:25:36Z</time>
      </trkpt>
      <trkpt lat="48.74473" lon="6.41048">
        <ele>237.4</ele>
        <time>2022-03-03T13:25:39Z</time>
      </trkpt>
      <trkpt lat="48.74447" lon="6.41038">
        <ele>236.4</ele>
        <time>2022-03-03T13:25:42Z</time>
      </trkpt>
      <trkpt lat="48.74437" lon="6.41037">
        <ele>236</ele>
        <time>2022-03-03T13:25:43Z</time>
      </trkpt>
      <trkpt lat="48.74408" lon="6.41039">
        <ele>235.2</ele>
        <time>2022-03-03T13:25:46Z</time>
      </trkpt>
      <trkpt lat="48.74382" lon="6.41045">
        <ele>235</ele>
        <time>2022-03-03T13:25:49Z</time>
      </trkpt>
      <trkpt lat="48.74358" lon="6.4105">
        <ele>235</ele>
        <time>2022-03-03T13:25:52Z</time>
      </trkpt>
      <trkpt lat="48.74335" lon="6.41054">
        <ele>235</ele>
        <time>2022-03-03T13:25:55Z</time>
      </trkpt>
      <trkpt lat="48.74308" lon="6.41056">
        <ele>235.6</ele>
        <time>2022-03-03T13:25:59Z</time>
      </trkpt>
      <trkpt lat="48.74302" lon="6.41056">
        <ele>235.8</ele>
        <time>2022-03-03T13:26:00Z</time>
      </trkpt>
      <trkpt lat="48.74286" lon="6.41052">
        <ele>236.6</ele>
        <time>2022-03-03T13:26:03Z</time>
      </trkpt>
      <trkpt lat="48.7428" lon="6.41049">
        <ele>237</ele>
        <time>2022-03-03T13:26:04Z</time>
      </trkpt>
      <trkpt lat="48.74276" lon="6.41046">
        <ele>237.4</ele>
        <time>2022-03-03T13:26:05Z</time>
      </trkpt>
      <trkpt lat="48.74271" lon="6.41042">
        <ele>237.8</ele>
        <time>2022-03-03T13:26:06Z</time>
      </trkpt>
      <trkpt lat="48.74267" lon="6.41039">
        <ele>238.2</ele>
        <time>2022-03-03T13:26:07Z</time>
      </trkpt>
      <trkpt lat="48.74249" lon="6.41021">
        <ele>240</ele>
        <time>2022-03-03T13:26:12Z</time>
      </trkpt>
      <trkpt lat="48.74229" lon="6.41">
        <ele>241.8</ele>
        <time>2022-03-03T13:26:18Z</time>
      </trkpt>
      <trkpt lat="48.74211" lon="6.40984">
        <ele>243.2</ele>
        <time>2022-03-03T13:26:23Z</time>
      </trkpt>
      <trkpt lat="48.74194" lon="6.40965">
        <ele>244.6</ele>
        <time>2022-03-03T13:26:28Z</time>
      </trkpt>
      <trkpt lat="48.74176" lon="6.40948">
        <ele>245.8</ele>
        <time>2022-03-03T13:26:33Z</time>
      </trkpt>
      <trkpt lat="48.74159" lon="6.40931">
        <ele>247.2</ele>
        <time>2022-03-03T13:26:38Z</time>
      </trkpt>
      <trkpt lat="48.7414" lon="6.40912">
        <ele>248.8</ele>
        <time>2022-03-03T13:26:44Z</time>
      </trkpt>
      <trkpt lat="48.7412" lon="6.40892">
        <ele>250.4</ele>
        <time>2022-03-03T13:26:50Z</time>
      </trkpt>
      <trkpt lat="48.74099" lon="6.40872">
        <ele>252</ele>
        <time>2022-03-03T13:26:56Z</time>
      </trkpt>
      <trkpt lat="48.7408" lon="6.4085">
        <ele>253.8</ele>
        <time>2022-03-03T13:27:02Z</time>
      </trkpt>
      <trkpt lat="48.74077" lon="6.40846">
        <ele>254</ele>
        <time>2022-03-03T13:27:03Z</time>
      </trkpt>
      <trkpt lat="48.74065" lon="6.40822">
        <ele>255.4</ele>
        <time>2022-03-03T13:27:08Z</time>
      </trkpt>
      <trkpt lat="48.74057" lon="6.40788">
        <ele>257.2</ele>
        <time>2022-03-03T13:27:14Z</time>
      </trkpt>
      <trkpt lat="48.74048" lon="6.40753">
        <ele>258.6</ele>
        <time>2022-03-03T13:27:20Z</time>
      </trkpt>
      <trkpt lat="48.74037" lon="6.40701">
        <ele>259.4</ele>
        <time>2022-03-03T13:27:29Z</time>
      </trkpt>
      <trkpt lat="48.7403" lon="6.4067">
        <ele>260.4</ele>
        <time>2022-03-03T13:27:34Z</time>
      </trkpt>
      <trkpt lat="48.7402" lon="6.40635">
        <ele>260.6</ele>
        <time>2022-03-03T13:27:39Z</time>
      </trkpt>
      <trkpt lat="48.74011" lon="6.40601">
        <ele>261.2</ele>
        <time>2022-03-03T13:27:44Z</time>
      </trkpt>
      <trkpt lat="48.74" lon="6.40567">
        <ele>262.2</ele>
        <time>2022-03-03T13:27:49Z</time>
      </trkpt>
      <trkpt lat="48.7399" lon="6.40538">
        <ele>263.6</ele>
        <time>2022-03-03T13:27:54Z</time>
      </trkpt>
      <trkpt lat="48.73978" lon="6.40511">
        <ele>265</ele>
        <time>2022-03-03T13:27:59Z</time>
      </trkpt>
      <trkpt lat="48.73964" lon="6.40486">
        <ele>266</ele>
        <time>2022-03-03T13:28:04Z</time>
      </trkpt>
      <trkpt lat="48.7395" lon="6.40462">
        <ele>266.8</ele>
        <time>2022-03-03T13:28:09Z</time>
      </trkpt>
      <trkpt lat="48.73934" lon="6.40437">
        <ele>267.8</ele>
        <time>2022-03-03T13:28:14Z</time>
      </trkpt>
      <trkpt lat="48.73918" lon="6.4041">
        <ele>268.4</ele>
        <time>2022-03-03T13:28:19Z</time>
      </trkpt>
      <trkpt lat="48.73904" lon="6.40388">
        <ele>268.8</ele>
        <time>2022-03-03T13:28:23Z</time>
      </trkpt>
      <trkpt lat="48.7389" lon="6.40364">
        <ele>269.4</ele>
        <time>2022-03-03T13:28:27Z</time>
      </trkpt>
      <trkpt lat="48.73875" lon="6.4034">
        <ele>269.8</ele>
        <time>2022-03-03T13:28:31Z</time>
      </trkpt>
      <trkpt lat="48.7386" lon="6.40315">
        <ele>270.6</ele>
        <time>2022-03-03T13:28:35Z</time>
      </trkpt>
      <trkpt lat="48.73844" lon="6.40291">
        <ele>271</ele>
        <time>2022-03-03T13:28:39Z</time>
      </trkpt>
      <trkpt lat="48.73828" lon="6.40267">
        <ele>271.4</ele>
        <time>2022-03-03T13:28:43Z</time>
      </trkpt>
      <trkpt lat="48.7381" lon="6.40248">
        <ele>271.8</ele>
        <time>2022-03-03T13:28:47Z</time>
      </trkpt>
      <trkpt lat="48.7379" lon="6.40233">
        <ele>272.4</ele>
        <time>2022-03-03T13:28:51Z</time>
      </trkpt>
      <trkpt lat="48.73768" lon="6.40221">
        <ele>273.2</ele>
        <time>2022-03-03T13:28:55Z</time>
      </trkpt>
      <trkpt lat="48.73748" lon="6.40207">
        <ele>274.2</ele>
        <time>2022-03-03T13:28:59Z</time>
      </trkpt>
      <trkpt lat="48.73729" lon="6.40191">
        <ele>274.4</ele>
        <time>2022-03-03T13:29:03Z</time>
      </trkpt>
      <trkpt lat="48.7371" lon="6.40173">
        <ele>274.8</ele>
        <time>2022-03-03T13:29:07Z</time>
      </trkpt>
      <trkpt lat="48.73691" lon="6.40154">
        <ele>275.2</ele>
        <time>2022-03-03T13:29:11Z</time>
      </trkpt>
      <trkpt lat="48.73672" lon="6.40135">
        <ele>275.8</ele>
        <time>2022-03-03T13:29:15Z</time>
      </trkpt>
      <trkpt lat="48.73652" lon="6.40116">
        <ele>276</ele>
        <time>2022-03-03T13:29:19Z</time>
      </trkpt>
      <trkpt lat="48.73632" lon="6.40098">
        <ele>276.2</ele>
        <time>2022-03-03T13:29:23Z</time>
      </trkpt>
      <trkpt lat="48.73612" lon="6.40079">
        <ele>276.6</ele>
        <time>2022-03-03T13:29:27Z</time>
      </trkpt>
      <trkpt lat="48.73591" lon="6.40059">
        <ele>277</ele>
        <time>2022-03-03T13:29:31Z</time>
      </trkpt>
      <trkpt lat="48.7357" lon="6.40041">
        <ele>277.6</ele>
        <time>2022-03-03T13:29:35Z</time>
      </trkpt>
      <trkpt lat="48.73549" lon="6.40025">
        <ele>278</ele>
        <time>2022-03-03T13:29:39Z</time>
      </trkpt>
      <trkpt lat="48.73529" lon="6.4001">
        <ele>278.6</ele>
        <time>2022-03-03T13:29:43Z</time>
      </trkpt>
      <trkpt lat="48.7352" lon="6.40004">
        <ele>278.8</ele>
        <time>2022-03-03T13:29:45Z</time>
      </trkpt>
      <trkpt lat="48.73512" lon="6.4">
        <ele>279</ele>
        <time>2022-03-03T13:29:47Z</time>
      </trkpt>
      <trkpt lat="48.73492" lon="6.39985">
        <ele>279.2</ele>
        <time>2022-03-03T13:29:53Z</time>
      </trkpt>
      <trkpt lat="48.73472" lon="6.3997">
        <ele>279.6</ele>
        <time>2022-03-03T13:30:00Z</time>
      </trkpt>
      <trkpt lat="48.73454" lon="6.3995">
        <ele>280.4</ele>
        <time>2022-03-03T13:30:07Z</time>
      </trkpt>
      <trkpt lat="48.73436" lon="6.39928">
        <ele>280.6</ele>
        <time>2022-03-03T13:30:13Z</time>
      </trkpt>
      <trkpt lat="48.73423" lon="6.39913">
        <ele>280.6</ele>
        <time>2022-03-03T13:30:17Z</time>
      </trkpt>
      <trkpt lat="48.73409" lon="6.39898">
        <ele>280.6</ele>
        <time>2022-03-03T13:30:21Z</time>
      </trkpt>
      <trkpt lat="48.73399" lon="6.39885">
        <ele>280.6</ele>
        <time>2022-03-03T13:30:24Z</time>
      </trkpt>
      <trkpt lat="48.73382" lon="6.39866">
        <ele>280.6</ele>
        <time>2022-03-03T13:30:29Z</time>
      </trkpt>
      <trkpt lat="48.73369" lon="6.39848">
        <ele>280.6</ele>
        <time>2022-03-03T13:30:33Z</time>
      </trkpt>
      <trkpt lat="48.73351" lon="6.39823">
        <ele>279.8</ele>
        <time>2022-03-03T13:30:38Z</time>
      </trkpt>
      <trkpt lat="48.73338" lon="6.39796">
        <ele>279.4</ele>
        <time>2022-03-03T13:30:42Z</time>
      </trkpt>
      <trkpt lat="48.73327" lon="6.39767">
        <ele>278.6</ele>
        <time>2022-03-03T13:30:46Z</time>
      </trkpt>
      <trkpt lat="48.73317" lon="6.39737">
        <ele>278</ele>
        <time>2022-03-03T13:30:50Z</time>
      </trkpt>
      <trkpt lat="48.73307" lon="6.39709">
        <ele>278</ele>
        <time>2022-03-03T13:30:54Z</time>
      </trkpt>
      <trkpt lat="48.73298" lon="6.39673">
        <ele>277.6</ele>
        <time>2022-03-03T13:30:59Z</time>
      </trkpt>
      <trkpt lat="48.73289" lon="6.3964">
        <ele>277.4</ele>
        <time>2022-03-03T13:31:04Z</time>
      </trkpt>
      <trkpt lat="48.73283" lon="6.39603">
        <ele>277.4</ele>
        <time>2022-03-03T13:31:09Z</time>
      </trkpt>
      <trkpt lat="48.7328" lon="6.39565">
        <ele>277.2</ele>
        <time>2022-03-03T13:31:14Z</time>
      </trkpt>
      <trkpt lat="48.73278" lon="6.39527">
        <ele>276.8</ele>
        <time>2022-03-03T13:31:19Z</time>
      </trkpt>
      <trkpt lat="48.73277" lon="6.39519">
        <ele>276.8</ele>
        <time>2022-03-03T13:31:20Z</time>
      </trkpt>
      <trkpt lat="48.73277" lon="6.39512">
        <ele>276.8</ele>
        <time>2022-03-03T13:31:21Z</time>
      </trkpt>
      <trkpt lat="48.73274" lon="6.3948">
        <ele>276.4</ele>
        <time>2022-03-03T13:31:25Z</time>
      </trkpt>
      <trkpt lat="48.73272" lon="6.39445">
        <ele>276</ele>
        <time>2022-03-03T13:31:29Z</time>
      </trkpt>
      <trkpt lat="48.73269" lon="6.39408">
        <ele>275.2</ele>
        <time>2022-03-03T13:31:33Z</time>
      </trkpt>
      <trkpt lat="48.73266" lon="6.39371">
        <ele>274.6</ele>
        <time>2022-03-03T13:31:37Z</time>
      </trkpt>
      <trkpt lat="48.73265" lon="6.39333">
        <ele>274</ele>
        <time>2022-03-03T13:31:41Z</time>
      </trkpt>
      <trkpt lat="48.73262" lon="6.39292">
        <ele>273.2</ele>
        <time>2022-03-03T13:31:45Z</time>
      </trkpt>
      <trkpt lat="48.73258" lon="6.39249">
        <ele>272.2</ele>
        <time>2022-03-03T13:31:49Z</time>
      </trkpt>
      <trkpt lat="48.73252" lon="6.39217">
        <ele>271.6</ele>
        <time>2022-03-03T13:31:52Z</time>
      </trkpt>
      <trkpt lat="48.73244" lon="6.39182">
        <ele>271.2</ele>
        <time>2022-03-03T13:31:55Z</time>
      </trkpt>
      <trkpt lat="48.73234" lon="6.39145">
        <ele>270.4</ele>
        <time>2022-03-03T13:31:58Z</time>
      </trkpt>
      <trkpt lat="48.73222" lon="6.39109">
        <ele>269.8</ele>
        <time>2022-03-03T13:32:01Z</time>
      </trkpt>
      <trkpt lat="48.73211" lon="6.39072">
        <ele>269</ele>
        <time>2022-03-03T13:32:04Z</time>
      </trkpt>
      <trkpt lat="48.732" lon="6.39035">
        <ele>268.4</ele>
        <time>2022-03-03T13:32:07Z</time>
      </trkpt>
      <trkpt lat="48.73189" lon="6.38999">
        <ele>267.2</ele>
        <time>2022-03-03T13:32:10Z</time>
      </trkpt>
      <trkpt lat="48.73177" lon="6.38962">
        <ele>266.4</ele>
        <time>2022-03-03T13:32:13Z</time>
      </trkpt>
      <trkpt lat="48.73166" lon="6.38924">
        <ele>265.4</ele>
        <time>2022-03-03T13:32:16Z</time>
      </trkpt>
      <trkpt lat="48.73154" lon="6.38887">
        <ele>264.8</ele>
        <time>2022-03-03T13:32:19Z</time>
      </trkpt>
      <trkpt lat="48.73142" lon="6.3885">
        <ele>263.8</ele>
        <time>2022-03-03T13:32:22Z</time>
      </trkpt>
      <trkpt lat="48.73131" lon="6.38812">
        <ele>263.2</ele>
        <time>2022-03-03T13:32:25Z</time>
      </trkpt>
      <trkpt lat="48.7312" lon="6.38775">
        <ele>262.6</ele>
        <time>2022-03-03T13:32:28Z</time>
      </trkpt>
      <trkpt lat="48.73107" lon="6.3874">
        <ele>262.2</ele>
        <time>2022-03-03T13:32:31Z</time>
      </trkpt>
      <trkpt lat="48.73101" lon="6.38731">
        <ele>262.2</ele>
        <time>2022-03-03T13:32:32Z</time>
      </trkpt>
      <trkpt lat="48.73094" lon="6.38723">
        <ele>262.2</ele>
        <time>2022-03-03T13:32:33Z</time>
      </trkpt>
      <trkpt lat="48.73087" lon="6.38718">
        <ele>262.2</ele>
        <time>2022-03-03T13:32:34Z</time>
      </trkpt>
      <trkpt lat="48.73079" lon="6.38713">
        <ele>262</ele>
        <time>2022-03-03T13:32:35Z</time>
      </trkpt>
      <trkpt lat="48.73071" lon="6.38709">
        <ele>262</ele>
        <time>2022-03-03T13:32:36Z</time>
      </trkpt>
      <trkpt lat="48.73048" lon="6.38699">
        <ele>262</ele>
        <time>2022-03-03T13:32:39Z</time>
      </trkpt>
      <trkpt lat="48.73027" lon="6.38692">
        <ele>261.8</ele>
        <time>2022-03-03T13:32:42Z</time>
      </trkpt>
      <trkpt lat="48.73002" lon="6.38678">
        <ele>261.6</ele>
        <time>2022-03-03T13:32:46Z</time>
      </trkpt>
      <trkpt lat="48.72998" lon="6.38672">
        <ele>261.2</ele>
        <time>2022-03-03T13:32:47Z</time>
      </trkpt>
      <trkpt lat="48.72994" lon="6.38664">
        <ele>261.2</ele>
        <time>2022-03-03T13:32:48Z</time>
      </trkpt>
      <trkpt lat="48.72991" lon="6.38656">
        <ele>261.4</ele>
        <time>2022-03-03T13:32:49Z</time>
      </trkpt>
      <trkpt lat="48.72982" lon="6.38625">
        <ele>261.8</ele>
        <time>2022-03-03T13:32:53Z</time>
      </trkpt>
      <trkpt lat="48.72979" lon="6.38611">
        <ele>262</ele>
        <time>2022-03-03T13:32:55Z</time>
      </trkpt>
      <trkpt lat="48.72977" lon="6.38605">
        <ele>262.4</ele>
        <time>2022-03-03T13:32:56Z</time>
      </trkpt>
      <trkpt lat="48.72973" lon="6.38598">
        <ele>262.4</ele>
        <time>2022-03-03T13:32:57Z</time>
      </trkpt>
      <trkpt lat="48.72969" lon="6.38594">
        <ele>262.8</ele>
        <time>2022-03-03T13:32:58Z</time>
      </trkpt>
      <trkpt lat="48.72965" lon="6.3859">
        <ele>263</ele>
        <time>2022-03-03T13:32:59Z</time>
      </trkpt>
      <trkpt lat="48.72961" lon="6.38587">
        <ele>263.2</ele>
        <time>2022-03-03T13:33:00Z</time>
      </trkpt>
      <trkpt lat="48.72956" lon="6.38584">
        <ele>263.4</ele>
        <time>2022-03-03T13:33:01Z</time>
      </trkpt>
      <trkpt lat="48.72936" lon="6.38573">
        <ele>264</ele>
        <time>2022-03-03T13:33:05Z</time>
      </trkpt>
      <trkpt lat="48.72917" lon="6.38563">
        <ele>264</ele>
        <time>2022-03-03T13:33:09Z</time>
      </trkpt>
      <trkpt lat="48.72894" lon="6.38551">
        <ele>264.4</ele>
        <time>2022-03-03T13:33:13Z</time>
      </trkpt>
      <trkpt lat="48.7287" lon="6.38542">
        <ele>264.2</ele>
        <time>2022-03-03T13:33:17Z</time>
      </trkpt>
      <trkpt lat="48.72845" lon="6.3853">
        <ele>264</ele>
        <time>2022-03-03T13:33:21Z</time>
      </trkpt>
      <trkpt lat="48.7282" lon="6.38515">
        <ele>264</ele>
        <time>2022-03-03T13:33:25Z</time>
      </trkpt>
      <trkpt lat="48.72793" lon="6.38502">
        <ele>264.2</ele>
        <time>2022-03-03T13:33:29Z</time>
      </trkpt>
      <trkpt lat="48.72767" lon="6.38494">
        <ele>264.6</ele>
        <time>2022-03-03T13:33:33Z</time>
      </trkpt>
      <trkpt lat="48.72741" lon="6.38491">
        <ele>265</ele>
        <time>2022-03-03T13:33:37Z</time>
      </trkpt>
      <trkpt lat="48.72722" lon="6.38495">
        <ele>265.4</ele>
        <time>2022-03-03T13:33:40Z</time>
      </trkpt>
      <trkpt lat="48.72717" lon="6.38498">
        <ele>265.6</ele>
        <time>2022-03-03T13:33:41Z</time>
      </trkpt>
      <trkpt lat="48.72711" lon="6.38502">
        <ele>265.8</ele>
        <time>2022-03-03T13:33:42Z</time>
      </trkpt>
      <trkpt lat="48.72705" lon="6.38506">
        <ele>266</ele>
        <time>2022-03-03T13:33:43Z</time>
      </trkpt>
      <trkpt lat="48.727" lon="6.3851">
        <ele>266.2</ele>
        <time>2022-03-03T13:33:44Z</time>
      </trkpt>
      <trkpt lat="48.72695" lon="6.38515">
        <ele>266.4</ele>
        <time>2022-03-03T13:33:45Z</time>
      </trkpt>
      <trkpt lat="48.72675" lon="6.38536">
        <ele>267</ele>
        <time>2022-03-03T13:33:49Z</time>
      </trkpt>
      <trkpt lat="48.72656" lon="6.38557">
        <ele>267.6</ele>
        <time>2022-03-03T13:33:53Z</time>
      </trkpt>
      <trkpt lat="48.72636" lon="6.38575">
        <ele>268.2</ele>
        <time>2022-03-03T13:33:57Z</time>
      </trkpt>
      <trkpt lat="48.72616" lon="6.3859">
        <ele>268.8</ele>
        <time>2022-03-03T13:34:01Z</time>
      </trkpt>
      <trkpt lat="48.72594" lon="6.38603">
        <ele>269.2</ele>
        <time>2022-03-03T13:34:05Z</time>
      </trkpt>
      <trkpt lat="48.72572" lon="6.38613">
        <ele>269.6</ele>
        <time>2022-03-03T13:34:09Z</time>
      </trkpt>
      <trkpt lat="48.72548" lon="6.38622">
        <ele>269.8</ele>
        <time>2022-03-03T13:34:13Z</time>
      </trkpt>
      <trkpt lat="48.72527" lon="6.38629">
        <ele>270.4</ele>
        <time>2022-03-03T13:34:17Z</time>
      </trkpt>
      <trkpt lat="48.72506" lon="6.38636">
        <ele>270.6</ele>
        <time>2022-03-03T13:34:21Z</time>
      </trkpt>
      <trkpt lat="48.72485" lon="6.38642">
        <ele>271</ele>
        <time>2022-03-03T13:34:25Z</time>
      </trkpt>
      <trkpt lat="48.72464" lon="6.38653">
        <ele>271.4</ele>
        <time>2022-03-03T13:34:29Z</time>
      </trkpt>
      <trkpt lat="48.72443" lon="6.38666">
        <ele>271.8</ele>
        <time>2022-03-03T13:34:33Z</time>
      </trkpt>
      <trkpt lat="48.72422" lon="6.3868">
        <ele>273.2</ele>
        <time>2022-03-03T13:34:38Z</time>
      </trkpt>
      <trkpt lat="48.724" lon="6.38694">
        <ele>275</ele>
        <time>2022-03-03T13:34:44Z</time>
      </trkpt>
      <trkpt lat="48.72378" lon="6.38707">
        <ele>276.6</ele>
        <time>2022-03-03T13:34:50Z</time>
      </trkpt>
      <trkpt lat="48.72357" lon="6.38721">
        <ele>278</ele>
        <time>2022-03-03T13:34:56Z</time>
      </trkpt>
      <trkpt lat="48.72336" lon="6.38733">
        <ele>279.4</ele>
        <time>2022-03-03T13:35:02Z</time>
      </trkpt>
      <trkpt lat="48.72315" lon="6.38746">
        <ele>281</ele>
        <time>2022-03-03T13:35:08Z</time>
      </trkpt>
      <trkpt lat="48.72294" lon="6.38758">
        <ele>282.6</ele>
        <time>2022-03-03T13:35:14Z</time>
      </trkpt>
      <trkpt lat="48.72274" lon="6.38768">
        <ele>283.6</ele>
        <time>2022-03-03T13:35:20Z</time>
      </trkpt>
      <trkpt lat="48.72254" lon="6.38778">
        <ele>284.2</ele>
        <time>2022-03-03T13:35:26Z</time>
      </trkpt>
      <trkpt lat="48.7225" lon="6.38782">
        <ele>284.4</ele>
        <time>2022-03-03T13:35:28Z</time>
      </trkpt>
      <trkpt lat="48.72247" lon="6.38782">
        <ele>284.4</ele>
        <time>2022-03-03T13:35:29Z</time>
      </trkpt>
      <trkpt lat="48.72244" lon="6.38782">
        <ele>284.4</ele>
        <time>2022-03-03T13:35:30Z</time>
      </trkpt>
      <trkpt lat="48.72241" lon="6.38783">
        <ele>284.4</ele>
        <time>2022-03-03T13:35:31Z</time>
      </trkpt>
      <trkpt lat="48.72238" lon="6.38784">
        <ele>284.4</ele>
        <time>2022-03-03T13:35:32Z</time>
      </trkpt>
      <trkpt lat="48.72234" lon="6.38786">
        <ele>284.6</ele>
        <time>2022-03-03T13:35:33Z</time>
      </trkpt>
      <trkpt lat="48.72211" lon="6.38795">
        <ele>284.8</ele>
        <time>2022-03-03T13:35:39Z</time>
      </trkpt>
      <trkpt lat="48.72199" lon="6.38801">
        <ele>285</ele>
        <time>2022-03-03T13:35:42Z</time>
      </trkpt>
      <trkpt lat="48.72195" lon="6.38802">
        <ele>284.8</ele>
        <time>2022-03-03T13:35:43Z</time>
      </trkpt>
      <trkpt lat="48.72171" lon="6.38807">
        <ele>284.8</ele>
        <time>2022-03-03T13:35:48Z</time>
      </trkpt>
      <trkpt lat="48.72149" lon="6.38805">
        <ele>284.8</ele>
        <time>2022-03-03T13:35:52Z</time>
      </trkpt>
      <trkpt lat="48.72123" lon="6.38794">
        <ele>284.4</ele>
        <time>2022-03-03T13:35:56Z</time>
      </trkpt>
      <trkpt lat="48.72097" lon="6.38777">
        <ele>283.6</ele>
        <time>2022-03-03T13:36:00Z</time>
      </trkpt>
      <trkpt lat="48.72078" lon="6.38761">
        <ele>283</ele>
        <time>2022-03-03T13:36:03Z</time>
      </trkpt>
      <trkpt lat="48.72057" lon="6.38744">
        <ele>282</ele>
        <time>2022-03-03T13:36:06Z</time>
      </trkpt>
      <trkpt lat="48.72036" lon="6.3873">
        <ele>281</ele>
        <time>2022-03-03T13:36:09Z</time>
      </trkpt>
      <trkpt lat="48.72014" lon="6.38717">
        <ele>280.6</ele>
        <time>2022-03-03T13:36:12Z</time>
      </trkpt>
      <trkpt lat="48.71991" lon="6.38706">
        <ele>280.2</ele>
        <time>2022-03-03T13:36:15Z</time>
      </trkpt>
      <trkpt lat="48.71966" lon="6.38698">
        <ele>279.6</ele>
        <time>2022-03-03T13:36:18Z</time>
      </trkpt>
      <trkpt lat="48.7194" lon="6.38691">
        <ele>279</ele>
        <time>2022-03-03T13:36:21Z</time>
      </trkpt>
      <trkpt lat="48.71913" lon="6.38684">
        <ele>278.6</ele>
        <time>2022-03-03T13:36:24Z</time>
      </trkpt>
      <trkpt lat="48.71885" lon="6.38678">
        <ele>278.2</ele>
        <time>2022-03-03T13:36:27Z</time>
      </trkpt>
      <trkpt lat="48.71857" lon="6.3867">
        <ele>277.6</ele>
        <time>2022-03-03T13:36:30Z</time>
      </trkpt>
      <trkpt lat="48.7183" lon="6.38663">
        <ele>277</ele>
        <time>2022-03-03T13:36:33Z</time>
      </trkpt>
      <trkpt lat="48.71802" lon="6.38656">
        <ele>276.4</ele>
        <time>2022-03-03T13:36:36Z</time>
      </trkpt>
      <trkpt lat="48.71773" lon="6.38648">
        <ele>275.4</ele>
        <time>2022-03-03T13:36:39Z</time>
      </trkpt>
      <trkpt lat="48.71744" lon="6.3864">
        <ele>274.6</ele>
        <time>2022-03-03T13:36:42Z</time>
      </trkpt>
      <trkpt lat="48.71715" lon="6.38633">
        <ele>274</ele>
        <time>2022-03-03T13:36:45Z</time>
      </trkpt>
      <trkpt lat="48.71687" lon="6.38625">
        <ele>273.2</ele>
        <time>2022-03-03T13:36:48Z</time>
      </trkpt>
      <trkpt lat="48.71658" lon="6.38618">
        <ele>272.6</ele>
        <time>2022-03-03T13:36:51Z</time>
      </trkpt>
      <trkpt lat="48.71628" lon="6.3861">
        <ele>271.6</ele>
        <time>2022-03-03T13:36:54Z</time>
      </trkpt>
      <trkpt lat="48.71598" lon="6.38602">
        <ele>270</ele>
        <time>2022-03-03T13:36:57Z</time>
      </trkpt>
      <trkpt lat="48.71567" lon="6.38594">
        <ele>268.6</ele>
        <time>2022-03-03T13:37:00Z</time>
      </trkpt>
      <trkpt lat="48.71534" lon="6.38585">
        <ele>267</ele>
        <time>2022-03-03T13:37:03Z</time>
      </trkpt>
      <trkpt lat="48.71499" lon="6.38576">
        <ele>264.4</ele>
        <time>2022-03-03T13:37:06Z</time>
      </trkpt>
      <trkpt lat="48.71475" lon="6.3857">
        <ele>263.4</ele>
        <time>2022-03-03T13:37:08Z</time>
      </trkpt>
      <trkpt lat="48.71449" lon="6.38563">
        <ele>261.4</ele>
        <time>2022-03-03T13:37:10Z</time>
      </trkpt>
      <trkpt lat="48.71422" lon="6.38557">
        <ele>258.8</ele>
        <time>2022-03-03T13:37:12Z</time>
      </trkpt>
      <trkpt lat="48.71395" lon="6.38555">
        <ele>256.6</ele>
        <time>2022-03-03T13:37:14Z</time>
      </trkpt>
      <trkpt lat="48.71366" lon="6.38554">
        <ele>254.4</ele>
        <time>2022-03-03T13:37:16Z</time>
      </trkpt>
      <trkpt lat="48.71338" lon="6.38554">
        <ele>252.2</ele>
        <time>2022-03-03T13:37:18Z</time>
      </trkpt>
      <trkpt lat="48.71311" lon="6.38556">
        <ele>251.4</ele>
        <time>2022-03-03T13:37:20Z</time>
      </trkpt>
      <trkpt lat="48.71284" lon="6.3856">
        <ele>250.6</ele>
        <time>2022-03-03T13:37:22Z</time>
      </trkpt>
      <trkpt lat="48.71259" lon="6.38569">
        <ele>249.8</ele>
        <time>2022-03-03T13:37:24Z</time>
      </trkpt>
      <trkpt lat="48.71236" lon="6.38582">
        <ele>248.8</ele>
        <time>2022-03-03T13:37:26Z</time>
      </trkpt>
      <trkpt lat="48.71214" lon="6.38596">
        <ele>248.2</ele>
        <time>2022-03-03T13:37:28Z</time>
      </trkpt>
      <trkpt lat="48.71184" lon="6.38618">
        <ele>248.2</ele>
        <time>2022-03-03T13:37:31Z</time>
      </trkpt>
      <trkpt lat="48.71157" lon="6.38637">
        <ele>249</ele>
        <time>2022-03-03T13:37:34Z</time>
      </trkpt>
      <trkpt lat="48.71133" lon="6.38656">
        <ele>249.2</ele>
        <time>2022-03-03T13:37:37Z</time>
      </trkpt>
      <trkpt lat="48.71109" lon="6.38674">
        <ele>249.2</ele>
        <time>2022-03-03T13:37:40Z</time>
      </trkpt>
      <trkpt lat="48.71086" lon="6.38692">
        <ele>248.6</ele>
        <time>2022-03-03T13:37:43Z</time>
      </trkpt>
      <trkpt lat="48.71061" lon="6.3871">
        <ele>248</ele>
        <time>2022-03-03T13:37:46Z</time>
      </trkpt>
      <trkpt lat="48.71035" lon="6.3873">
        <ele>247</ele>
        <time>2022-03-03T13:37:49Z</time>
      </trkpt>
      <trkpt lat="48.71009" lon="6.3875">
        <ele>246.4</ele>
        <time>2022-03-03T13:37:52Z</time>
      </trkpt>
      <trkpt lat="48.70985" lon="6.38769">
        <ele>246</ele>
        <time>2022-03-03T13:37:55Z</time>
      </trkpt>
      <trkpt lat="48.70961" lon="6.38787">
        <ele>246.4</ele>
        <time>2022-03-03T13:37:58Z</time>
      </trkpt>
      <trkpt lat="48.70939" lon="6.38805">
        <ele>246.8</ele>
        <time>2022-03-03T13:38:01Z</time>
      </trkpt>
      <trkpt lat="48.70919" lon="6.38819">
        <ele>247.4</ele>
        <time>2022-03-03T13:38:04Z</time>
      </trkpt>
      <trkpt lat="48.70898" lon="6.38834">
        <ele>248.2</ele>
        <time>2022-03-03T13:38:07Z</time>
      </trkpt>
      <trkpt lat="48.70877" lon="6.38849">
        <ele>247.8</ele>
        <time>2022-03-03T13:38:10Z</time>
      </trkpt>
      <trkpt lat="48.70856" lon="6.38865">
        <ele>247.6</ele>
        <time>2022-03-03T13:38:13Z</time>
      </trkpt>
      <trkpt lat="48.70836" lon="6.3888">
        <ele>247.6</ele>
        <time>2022-03-03T13:38:16Z</time>
      </trkpt>
      <trkpt lat="48.70816" lon="6.38895">
        <ele>248</ele>
        <time>2022-03-03T13:38:19Z</time>
      </trkpt>
      <trkpt lat="48.70792" lon="6.38914">
        <ele>248.2</ele>
        <time>2022-03-03T13:38:23Z</time>
      </trkpt>
      <trkpt lat="48.70771" lon="6.38929">
        <ele>248.8</ele>
        <time>2022-03-03T13:38:27Z</time>
      </trkpt>
      <trkpt lat="48.70753" lon="6.38941">
        <ele>249.6</ele>
        <time>2022-03-03T13:38:31Z</time>
      </trkpt>
      <trkpt lat="48.70748" lon="6.38943">
        <ele>249.6</ele>
        <time>2022-03-03T13:38:32Z</time>
      </trkpt>
      <trkpt lat="48.70743" lon="6.38943">
        <ele>249.6</ele>
        <time>2022-03-03T13:38:33Z</time>
      </trkpt>
      <trkpt lat="48.70738" lon="6.38943">
        <ele>249.8</ele>
        <time>2022-03-03T13:38:34Z</time>
      </trkpt>
      <trkpt lat="48.70732" lon="6.38942">
        <ele>249.8</ele>
        <time>2022-03-03T13:38:35Z</time>
      </trkpt>
      <trkpt lat="48.70726" lon="6.38939">
        <ele>249.6</ele>
        <time>2022-03-03T13:38:36Z</time>
      </trkpt>
      <trkpt lat="48.7072" lon="6.38936">
        <ele>249.6</ele>
        <time>2022-03-03T13:38:37Z</time>
      </trkpt>
      <trkpt lat="48.70715" lon="6.38932">
        <ele>249.6</ele>
        <time>2022-03-03T13:38:38Z</time>
      </trkpt>
      <trkpt lat="48.70709" lon="6.38928">
        <ele>249.2</ele>
        <time>2022-03-03T13:38:39Z</time>
      </trkpt>
      <trkpt lat="48.70686" lon="6.3891">
        <ele>248.4</ele>
        <time>2022-03-03T13:38:43Z</time>
      </trkpt>
      <trkpt lat="48.70672" lon="6.38902">
        <ele>247.8</ele>
        <time>2022-03-03T13:38:45Z</time>
      </trkpt>
      <trkpt lat="48.70665" lon="6.389">
        <ele>247.4</ele>
        <time>2022-03-03T13:38:46Z</time>
      </trkpt>
      <trkpt lat="48.70657" lon="6.389">
        <ele>247.2</ele>
        <time>2022-03-03T13:38:47Z</time>
      </trkpt>
      <trkpt lat="48.7065" lon="6.38902">
        <ele>246.8</ele>
        <time>2022-03-03T13:38:48Z</time>
      </trkpt>
      <trkpt lat="48.70642" lon="6.38904">
        <ele>246.6</ele>
        <time>2022-03-03T13:38:49Z</time>
      </trkpt>
      <trkpt lat="48.70635" lon="6.38907">
        <ele>246.4</ele>
        <time>2022-03-03T13:38:50Z</time>
      </trkpt>
      <trkpt lat="48.70614" lon="6.38915">
        <ele>245.2</ele>
        <time>2022-03-03T13:38:53Z</time>
      </trkpt>
      <trkpt lat="48.70593" lon="6.38923">
        <ele>244.8</ele>
        <time>2022-03-03T13:38:56Z</time>
      </trkpt>
      <trkpt lat="48.70568" lon="6.38938">
        <ele>244.4</ele>
        <time>2022-03-03T13:39:00Z</time>
      </trkpt>
      <trkpt lat="48.70546" lon="6.3896">
        <ele>243.8</ele>
        <time>2022-03-03T13:39:04Z</time>
      </trkpt>
      <trkpt lat="48.70524" lon="6.38981">
        <ele>243.6</ele>
        <time>2022-03-03T13:39:08Z</time>
      </trkpt>
      <trkpt lat="48.70508" lon="6.38997">
        <ele>242.6</ele>
        <time>2022-03-03T13:39:11Z</time>
      </trkpt>
      <trkpt lat="48.70501" lon="6.39001">
        <ele>242.4</ele>
        <time>2022-03-03T13:39:12Z</time>
      </trkpt>
      <trkpt lat="48.70494" lon="6.39002">
        <ele>241.8</ele>
        <time>2022-03-03T13:39:13Z</time>
      </trkpt>
      <trkpt lat="48.70488" lon="6.38999">
        <ele>241.4</ele>
        <time>2022-03-03T13:39:14Z</time>
      </trkpt>
      <trkpt lat="48.70482" lon="6.38995">
        <ele>241</ele>
        <time>2022-03-03T13:39:15Z</time>
      </trkpt>
      <trkpt lat="48.70476" lon="6.38989">
        <ele>240.8</ele>
        <time>2022-03-03T13:39:16Z</time>
      </trkpt>
      <trkpt lat="48.7047" lon="6.38983">
        <ele>240.4</ele>
        <time>2022-03-03T13:39:17Z</time>
      </trkpt>
      <trkpt lat="48.70464" lon="6.38976">
        <ele>240.2</ele>
        <time>2022-03-03T13:39:18Z</time>
      </trkpt>
      <trkpt lat="48.70446" lon="6.38949">
        <ele>238.2</ele>
        <time>2022-03-03T13:39:22Z</time>
      </trkpt>
      <trkpt lat="48.70429" lon="6.38923">
        <ele>237.4</ele>
        <time>2022-03-03T13:39:26Z</time>
      </trkpt>
      <trkpt lat="48.70424" lon="6.38918">
        <ele>237.2</ele>
        <time>2022-03-03T13:39:27Z</time>
      </trkpt>
      <trkpt lat="48.70419" lon="6.38915">
        <ele>237.2</ele>
        <time>2022-03-03T13:39:28Z</time>
      </trkpt>
      <trkpt lat="48.70413" lon="6.38915">
        <ele>237.2</ele>
        <time>2022-03-03T13:39:29Z</time>
      </trkpt>
      <trkpt lat="48.70408" lon="6.38918">
        <ele>237</ele>
        <time>2022-03-03T13:39:30Z</time>
      </trkpt>
      <trkpt lat="48.70402" lon="6.38922">
        <ele>236.8</ele>
        <time>2022-03-03T13:39:31Z</time>
      </trkpt>
      <trkpt lat="48.70381" lon="6.38935">
        <ele>236.8</ele>
        <time>2022-03-03T13:39:35Z</time>
      </trkpt>
      <trkpt lat="48.70361" lon="6.38947">
        <ele>237.4</ele>
        <time>2022-03-03T13:39:39Z</time>
      </trkpt>
      <trkpt lat="48.7034" lon="6.38955">
        <ele>238.2</ele>
        <time>2022-03-03T13:39:43Z</time>
      </trkpt>
      <trkpt lat="48.7033" lon="6.38958">
        <ele>238.4</ele>
        <time>2022-03-03T13:39:45Z</time>
      </trkpt>
      <trkpt lat="48.70306" lon="6.38961">
        <ele>238.6</ele>
        <time>2022-03-03T13:39:49Z</time>
      </trkpt>
      <trkpt lat="48.70281" lon="6.38966">
        <ele>238.8</ele>
        <time>2022-03-03T13:39:53Z</time>
      </trkpt>
      <trkpt lat="48.70253" lon="6.38971">
        <ele>238.6</ele>
        <time>2022-03-03T13:39:57Z</time>
      </trkpt>
      <trkpt lat="48.70232" lon="6.38975">
        <ele>238.4</ele>
        <time>2022-03-03T13:40:00Z</time>
      </trkpt>
      <trkpt lat="48.7021" lon="6.38979">
        <ele>237.8</ele>
        <time>2022-03-03T13:40:03Z</time>
      </trkpt>
      <trkpt lat="48.70186" lon="6.38983">
        <ele>237.2</ele>
        <time>2022-03-03T13:40:06Z</time>
      </trkpt>
      <trkpt lat="48.70162" lon="6.38989">
        <ele>236.8</ele>
        <time>2022-03-03T13:40:09Z</time>
      </trkpt>
      <trkpt lat="48.70137" lon="6.38994">
        <ele>236.6</ele>
        <time>2022-03-03T13:40:12Z</time>
      </trkpt>
      <trkpt lat="48.70113" lon="6.38997">
        <ele>236.4</ele>
        <time>2022-03-03T13:40:15Z</time>
      </trkpt>
      <trkpt lat="48.7009" lon="6.39001">
        <ele>236</ele>
        <time>2022-03-03T13:40:18Z</time>
      </trkpt>
      <trkpt lat="48.70068" lon="6.39004">
        <ele>235.8</ele>
        <time>2022-03-03T13:40:21Z</time>
      </trkpt>
      <trkpt lat="48.70039" lon="6.39009">
        <ele>235.8</ele>
        <time>2022-03-03T13:40:25Z</time>
      </trkpt>
      <trkpt lat="48.70011" lon="6.39015">
        <ele>236.2</ele>
        <time>2022-03-03T13:40:29Z</time>
      </trkpt>
      <trkpt lat="48.69983" lon="6.39021">
        <ele>236.4</ele>
        <time>2022-03-03T13:40:33Z</time>
      </trkpt>
      <trkpt lat="48.69955" lon="6.39025">
        <ele>236.8</ele>
        <time>2022-03-03T13:40:37Z</time>
      </trkpt>
      <trkpt lat="48.69928" lon="6.39031">
        <ele>237.2</ele>
        <time>2022-03-03T13:40:41Z</time>
      </trkpt>
      <trkpt lat="48.69905" lon="6.39034">
        <ele>238.2</ele>
        <time>2022-03-03T13:40:45Z</time>
      </trkpt>
      <trkpt lat="48.6988" lon="6.39039">
        <ele>239.6</ele>
        <time>2022-03-03T13:40:50Z</time>
      </trkpt>
      <trkpt lat="48.69859" lon="6.39043">
        <ele>241</ele>
        <time>2022-03-03T13:40:55Z</time>
      </trkpt>
      <trkpt lat="48.69839" lon="6.39047">
        <ele>242.6</ele>
        <time>2022-03-03T13:41:00Z</time>
      </trkpt>
      <trkpt lat="48.69818" lon="6.3905">
        <ele>244.4</ele>
        <time>2022-03-03T13:41:05Z</time>
      </trkpt>
      <trkpt lat="48.69796" lon="6.39053">
        <ele>246.8</ele>
        <time>2022-03-03T13:41:11Z</time>
      </trkpt>
      <trkpt lat="48.69774" lon="6.39056">
        <ele>248.8</ele>
        <time>2022-03-03T13:41:17Z</time>
      </trkpt>
      <trkpt lat="48.69752" lon="6.39059">
        <ele>250.8</ele>
        <time>2022-03-03T13:41:23Z</time>
      </trkpt>
      <trkpt lat="48.6973" lon="6.39067">
        <ele>251.8</ele>
        <time>2022-03-03T13:41:30Z</time>
      </trkpt>
      <trkpt lat="48.69708" lon="6.39076">
        <ele>252.2</ele>
        <time>2022-03-03T13:41:37Z</time>
      </trkpt>
      <trkpt lat="48.69688" lon="6.39086">
        <ele>252.2</ele>
        <time>2022-03-03T13:41:43Z</time>
      </trkpt>
      <trkpt lat="48.69669" lon="6.39098">
        <ele>251.6</ele>
        <time>2022-03-03T13:41:49Z</time>
      </trkpt>
      <trkpt lat="48.69648" lon="6.39118">
        <ele>250.6</ele>
        <time>2022-03-03T13:41:54Z</time>
      </trkpt>
      <trkpt lat="48.6962" lon="6.39144">
        <ele>249.4</ele>
        <time>2022-03-03T13:41:58Z</time>
      </trkpt>
      <trkpt lat="48.69597" lon="6.39164">
        <ele>248.4</ele>
        <time>2022-03-03T13:42:01Z</time>
      </trkpt>
      <trkpt lat="48.69572" lon="6.39186">
        <ele>246</ele>
        <time>2022-03-03T13:42:04Z</time>
      </trkpt>
      <trkpt lat="48.69546" lon="6.39208">
        <ele>244.8</ele>
        <time>2022-03-03T13:42:07Z</time>
      </trkpt>
      <trkpt lat="48.6952" lon="6.39232">
        <ele>243</ele>
        <time>2022-03-03T13:42:10Z</time>
      </trkpt>
      <trkpt lat="48.69493" lon="6.39256">
        <ele>241.2</ele>
        <time>2022-03-03T13:42:13Z</time>
      </trkpt>
      <trkpt lat="48.69465" lon="6.3928">
        <ele>240</ele>
        <time>2022-03-03T13:42:16Z</time>
      </trkpt>
      <trkpt lat="48.6944" lon="6.39302">
        <ele>240.2</ele>
        <time>2022-03-03T13:42:19Z</time>
      </trkpt>
      <trkpt lat="48.69418" lon="6.39321">
        <ele>240.4</ele>
        <time>2022-03-03T13:42:22Z</time>
      </trkpt>
      <trkpt lat="48.69398" lon="6.39339">
        <ele>241.4</ele>
        <time>2022-03-03T13:42:25Z</time>
      </trkpt>
      <trkpt lat="48.69375" lon="6.39358">
        <ele>242.4</ele>
        <time>2022-03-03T13:42:29Z</time>
      </trkpt>
      <trkpt lat="48.69354" lon="6.39377">
        <ele>242.6</ele>
        <time>2022-03-03T13:42:33Z</time>
      </trkpt>
      <trkpt lat="48.69334" lon="6.39395">
        <ele>243</ele>
        <time>2022-03-03T13:42:37Z</time>
      </trkpt>
      <trkpt lat="48.69314" lon="6.39412">
        <ele>243.4</ele>
        <time>2022-03-03T13:42:41Z</time>
      </trkpt>
      <trkpt lat="48.69294" lon="6.3943">
        <ele>244</ele>
        <time>2022-03-03T13:42:46Z</time>
      </trkpt>
      <trkpt lat="48.69272" lon="6.3945">
        <ele>243.8</ele>
        <time>2022-03-03T13:42:51Z</time>
      </trkpt>
      <trkpt lat="48.69252" lon="6.3947">
        <ele>242.8</ele>
        <time>2022-03-03T13:42:55Z</time>
      </trkpt>
      <trkpt lat="48.69233" lon="6.39489">
        <ele>241.4</ele>
        <time>2022-03-03T13:42:58Z</time>
      </trkpt>
      <trkpt lat="48.69211" lon="6.3951">
        <ele>239.8</ele>
        <time>2022-03-03T13:43:01Z</time>
      </trkpt>
      <trkpt lat="48.69186" lon="6.39534">
        <ele>237.8</ele>
        <time>2022-03-03T13:43:04Z</time>
      </trkpt>
      <trkpt lat="48.6916" lon="6.39555">
        <ele>236</ele>
        <time>2022-03-03T13:43:07Z</time>
      </trkpt>
      <trkpt lat="48.69127" lon="6.39576">
        <ele>235.6</ele>
        <time>2022-03-03T13:43:11Z</time>
      </trkpt>
      <trkpt lat="48.69104" lon="6.39589">
        <ele>234.6</ele>
        <time>2022-03-03T13:43:14Z</time>
      </trkpt>
      <trkpt lat="48.69083" lon="6.39603">
        <ele>233.6</ele>
        <time>2022-03-03T13:43:17Z</time>
      </trkpt>
      <trkpt lat="48.69061" lon="6.39616">
        <ele>232.6</ele>
        <time>2022-03-03T13:43:20Z</time>
      </trkpt>
      <trkpt lat="48.6904" lon="6.39633">
        <ele>231.8</ele>
        <time>2022-03-03T13:43:23Z</time>
      </trkpt>
      <trkpt lat="48.6902" lon="6.3965">
        <ele>231.4</ele>
        <time>2022-03-03T13:43:26Z</time>
      </trkpt>
      <trkpt lat="48.69001" lon="6.39667">
        <ele>230.8</ele>
        <time>2022-03-03T13:43:29Z</time>
      </trkpt>
      <trkpt lat="48.68976" lon="6.39689">
        <ele>230.2</ele>
        <time>2022-03-03T13:43:33Z</time>
      </trkpt>
      <trkpt lat="48.68955" lon="6.39707">
        <ele>229.4</ele>
        <time>2022-03-03T13:43:37Z</time>
      </trkpt>
      <trkpt lat="48.68933" lon="6.39727">
        <ele>229.8</ele>
        <time>2022-03-03T13:43:42Z</time>
      </trkpt>
      <trkpt lat="48.68929" lon="6.3973">
        <ele>230</ele>
        <time>2022-03-03T13:43:43Z</time>
      </trkpt>
      <trkpt lat="48.68905" lon="6.39745">
        <ele>231</ele>
        <time>2022-03-03T13:43:48Z</time>
      </trkpt>
      <trkpt lat="48.68882" lon="6.39759">
        <ele>231.8</ele>
        <time>2022-03-03T13:43:53Z</time>
      </trkpt>
      <trkpt lat="48.68861" lon="6.39773">
        <ele>232.2</ele>
        <time>2022-03-03T13:43:57Z</time>
      </trkpt>
      <trkpt lat="48.68841" lon="6.39786">
        <ele>232.6</ele>
        <time>2022-03-03T13:44:01Z</time>
      </trkpt>
      <trkpt lat="48.6882" lon="6.39799">
        <ele>232.6</ele>
        <time>2022-03-03T13:44:05Z</time>
      </trkpt>
      <trkpt lat="48.68796" lon="6.39814">
        <ele>232.2</ele>
        <time>2022-03-03T13:44:09Z</time>
      </trkpt>
      <trkpt lat="48.68772" lon="6.39828">
        <ele>232</ele>
        <time>2022-03-03T13:44:13Z</time>
      </trkpt>
      <trkpt lat="48.68749" lon="6.39844">
        <ele>231.6</ele>
        <time>2022-03-03T13:44:17Z</time>
      </trkpt>
      <trkpt lat="48.68725" lon="6.39858">
        <ele>231.8</ele>
        <time>2022-03-03T13:44:21Z</time>
      </trkpt>
      <trkpt lat="48.68701" lon="6.39874">
        <ele>231.6</ele>
        <time>2022-03-03T13:44:25Z</time>
      </trkpt>
      <trkpt lat="48.68676" lon="6.3989">
        <ele>231.8</ele>
        <time>2022-03-03T13:44:29Z</time>
      </trkpt>
      <trkpt lat="48.6865" lon="6.39907">
        <ele>232</ele>
        <time>2022-03-03T13:44:33Z</time>
      </trkpt>
      <trkpt lat="48.68624" lon="6.39922">
        <ele>232</ele>
        <time>2022-03-03T13:44:37Z</time>
      </trkpt>
      <trkpt lat="48.68599" lon="6.39939">
        <ele>232</ele>
        <time>2022-03-03T13:44:41Z</time>
      </trkpt>
      <trkpt lat="48.68574" lon="6.39954">
        <ele>232.2</ele>
        <time>2022-03-03T13:44:45Z</time>
      </trkpt>
      <trkpt lat="48.68548" lon="6.39971">
        <ele>232.2</ele>
        <time>2022-03-03T13:44:49Z</time>
      </trkpt>
      <trkpt lat="48.68522" lon="6.39987">
        <ele>232.2</ele>
        <time>2022-03-03T13:44:53Z</time>
      </trkpt>
      <trkpt lat="48.68496" lon="6.40004">
        <ele>232.6</ele>
        <time>2022-03-03T13:44:57Z</time>
      </trkpt>
      <trkpt lat="48.68469" lon="6.4002">
        <ele>232.6</ele>
        <time>2022-03-03T13:45:01Z</time>
      </trkpt>
      <trkpt lat="48.68443" lon="6.40037">
        <ele>232.6</ele>
        <time>2022-03-03T13:45:05Z</time>
      </trkpt>
      <trkpt lat="48.68417" lon="6.40054">
        <ele>233</ele>
        <time>2022-03-03T13:45:09Z</time>
      </trkpt>
      <trkpt lat="48.68392" lon="6.4007">
        <ele>233.2</ele>
        <time>2022-03-03T13:45:13Z</time>
      </trkpt>
      <trkpt lat="48.68366" lon="6.40086">
        <ele>233.8</ele>
        <time>2022-03-03T13:45:17Z</time>
      </trkpt>
      <trkpt lat="48.68342" lon="6.40101">
        <ele>234</ele>
        <time>2022-03-03T13:45:21Z</time>
      </trkpt>
      <trkpt lat="48.68318" lon="6.40116">
        <ele>234.4</ele>
        <time>2022-03-03T13:45:25Z</time>
      </trkpt>
      <trkpt lat="48.68293" lon="6.40132">
        <ele>234.6</ele>
        <time>2022-03-03T13:45:29Z</time>
      </trkpt>
      <trkpt lat="48.68271" lon="6.40146">
        <ele>235.2</ele>
        <time>2022-03-03T13:45:33Z</time>
      </trkpt>
      <trkpt lat="48.68249" lon="6.4016">
        <ele>235.6</ele>
        <time>2022-03-03T13:45:37Z</time>
      </trkpt>
      <trkpt lat="48.68227" lon="6.40173">
        <ele>235.8</ele>
        <time>2022-03-03T13:45:41Z</time>
      </trkpt>
      <trkpt lat="48.68206" lon="6.40187">
        <ele>236.4</ele>
        <time>2022-03-03T13:45:45Z</time>
      </trkpt>
      <trkpt lat="48.68185" lon="6.402">
        <ele>237</ele>
        <time>2022-03-03T13:45:49Z</time>
      </trkpt>
      <trkpt lat="48.68165" lon="6.40213">
        <ele>237.8</ele>
        <time>2022-03-03T13:45:53Z</time>
      </trkpt>
      <trkpt lat="48.68145" lon="6.40226">
        <ele>238.4</ele>
        <time>2022-03-03T13:45:57Z</time>
      </trkpt>
      <trkpt lat="48.68121" lon="6.4024">
        <ele>239.2</ele>
        <time>2022-03-03T13:46:02Z</time>
      </trkpt>
      <trkpt lat="48.68099" lon="6.40254">
        <ele>240</ele>
        <time>2022-03-03T13:46:07Z</time>
      </trkpt>
      <trkpt lat="48.68076" lon="6.40268">
        <ele>240.8</ele>
        <time>2022-03-03T13:46:12Z</time>
      </trkpt>
      <trkpt lat="48.68054" lon="6.40282">
        <ele>241.8</ele>
        <time>2022-03-03T13:46:17Z</time>
      </trkpt>
      <trkpt lat="48.68033" lon="6.40296">
        <ele>242.8</ele>
        <time>2022-03-03T13:46:22Z</time>
      </trkpt>
      <trkpt lat="48.68012" lon="6.40309">
        <ele>242.8</ele>
        <time>2022-03-03T13:46:27Z</time>
      </trkpt>
      <trkpt lat="48.67992" lon="6.40322">
        <ele>242.8</ele>
        <time>2022-03-03T13:46:32Z</time>
      </trkpt>
      <trkpt lat="48.67971" lon="6.40334">
        <ele>242.8</ele>
        <time>2022-03-03T13:46:37Z</time>
      </trkpt>
      <trkpt lat="48.6795" lon="6.40347">
        <ele>242.6</ele>
        <time>2022-03-03T13:46:42Z</time>
      </trkpt>
      <trkpt lat="48.67931" lon="6.40358">
        <ele>242.8</ele>
        <time>2022-03-03T13:46:46Z</time>
      </trkpt>
      <trkpt lat="48.6791" lon="6.40371">
        <ele>242.8</ele>
        <time>2022-03-03T13:46:50Z</time>
      </trkpt>
      <trkpt lat="48.67887" lon="6.40384">
        <ele>243.4</ele>
        <time>2022-03-03T13:46:54Z</time>
      </trkpt>
      <trkpt lat="48.67863" lon="6.40397">
        <ele>242.8</ele>
        <time>2022-03-03T13:46:58Z</time>
      </trkpt>
      <trkpt lat="48.67839" lon="6.40409">
        <ele>242.6</ele>
        <time>2022-03-03T13:47:02Z</time>
      </trkpt>
      <trkpt lat="48.67815" lon="6.40422">
        <ele>242.6</ele>
        <time>2022-03-03T13:47:06Z</time>
      </trkpt>
      <trkpt lat="48.6779" lon="6.40435">
        <ele>242.4</ele>
        <time>2022-03-03T13:47:10Z</time>
      </trkpt>
      <trkpt lat="48.67764" lon="6.40449">
        <ele>242.4</ele>
        <time>2022-03-03T13:47:14Z</time>
      </trkpt>
      <trkpt lat="48.67738" lon="6.40464">
        <ele>242.2</ele>
        <time>2022-03-03T13:47:18Z</time>
      </trkpt>
      <trkpt lat="48.67712" lon="6.40478">
        <ele>242.4</ele>
        <time>2022-03-03T13:47:22Z</time>
      </trkpt>
      <trkpt lat="48.67687" lon="6.40491">
        <ele>242.8</ele>
        <time>2022-03-03T13:47:26Z</time>
      </trkpt>
      <trkpt lat="48.67663" lon="6.40504">
        <ele>243</ele>
        <time>2022-03-03T13:47:30Z</time>
      </trkpt>
      <trkpt lat="48.6764" lon="6.40517">
        <ele>242.8</ele>
        <time>2022-03-03T13:47:34Z</time>
      </trkpt>
      <trkpt lat="48.67616" lon="6.40529">
        <ele>243</ele>
        <time>2022-03-03T13:47:38Z</time>
      </trkpt>
      <trkpt lat="48.67592" lon="6.40542">
        <ele>243</ele>
        <time>2022-03-03T13:47:42Z</time>
      </trkpt>
      <trkpt lat="48.67568" lon="6.40555">
        <ele>243</ele>
        <time>2022-03-03T13:47:46Z</time>
      </trkpt>
      <trkpt lat="48.67543" lon="6.40569">
        <ele>243.2</ele>
        <time>2022-03-03T13:47:50Z</time>
      </trkpt>
      <trkpt lat="48.67519" lon="6.40582">
        <ele>243.4</ele>
        <time>2022-03-03T13:47:54Z</time>
      </trkpt>
      <trkpt lat="48.67494" lon="6.40595">
        <ele>243.6</ele>
        <time>2022-03-03T13:47:58Z</time>
      </trkpt>
      <trkpt lat="48.67469" lon="6.40608">
        <ele>243.4</ele>
        <time>2022-03-03T13:48:02Z</time>
      </trkpt>
      <trkpt lat="48.67444" lon="6.40622">
        <ele>243.6</ele>
        <time>2022-03-03T13:48:06Z</time>
      </trkpt>
      <trkpt lat="48.6742" lon="6.40636">
        <ele>243.8</ele>
        <time>2022-03-03T13:48:10Z</time>
      </trkpt>
      <trkpt lat="48.67395" lon="6.40648">
        <ele>244</ele>
        <time>2022-03-03T13:48:14Z</time>
      </trkpt>
      <trkpt lat="48.67371" lon="6.40661">
        <ele>244.4</ele>
        <time>2022-03-03T13:48:18Z</time>
      </trkpt>
      <trkpt lat="48.67347" lon="6.40673">
        <ele>244.4</ele>
        <time>2022-03-03T13:48:22Z</time>
      </trkpt>
      <trkpt lat="48.67323" lon="6.40685">
        <ele>244.6</ele>
        <time>2022-03-03T13:48:26Z</time>
      </trkpt>
      <trkpt lat="48.67298" lon="6.40697">
        <ele>244.8</ele>
        <time>2022-03-03T13:48:30Z</time>
      </trkpt>
      <trkpt lat="48.67273" lon="6.4071">
        <ele>244.6</ele>
        <time>2022-03-03T13:48:34Z</time>
      </trkpt>
      <trkpt lat="48.67248" lon="6.40721">
        <ele>244.2</ele>
        <time>2022-03-03T13:48:38Z</time>
      </trkpt>
      <trkpt lat="48.67223" lon="6.40732">
        <ele>244.4</ele>
        <time>2022-03-03T13:48:42Z</time>
      </trkpt>
      <trkpt lat="48.672" lon="6.40743">
        <ele>244.8</ele>
        <time>2022-03-03T13:48:46Z</time>
      </trkpt>
      <trkpt lat="48.67176" lon="6.40755">
        <ele>244.6</ele>
        <time>2022-03-03T13:48:50Z</time>
      </trkpt>
      <trkpt lat="48.67153" lon="6.40766">
        <ele>244.6</ele>
        <time>2022-03-03T13:48:54Z</time>
      </trkpt>
      <trkpt lat="48.67131" lon="6.40776">
        <ele>245</ele>
        <time>2022-03-03T13:48:58Z</time>
      </trkpt>
      <trkpt lat="48.67107" lon="6.40788">
        <ele>245.6</ele>
        <time>2022-03-03T13:49:03Z</time>
      </trkpt>
      <trkpt lat="48.67089" lon="6.40797">
        <ele>245.8</ele>
        <time>2022-03-03T13:49:07Z</time>
      </trkpt>
      <trkpt lat="48.67086" lon="6.40796">
        <ele>246.2</ele>
        <time>2022-03-03T13:49:08Z</time>
      </trkpt>
      <trkpt lat="48.67083" lon="6.40792">
        <ele>246.4</ele>
        <time>2022-03-03T13:49:09Z</time>
      </trkpt>
      <trkpt lat="48.6708" lon="6.40786">
        <ele>246.4</ele>
        <time>2022-03-03T13:49:10Z</time>
      </trkpt>
      <trkpt lat="48.67078" lon="6.4078">
        <ele>246.6</ele>
        <time>2022-03-03T13:49:11Z</time>
      </trkpt>
      <trkpt lat="48.67077" lon="6.40773">
        <ele>246.8</ele>
        <time>2022-03-03T13:49:12Z</time>
      </trkpt>
      <trkpt lat="48.67064" lon="6.40741">
        <ele>247.2</ele>
        <time>2022-03-03T13:49:17Z</time>
      </trkpt>
      <trkpt lat="48.67049" lon="6.40712">
        <ele>247.8</ele>
        <time>2022-03-03T13:49:22Z</time>
      </trkpt>
      <trkpt lat="48.67032" lon="6.40683">
        <ele>248.2</ele>
        <time>2022-03-03T13:49:27Z</time>
      </trkpt>
      <trkpt lat="48.67011" lon="6.40664">
        <ele>249</ele>
        <time>2022-03-03T13:49:32Z</time>
      </trkpt>
      <trkpt lat="48.67006" lon="6.40663">
        <ele>249.4</ele>
        <time>2022-03-03T13:49:33Z</time>
      </trkpt>
      <trkpt lat="48.67001" lon="6.40663">
        <ele>249.4</ele>
        <time>2022-03-03T13:49:34Z</time>
      </trkpt>
      <trkpt lat="48.66997" lon="6.40664">
        <ele>249.6</ele>
        <time>2022-03-03T13:49:35Z</time>
      </trkpt>
      <trkpt lat="48.66992" lon="6.40667">
        <ele>249.6</ele>
        <time>2022-03-03T13:49:36Z</time>
      </trkpt>
      <trkpt lat="48.66988" lon="6.4067">
        <ele>249.8</ele>
        <time>2022-03-03T13:49:37Z</time>
      </trkpt>
      <trkpt lat="48.66983" lon="6.40673">
        <ele>249.8</ele>
        <time>2022-03-03T13:49:38Z</time>
      </trkpt>
      <trkpt lat="48.66958" lon="6.40685">
        <ele>249.8</ele>
        <time>2022-03-03T13:49:43Z</time>
      </trkpt>
      <trkpt lat="48.66942" lon="6.40691">
        <ele>249.8</ele>
        <time>2022-03-03T13:49:46Z</time>
      </trkpt>
      <trkpt lat="48.66937" lon="6.40691">
        <ele>249.8</ele>
        <time>2022-03-03T13:49:47Z</time>
      </trkpt>
      <trkpt lat="48.66932" lon="6.40689">
        <ele>250</ele>
        <time>2022-03-03T13:49:48Z</time>
      </trkpt>
      <trkpt lat="48.66929" lon="6.40686">
        <ele>250</ele>
        <time>2022-03-03T13:49:49Z</time>
      </trkpt>
      <trkpt lat="48.66925" lon="6.40682">
        <ele>250</ele>
        <time>2022-03-03T13:49:50Z</time>
      </trkpt>
      <trkpt lat="48.66921" lon="6.40676">
        <ele>250.2</ele>
        <time>2022-03-03T13:49:51Z</time>
      </trkpt>
      <trkpt lat="48.66919" lon="6.4067">
        <ele>250.4</ele>
        <time>2022-03-03T13:49:52Z</time>
      </trkpt>
      <trkpt lat="48.66916" lon="6.40664">
        <ele>250.6</ele>
        <time>2022-03-03T13:49:53Z</time>
      </trkpt>
      <trkpt lat="48.66914" lon="6.40658">
        <ele>250.8</ele>
        <time>2022-03-03T13:49:54Z</time>
      </trkpt>
      <trkpt lat="48.66911" lon="6.40651">
        <ele>251</ele>
        <time>2022-03-03T13:49:55Z</time>
      </trkpt>
      <trkpt lat="48.66898" lon="6.40622">
        <ele>252.4</ele>
        <time>2022-03-03T13:50:00Z</time>
      </trkpt>
      <trkpt lat="48.66894" lon="6.40617">
        <ele>252.8</ele>
        <time>2022-03-03T13:50:01Z</time>
      </trkpt>
      <trkpt lat="48.66879" lon="6.40584">
        <ele>254</ele>
        <time>2022-03-03T13:50:07Z</time>
      </trkpt>
      <trkpt lat="48.66877" lon="6.40579">
        <ele>254.2</ele>
        <time>2022-03-03T13:50:08Z</time>
      </trkpt>
      <trkpt lat="48.66864" lon="6.40553">
        <ele>255</ele>
        <time>2022-03-03T13:50:13Z</time>
      </trkpt>
      <trkpt lat="48.66852" lon="6.40524">
        <ele>255.6</ele>
        <time>2022-03-03T13:50:18Z</time>
      </trkpt>
      <trkpt lat="48.6684" lon="6.40497">
        <ele>256.6</ele>
        <time>2022-03-03T13:50:23Z</time>
      </trkpt>
      <trkpt lat="48.66829" lon="6.40471">
        <ele>257.6</ele>
        <time>2022-03-03T13:50:28Z</time>
      </trkpt>
      <trkpt lat="48.66815" lon="6.40441">
        <ele>259</ele>
        <time>2022-03-03T13:50:34Z</time>
      </trkpt>
      <trkpt lat="48.66802" lon="6.40412">
        <ele>260.4</ele>
        <time>2022-03-03T13:50:40Z</time>
      </trkpt>
      <trkpt lat="48.66789" lon="6.40383">
        <ele>261.8</ele>
        <time>2022-03-03T13:50:46Z</time>
      </trkpt>
      <trkpt lat="48.66777" lon="6.40355">
        <ele>263.2</ele>
        <time>2022-03-03T13:50:52Z</time>
      </trkpt>
      <trkpt lat="48.66765" lon="6.40325">
        <ele>264.8</ele>
        <time>2022-03-03T13:50:58Z</time>
      </trkpt>
      <trkpt lat="48.66753" lon="6.40296">
        <ele>266.2</ele>
        <time>2022-03-03T13:51:04Z</time>
      </trkpt>
      <trkpt lat="48.66751" lon="6.4029">
        <ele>266.6</ele>
        <time>2022-03-03T13:51:05Z</time>
      </trkpt>
      <trkpt lat="48.6674" lon="6.40264">
        <ele>267.6</ele>
        <time>2022-03-03T13:51:10Z</time>
      </trkpt>
      <trkpt lat="48.66727" lon="6.4024">
        <ele>268.6</ele>
        <time>2022-03-03T13:51:15Z</time>
      </trkpt>
      <trkpt lat="48.66712" lon="6.40216">
        <ele>269.6</ele>
        <time>2022-03-03T13:51:20Z</time>
      </trkpt>
      <trkpt lat="48.667" lon="6.40199">
        <ele>270.2</ele>
        <time>2022-03-03T13:51:24Z</time>
      </trkpt>
      <trkpt lat="48.66684" lon="6.40174">
        <ele>270.8</ele>
        <time>2022-03-03T13:51:29Z</time>
      </trkpt>
      <trkpt lat="48.66668" lon="6.40151">
        <ele>271.4</ele>
        <time>2022-03-03T13:51:34Z</time>
      </trkpt>
      <trkpt lat="48.66653" lon="6.4013">
        <ele>271.8</ele>
        <time>2022-03-03T13:51:39Z</time>
      </trkpt>
      <trkpt lat="48.6664" lon="6.40104">
        <ele>271.8</ele>
        <time>2022-03-03T13:51:45Z</time>
      </trkpt>
      <trkpt lat="48.66637" lon="6.40099">
        <ele>271.8</ele>
        <time>2022-03-03T13:51:46Z</time>
      </trkpt>
      <trkpt lat="48.66635" lon="6.40094">
        <ele>271.8</ele>
        <time>2022-03-03T13:51:47Z</time>
      </trkpt>
      <trkpt lat="48.66619" lon="6.40064">
        <ele>271.2</ele>
        <time>2022-03-03T13:51:52Z</time>
      </trkpt>
      <trkpt lat="48.66606" lon="6.40036">
        <ele>270.4</ele>
        <time>2022-03-03T13:51:56Z</time>
      </trkpt>
      <trkpt lat="48.66589" lon="6.40004">
        <ele>269.6</ele>
        <time>2022-03-03T13:52:00Z</time>
      </trkpt>
      <trkpt lat="48.66576" lon="6.39975">
        <ele>269</ele>
        <time>2022-03-03T13:52:03Z</time>
      </trkpt>
      <trkpt lat="48.66562" lon="6.39945">
        <ele>268.6</ele>
        <time>2022-03-03T13:52:06Z</time>
      </trkpt>
      <trkpt lat="48.66547" lon="6.39915">
        <ele>267.8</ele>
        <time>2022-03-03T13:52:09Z</time>
      </trkpt>
      <trkpt lat="48.66529" lon="6.39888">
        <ele>267</ele>
        <time>2022-03-03T13:52:12Z</time>
      </trkpt>
      <trkpt lat="48.66522" lon="6.3988">
        <ele>266.8</ele>
        <time>2022-03-03T13:52:13Z</time>
      </trkpt>
      <trkpt lat="48.66503" lon="6.39857">
        <ele>266.2</ele>
        <time>2022-03-03T13:52:16Z</time>
      </trkpt>
      <trkpt lat="48.66484" lon="6.39835">
        <ele>265.6</ele>
        <time>2022-03-03T13:52:19Z</time>
      </trkpt>
      <trkpt lat="48.66465" lon="6.39815">
        <ele>264.8</ele>
        <time>2022-03-03T13:52:22Z</time>
      </trkpt>
      <trkpt lat="48.66445" lon="6.39796">
        <ele>264.2</ele>
        <time>2022-03-03T13:52:25Z</time>
      </trkpt>
      <trkpt lat="48.66426" lon="6.39778">
        <ele>263.8</ele>
        <time>2022-03-03T13:52:28Z</time>
      </trkpt>
      <trkpt lat="48.66409" lon="6.39756">
        <ele>263.4</ele>
        <time>2022-03-03T13:52:31Z</time>
      </trkpt>
      <trkpt lat="48.66405" lon="6.39748">
        <ele>263.2</ele>
        <time>2022-03-03T13:52:32Z</time>
      </trkpt>
      <trkpt lat="48.66391" lon="6.39712">
        <ele>263</ele>
        <time>2022-03-03T13:52:36Z</time>
      </trkpt>
      <trkpt lat="48.66377" lon="6.39677">
        <ele>263</ele>
        <time>2022-03-03T13:52:40Z</time>
      </trkpt>
      <trkpt lat="48.66364" lon="6.39642">
        <ele>263.2</ele>
        <time>2022-03-03T13:52:44Z</time>
      </trkpt>
      <trkpt lat="48.6635" lon="6.39604">
        <ele>264</ele>
        <time>2022-03-03T13:52:48Z</time>
      </trkpt>
      <trkpt lat="48.66339" lon="6.39565">
        <ele>265.4</ele>
        <time>2022-03-03T13:52:52Z</time>
      </trkpt>
      <trkpt lat="48.66332" lon="6.39529">
        <ele>267.4</ele>
        <time>2022-03-03T13:52:56Z</time>
      </trkpt>
      <trkpt lat="48.66328" lon="6.39492">
        <ele>269.2</ele>
        <time>2022-03-03T13:53:01Z</time>
      </trkpt>
      <trkpt lat="48.66323" lon="6.39461">
        <ele>270.4</ele>
        <time>2022-03-03T13:53:05Z</time>
      </trkpt>
      <trkpt lat="48.66317" lon="6.39431">
        <ele>271</ele>
        <time>2022-03-03T13:53:09Z</time>
      </trkpt>
      <trkpt lat="48.66314" lon="6.39425">
        <ele>271</ele>
        <time>2022-03-03T13:53:10Z</time>
      </trkpt>
      <trkpt lat="48.66302" lon="6.39393">
        <ele>271.6</ele>
        <time>2022-03-03T13:53:15Z</time>
      </trkpt>
      <trkpt lat="48.66291" lon="6.39365">
        <ele>271.8</ele>
        <time>2022-03-03T13:53:19Z</time>
      </trkpt>
      <trkpt lat="48.6628" lon="6.39336">
        <ele>272.2</ele>
        <time>2022-03-03T13:53:23Z</time>
      </trkpt>
      <trkpt lat="48.66267" lon="6.39304">
        <ele>272.4</ele>
        <time>2022-03-03T13:53:27Z</time>
      </trkpt>
      <trkpt lat="48.66255" lon="6.39269">
        <ele>272</ele>
        <time>2022-03-03T13:53:31Z</time>
      </trkpt>
      <trkpt lat="48.66247" lon="6.3923">
        <ele>271.4</ele>
        <time>2022-03-03T13:53:35Z</time>
      </trkpt>
      <trkpt lat="48.66244" lon="6.39188">
        <ele>270.6</ele>
        <time>2022-03-03T13:53:39Z</time>
      </trkpt>
      <trkpt lat="48.66243" lon="6.39145">
        <ele>270</ele>
        <time>2022-03-03T13:53:43Z</time>
      </trkpt>
      <trkpt lat="48.66244" lon="6.39102">
        <ele>269.4</ele>
        <time>2022-03-03T13:53:47Z</time>
      </trkpt>
      <trkpt lat="48.66248" lon="6.39069">
        <ele>269</ele>
        <time>2022-03-03T13:53:50Z</time>
      </trkpt>
      <trkpt lat="48.66252" lon="6.39046">
        <ele>268.8</ele>
        <time>2022-03-03T13:53:52Z</time>
      </trkpt>
      <trkpt lat="48.6626" lon="6.39013">
        <ele>267.8</ele>
        <time>2022-03-03T13:53:55Z</time>
      </trkpt>
      <trkpt lat="48.6627" lon="6.38976">
        <ele>267.2</ele>
        <time>2022-03-03T13:53:58Z</time>
      </trkpt>
      <trkpt lat="48.66276" lon="6.38952">
        <ele>266.6</ele>
        <time>2022-03-03T13:54:00Z</time>
      </trkpt>
      <trkpt lat="48.66277" lon="6.38939">
        <ele>266.4</ele>
        <time>2022-03-03T13:54:01Z</time>
      </trkpt>
      <trkpt lat="48.66278" lon="6.38926">
        <ele>266</ele>
        <time>2022-03-03T13:54:02Z</time>
      </trkpt>
      <trkpt lat="48.66277" lon="6.38914">
        <ele>265.8</ele>
        <time>2022-03-03T13:54:03Z</time>
      </trkpt>
      <trkpt lat="48.66276" lon="6.38901">
        <ele>265.4</ele>
        <time>2022-03-03T13:54:04Z</time>
      </trkpt>
      <trkpt lat="48.66274" lon="6.38889">
        <ele>265.2</ele>
        <time>2022-03-03T13:54:05Z</time>
      </trkpt>
      <trkpt lat="48.66272" lon="6.38877">
        <ele>264.8</ele>
        <time>2022-03-03T13:54:06Z</time>
      </trkpt>
      <trkpt lat="48.66269" lon="6.38865">
        <ele>264.6</ele>
        <time>2022-03-03T13:54:07Z</time>
      </trkpt>
      <trkpt lat="48.66265" lon="6.38854">
        <ele>264.4</ele>
        <time>2022-03-03T13:54:08Z</time>
      </trkpt>
      <trkpt lat="48.66256" lon="6.38817">
        <ele>263.8</ele>
        <time>2022-03-03T13:54:11Z</time>
      </trkpt>
      <trkpt lat="48.66247" lon="6.38781">
        <ele>263.4</ele>
        <time>2022-03-03T13:54:14Z</time>
      </trkpt>
      <trkpt lat="48.66238" lon="6.38743">
        <ele>263.4</ele>
        <time>2022-03-03T13:54:17Z</time>
      </trkpt>
      <trkpt lat="48.66229" lon="6.38705">
        <ele>263.2</ele>
        <time>2022-03-03T13:54:20Z</time>
      </trkpt>
      <trkpt lat="48.66219" lon="6.38668">
        <ele>263</ele>
        <time>2022-03-03T13:54:23Z</time>
      </trkpt>
      <trkpt lat="48.6621" lon="6.38631">
        <ele>262.8</ele>
        <time>2022-03-03T13:54:26Z</time>
      </trkpt>
      <trkpt lat="48.66202" lon="6.38592">
        <ele>262.4</ele>
        <time>2022-03-03T13:54:29Z</time>
      </trkpt>
      <trkpt lat="48.66195" lon="6.38553">
        <ele>262.2</ele>
        <time>2022-03-03T13:54:32Z</time>
      </trkpt>
      <trkpt lat="48.66188" lon="6.38513">
        <ele>262</ele>
        <time>2022-03-03T13:54:35Z</time>
      </trkpt>
      <trkpt lat="48.66181" lon="6.38472">
        <ele>261.8</ele>
        <time>2022-03-03T13:54:38Z</time>
      </trkpt>
      <trkpt lat="48.66174" lon="6.38433">
        <ele>261.6</ele>
        <time>2022-03-03T13:54:41Z</time>
      </trkpt>
      <trkpt lat="48.66168" lon="6.38395">
        <ele>261.2</ele>
        <time>2022-03-03T13:54:44Z</time>
      </trkpt>
      <trkpt lat="48.66163" lon="6.38356">
        <ele>260.8</ele>
        <time>2022-03-03T13:54:47Z</time>
      </trkpt>
      <trkpt lat="48.66164" lon="6.38344">
        <ele>260.6</ele>
        <time>2022-03-03T13:54:48Z</time>
      </trkpt>
      <trkpt lat="48.66167" lon="6.38333">
        <ele>260.6</ele>
        <time>2022-03-03T13:54:49Z</time>
      </trkpt>
      <trkpt lat="48.66171" lon="6.38323">
        <ele>260.6</ele>
        <time>2022-03-03T13:54:50Z</time>
      </trkpt>
      <trkpt lat="48.66176" lon="6.38311">
        <ele>260.4</ele>
        <time>2022-03-03T13:54:51Z</time>
      </trkpt>
      <trkpt lat="48.66183" lon="6.38289">
        <ele>260.2</ele>
        <time>2022-03-03T13:54:53Z</time>
      </trkpt>
      <trkpt lat="48.66186" lon="6.38278">
        <ele>260.4</ele>
        <time>2022-03-03T13:54:54Z</time>
      </trkpt>
      <trkpt lat="48.66186" lon="6.38266">
        <ele>260.6</ele>
        <time>2022-03-03T13:54:55Z</time>
      </trkpt>
      <trkpt lat="48.66185" lon="6.38255">
        <ele>260.6</ele>
        <time>2022-03-03T13:54:56Z</time>
      </trkpt>
      <trkpt lat="48.66183" lon="6.38243">
        <ele>260.4</ele>
        <time>2022-03-03T13:54:57Z</time>
      </trkpt>
      <trkpt lat="48.66179" lon="6.38233">
        <ele>260.2</ele>
        <time>2022-03-03T13:54:58Z</time>
      </trkpt>
      <trkpt lat="48.66174" lon="6.38223">
        <ele>260.2</ele>
        <time>2022-03-03T13:54:59Z</time>
      </trkpt>
      <trkpt lat="48.66169" lon="6.38213">
        <ele>260.2</ele>
        <time>2022-03-03T13:55:00Z</time>
      </trkpt>
      <trkpt lat="48.66154" lon="6.38185">
        <ele>260.4</ele>
        <time>2022-03-03T13:55:03Z</time>
      </trkpt>
      <trkpt lat="48.66141" lon="6.38156">
        <ele>260.6</ele>
        <time>2022-03-03T13:55:06Z</time>
      </trkpt>
      <trkpt lat="48.66128" lon="6.38127">
        <ele>261.2</ele>
        <time>2022-03-03T13:55:09Z</time>
      </trkpt>
      <trkpt lat="48.66114" lon="6.38098">
        <ele>261.6</ele>
        <time>2022-03-03T13:55:12Z</time>
      </trkpt>
      <trkpt lat="48.66101" lon="6.3807">
        <ele>261.8</ele>
        <time>2022-03-03T13:55:15Z</time>
      </trkpt>
      <trkpt lat="48.6609" lon="6.38041">
        <ele>262</ele>
        <time>2022-03-03T13:55:18Z</time>
      </trkpt>
      <trkpt lat="48.66088" lon="6.38031">
        <ele>262</ele>
        <time>2022-03-03T13:55:19Z</time>
      </trkpt>
      <trkpt lat="48.66086" lon="6.3802">
        <ele>261.8</ele>
        <time>2022-03-03T13:55:20Z</time>
      </trkpt>
      <trkpt lat="48.66086" lon="6.38008">
        <ele>261.6</ele>
        <time>2022-03-03T13:55:21Z</time>
      </trkpt>
      <trkpt lat="48.66087" lon="6.37997">
        <ele>261.6</ele>
        <time>2022-03-03T13:55:22Z</time>
      </trkpt>
      <trkpt lat="48.6609" lon="6.37986">
        <ele>261.4</ele>
        <time>2022-03-03T13:55:23Z</time>
      </trkpt>
      <trkpt lat="48.66095" lon="6.37975">
        <ele>261.2</ele>
        <time>2022-03-03T13:55:24Z</time>
      </trkpt>
      <trkpt lat="48.66099" lon="6.37965">
        <ele>260.8</ele>
        <time>2022-03-03T13:55:25Z</time>
      </trkpt>
      <trkpt lat="48.66115" lon="6.37934">
        <ele>259.6</ele>
        <time>2022-03-03T13:55:28Z</time>
      </trkpt>
      <trkpt lat="48.66132" lon="6.37901">
        <ele>258.6</ele>
        <time>2022-03-03T13:55:31Z</time>
      </trkpt>
      <trkpt lat="48.6615" lon="6.37866">
        <ele>257.4</ele>
        <time>2022-03-03T13:55:34Z</time>
      </trkpt>
      <trkpt lat="48.66167" lon="6.37829">
        <ele>256.2</ele>
        <time>2022-03-03T13:55:37Z</time>
      </trkpt>
      <trkpt lat="48.66183" lon="6.37792">
        <ele>255.8</ele>
        <time>2022-03-03T13:55:40Z</time>
      </trkpt>
      <trkpt lat="48.66198" lon="6.37756">
        <ele>255.8</ele>
        <time>2022-03-03T13:55:43Z</time>
      </trkpt>
      <trkpt lat="48.66209" lon="6.3772">
        <ele>255.8</ele>
        <time>2022-03-03T13:55:46Z</time>
      </trkpt>
      <trkpt lat="48.66211" lon="6.37708">
        <ele>256</ele>
        <time>2022-03-03T13:55:47Z</time>
      </trkpt>
      <trkpt lat="48.66213" lon="6.37697">
        <ele>256.2</ele>
        <time>2022-03-03T13:55:48Z</time>
      </trkpt>
      <trkpt lat="48.66215" lon="6.37654">
        <ele>257.2</ele>
        <time>2022-03-03T13:55:52Z</time>
      </trkpt>
      <trkpt lat="48.66215" lon="6.37633">
        <ele>257.6</ele>
        <time>2022-03-03T13:55:54Z</time>
      </trkpt>
      <trkpt lat="48.66213" lon="6.37623">
        <ele>257.6</ele>
        <time>2022-03-03T13:55:55Z</time>
      </trkpt>
      <trkpt lat="48.66208" lon="6.37582">
        <ele>257.6</ele>
        <time>2022-03-03T13:55:59Z</time>
      </trkpt>
      <trkpt lat="48.66202" lon="6.3755">
        <ele>257.4</ele>
        <time>2022-03-03T13:56:02Z</time>
      </trkpt>
      <trkpt lat="48.66197" lon="6.37518">
        <ele>257.4</ele>
        <time>2022-03-03T13:56:05Z</time>
      </trkpt>
      <trkpt lat="48.66193" lon="6.37474">
        <ele>257.8</ele>
        <time>2022-03-03T13:56:09Z</time>
      </trkpt>
      <trkpt lat="48.66189" lon="6.3743">
        <ele>258.4</ele>
        <time>2022-03-03T13:56:13Z</time>
      </trkpt>
      <trkpt lat="48.66188" lon="6.37388">
        <ele>258.8</ele>
        <time>2022-03-03T13:56:17Z</time>
      </trkpt>
      <trkpt lat="48.66192" lon="6.37346">
        <ele>259</ele>
        <time>2022-03-03T13:56:21Z</time>
      </trkpt>
      <trkpt lat="48.66199" lon="6.37304">
        <ele>259.2</ele>
        <time>2022-03-03T13:56:25Z</time>
      </trkpt>
      <trkpt lat="48.66204" lon="6.37271">
        <ele>258.8</ele>
        <time>2022-03-03T13:56:28Z</time>
      </trkpt>
      <trkpt lat="48.66206" lon="6.37237">
        <ele>258.6</ele>
        <time>2022-03-03T13:56:31Z</time>
      </trkpt>
      <trkpt lat="48.66206" lon="6.37225">
        <ele>258.6</ele>
        <time>2022-03-03T13:56:32Z</time>
      </trkpt>
      <trkpt lat="48.66205" lon="6.37213">
        <ele>258.4</ele>
        <time>2022-03-03T13:56:33Z</time>
      </trkpt>
      <trkpt lat="48.66203" lon="6.37201">
        <ele>258.2</ele>
        <time>2022-03-03T13:56:34Z</time>
      </trkpt>
      <trkpt lat="48.662" lon="6.37189">
        <ele>258</ele>
        <time>2022-03-03T13:56:35Z</time>
      </trkpt>
      <trkpt lat="48.66196" lon="6.37177">
        <ele>258</ele>
        <time>2022-03-03T13:56:36Z</time>
      </trkpt>
      <trkpt lat="48.66186" lon="6.37142">
        <ele>257.8</ele>
        <time>2022-03-03T13:56:39Z</time>
      </trkpt>
      <trkpt lat="48.66178" lon="6.37108">
        <ele>257.4</ele>
        <time>2022-03-03T13:56:42Z</time>
      </trkpt>
      <trkpt lat="48.66173" lon="6.37072">
        <ele>257.6</ele>
        <time>2022-03-03T13:56:45Z</time>
      </trkpt>
      <trkpt lat="48.66173" lon="6.37061">
        <ele>257.8</ele>
        <time>2022-03-03T13:56:46Z</time>
      </trkpt>
      <trkpt lat="48.66174" lon="6.3705">
        <ele>257.8</ele>
        <time>2022-03-03T13:56:47Z</time>
      </trkpt>
      <trkpt lat="48.66179" lon="6.37008">
        <ele>258.2</ele>
        <time>2022-03-03T13:56:51Z</time>
      </trkpt>
      <trkpt lat="48.66185" lon="6.36968">
        <ele>257.4</ele>
        <time>2022-03-03T13:56:55Z</time>
      </trkpt>
      <trkpt lat="48.66192" lon="6.36937">
        <ele>257.2</ele>
        <time>2022-03-03T13:56:58Z</time>
      </trkpt>
      <trkpt lat="48.66201" lon="6.36904">
        <ele>257</ele>
        <time>2022-03-03T13:57:01Z</time>
      </trkpt>
      <trkpt lat="48.66213" lon="6.36871">
        <ele>256.4</ele>
        <time>2022-03-03T13:57:04Z</time>
      </trkpt>
      <trkpt lat="48.66224" lon="6.36841">
        <ele>256</ele>
        <time>2022-03-03T13:57:07Z</time>
      </trkpt>
      <trkpt lat="48.66237" lon="6.36805">
        <ele>255.6</ele>
        <time>2022-03-03T13:57:11Z</time>
      </trkpt>
      <trkpt lat="48.6625" lon="6.36772">
        <ele>255</ele>
        <time>2022-03-03T13:57:15Z</time>
      </trkpt>
      <trkpt lat="48.66261" lon="6.3674">
        <ele>254.4</ele>
        <time>2022-03-03T13:57:19Z</time>
      </trkpt>
      <trkpt lat="48.66266" lon="6.36725">
        <ele>254.4</ele>
        <time>2022-03-03T13:57:21Z</time>
      </trkpt>
      <trkpt lat="48.66267" lon="6.36717">
        <ele>254.6</ele>
        <time>2022-03-03T13:57:22Z</time>
      </trkpt>
      <trkpt lat="48.66268" lon="6.36709">
        <ele>254.6</ele>
        <time>2022-03-03T13:57:23Z</time>
      </trkpt>
      <trkpt lat="48.66267" lon="6.36701">
        <ele>254.8</ele>
        <time>2022-03-03T13:57:24Z</time>
      </trkpt>
      <trkpt lat="48.66267" lon="6.36692">
        <ele>254.8</ele>
        <time>2022-03-03T13:57:25Z</time>
      </trkpt>
      <trkpt lat="48.66265" lon="6.36683">
        <ele>254.8</ele>
        <time>2022-03-03T13:57:26Z</time>
      </trkpt>
      <trkpt lat="48.66263" lon="6.36674">
        <ele>255</ele>
        <time>2022-03-03T13:57:27Z</time>
      </trkpt>
      <trkpt lat="48.66261" lon="6.36665">
        <ele>255.2</ele>
        <time>2022-03-03T13:57:28Z</time>
      </trkpt>
      <trkpt lat="48.66251" lon="6.3663">
        <ele>255.6</ele>
        <time>2022-03-03T13:57:32Z</time>
      </trkpt>
      <trkpt lat="48.66243" lon="6.36596">
        <ele>256.2</ele>
        <time>2022-03-03T13:57:36Z</time>
      </trkpt>
      <trkpt lat="48.66235" lon="6.36563">
        <ele>257.2</ele>
        <time>2022-03-03T13:57:40Z</time>
      </trkpt>
      <trkpt lat="48.66228" lon="6.36532">
        <ele>258</ele>
        <time>2022-03-03T13:57:44Z</time>
      </trkpt>
      <trkpt lat="48.66217" lon="6.36498">
        <ele>258.6</ele>
        <time>2022-03-03T13:57:49Z</time>
      </trkpt>
      <trkpt lat="48.66205" lon="6.36469">
        <ele>259.2</ele>
        <time>2022-03-03T13:57:56Z</time>
      </trkpt>
      <trkpt lat="48.66199" lon="6.36462">
        <ele>259.6</ele>
        <time>2022-03-03T13:58:10Z</time>
      </trkpt>
      <trkpt lat="48.66196" lon="6.36469">
        <ele>259.4</ele>
        <time>2022-03-03T13:58:34Z</time>
      </trkpt>
      <trkpt lat="48.66194" lon="6.36465">
        <ele>259.4</ele>
        <time>2022-03-03T13:59:00Z</time>
      </trkpt>
      <trkpt lat="48.66189" lon="6.36458">
        <ele>259.6</ele>
        <time>2022-03-03T13:59:22Z</time>
      </trkpt>
      <trkpt lat="48.6619" lon="6.36458">
        <ele>259.6</ele>
        <time>2022-03-03T13:59:42Z</time>
      </trkpt>
      <trkpt lat="48.66194" lon="6.36463">
        <ele>259.8</ele>
        <time>2022-03-03T14:00:03Z</time>
      </trkpt>
      <trkpt lat="48.66194" lon="6.36464">
        <ele>259.8</ele>
        <time>2022-03-03T14:00:26Z</time>
      </trkpt>
      <trkpt lat="48.66196" lon="6.36463">
        <ele>260</ele>
        <time>2022-03-03T14:00:48Z</time>
      </trkpt>
      <trkpt lat="48.66193" lon="6.36463">
        <ele>260</ele>
        <time>2022-03-03T14:00:52Z</time>
      </trkpt>
      <trkpt lat="48.66192" lon="6.36463">
        <ele>260</ele>
        <time>2022-03-03T14:00:53Z</time>
      </trkpt>
      <trkpt lat="48.66191" lon="6.36464">
        <ele>260.2</ele>
        <time>2022-03-03T14:00:54Z</time>
      </trkpt>
      <trkpt lat="48.66189" lon="6.36465">
        <ele>260.2</ele>
        <time>2022-03-03T14:00:55Z</time>
      </trkpt>
      <trkpt lat="48.66187" lon="6.36468">
        <ele>260.2</ele>
        <time>2022-03-03T14:00:56Z</time>
      </trkpt>
      <trkpt lat="48.66171" lon="6.36492">
        <ele>261</ele>
        <time>2022-03-03T14:01:02Z</time>
      </trkpt>
      <trkpt lat="48.66156" lon="6.36515">
        <ele>261.4</ele>
        <time>2022-03-03T14:01:07Z</time>
      </trkpt>
      <trkpt lat="48.66142" lon="6.36537">
        <ele>261.2</ele>
        <time>2022-03-03T14:01:11Z</time>
      </trkpt>
      <trkpt lat="48.66139" lon="6.36543">
        <ele>261</ele>
        <time>2022-03-03T14:01:12Z</time>
      </trkpt>
      <trkpt lat="48.66126" lon="6.3657">
        <ele>261</ele>
        <time>2022-03-03T14:01:16Z</time>
      </trkpt>
      <trkpt lat="48.66112" lon="6.36597">
        <ele>261.2</ele>
        <time>2022-03-03T14:01:20Z</time>
      </trkpt>
      <trkpt lat="48.66098" lon="6.36623">
        <ele>261.6</ele>
        <time>2022-03-03T14:01:24Z</time>
      </trkpt>
      <trkpt lat="48.66083" lon="6.3665">
        <ele>262</ele>
        <time>2022-03-03T14:01:28Z</time>
      </trkpt>
      <trkpt lat="48.66066" lon="6.36677">
        <ele>263.2</ele>
        <time>2022-03-03T14:01:33Z</time>
      </trkpt>
      <trkpt lat="48.66048" lon="6.36702">
        <ele>264</ele>
        <time>2022-03-03T14:01:38Z</time>
      </trkpt>
      <trkpt lat="48.66036" lon="6.36716">
        <ele>264.4</ele>
        <time>2022-03-03T14:01:41Z</time>
      </trkpt>
      <trkpt lat="48.66032" lon="6.36722">
        <ele>264.6</ele>
        <time>2022-03-03T14:01:42Z</time>
      </trkpt>
      <trkpt lat="48.66014" lon="6.36748">
        <ele>265.8</ele>
        <time>2022-03-03T14:01:47Z</time>
      </trkpt>
      <trkpt lat="48.65995" lon="6.36774">
        <ele>266.8</ele>
        <time>2022-03-03T14:01:52Z</time>
      </trkpt>
      <trkpt lat="48.65975" lon="6.36797">
        <ele>267.4</ele>
        <time>2022-03-03T14:01:57Z</time>
      </trkpt>
      <trkpt lat="48.65956" lon="6.3682">
        <ele>268</ele>
        <time>2022-03-03T14:02:02Z</time>
      </trkpt>
      <trkpt lat="48.65946" lon="6.36834">
        <ele>268.4</ele>
        <time>2022-03-03T14:02:05Z</time>
      </trkpt>
      <trkpt lat="48.65942" lon="6.36839">
        <ele>268.4</ele>
        <time>2022-03-03T14:02:06Z</time>
      </trkpt>
      <trkpt lat="48.65924" lon="6.36862">
        <ele>269</ele>
        <time>2022-03-03T14:02:11Z</time>
      </trkpt>
      <trkpt lat="48.65905" lon="6.36886">
        <ele>269.2</ele>
        <time>2022-03-03T14:02:16Z</time>
      </trkpt>
      <trkpt lat="48.65887" lon="6.36912">
        <ele>269.4</ele>
        <time>2022-03-03T14:02:21Z</time>
      </trkpt>
      <trkpt lat="48.65884" lon="6.36918">
        <ele>269.4</ele>
        <time>2022-03-03T14:02:22Z</time>
      </trkpt>
      <trkpt lat="48.65882" lon="6.36925">
        <ele>269.6</ele>
        <time>2022-03-03T14:02:23Z</time>
      </trkpt>
      <trkpt lat="48.65881" lon="6.36932">
        <ele>269.6</ele>
        <time>2022-03-03T14:02:24Z</time>
      </trkpt>
      <trkpt lat="48.6588" lon="6.3694">
        <ele>269.6</ele>
        <time>2022-03-03T14:02:25Z</time>
      </trkpt>
      <trkpt lat="48.6588" lon="6.36948">
        <ele>269.6</ele>
        <time>2022-03-03T14:02:26Z</time>
      </trkpt>
      <trkpt lat="48.65881" lon="6.36956">
        <ele>269.6</ele>
        <time>2022-03-03T14:02:27Z</time>
      </trkpt>
      <trkpt lat="48.65883" lon="6.3699">
        <ele>269.4</ele>
        <time>2022-03-03T14:02:31Z</time>
      </trkpt>
      <trkpt lat="48.65883" lon="6.36999">
        <ele>269.4</ele>
        <time>2022-03-03T14:02:32Z</time>
      </trkpt>
      <trkpt lat="48.65882" lon="6.37009">
        <ele>269.4</ele>
        <time>2022-03-03T14:02:33Z</time>
      </trkpt>
      <trkpt lat="48.6588" lon="6.37017">
        <ele>269.4</ele>
        <time>2022-03-03T14:02:34Z</time>
      </trkpt>
      <trkpt lat="48.65877" lon="6.37026">
        <ele>269.4</ele>
        <time>2022-03-03T14:02:35Z</time>
      </trkpt>
      <trkpt lat="48.65874" lon="6.37033">
        <ele>269.4</ele>
        <time>2022-03-03T14:02:36Z</time>
      </trkpt>
      <trkpt lat="48.65861" lon="6.37062">
        <ele>269.8</ele>
        <time>2022-03-03T14:02:40Z</time>
      </trkpt>
      <trkpt lat="48.65849" lon="6.37088">
        <ele>270.2</ele>
        <time>2022-03-03T14:02:44Z</time>
      </trkpt>
      <trkpt lat="48.65836" lon="6.37115">
        <ele>270.8</ele>
        <time>2022-03-03T14:02:48Z</time>
      </trkpt>
      <trkpt lat="48.65826" lon="6.37135">
        <ele>271.2</ele>
        <time>2022-03-03T14:02:51Z</time>
      </trkpt>
      <trkpt lat="48.65814" lon="6.37162">
        <ele>272</ele>
        <time>2022-03-03T14:02:55Z</time>
      </trkpt>
      <trkpt lat="48.65799" lon="6.37195">
        <ele>272.6</ele>
        <time>2022-03-03T14:03:00Z</time>
      </trkpt>
      <trkpt lat="48.65785" lon="6.37227">
        <ele>273.2</ele>
        <time>2022-03-03T14:03:05Z</time>
      </trkpt>
      <trkpt lat="48.6577" lon="6.37258">
        <ele>273.6</ele>
        <time>2022-03-03T14:03:10Z</time>
      </trkpt>
      <trkpt lat="48.65752" lon="6.37287">
        <ele>273.8</ele>
        <time>2022-03-03T14:03:15Z</time>
      </trkpt>
      <trkpt lat="48.65736" lon="6.37309">
        <ele>274.2</ele>
        <time>2022-03-03T14:03:19Z</time>
      </trkpt>
      <trkpt lat="48.65718" lon="6.37336">
        <ele>274.6</ele>
        <time>2022-03-03T14:03:24Z</time>
      </trkpt>
      <trkpt lat="48.65703" lon="6.37358">
        <ele>275</ele>
        <time>2022-03-03T14:03:28Z</time>
      </trkpt>
      <trkpt lat="48.65684" lon="6.37385">
        <ele>275.4</ele>
        <time>2022-03-03T14:03:33Z</time>
      </trkpt>
      <trkpt lat="48.65666" lon="6.37413">
        <ele>276.4</ele>
        <time>2022-03-03T14:03:38Z</time>
      </trkpt>
      <trkpt lat="48.65651" lon="6.37435">
        <ele>276.2</ele>
        <time>2022-03-03T14:03:42Z</time>
      </trkpt>
      <trkpt lat="48.65636" lon="6.37461">
        <ele>276.2</ele>
        <time>2022-03-03T14:03:46Z</time>
      </trkpt>
      <trkpt lat="48.65625" lon="6.37491">
        <ele>276.2</ele>
        <time>2022-03-03T14:03:50Z</time>
      </trkpt>
      <trkpt lat="48.65615" lon="6.37525">
        <ele>276</ele>
        <time>2022-03-03T14:03:54Z</time>
      </trkpt>
      <trkpt lat="48.65604" lon="6.37557">
        <ele>275.6</ele>
        <time>2022-03-03T14:03:58Z</time>
      </trkpt>
      <trkpt lat="48.6559" lon="6.37588">
        <ele>275.6</ele>
        <time>2022-03-03T14:04:02Z</time>
      </trkpt>
      <trkpt lat="48.65577" lon="6.37617">
        <ele>275.8</ele>
        <time>2022-03-03T14:04:06Z</time>
      </trkpt>
      <trkpt lat="48.65563" lon="6.37646">
        <ele>276.2</ele>
        <time>2022-03-03T14:04:10Z</time>
      </trkpt>
      <trkpt lat="48.6555" lon="6.37674">
        <ele>276.2</ele>
        <time>2022-03-03T14:04:14Z</time>
      </trkpt>
      <trkpt lat="48.65537" lon="6.377">
        <ele>276.4</ele>
        <time>2022-03-03T14:04:18Z</time>
      </trkpt>
      <trkpt lat="48.65523" lon="6.37732">
        <ele>277</ele>
        <time>2022-03-03T14:04:23Z</time>
      </trkpt>
      <trkpt lat="48.65508" lon="6.37764">
        <ele>277.8</ele>
        <time>2022-03-03T14:04:28Z</time>
      </trkpt>
      <trkpt lat="48.65495" lon="6.37794">
        <ele>278.2</ele>
        <time>2022-03-03T14:04:33Z</time>
      </trkpt>
      <trkpt lat="48.65482" lon="6.37824">
        <ele>278.6</ele>
        <time>2022-03-03T14:04:38Z</time>
      </trkpt>
      <trkpt lat="48.6547" lon="6.37852">
        <ele>279.2</ele>
        <time>2022-03-03T14:04:43Z</time>
      </trkpt>
      <trkpt lat="48.65456" lon="6.37882">
        <ele>279.8</ele>
        <time>2022-03-03T14:04:48Z</time>
      </trkpt>
      <trkpt lat="48.65442" lon="6.37912">
        <ele>280.2</ele>
        <time>2022-03-03T14:04:53Z</time>
      </trkpt>
      <trkpt lat="48.65428" lon="6.37944">
        <ele>280.8</ele>
        <time>2022-03-03T14:04:58Z</time>
      </trkpt>
      <trkpt lat="48.65419" lon="6.37972">
        <ele>281.2</ele>
        <time>2022-03-03T14:05:02Z</time>
      </trkpt>
      <trkpt lat="48.65409" lon="6.38007">
        <ele>281.4</ele>
        <time>2022-03-03T14:05:07Z</time>
      </trkpt>
      <trkpt lat="48.65397" lon="6.38037">
        <ele>282</ele>
        <time>2022-03-03T14:05:12Z</time>
      </trkpt>
      <trkpt lat="48.65383" lon="6.38063">
        <ele>282.8</ele>
        <time>2022-03-03T14:05:18Z</time>
      </trkpt>
      <trkpt lat="48.65369" lon="6.38087">
        <ele>283.6</ele>
        <time>2022-03-03T14:05:24Z</time>
      </trkpt>
      <trkpt lat="48.65351" lon="6.38113">
        <ele>284.4</ele>
        <time>2022-03-03T14:05:30Z</time>
      </trkpt>
      <trkpt lat="48.65332" lon="6.38143">
        <ele>285.2</ele>
        <time>2022-03-03T14:05:36Z</time>
      </trkpt>
      <trkpt lat="48.65316" lon="6.38174">
        <ele>285.8</ele>
        <time>2022-03-03T14:05:42Z</time>
      </trkpt>
      <trkpt lat="48.65295" lon="6.38207">
        <ele>286.6</ele>
        <time>2022-03-03T14:05:48Z</time>
      </trkpt>
      <trkpt lat="48.65275" lon="6.3824">
        <ele>287.8</ele>
        <time>2022-03-03T14:05:55Z</time>
      </trkpt>
      <trkpt lat="48.65254" lon="6.3827">
        <ele>288.2</ele>
        <time>2022-03-03T14:06:01Z</time>
      </trkpt>
      <trkpt lat="48.65229" lon="6.38295">
        <ele>288</ele>
        <time>2022-03-03T14:06:06Z</time>
      </trkpt>
      <trkpt lat="48.65206" lon="6.38325">
        <ele>287.2</ele>
        <time>2022-03-03T14:06:11Z</time>
      </trkpt>
      <trkpt lat="48.65196" lon="6.38346">
        <ele>286.8</ele>
        <time>2022-03-03T14:06:14Z</time>
      </trkpt>
      <trkpt lat="48.65193" lon="6.38354">
        <ele>286.4</ele>
        <time>2022-03-03T14:06:15Z</time>
      </trkpt>
      <trkpt lat="48.6518" lon="6.3838">
        <ele>285.8</ele>
        <time>2022-03-03T14:06:18Z</time>
      </trkpt>
      <trkpt lat="48.65178" lon="6.38389">
        <ele>285.6</ele>
        <time>2022-03-03T14:06:19Z</time>
      </trkpt>
      <trkpt lat="48.65171" lon="6.38411">
        <ele>285</ele>
        <time>2022-03-03T14:06:21Z</time>
      </trkpt>
      <trkpt lat="48.65165" lon="6.38422">
        <ele>284.8</ele>
        <time>2022-03-03T14:06:22Z</time>
      </trkpt>
      <trkpt lat="48.65158" lon="6.38434">
        <ele>284.6</ele>
        <time>2022-03-03T14:06:23Z</time>
      </trkpt>
      <trkpt lat="48.65152" lon="6.38445">
        <ele>284.2</ele>
        <time>2022-03-03T14:06:24Z</time>
      </trkpt>
      <trkpt lat="48.65145" lon="6.38455">
        <ele>284</ele>
        <time>2022-03-03T14:06:25Z</time>
      </trkpt>
      <trkpt lat="48.65138" lon="6.38463">
        <ele>284</ele>
        <time>2022-03-03T14:06:26Z</time>
      </trkpt>
      <trkpt lat="48.65131" lon="6.38471">
        <ele>283.8</ele>
        <time>2022-03-03T14:06:27Z</time>
      </trkpt>
      <trkpt lat="48.65102" lon="6.38501">
        <ele>283.8</ele>
        <time>2022-03-03T14:06:31Z</time>
      </trkpt>
      <trkpt lat="48.65073" lon="6.3853">
        <ele>284.4</ele>
        <time>2022-03-03T14:06:35Z</time>
      </trkpt>
      <trkpt lat="48.65052" lon="6.38549">
        <ele>285.2</ele>
        <time>2022-03-03T14:06:39Z</time>
      </trkpt>
      <trkpt lat="48.65025" lon="6.3857">
        <ele>286.2</ele>
        <time>2022-03-03T14:06:44Z</time>
      </trkpt>
      <trkpt lat="48.64999" lon="6.38591">
        <ele>287.2</ele>
        <time>2022-03-03T14:06:48Z</time>
      </trkpt>
      <trkpt lat="48.64975" lon="6.38612">
        <ele>287.8</ele>
        <time>2022-03-03T14:06:52Z</time>
      </trkpt>
      <trkpt lat="48.6495" lon="6.38633">
        <ele>288</ele>
        <time>2022-03-03T14:06:56Z</time>
      </trkpt>
      <trkpt lat="48.64924" lon="6.38655">
        <ele>288</ele>
        <time>2022-03-03T14:07:00Z</time>
      </trkpt>
      <trkpt lat="48.64897" lon="6.38678">
        <ele>287.6</ele>
        <time>2022-03-03T14:07:04Z</time>
      </trkpt>
      <trkpt lat="48.64876" lon="6.38695">
        <ele>286.8</ele>
        <time>2022-03-03T14:07:07Z</time>
      </trkpt>
      <trkpt lat="48.64854" lon="6.38713">
        <ele>285.6</ele>
        <time>2022-03-03T14:07:10Z</time>
      </trkpt>
      <trkpt lat="48.64827" lon="6.38731">
        <ele>284.2</ele>
        <time>2022-03-03T14:07:13Z</time>
      </trkpt>
      <trkpt lat="48.648" lon="6.38747">
        <ele>282</ele>
        <time>2022-03-03T14:07:16Z</time>
      </trkpt>
      <trkpt lat="48.64771" lon="6.38763">
        <ele>280</ele>
        <time>2022-03-03T14:07:19Z</time>
      </trkpt>
      <trkpt lat="48.64762" lon="6.3877">
        <ele>279.6</ele>
        <time>2022-03-03T14:07:20Z</time>
      </trkpt>
      <trkpt lat="48.64755" lon="6.38779">
        <ele>279.4</ele>
        <time>2022-03-03T14:07:21Z</time>
      </trkpt>
      <trkpt lat="48.64747" lon="6.38788">
        <ele>279.2</ele>
        <time>2022-03-03T14:07:22Z</time>
      </trkpt>
      <trkpt lat="48.64741" lon="6.38798">
        <ele>279</ele>
        <time>2022-03-03T14:07:23Z</time>
      </trkpt>
      <trkpt lat="48.64736" lon="6.38809">
        <ele>279</ele>
        <time>2022-03-03T14:07:24Z</time>
      </trkpt>
      <trkpt lat="48.64732" lon="6.3882">
        <ele>279</ele>
        <time>2022-03-03T14:07:25Z</time>
      </trkpt>
      <trkpt lat="48.64727" lon="6.38831">
        <ele>278.8</ele>
        <time>2022-03-03T14:07:26Z</time>
      </trkpt>
      <trkpt lat="48.64717" lon="6.38864">
        <ele>278.2</ele>
        <time>2022-03-03T14:07:29Z</time>
      </trkpt>
      <trkpt lat="48.64707" lon="6.38896">
        <ele>277.8</ele>
        <time>2022-03-03T14:07:32Z</time>
      </trkpt>
      <trkpt lat="48.64697" lon="6.38931">
        <ele>276.8</ele>
        <time>2022-03-03T14:07:35Z</time>
      </trkpt>
      <trkpt lat="48.64687" lon="6.38969">
        <ele>275.6</ele>
        <time>2022-03-03T14:07:38Z</time>
      </trkpt>
      <trkpt lat="48.64678" lon="6.39009">
        <ele>274.4</ele>
        <time>2022-03-03T14:07:41Z</time>
      </trkpt>
      <trkpt lat="48.64669" lon="6.39048">
        <ele>273.8</ele>
        <time>2022-03-03T14:07:44Z</time>
      </trkpt>
      <trkpt lat="48.64663" lon="6.39086">
        <ele>273.8</ele>
        <time>2022-03-03T14:07:47Z</time>
      </trkpt>
      <trkpt lat="48.64656" lon="6.39122">
        <ele>273.8</ele>
        <time>2022-03-03T14:07:50Z</time>
      </trkpt>
      <trkpt lat="48.64648" lon="6.39156">
        <ele>273.6</ele>
        <time>2022-03-03T14:07:53Z</time>
      </trkpt>
      <trkpt lat="48.64638" lon="6.39189">
        <ele>273.2</ele>
        <time>2022-03-03T14:07:56Z</time>
      </trkpt>
      <trkpt lat="48.64625" lon="6.39219">
        <ele>272.8</ele>
        <time>2022-03-03T14:07:59Z</time>
      </trkpt>
      <trkpt lat="48.64611" lon="6.39247">
        <ele>271.6</ele>
        <time>2022-03-03T14:08:02Z</time>
      </trkpt>
      <trkpt lat="48.64594" lon="6.39274">
        <ele>271.2</ele>
        <time>2022-03-03T14:08:05Z</time>
      </trkpt>
      <trkpt lat="48.64583" lon="6.3929">
        <ele>270.2</ele>
        <time>2022-03-03T14:08:07Z</time>
      </trkpt>
      <trkpt lat="48.64576" lon="6.39296">
        <ele>269.8</ele>
        <time>2022-03-03T14:08:08Z</time>
      </trkpt>
      <trkpt lat="48.64556" lon="6.39317">
        <ele>268.6</ele>
        <time>2022-03-03T14:08:11Z</time>
      </trkpt>
      <trkpt lat="48.64532" lon="6.39338">
        <ele>267.6</ele>
        <time>2022-03-03T14:08:14Z</time>
      </trkpt>
      <trkpt lat="48.64517" lon="6.39355">
        <ele>266.6</ele>
        <time>2022-03-03T14:08:16Z</time>
      </trkpt>
      <trkpt lat="48.64511" lon="6.39365">
        <ele>265.8</ele>
        <time>2022-03-03T14:08:17Z</time>
      </trkpt>
      <trkpt lat="48.64505" lon="6.39377">
        <ele>265.2</ele>
        <time>2022-03-03T14:08:18Z</time>
      </trkpt>
      <trkpt lat="48.645" lon="6.39391">
        <ele>264.6</ele>
        <time>2022-03-03T14:08:19Z</time>
      </trkpt>
      <trkpt lat="48.64496" lon="6.39406">
        <ele>263.8</ele>
        <time>2022-03-03T14:08:20Z</time>
      </trkpt>
      <trkpt lat="48.64495" lon="6.39421">
        <ele>263</ele>
        <time>2022-03-03T14:08:21Z</time>
      </trkpt>
      <trkpt lat="48.64494" lon="6.39439">
        <ele>262.2</ele>
        <time>2022-03-03T14:08:22Z</time>
      </trkpt>
      <trkpt lat="48.6449" lon="6.39491">
        <ele>259</ele>
        <time>2022-03-03T14:08:25Z</time>
      </trkpt>
      <trkpt lat="48.64489" lon="6.39545">
        <ele>256</ele>
        <time>2022-03-03T14:08:28Z</time>
      </trkpt>
      <trkpt lat="48.64487" lon="6.39597">
        <ele>253.4</ele>
        <time>2022-03-03T14:08:31Z</time>
      </trkpt>
      <trkpt lat="48.64485" lon="6.39652">
        <ele>250.8</ele>
        <time>2022-03-03T14:08:34Z</time>
      </trkpt>
      <trkpt lat="48.64483" lon="6.39691">
        <ele>248.4</ele>
        <time>2022-03-03T14:08:36Z</time>
      </trkpt>
      <trkpt lat="48.64481" lon="6.39729">
        <ele>245.8</ele>
        <time>2022-03-03T14:08:38Z</time>
      </trkpt>
      <trkpt lat="48.64479" lon="6.39749">
        <ele>244.4</ele>
        <time>2022-03-03T14:08:39Z</time>
      </trkpt>
      <trkpt lat="48.64475" lon="6.39768">
        <ele>243.8</ele>
        <time>2022-03-03T14:08:40Z</time>
      </trkpt>
      <trkpt lat="48.6447" lon="6.39785">
        <ele>242.6</ele>
        <time>2022-03-03T14:08:41Z</time>
      </trkpt>
      <trkpt lat="48.64464" lon="6.39801">
        <ele>241.6</ele>
        <time>2022-03-03T14:08:42Z</time>
      </trkpt>
      <trkpt lat="48.64456" lon="6.39818">
        <ele>241.2</ele>
        <time>2022-03-03T14:08:43Z</time>
      </trkpt>
      <trkpt lat="48.64448" lon="6.39834">
        <ele>240.6</ele>
        <time>2022-03-03T14:08:44Z</time>
      </trkpt>
      <trkpt lat="48.64424" lon="6.39877">
        <ele>239.6</ele>
        <time>2022-03-03T14:08:47Z</time>
      </trkpt>
      <trkpt lat="48.64404" lon="6.39918">
        <ele>238.2</ele>
        <time>2022-03-03T14:08:50Z</time>
      </trkpt>
      <trkpt lat="48.64383" lon="6.39955">
        <ele>237</ele>
        <time>2022-03-03T14:08:53Z</time>
      </trkpt>
      <trkpt lat="48.64362" lon="6.3999">
        <ele>235.8</ele>
        <time>2022-03-03T14:08:56Z</time>
      </trkpt>
      <trkpt lat="48.64342" lon="6.40023">
        <ele>235</ele>
        <time>2022-03-03T14:08:59Z</time>
      </trkpt>
      <trkpt lat="48.64326" lon="6.40058">
        <ele>234</ele>
        <time>2022-03-03T14:09:02Z</time>
      </trkpt>
      <trkpt lat="48.64312" lon="6.40093">
        <ele>233.6</ele>
        <time>2022-03-03T14:09:05Z</time>
      </trkpt>
      <trkpt lat="48.64295" lon="6.40124">
        <ele>232.8</ele>
        <time>2022-03-03T14:09:08Z</time>
      </trkpt>
      <trkpt lat="48.64289" lon="6.40134">
        <ele>232.8</ele>
        <time>2022-03-03T14:09:09Z</time>
      </trkpt>
      <trkpt lat="48.64269" lon="6.40157">
        <ele>233.4</ele>
        <time>2022-03-03T14:09:12Z</time>
      </trkpt>
      <trkpt lat="48.64249" lon="6.40176">
        <ele>233.6</ele>
        <time>2022-03-03T14:09:15Z</time>
      </trkpt>
      <trkpt lat="48.64229" lon="6.40193">
        <ele>233.8</ele>
        <time>2022-03-03T14:09:18Z</time>
      </trkpt>
      <trkpt lat="48.6421" lon="6.40211">
        <ele>233.8</ele>
        <time>2022-03-03T14:09:21Z</time>
      </trkpt>
      <trkpt lat="48.64185" lon="6.40237">
        <ele>233.2</ele>
        <time>2022-03-03T14:09:25Z</time>
      </trkpt>
      <trkpt lat="48.64168" lon="6.4026">
        <ele>232.2</ele>
        <time>2022-03-03T14:09:28Z</time>
      </trkpt>
      <trkpt lat="48.64149" lon="6.40286">
        <ele>231</ele>
        <time>2022-03-03T14:09:31Z</time>
      </trkpt>
      <trkpt lat="48.64134" lon="6.40314">
        <ele>230.2</ele>
        <time>2022-03-03T14:09:34Z</time>
      </trkpt>
      <trkpt lat="48.64125" lon="6.40334">
        <ele>229.6</ele>
        <time>2022-03-03T14:09:36Z</time>
      </trkpt>
      <trkpt lat="48.64115" lon="6.40367">
        <ele>229</ele>
        <time>2022-03-03T14:09:39Z</time>
      </trkpt>
      <trkpt lat="48.64109" lon="6.40386">
        <ele>228.6</ele>
        <time>2022-03-03T14:09:41Z</time>
      </trkpt>
      <trkpt lat="48.64105" lon="6.40393">
        <ele>228.2</ele>
        <time>2022-03-03T14:09:42Z</time>
      </trkpt>
      <trkpt lat="48.64099" lon="6.40399">
        <ele>228</ele>
        <time>2022-03-03T14:09:43Z</time>
      </trkpt>
      <trkpt lat="48.64094" lon="6.40402">
        <ele>227.6</ele>
        <time>2022-03-03T14:09:44Z</time>
      </trkpt>
      <trkpt lat="48.64087" lon="6.40404">
        <ele>227.4</ele>
        <time>2022-03-03T14:09:45Z</time>
      </trkpt>
      <trkpt lat="48.64081" lon="6.40403">
        <ele>227</ele>
        <time>2022-03-03T14:09:46Z</time>
      </trkpt>
      <trkpt lat="48.64074" lon="6.40402">
        <ele>226.8</ele>
        <time>2022-03-03T14:09:47Z</time>
      </trkpt>
      <trkpt lat="48.64047" lon="6.40399">
        <ele>225.8</ele>
        <time>2022-03-03T14:09:51Z</time>
      </trkpt>
      <trkpt lat="48.6404" lon="6.40402">
        <ele>225.6</ele>
        <time>2022-03-03T14:09:52Z</time>
      </trkpt>
      <trkpt lat="48.64033" lon="6.40408">
        <ele>225.4</ele>
        <time>2022-03-03T14:09:53Z</time>
      </trkpt>
      <trkpt lat="48.64029" lon="6.40417">
        <ele>225.2</ele>
        <time>2022-03-03T14:09:54Z</time>
      </trkpt>
      <trkpt lat="48.64025" lon="6.40428">
        <ele>224.6</ele>
        <time>2022-03-03T14:09:55Z</time>
      </trkpt>
      <trkpt lat="48.6402" lon="6.40439">
        <ele>224</ele>
        <time>2022-03-03T14:09:56Z</time>
      </trkpt>
      <trkpt lat="48.64012" lon="6.40459">
        <ele>223.6</ele>
        <time>2022-03-03T14:09:58Z</time>
      </trkpt>
      <trkpt lat="48.64006" lon="6.40468">
        <ele>223.8</ele>
        <time>2022-03-03T14:09:59Z</time>
      </trkpt>
      <trkpt lat="48.63991" lon="6.40496">
        <ele>224.2</ele>
        <time>2022-03-03T14:10:03Z</time>
      </trkpt>
      <trkpt lat="48.63974" lon="6.40522">
        <ele>225.4</ele>
        <time>2022-03-03T14:10:08Z</time>
      </trkpt>
      <trkpt lat="48.63966" lon="6.40532">
        <ele>225.4</ele>
        <time>2022-03-03T14:10:10Z</time>
      </trkpt>
      <trkpt lat="48.63962" lon="6.40537">
        <ele>225.6</ele>
        <time>2022-03-03T14:10:11Z</time>
      </trkpt>
      <trkpt lat="48.63957" lon="6.40539">
        <ele>225.8</ele>
        <time>2022-03-03T14:10:12Z</time>
      </trkpt>
      <trkpt lat="48.63952" lon="6.4054">
        <ele>225.8</ele>
        <time>2022-03-03T14:10:13Z</time>
      </trkpt>
      <trkpt lat="48.63946" lon="6.40539">
        <ele>225.8</ele>
        <time>2022-03-03T14:10:14Z</time>
      </trkpt>
      <trkpt lat="48.63941" lon="6.40537">
        <ele>226</ele>
        <time>2022-03-03T14:10:15Z</time>
      </trkpt>
      <trkpt lat="48.63928" lon="6.40532">
        <ele>226.4</ele>
        <time>2022-03-03T14:10:18Z</time>
      </trkpt>
      <trkpt lat="48.63923" lon="6.40529">
        <ele>226.6</ele>
        <time>2022-03-03T14:10:19Z</time>
      </trkpt>
      <trkpt lat="48.63918" lon="6.40525">
        <ele>226.8</ele>
        <time>2022-03-03T14:10:20Z</time>
      </trkpt>
      <trkpt lat="48.63914" lon="6.4052">
        <ele>227</ele>
        <time>2022-03-03T14:10:21Z</time>
      </trkpt>
      <trkpt lat="48.6391" lon="6.40515">
        <ele>227.2</ele>
        <time>2022-03-03T14:10:22Z</time>
      </trkpt>
      <trkpt lat="48.63906" lon="6.40509">
        <ele>227.2</ele>
        <time>2022-03-03T14:10:23Z</time>
      </trkpt>
      <trkpt lat="48.63902" lon="6.40503">
        <ele>227.4</ele>
        <time>2022-03-03T14:10:24Z</time>
      </trkpt>
      <trkpt lat="48.63899" lon="6.40497">
        <ele>227.4</ele>
        <time>2022-03-03T14:10:25Z</time>
      </trkpt>
      <trkpt lat="48.63882" lon="6.40469">
        <ele>228.2</ele>
        <time>2022-03-03T14:10:30Z</time>
      </trkpt>
      <trkpt lat="48.63871" lon="6.40454">
        <ele>228.2</ele>
        <time>2022-03-03T14:10:33Z</time>
      </trkpt>
      <trkpt lat="48.63854" lon="6.40433">
        <ele>228</ele>
        <time>2022-03-03T14:10:37Z</time>
      </trkpt>
      <trkpt lat="48.63835" lon="6.40411">
        <ele>226.4</ele>
        <time>2022-03-03T14:10:41Z</time>
      </trkpt>
      <trkpt lat="48.6383" lon="6.40407">
        <ele>226</ele>
        <time>2022-03-03T14:10:42Z</time>
      </trkpt>
      <trkpt lat="48.63825" lon="6.40404">
        <ele>225.4</ele>
        <time>2022-03-03T14:10:43Z</time>
      </trkpt>
      <trkpt lat="48.6382" lon="6.40403">
        <ele>224.8</ele>
        <time>2022-03-03T14:10:44Z</time>
      </trkpt>
      <trkpt lat="48.63815" lon="6.40402">
        <ele>224.4</ele>
        <time>2022-03-03T14:10:45Z</time>
      </trkpt>
      <trkpt lat="48.63811" lon="6.40403">
        <ele>224.2</ele>
        <time>2022-03-03T14:10:46Z</time>
      </trkpt>
      <trkpt lat="48.63806" lon="6.40405">
        <ele>224</ele>
        <time>2022-03-03T14:10:47Z</time>
      </trkpt>
      <trkpt lat="48.63802" lon="6.40409">
        <ele>224</ele>
        <time>2022-03-03T14:10:48Z</time>
      </trkpt>
      <trkpt lat="48.63798" lon="6.40412">
        <ele>224</ele>
        <time>2022-03-03T14:10:49Z</time>
      </trkpt>
      <trkpt lat="48.63777" lon="6.40426">
        <ele>224</ele>
        <time>2022-03-03T14:10:53Z</time>
      </trkpt>
      <trkpt lat="48.63756" lon="6.40439">
        <ele>224</ele>
        <time>2022-03-03T14:10:57Z</time>
      </trkpt>
      <trkpt lat="48.63731" lon="6.40454">
        <ele>223.2</ele>
        <time>2022-03-03T14:11:01Z</time>
      </trkpt>
      <trkpt lat="48.63703" lon="6.40471">
        <ele>222.8</ele>
        <time>2022-03-03T14:11:05Z</time>
      </trkpt>
      <trkpt lat="48.63682" lon="6.40485">
        <ele>222.4</ele>
        <time>2022-03-03T14:11:08Z</time>
      </trkpt>
      <trkpt lat="48.63661" lon="6.40501">
        <ele>221.4</ele>
        <time>2022-03-03T14:11:11Z</time>
      </trkpt>
      <trkpt lat="48.63638" lon="6.4052">
        <ele>220</ele>
        <time>2022-03-03T14:11:14Z</time>
      </trkpt>
      <trkpt lat="48.63615" lon="6.40539">
        <ele>219</ele>
        <time>2022-03-03T14:11:17Z</time>
      </trkpt>
      <trkpt lat="48.63594" lon="6.40559">
        <ele>218.4</ele>
        <time>2022-03-03T14:11:20Z</time>
      </trkpt>
      <trkpt lat="48.63575" lon="6.40578">
        <ele>218</ele>
        <time>2022-03-03T14:11:23Z</time>
      </trkpt>
      <trkpt lat="48.63553" lon="6.40601">
        <ele>218</ele>
        <time>2022-03-03T14:11:27Z</time>
      </trkpt>
      <trkpt lat="48.63531" lon="6.40624">
        <ele>218.2</ele>
        <time>2022-03-03T14:11:31Z</time>
      </trkpt>
      <trkpt lat="48.63516" lon="6.40642">
        <ele>218.2</ele>
        <time>2022-03-03T14:11:34Z</time>
      </trkpt>
      <trkpt lat="48.63512" lon="6.40649">
        <ele>218.4</ele>
        <time>2022-03-03T14:11:35Z</time>
      </trkpt>
      <trkpt lat="48.63508" lon="6.40657">
        <ele>218.4</ele>
        <time>2022-03-03T14:11:36Z</time>
      </trkpt>
      <trkpt lat="48.63505" lon="6.40665">
        <ele>218.6</ele>
        <time>2022-03-03T14:11:37Z</time>
      </trkpt>
      <trkpt lat="48.63503" lon="6.40674">
        <ele>218.6</ele>
        <time>2022-03-03T14:11:38Z</time>
      </trkpt>
      <trkpt lat="48.63502" lon="6.40684">
        <ele>218.6</ele>
        <time>2022-03-03T14:11:39Z</time>
      </trkpt>
      <trkpt lat="48.63501" lon="6.40693">
        <ele>218.6</ele>
        <time>2022-03-03T14:11:40Z</time>
      </trkpt>
      <trkpt lat="48.63496" lon="6.40731">
        <ele>218.6</ele>
        <time>2022-03-03T14:11:44Z</time>
      </trkpt>
      <trkpt lat="48.63492" lon="6.4075">
        <ele>218.6</ele>
        <time>2022-03-03T14:11:46Z</time>
      </trkpt>
      <trkpt lat="48.6349" lon="6.40759">
        <ele>218.8</ele>
        <time>2022-03-03T14:11:47Z</time>
      </trkpt>
      <trkpt lat="48.63486" lon="6.40768">
        <ele>218.8</ele>
        <time>2022-03-03T14:11:48Z</time>
      </trkpt>
      <trkpt lat="48.63483" lon="6.40776">
        <ele>219</ele>
        <time>2022-03-03T14:11:49Z</time>
      </trkpt>
      <trkpt lat="48.63479" lon="6.40783">
        <ele>219</ele>
        <time>2022-03-03T14:11:50Z</time>
      </trkpt>
      <trkpt lat="48.63475" lon="6.40789">
        <ele>219.2</ele>
        <time>2022-03-03T14:11:51Z</time>
      </trkpt>
      <trkpt lat="48.63471" lon="6.40795">
        <ele>219.4</ele>
        <time>2022-03-03T14:11:52Z</time>
      </trkpt>
      <trkpt lat="48.63466" lon="6.40801">
        <ele>219.4</ele>
        <time>2022-03-03T14:11:53Z</time>
      </trkpt>
      <trkpt lat="48.63444" lon="6.40822">
        <ele>220.6</ele>
        <time>2022-03-03T14:11:58Z</time>
      </trkpt>
      <trkpt lat="48.6344" lon="6.40824">
        <ele>220.8</ele>
        <time>2022-03-03T14:11:59Z</time>
      </trkpt>
      <trkpt lat="48.63419" lon="6.40832">
        <ele>222.4</ele>
        <time>2022-03-03T14:12:04Z</time>
      </trkpt>
      <trkpt lat="48.63398" lon="6.40837">
        <ele>223.4</ele>
        <time>2022-03-03T14:12:09Z</time>
      </trkpt>
      <trkpt lat="48.63376" lon="6.40844">
        <ele>224.2</ele>
        <time>2022-03-03T14:12:15Z</time>
      </trkpt>
      <trkpt lat="48.63351" lon="6.40852">
        <ele>225.6</ele>
        <time>2022-03-03T14:12:21Z</time>
      </trkpt>
      <trkpt lat="48.63327" lon="6.4086">
        <ele>227</ele>
        <time>2022-03-03T14:12:27Z</time>
      </trkpt>
      <trkpt lat="48.63315" lon="6.40864">
        <ele>227.8</ele>
        <time>2022-03-03T14:12:30Z</time>
      </trkpt>
      <trkpt lat="48.63311" lon="6.40865">
        <ele>228</ele>
        <time>2022-03-03T14:12:31Z</time>
      </trkpt>
      <trkpt lat="48.63287" lon="6.40872">
        <ele>229.2</ele>
        <time>2022-03-03T14:12:37Z</time>
      </trkpt>
      <trkpt lat="48.6327" lon="6.40889">
        <ele>230.2</ele>
        <time>2022-03-03T14:12:43Z</time>
      </trkpt>
      <trkpt lat="48.63257" lon="6.40905">
        <ele>230.2</ele>
        <time>2022-03-03T14:12:48Z</time>
      </trkpt>
      <trkpt lat="48.6326" lon="6.40904">
        <ele>230</ele>
        <time>2022-03-03T14:12:50Z</time>
      </trkpt>
      <trkpt lat="48.63261" lon="6.40903">
        <ele>229.8</ele>
        <time>2022-03-03T14:12:51Z</time>
      </trkpt>
      <trkpt lat="48.63262" lon="6.409">
        <ele>229.8</ele>
        <time>2022-03-03T14:12:52Z</time>
      </trkpt>
      <trkpt lat="48.63261" lon="6.40899">
        <ele>229.8</ele>
        <time>2022-03-03T14:12:53Z</time>
      </trkpt>
      <trkpt lat="48.6326" lon="6.40899">
        <ele>229.8</ele>
        <time>2022-03-03T14:12:54Z</time>
      </trkpt>
      <trkpt lat="48.63259" lon="6.40901">
        <ele>230</ele>
        <time>2022-03-03T14:12:55Z</time>
      </trkpt>
      <trkpt lat="48.63258" lon="6.40902">
        <ele>230</ele>
        <time>2022-03-03T14:12:56Z</time>
      </trkpt>
      <trkpt lat="48.63257" lon="6.40904">
        <ele>230</ele>
        <time>2022-03-03T14:12:57Z</time>
      </trkpt>
      <trkpt lat="48.63256" lon="6.40904">
        <ele>230</ele>
        <time>2022-03-03T14:12:58Z</time>
      </trkpt>
      <trkpt lat="48.63255" lon="6.40905">
        <ele>230</ele>
        <time>2022-03-03T14:12:59Z</time>
      </trkpt>
      <trkpt lat="48.63254" lon="6.40906">
        <ele>230</ele>
        <time>2022-03-03T14:13:00Z</time>
      </trkpt>
      <trkpt lat="48.6325" lon="6.40912">
        <ele>230</ele>
        <time>2022-03-03T14:13:45Z</time>
      </trkpt>
      <trkpt lat="48.63248" lon="6.40913">
        <ele>230.2</ele>
        <time>2022-03-03T14:13:46Z</time>
      </trkpt>
      <trkpt lat="48.63247" lon="6.40916">
        <ele>230.2</ele>
        <time>2022-03-03T14:13:47Z</time>
      </trkpt>
      <trkpt lat="48.63245" lon="6.40919">
        <ele>230.4</ele>
        <time>2022-03-03T14:13:48Z</time>
      </trkpt>
      <trkpt lat="48.63242" lon="6.40922">
        <ele>230.4</ele>
        <time>2022-03-03T14:13:49Z</time>
      </trkpt>
      <trkpt lat="48.63238" lon="6.40925">
        <ele>230.6</ele>
        <time>2022-03-03T14:13:50Z</time>
      </trkpt>
      <trkpt lat="48.63235" lon="6.40929">
        <ele>230.8</ele>
        <time>2022-03-03T14:13:51Z</time>
      </trkpt>
      <trkpt lat="48.63231" lon="6.40933">
        <ele>231</ele>
        <time>2022-03-03T14:13:52Z</time>
      </trkpt>
      <trkpt lat="48.63213" lon="6.40954">
        <ele>231.2</ele>
        <time>2022-03-03T14:13:57Z</time>
      </trkpt>
      <trkpt lat="48.63194" lon="6.40977">
        <ele>231.2</ele>
        <time>2022-03-03T14:14:02Z</time>
      </trkpt>
      <trkpt lat="48.63175" lon="6.40999">
        <ele>231.6</ele>
        <time>2022-03-03T14:14:07Z</time>
      </trkpt>
      <trkpt lat="48.63155" lon="6.41022">
        <ele>232</ele>
        <time>2022-03-03T14:14:12Z</time>
      </trkpt>
      <trkpt lat="48.63137" lon="6.41044">
        <ele>232.4</ele>
        <time>2022-03-03T14:14:17Z</time>
      </trkpt>
      <trkpt lat="48.63121" lon="6.41063">
        <ele>232.6</ele>
        <time>2022-03-03T14:14:22Z</time>
      </trkpt>
      <trkpt lat="48.63118" lon="6.41067">
        <ele>232.6</ele>
        <time>2022-03-03T14:14:23Z</time>
      </trkpt>
      <trkpt lat="48.63114" lon="6.41072">
        <ele>232.8</ele>
        <time>2022-03-03T14:14:24Z</time>
      </trkpt>
      <trkpt lat="48.63111" lon="6.41076">
        <ele>232.8</ele>
        <time>2022-03-03T14:14:25Z</time>
      </trkpt>
      <trkpt lat="48.63107" lon="6.4108">
        <ele>232.8</ele>
        <time>2022-03-03T14:14:26Z</time>
      </trkpt>
      <trkpt lat="48.63103" lon="6.41084">
        <ele>232.8</ele>
        <time>2022-03-03T14:14:27Z</time>
      </trkpt>
      <trkpt lat="48.63083" lon="6.41106">
        <ele>233</ele>
        <time>2022-03-03T14:14:32Z</time>
      </trkpt>
      <trkpt lat="48.63063" lon="6.41127">
        <ele>233.4</ele>
        <time>2022-03-03T14:14:37Z</time>
      </trkpt>
      <trkpt lat="48.63042" lon="6.41148">
        <ele>233.4</ele>
        <time>2022-03-03T14:14:42Z</time>
      </trkpt>
      <trkpt lat="48.63023" lon="6.41165">
        <ele>233.8</ele>
        <time>2022-03-03T14:14:46Z</time>
      </trkpt>
      <trkpt lat="48.63005" lon="6.41182">
        <ele>234.2</ele>
        <time>2022-03-03T14:14:50Z</time>
      </trkpt>
      <trkpt lat="48.62984" lon="6.41202">
        <ele>234.6</ele>
        <time>2022-03-03T14:14:55Z</time>
      </trkpt>
      <trkpt lat="48.62963" lon="6.41222">
        <ele>235.2</ele>
        <time>2022-03-03T14:15:00Z</time>
      </trkpt>
      <trkpt lat="48.62943" lon="6.41241">
        <ele>236.2</ele>
        <time>2022-03-03T14:15:05Z</time>
      </trkpt>
      <trkpt lat="48.62922" lon="6.41261">
        <ele>237.4</ele>
        <time>2022-03-03T14:15:10Z</time>
      </trkpt>
      <trkpt lat="48.62905" lon="6.41278">
        <ele>238</ele>
        <time>2022-03-03T14:15:15Z</time>
      </trkpt>
      <trkpt lat="48.62885" lon="6.41295">
        <ele>239.2</ele>
        <time>2022-03-03T14:15:21Z</time>
      </trkpt>
      <trkpt lat="48.62868" lon="6.41313">
        <ele>240.2</ele>
        <time>2022-03-03T14:15:27Z</time>
      </trkpt>
      <trkpt lat="48.6285" lon="6.4133">
        <ele>241</ele>
        <time>2022-03-03T14:15:33Z</time>
      </trkpt>
      <trkpt lat="48.62832" lon="6.41347">
        <ele>242.2</ele>
        <time>2022-03-03T14:15:39Z</time>
      </trkpt>
      <trkpt lat="48.62814" lon="6.41364">
        <ele>243</ele>
        <time>2022-03-03T14:15:45Z</time>
      </trkpt>
      <trkpt lat="48.62795" lon="6.41381">
        <ele>243.6</ele>
        <time>2022-03-03T14:15:51Z</time>
      </trkpt>
      <trkpt lat="48.62775" lon="6.41401">
        <ele>244</ele>
        <time>2022-03-03T14:15:57Z</time>
      </trkpt>
      <trkpt lat="48.62756" lon="6.41418">
        <ele>244.4</ele>
        <time>2022-03-03T14:16:02Z</time>
      </trkpt>
      <trkpt lat="48.62736" lon="6.41437">
        <ele>245</ele>
        <time>2022-03-03T14:16:07Z</time>
      </trkpt>
      <trkpt lat="48.62717" lon="6.41454">
        <ele>245.2</ele>
        <time>2022-03-03T14:16:12Z</time>
      </trkpt>
      <trkpt lat="48.62698" lon="6.41472">
        <ele>245.6</ele>
        <time>2022-03-03T14:16:18Z</time>
      </trkpt>
      <trkpt lat="48.62677" lon="6.4149">
        <ele>246.6</ele>
        <time>2022-03-03T14:16:24Z</time>
      </trkpt>
      <trkpt lat="48.62659" lon="6.41507">
        <ele>246.8</ele>
        <time>2022-03-03T14:16:29Z</time>
      </trkpt>
      <trkpt lat="48.62643" lon="6.41526">
        <ele>247.2</ele>
        <time>2022-03-03T14:16:34Z</time>
      </trkpt>
      <trkpt lat="48.62626" lon="6.41545">
        <ele>247.8</ele>
        <time>2022-03-03T14:16:39Z</time>
      </trkpt>
      <trkpt lat="48.62608" lon="6.41566">
        <ele>248.4</ele>
        <time>2022-03-03T14:16:44Z</time>
      </trkpt>
      <trkpt lat="48.6259" lon="6.41587">
        <ele>249</ele>
        <time>2022-03-03T14:16:49Z</time>
      </trkpt>
      <trkpt lat="48.62572" lon="6.41609">
        <ele>249.6</ele>
        <time>2022-03-03T14:16:54Z</time>
      </trkpt>
      <trkpt lat="48.62555" lon="6.4163">
        <ele>250</ele>
        <time>2022-03-03T14:16:59Z</time>
      </trkpt>
      <trkpt lat="48.62539" lon="6.41651">
        <ele>251</ele>
        <time>2022-03-03T14:17:04Z</time>
      </trkpt>
      <trkpt lat="48.62523" lon="6.41673">
        <ele>251.8</ele>
        <time>2022-03-03T14:17:09Z</time>
      </trkpt>
      <trkpt lat="48.62507" lon="6.41696">
        <ele>252.6</ele>
        <time>2022-03-03T14:17:14Z</time>
      </trkpt>
      <trkpt lat="48.62493" lon="6.41718">
        <ele>253.4</ele>
        <time>2022-03-03T14:17:19Z</time>
      </trkpt>
      <trkpt lat="48.62479" lon="6.41742">
        <ele>254.6</ele>
        <time>2022-03-03T14:17:25Z</time>
      </trkpt>
      <trkpt lat="48.62464" lon="6.41766">
        <ele>256</ele>
        <time>2022-03-03T14:17:31Z</time>
      </trkpt>
      <trkpt lat="48.62449" lon="6.41789">
        <ele>257</ele>
        <time>2022-03-03T14:17:37Z</time>
      </trkpt>
      <trkpt lat="48.62435" lon="6.41812">
        <ele>258</ele>
        <time>2022-03-03T14:17:42Z</time>
      </trkpt>
      <trkpt lat="48.62419" lon="6.41834">
        <ele>259.2</ele>
        <time>2022-03-03T14:17:48Z</time>
      </trkpt>
      <trkpt lat="48.62403" lon="6.4185">
        <ele>260.2</ele>
        <time>2022-03-03T14:17:54Z</time>
      </trkpt>
      <trkpt lat="48.62385" lon="6.41862">
        <ele>261.2</ele>
        <time>2022-03-03T14:18:00Z</time>
      </trkpt>
      <trkpt lat="48.62365" lon="6.41872">
        <ele>262.4</ele>
        <time>2022-03-03T14:18:06Z</time>
      </trkpt>
      <trkpt lat="48.62344" lon="6.4188">
        <ele>263.6</ele>
        <time>2022-03-03T14:18:12Z</time>
      </trkpt>
      <trkpt lat="48.62322" lon="6.41889">
        <ele>265</ele>
        <time>2022-03-03T14:18:18Z</time>
      </trkpt>
      <trkpt lat="48.623" lon="6.41897">
        <ele>266.2</ele>
        <time>2022-03-03T14:18:24Z</time>
      </trkpt>
      <trkpt lat="48.62278" lon="6.41908">
        <ele>267.4</ele>
        <time>2022-03-03T14:18:30Z</time>
      </trkpt>
      <trkpt lat="48.62258" lon="6.41924">
        <ele>269</ele>
        <time>2022-03-03T14:18:36Z</time>
      </trkpt>
      <trkpt lat="48.62239" lon="6.41943">
        <ele>270.2</ele>
        <time>2022-03-03T14:18:42Z</time>
      </trkpt>
      <trkpt lat="48.62221" lon="6.41967">
        <ele>271.6</ele>
        <time>2022-03-03T14:18:48Z</time>
      </trkpt>
      <trkpt lat="48.62203" lon="6.41992">
        <ele>273.2</ele>
        <time>2022-03-03T14:18:54Z</time>
      </trkpt>
      <trkpt lat="48.62183" lon="6.42016">
        <ele>274.4</ele>
        <time>2022-03-03T14:19:00Z</time>
      </trkpt>
      <trkpt lat="48.62165" lon="6.42041">
        <ele>276</ele>
        <time>2022-03-03T14:19:06Z</time>
      </trkpt>
      <trkpt lat="48.62148" lon="6.42067">
        <ele>277.4</ele>
        <time>2022-03-03T14:19:12Z</time>
      </trkpt>
      <trkpt lat="48.62131" lon="6.42093">
        <ele>278.4</ele>
        <time>2022-03-03T14:19:18Z</time>
      </trkpt>
      <trkpt lat="48.62114" lon="6.42123">
        <ele>279.4</ele>
        <time>2022-03-03T14:19:24Z</time>
      </trkpt>
      <trkpt lat="48.62098" lon="6.42148">
        <ele>280.2</ele>
        <time>2022-03-03T14:19:29Z</time>
      </trkpt>
      <trkpt lat="48.62082" lon="6.42175">
        <ele>281.4</ele>
        <time>2022-03-03T14:19:34Z</time>
      </trkpt>
      <trkpt lat="48.62067" lon="6.42203">
        <ele>282.4</ele>
        <time>2022-03-03T14:19:39Z</time>
      </trkpt>
      <trkpt lat="48.62051" lon="6.4223">
        <ele>283</ele>
        <time>2022-03-03T14:19:44Z</time>
      </trkpt>
      <trkpt lat="48.62036" lon="6.42258">
        <ele>283.6</ele>
        <time>2022-03-03T14:19:49Z</time>
      </trkpt>
      <trkpt lat="48.62023" lon="6.42288">
        <ele>283.8</ele>
        <time>2022-03-03T14:19:54Z</time>
      </trkpt>
      <trkpt lat="48.62007" lon="6.42321">
        <ele>284</ele>
        <time>2022-03-03T14:19:59Z</time>
      </trkpt>
      <trkpt lat="48.61992" lon="6.42353">
        <ele>283.8</ele>
        <time>2022-03-03T14:20:04Z</time>
      </trkpt>
      <trkpt lat="48.61981" lon="6.42375">
        <ele>284</ele>
        <time>2022-03-03T14:20:08Z</time>
      </trkpt>
      <trkpt lat="48.61978" lon="6.42381">
        <ele>284</ele>
        <time>2022-03-03T14:20:09Z</time>
      </trkpt>
      <trkpt lat="48.61962" lon="6.42415">
        <ele>283.8</ele>
        <time>2022-03-03T14:20:14Z</time>
      </trkpt>
      <trkpt lat="48.61947" lon="6.42443">
        <ele>283.8</ele>
        <time>2022-03-03T14:20:18Z</time>
      </trkpt>
      <trkpt lat="48.61932" lon="6.42471">
        <ele>283.8</ele>
        <time>2022-03-03T14:20:22Z</time>
      </trkpt>
      <trkpt lat="48.61918" lon="6.425">
        <ele>284</ele>
        <time>2022-03-03T14:20:26Z</time>
      </trkpt>
      <trkpt lat="48.61904" lon="6.42531">
        <ele>284.4</ele>
        <time>2022-03-03T14:20:30Z</time>
      </trkpt>
      <trkpt lat="48.61889" lon="6.42566">
        <ele>284.6</ele>
        <time>2022-03-03T14:20:34Z</time>
      </trkpt>
      <trkpt lat="48.61873" lon="6.42601">
        <ele>284.2</ele>
        <time>2022-03-03T14:20:38Z</time>
      </trkpt>
      <trkpt lat="48.61859" lon="6.42634">
        <ele>284.2</ele>
        <time>2022-03-03T14:20:42Z</time>
      </trkpt>
      <trkpt lat="48.61853" lon="6.42652">
        <ele>284.2</ele>
        <time>2022-03-03T14:20:44Z</time>
      </trkpt>
      <trkpt lat="48.61851" lon="6.42662">
        <ele>284.4</ele>
        <time>2022-03-03T14:20:45Z</time>
      </trkpt>
      <trkpt lat="48.6185" lon="6.42672">
        <ele>284.4</ele>
        <time>2022-03-03T14:20:46Z</time>
      </trkpt>
      <trkpt lat="48.61849" lon="6.42682">
        <ele>284.4</ele>
        <time>2022-03-03T14:20:47Z</time>
      </trkpt>
      <trkpt lat="48.61848" lon="6.42691">
        <ele>284.4</ele>
        <time>2022-03-03T14:20:48Z</time>
      </trkpt>
      <trkpt lat="48.61847" lon="6.42702">
        <ele>284.4</ele>
        <time>2022-03-03T14:20:49Z</time>
      </trkpt>
      <trkpt lat="48.61847" lon="6.42711">
        <ele>284.4</ele>
        <time>2022-03-03T14:20:50Z</time>
      </trkpt>
      <trkpt lat="48.61847" lon="6.42722">
        <ele>284.4</ele>
        <time>2022-03-03T14:20:51Z</time>
      </trkpt>
      <trkpt lat="48.61847" lon="6.42742">
        <ele>284.6</ele>
        <time>2022-03-03T14:20:53Z</time>
      </trkpt>
      <trkpt lat="48.61846" lon="6.42786">
        <ele>285.2</ele>
        <time>2022-03-03T14:20:58Z</time>
      </trkpt>
      <trkpt lat="48.61849" lon="6.42824">
        <ele>285</ele>
        <time>2022-03-03T14:21:04Z</time>
      </trkpt>
      <trkpt lat="48.61848" lon="6.42861">
        <ele>284.2</ele>
        <time>2022-03-03T14:21:10Z</time>
      </trkpt>
      <trkpt lat="48.61837" lon="6.42882">
        <ele>282.8</ele>
        <time>2022-03-03T14:21:15Z</time>
      </trkpt>
      <trkpt lat="48.61834" lon="6.42885">
        <ele>282.4</ele>
        <time>2022-03-03T14:21:17Z</time>
      </trkpt>
      <trkpt lat="48.61826" lon="6.42907">
        <ele>282</ele>
        <time>2022-03-03T14:22:01Z</time>
      </trkpt>
      <trkpt lat="48.61827" lon="6.42905">
        <ele>282</ele>
        <time>2022-03-03T14:22:22Z</time>
      </trkpt>
      <trkpt lat="48.6182" lon="6.42898">
        <ele>281.6</ele>
        <time>2022-03-03T14:22:50Z</time>
      </trkpt>
      <trkpt lat="48.61798" lon="6.42872">
        <ele>278.4</ele>
        <time>2022-03-03T14:22:55Z</time>
      </trkpt>
      <trkpt lat="48.61772" lon="6.42844">
        <ele>275.6</ele>
        <time>2022-03-03T14:22:58Z</time>
      </trkpt>
      <trkpt lat="48.61744" lon="6.42809">
        <ele>272.2</ele>
        <time>2022-03-03T14:23:01Z</time>
      </trkpt>
      <trkpt lat="48.61736" lon="6.42794">
        <ele>271.2</ele>
        <time>2022-03-03T14:23:02Z</time>
      </trkpt>
      <trkpt lat="48.61716" lon="6.42748">
        <ele>268</ele>
        <time>2022-03-03T14:23:05Z</time>
      </trkpt>
      <trkpt lat="48.61704" lon="6.42716">
        <ele>267</ele>
        <time>2022-03-03T14:23:07Z</time>
      </trkpt>
      <trkpt lat="48.61693" lon="6.42681">
        <ele>265.8</ele>
        <time>2022-03-03T14:23:09Z</time>
      </trkpt>
      <trkpt lat="48.61681" lon="6.42644">
        <ele>264.2</ele>
        <time>2022-03-03T14:23:11Z</time>
      </trkpt>
      <trkpt lat="48.61668" lon="6.42602">
        <ele>261.4</ele>
        <time>2022-03-03T14:23:13Z</time>
      </trkpt>
      <trkpt lat="48.61659" lon="6.42558">
        <ele>258.8</ele>
        <time>2022-03-03T14:23:15Z</time>
      </trkpt>
      <trkpt lat="48.61656" lon="6.42514">
        <ele>256</ele>
        <time>2022-03-03T14:23:17Z</time>
      </trkpt>
      <trkpt lat="48.61656" lon="6.42469">
        <ele>253.4</ele>
        <time>2022-03-03T14:23:19Z</time>
      </trkpt>
      <trkpt lat="48.61661" lon="6.42425">
        <ele>251.2</ele>
        <time>2022-03-03T14:23:21Z</time>
      </trkpt>
      <trkpt lat="48.61666" lon="6.42403">
        <ele>250.2</ele>
        <time>2022-03-03T14:23:22Z</time>
      </trkpt>
      <trkpt lat="48.61674" lon="6.42362">
        <ele>248.6</ele>
        <time>2022-03-03T14:23:24Z</time>
      </trkpt>
      <trkpt lat="48.61679" lon="6.4232">
        <ele>247</ele>
        <time>2022-03-03T14:23:26Z</time>
      </trkpt>
      <trkpt lat="48.61682" lon="6.4228">
        <ele>245.2</ele>
        <time>2022-03-03T14:23:28Z</time>
      </trkpt>
      <trkpt lat="48.61685" lon="6.42261">
        <ele>244.2</ele>
        <time>2022-03-03T14:23:29Z</time>
      </trkpt>
      <trkpt lat="48.6169" lon="6.42243">
        <ele>243.2</ele>
        <time>2022-03-03T14:23:30Z</time>
      </trkpt>
      <trkpt lat="48.61697" lon="6.42227">
        <ele>242.4</ele>
        <time>2022-03-03T14:23:31Z</time>
      </trkpt>
      <trkpt lat="48.61715" lon="6.42181">
        <ele>241</ele>
        <time>2022-03-03T14:23:34Z</time>
      </trkpt>
      <trkpt lat="48.61734" lon="6.4214">
        <ele>240</ele>
        <time>2022-03-03T14:23:37Z</time>
      </trkpt>
      <trkpt lat="48.61751" lon="6.42102">
        <ele>239.2</ele>
        <time>2022-03-03T14:23:40Z</time>
      </trkpt>
      <trkpt lat="48.61756" lon="6.42089">
        <ele>238.6</ele>
        <time>2022-03-03T14:23:41Z</time>
      </trkpt>
      <trkpt lat="48.61759" lon="6.42077">
        <ele>238.2</ele>
        <time>2022-03-03T14:23:42Z</time>
      </trkpt>
      <trkpt lat="48.6176" lon="6.42063">
        <ele>237.8</ele>
        <time>2022-03-03T14:23:43Z</time>
      </trkpt>
      <trkpt lat="48.6176" lon="6.42051">
        <ele>237.4</ele>
        <time>2022-03-03T14:23:44Z</time>
      </trkpt>
      <trkpt lat="48.6176" lon="6.42038">
        <ele>237</ele>
        <time>2022-03-03T14:23:45Z</time>
      </trkpt>
      <trkpt lat="48.61759" lon="6.42025">
        <ele>236.8</ele>
        <time>2022-03-03T14:23:46Z</time>
      </trkpt>
      <trkpt lat="48.61754" lon="6.41987">
        <ele>236.4</ele>
        <time>2022-03-03T14:23:49Z</time>
      </trkpt>
      <trkpt lat="48.61749" lon="6.41965">
        <ele>236.2</ele>
        <time>2022-03-03T14:23:51Z</time>
      </trkpt>
      <trkpt lat="48.61745" lon="6.41954">
        <ele>236.2</ele>
        <time>2022-03-03T14:23:52Z</time>
      </trkpt>
      <trkpt lat="48.61732" lon="6.41927">
        <ele>236</ele>
        <time>2022-03-03T14:23:55Z</time>
      </trkpt>
      <trkpt lat="48.61712" lon="6.419">
        <ele>236.8</ele>
        <time>2022-03-03T14:23:59Z</time>
      </trkpt>
      <trkpt lat="48.61707" lon="6.41896">
        <ele>237.4</ele>
        <time>2022-03-03T14:24:00Z</time>
      </trkpt>
      <trkpt lat="48.61702" lon="6.41893">
        <ele>237.8</ele>
        <time>2022-03-03T14:24:01Z</time>
      </trkpt>
      <trkpt lat="48.61697" lon="6.41892">
        <ele>238.2</ele>
        <time>2022-03-03T14:24:02Z</time>
      </trkpt>
      <trkpt lat="48.61692" lon="6.41891">
        <ele>238.6</ele>
        <time>2022-03-03T14:24:03Z</time>
      </trkpt>
      <trkpt lat="48.61687" lon="6.4189">
        <ele>238.8</ele>
        <time>2022-03-03T14:24:04Z</time>
      </trkpt>
      <trkpt lat="48.61661" lon="6.4189">
        <ele>239.6</ele>
        <time>2022-03-03T14:24:09Z</time>
      </trkpt>
      <trkpt lat="48.61636" lon="6.41888">
        <ele>239.8</ele>
        <time>2022-03-03T14:24:13Z</time>
      </trkpt>
      <trkpt lat="48.6161" lon="6.41883">
        <ele>239.8</ele>
        <time>2022-03-03T14:24:17Z</time>
      </trkpt>
      <trkpt lat="48.61583" lon="6.41878">
        <ele>240.2</ele>
        <time>2022-03-03T14:24:21Z</time>
      </trkpt>
      <trkpt lat="48.61558" lon="6.41869">
        <ele>240.6</ele>
        <time>2022-03-03T14:24:25Z</time>
      </trkpt>
      <trkpt lat="48.61533" lon="6.4186">
        <ele>241.4</ele>
        <time>2022-03-03T14:24:29Z</time>
      </trkpt>
      <trkpt lat="48.61508" lon="6.41851">
        <ele>241.8</ele>
        <time>2022-03-03T14:24:33Z</time>
      </trkpt>
      <trkpt lat="48.61484" lon="6.41837">
        <ele>242</ele>
        <time>2022-03-03T14:24:37Z</time>
      </trkpt>
      <trkpt lat="48.61478" lon="6.41833">
        <ele>242</ele>
        <time>2022-03-03T14:24:38Z</time>
      </trkpt>
      <trkpt lat="48.61454" lon="6.41815">
        <ele>242.6</ele>
        <time>2022-03-03T14:24:42Z</time>
      </trkpt>
      <trkpt lat="48.6143" lon="6.418">
        <ele>243</ele>
        <time>2022-03-03T14:24:46Z</time>
      </trkpt>
      <trkpt lat="48.61405" lon="6.41785">
        <ele>243.6</ele>
        <time>2022-03-03T14:24:50Z</time>
      </trkpt>
      <trkpt lat="48.61382" lon="6.4177">
        <ele>244</ele>
        <time>2022-03-03T14:24:54Z</time>
      </trkpt>
      <trkpt lat="48.61357" lon="6.41754">
        <ele>244.2</ele>
        <time>2022-03-03T14:24:58Z</time>
      </trkpt>
      <trkpt lat="48.61333" lon="6.41737">
        <ele>244.4</ele>
        <time>2022-03-03T14:25:02Z</time>
      </trkpt>
      <trkpt lat="48.6131" lon="6.41717">
        <ele>244.6</ele>
        <time>2022-03-03T14:25:06Z</time>
      </trkpt>
      <trkpt lat="48.61289" lon="6.41695">
        <ele>245</ele>
        <time>2022-03-03T14:25:10Z</time>
      </trkpt>
      <trkpt lat="48.61268" lon="6.41668">
        <ele>245.6</ele>
        <time>2022-03-03T14:25:14Z</time>
      </trkpt>
      <trkpt lat="48.61253" lon="6.41636">
        <ele>246.2</ele>
        <time>2022-03-03T14:25:18Z</time>
      </trkpt>
      <trkpt lat="48.6124" lon="6.416">
        <ele>246.8</ele>
        <time>2022-03-03T14:25:22Z</time>
      </trkpt>
      <trkpt lat="48.61229" lon="6.41575">
        <ele>247.4</ele>
        <time>2022-03-03T14:25:25Z</time>
      </trkpt>
      <trkpt lat="48.61212" lon="6.41545">
        <ele>248.4</ele>
        <time>2022-03-03T14:25:29Z</time>
      </trkpt>
      <trkpt lat="48.61194" lon="6.41517">
        <ele>249.2</ele>
        <time>2022-03-03T14:25:33Z</time>
      </trkpt>
      <trkpt lat="48.61177" lon="6.41487">
        <ele>250</ele>
        <time>2022-03-03T14:25:37Z</time>
      </trkpt>
      <trkpt lat="48.61161" lon="6.41458">
        <ele>250.6</ele>
        <time>2022-03-03T14:25:41Z</time>
      </trkpt>
      <trkpt lat="48.61147" lon="6.41427">
        <ele>251.4</ele>
        <time>2022-03-03T14:25:45Z</time>
      </trkpt>
      <trkpt lat="48.61135" lon="6.41399">
        <ele>251.8</ele>
        <time>2022-03-03T14:25:49Z</time>
      </trkpt>
      <trkpt lat="48.61125" lon="6.41372">
        <ele>252.4</ele>
        <time>2022-03-03T14:25:53Z</time>
      </trkpt>
      <trkpt lat="48.61122" lon="6.41365">
        <ele>252.4</ele>
        <time>2022-03-03T14:25:54Z</time>
      </trkpt>
      <trkpt lat="48.61115" lon="6.41345">
        <ele>253</ele>
        <time>2022-03-03T14:25:57Z</time>
      </trkpt>
      <trkpt lat="48.61112" lon="6.41339">
        <ele>253</ele>
        <time>2022-03-03T14:25:58Z</time>
      </trkpt>
      <trkpt lat="48.611" lon="6.41306">
        <ele>253.2</ele>
        <time>2022-03-03T14:26:03Z</time>
      </trkpt>
      <trkpt lat="48.61097" lon="6.41301">
        <ele>253.4</ele>
        <time>2022-03-03T14:26:04Z</time>
      </trkpt>
      <trkpt lat="48.61092" lon="6.4129">
        <ele>253.8</ele>
        <time>2022-03-03T14:26:06Z</time>
      </trkpt>
      <trkpt lat="48.6109" lon="6.41284">
        <ele>254</ele>
        <time>2022-03-03T14:26:07Z</time>
      </trkpt>
      <trkpt lat="48.6109" lon="6.41279">
        <ele>254.2</ele>
        <time>2022-03-03T14:26:08Z</time>
      </trkpt>
      <trkpt lat="48.61091" lon="6.41273">
        <ele>254.4</ele>
        <time>2022-03-03T14:26:09Z</time>
      </trkpt>
      <trkpt lat="48.61093" lon="6.4127">
        <ele>254.6</ele>
        <time>2022-03-03T14:26:10Z</time>
      </trkpt>
      <trkpt lat="48.61096" lon="6.41268">
        <ele>255</ele>
        <time>2022-03-03T14:26:11Z</time>
      </trkpt>
      <trkpt lat="48.61099" lon="6.41267">
        <ele>255.4</ele>
        <time>2022-03-03T14:26:12Z</time>
      </trkpt>
      <trkpt lat="48.61103" lon="6.41266">
        <ele>255.6</ele>
        <time>2022-03-03T14:26:13Z</time>
      </trkpt>
      <trkpt lat="48.61126" lon="6.41259">
        <ele>257.2</ele>
        <time>2022-03-03T14:26:19Z</time>
      </trkpt>
      <trkpt lat="48.61148" lon="6.41257">
        <ele>259.2</ele>
        <time>2022-03-03T14:26:26Z</time>
      </trkpt>
      <trkpt lat="48.61168" lon="6.41257">
        <ele>261.8</ele>
        <time>2022-03-03T14:26:33Z</time>
      </trkpt>
      <trkpt lat="48.61188" lon="6.41252">
        <ele>264.4</ele>
        <time>2022-03-03T14:26:40Z</time>
      </trkpt>
      <trkpt lat="48.61209" lon="6.41243">
        <ele>266.8</ele>
        <time>2022-03-03T14:26:47Z</time>
      </trkpt>
      <trkpt lat="48.61228" lon="6.41231">
        <ele>268.8</ele>
        <time>2022-03-03T14:26:53Z</time>
      </trkpt>
      <trkpt lat="48.61247" lon="6.41212">
        <ele>269.2</ele>
        <time>2022-03-03T14:27:01Z</time>
      </trkpt>
      <trkpt lat="48.61262" lon="6.41196">
        <ele>269.4</ele>
        <time>2022-03-03T14:27:08Z</time>
      </trkpt>
      <trkpt lat="48.61262" lon="6.41193">
        <ele>269.4</ele>
        <time>2022-03-03T14:27:09Z</time>
      </trkpt>
      <trkpt lat="48.6126" lon="6.41191">
        <ele>269.4</ele>
        <time>2022-03-03T14:27:10Z</time>
      </trkpt>
      <trkpt lat="48.61259" lon="6.41191">
        <ele>269.4</ele>
        <time>2022-03-03T14:27:11Z</time>
      </trkpt>
      <trkpt lat="48.61258" lon="6.41192">
        <ele>269.6</ele>
        <time>2022-03-03T14:27:12Z</time>
      </trkpt>
      <trkpt lat="48.61258" lon="6.41193">
        <ele>269.6</ele>
        <time>2022-03-03T14:27:13Z</time>
      </trkpt>
      <trkpt lat="48.61261" lon="6.41195">
        <ele>269.6</ele>
        <time>2022-03-03T14:27:33Z</time>
      </trkpt>
      <trkpt lat="48.61262" lon="6.41196">
        <ele>269.6</ele>
        <time>2022-03-03T14:27:34Z</time>
      </trkpt>
      <trkpt lat="48.61263" lon="6.41194">
        <ele>269.6</ele>
        <time>2022-03-03T14:27:35Z</time>
      </trkpt>
      <trkpt lat="48.61265" lon="6.41191">
        <ele>269.6</ele>
        <time>2022-03-03T14:27:36Z</time>
      </trkpt>
      <trkpt lat="48.61268" lon="6.41188">
        <ele>269.6</ele>
        <time>2022-03-03T14:27:37Z</time>
      </trkpt>
      <trkpt lat="48.61271" lon="6.41185">
        <ele>269.6</ele>
        <time>2022-03-03T14:27:38Z</time>
      </trkpt>
      <trkpt lat="48.61274" lon="6.41181">
        <ele>269.8</ele>
        <time>2022-03-03T14:27:39Z</time>
      </trkpt>
      <trkpt lat="48.61292" lon="6.4116">
        <ele>270</ele>
        <time>2022-03-03T14:27:45Z</time>
      </trkpt>
      <trkpt lat="48.61312" lon="6.41137">
        <ele>270.2</ele>
        <time>2022-03-03T14:27:51Z</time>
      </trkpt>
      <trkpt lat="48.6133" lon="6.41116">
        <ele>269.8</ele>
        <time>2022-03-03T14:27:56Z</time>
      </trkpt>
      <trkpt lat="48.61351" lon="6.41092">
        <ele>269.4</ele>
        <time>2022-03-03T14:28:01Z</time>
      </trkpt>
      <trkpt lat="48.61371" lon="6.41065">
        <ele>268.6</ele>
        <time>2022-03-03T14:28:05Z</time>
      </trkpt>
      <trkpt lat="48.61388" lon="6.41039">
        <ele>266.8</ele>
        <time>2022-03-03T14:28:08Z</time>
      </trkpt>
      <trkpt lat="48.61407" lon="6.41003">
        <ele>264.4</ele>
        <time>2022-03-03T14:28:11Z</time>
      </trkpt>
      <trkpt lat="48.61429" lon="6.40962">
        <ele>260.8</ele>
        <time>2022-03-03T14:28:14Z</time>
      </trkpt>
      <trkpt lat="48.61446" lon="6.40933">
        <ele>258.4</ele>
        <time>2022-03-03T14:28:16Z</time>
      </trkpt>
      <trkpt lat="48.61467" lon="6.40902">
        <ele>255.4</ele>
        <time>2022-03-03T14:28:18Z</time>
      </trkpt>
      <trkpt lat="48.6149" lon="6.40873">
        <ele>252.6</ele>
        <time>2022-03-03T14:28:20Z</time>
      </trkpt>
      <trkpt lat="48.61515" lon="6.40846">
        <ele>249.8</ele>
        <time>2022-03-03T14:28:22Z</time>
      </trkpt>
      <trkpt lat="48.61541" lon="6.40823">
        <ele>247.4</ele>
        <time>2022-03-03T14:28:24Z</time>
      </trkpt>
      <trkpt lat="48.61565" lon="6.408">
        <ele>246</ele>
        <time>2022-03-03T14:28:26Z</time>
      </trkpt>
      <trkpt lat="48.61588" lon="6.40779">
        <ele>245.4</ele>
        <time>2022-03-03T14:28:28Z</time>
      </trkpt>
      <trkpt lat="48.61634" lon="6.40733">
        <ele>245.4</ele>
        <time>2022-03-03T14:28:33Z</time>
      </trkpt>
      <trkpt lat="48.6165" lon="6.40721">
        <ele>246.6</ele>
        <time>2022-03-03T14:28:35Z</time>
      </trkpt>
      <trkpt lat="48.61658" lon="6.40719">
        <ele>247.6</ele>
        <time>2022-03-03T14:28:36Z</time>
      </trkpt>
      <trkpt lat="48.61665" lon="6.40717">
        <ele>248.4</ele>
        <time>2022-03-03T14:28:37Z</time>
      </trkpt>
      <trkpt lat="48.61687" lon="6.40718">
        <ele>251.2</ele>
        <time>2022-03-03T14:28:41Z</time>
      </trkpt>
      <trkpt lat="48.61708" lon="6.40722">
        <ele>252.8</ele>
        <time>2022-03-03T14:28:46Z</time>
      </trkpt>
      <trkpt lat="48.6173" lon="6.40725">
        <ele>254.8</ele>
        <time>2022-03-03T14:28:51Z</time>
      </trkpt>
      <trkpt lat="48.61743" lon="6.40727">
        <ele>256.4</ele>
        <time>2022-03-03T14:28:54Z</time>
      </trkpt>
      <trkpt lat="48.61765" lon="6.40725">
        <ele>259</ele>
        <time>2022-03-03T14:28:59Z</time>
      </trkpt>
      <trkpt lat="48.61782" lon="6.40721">
        <ele>260.8</ele>
        <time>2022-03-03T14:29:03Z</time>
      </trkpt>
      <trkpt lat="48.61786" lon="6.40718">
        <ele>261.4</ele>
        <time>2022-03-03T14:29:04Z</time>
      </trkpt>
      <trkpt lat="48.6179" lon="6.40715">
        <ele>261.8</ele>
        <time>2022-03-03T14:29:05Z</time>
      </trkpt>
      <trkpt lat="48.61793" lon="6.40711">
        <ele>262.2</ele>
        <time>2022-03-03T14:29:06Z</time>
      </trkpt>
      <trkpt lat="48.61796" lon="6.40707">
        <ele>262.4</ele>
        <time>2022-03-03T14:29:07Z</time>
      </trkpt>
      <trkpt lat="48.61798" lon="6.40703">
        <ele>262.6</ele>
        <time>2022-03-03T14:29:08Z</time>
      </trkpt>
      <trkpt lat="48.61801" lon="6.40698">
        <ele>262.6</ele>
        <time>2022-03-03T14:29:09Z</time>
      </trkpt>
      <trkpt lat="48.61803" lon="6.40693">
        <ele>262.8</ele>
        <time>2022-03-03T14:29:10Z</time>
      </trkpt>
      <trkpt lat="48.61808" lon="6.40676">
        <ele>262.8</ele>
        <time>2022-03-03T14:29:13Z</time>
      </trkpt>
      <trkpt lat="48.6181" lon="6.40669">
        <ele>262.6</ele>
        <time>2022-03-03T14:29:14Z</time>
      </trkpt>
      <trkpt lat="48.61812" lon="6.40661">
        <ele>262.4</ele>
        <time>2022-03-03T14:29:15Z</time>
      </trkpt>
      <trkpt lat="48.61821" lon="6.40622">
        <ele>261</ele>
        <time>2022-03-03T14:29:19Z</time>
      </trkpt>
      <trkpt lat="48.61827" lon="6.40588">
        <ele>259.4</ele>
        <time>2022-03-03T14:29:22Z</time>
      </trkpt>
      <trkpt lat="48.61836" lon="6.4055">
        <ele>258.6</ele>
        <time>2022-03-03T14:29:25Z</time>
      </trkpt>
      <trkpt lat="48.61844" lon="6.40513">
        <ele>257.4</ele>
        <time>2022-03-03T14:29:28Z</time>
      </trkpt>
      <trkpt lat="48.61853" lon="6.40473">
        <ele>256</ele>
        <time>2022-03-03T14:29:31Z</time>
      </trkpt>
      <trkpt lat="48.61863" lon="6.40431">
        <ele>254.8</ele>
        <time>2022-03-03T14:29:34Z</time>
      </trkpt>
      <trkpt lat="48.6187" lon="6.40389">
        <ele>253.2</ele>
        <time>2022-03-03T14:29:37Z</time>
      </trkpt>
      <trkpt lat="48.61876" lon="6.40346">
        <ele>252</ele>
        <time>2022-03-03T14:29:40Z</time>
      </trkpt>
      <trkpt lat="48.61884" lon="6.40304">
        <ele>251.4</ele>
        <time>2022-03-03T14:29:43Z</time>
      </trkpt>
      <trkpt lat="48.61894" lon="6.40263">
        <ele>250.6</ele>
        <time>2022-03-03T14:29:46Z</time>
      </trkpt>
      <trkpt lat="48.61901" lon="6.40226">
        <ele>250</ele>
        <time>2022-03-03T14:29:49Z</time>
      </trkpt>
      <trkpt lat="48.61907" lon="6.40191">
        <ele>250</ele>
        <time>2022-03-03T14:29:52Z</time>
      </trkpt>
      <trkpt lat="48.61909" lon="6.40168">
        <ele>249.8</ele>
        <time>2022-03-03T14:29:54Z</time>
      </trkpt>
      <trkpt lat="48.61912" lon="6.40135">
        <ele>249.8</ele>
        <time>2022-03-03T14:29:57Z</time>
      </trkpt>
      <trkpt lat="48.6192" lon="6.40091">
        <ele>249</ele>
        <time>2022-03-03T14:30:01Z</time>
      </trkpt>
      <trkpt lat="48.61925" lon="6.40054">
        <ele>248</ele>
        <time>2022-03-03T14:30:04Z</time>
      </trkpt>
      <trkpt lat="48.61931" lon="6.40012">
        <ele>246.4</ele>
        <time>2022-03-03T14:30:07Z</time>
      </trkpt>
      <trkpt lat="48.61935" lon="6.39999">
        <ele>246.2</ele>
        <time>2022-03-03T14:30:08Z</time>
      </trkpt>
      <trkpt lat="48.61939" lon="6.39987">
        <ele>245.8</ele>
        <time>2022-03-03T14:30:09Z</time>
      </trkpt>
      <trkpt lat="48.61943" lon="6.39976">
        <ele>245.2</ele>
        <time>2022-03-03T14:30:10Z</time>
      </trkpt>
      <trkpt lat="48.61948" lon="6.39966">
        <ele>245</ele>
        <time>2022-03-03T14:30:11Z</time>
      </trkpt>
      <trkpt lat="48.61964" lon="6.39934">
        <ele>243.8</ele>
        <time>2022-03-03T14:30:15Z</time>
      </trkpt>
      <trkpt lat="48.61967" lon="6.39925">
        <ele>243.6</ele>
        <time>2022-03-03T14:30:16Z</time>
      </trkpt>
      <trkpt lat="48.61966" lon="6.39916">
        <ele>243.4</ele>
        <time>2022-03-03T14:30:17Z</time>
      </trkpt>
      <trkpt lat="48.61963" lon="6.39909">
        <ele>243.4</ele>
        <time>2022-03-03T14:30:18Z</time>
      </trkpt>
      <trkpt lat="48.6196" lon="6.39901">
        <ele>243.6</ele>
        <time>2022-03-03T14:30:19Z</time>
      </trkpt>
      <trkpt lat="48.61956" lon="6.39894">
        <ele>243.6</ele>
        <time>2022-03-03T14:30:20Z</time>
      </trkpt>
      <trkpt lat="48.61942" lon="6.39866">
        <ele>244</ele>
        <time>2022-03-03T14:30:24Z</time>
      </trkpt>
      <trkpt lat="48.61928" lon="6.39841">
        <ele>244.2</ele>
        <time>2022-03-03T14:30:28Z</time>
      </trkpt>
      <trkpt lat="48.61915" lon="6.39812">
        <ele>244.8</ele>
        <time>2022-03-03T14:30:33Z</time>
      </trkpt>
      <trkpt lat="48.61903" lon="6.39786">
        <ele>245.2</ele>
        <time>2022-03-03T14:30:39Z</time>
      </trkpt>
      <trkpt lat="48.619" lon="6.39779">
        <ele>245.2</ele>
        <time>2022-03-03T14:30:42Z</time>
      </trkpt>
      <trkpt lat="48.61899" lon="6.39777">
        <ele>245.6</ele>
        <time>2022-03-03T14:30:44Z</time>
      </trkpt>
    </trkseg>
  </trk>
</gpx>